Wetterdaten: Samstag, 08.04.2017
Datum Zeit Temp. A. Temp. A. max Feuchte A. Luftdruck Regen Wind Richtung Richtung Sonnenschein ET UV Solar Taupunkt Windchill Windböen
08.04.2017 00:00 5,6 °C 5,6 °C 83 % 1024,6 hPa 0,0 mm 3,2 km/h (1 Bft) S 180 ° 0 min 0,025 mm 0,0 UV-I 0 W/m² 2,9 °C 5,6 °C 4,8 km/h (1 Bft)
08.04.2017 00:01 5,6 °C 5,6 °C 83 % 1024,4 hPa 0,0 mm 3,2 km/h (1 Bft) S 180 ° 0 min 0,000 mm 0,0 UV-I 0 W/m² 2,9 °C 5,6 °C 6,4 km/h (2 Bft)
08.04.2017 00:02 5,6 °C 5,6 °C 83 % 1024,4 hPa 0,0 mm 4,8 km/h (1 Bft) S-SW 202 ° 0 min 0,000 mm 0,0 UV-I 0 W/m² 2,9 °C 4,8 °C 6,4 km/h (2 Bft)
08.04.2017 00:04 5,6 °C 5,6 °C 83 % 1024,4 hPa 0,0 mm 4,9 km/h (1 Bft) S 170 ° 0 min 0,000 mm 0,0 UV-I 0 W/m² 2,9 °C 4,8 °C 6,4 km/h (2 Bft)
08.04.2017 00:05 5,6 °C 5,6 °C 83 % 1024,4 hPa 0,0 mm 5,0 km/h (1 Bft) S 186 ° 0 min 0,000 mm 0,0 UV-I 0 W/m² 2,9 °C 4,8 °C 6,4 km/h (2 Bft)
08.04.2017 00:06 5,7 °C 5,7 °C 83 % 1024,4 hPa 0,0 mm 3,6 km/h (1 Bft) S 172 ° 0 min 0,000 mm 0,0 UV-I 0 W/m² 3,0 °C 5,7 °C 4,8 km/h (1 Bft)
08.04.2017 00:07 5,7 °C 5,7 °C 82 % 1024,4 hPa 0,0 mm 4,0 km/h (1 Bft) S 181 ° 0 min 0,000 mm 0,0 UV-I 0 W/m² 2,9 °C 5,7 °C 4,8 km/h (1 Bft)
08.04.2017 00:08 5,8 °C 5,8 °C 82 % 1024,4 hPa 0,0 mm 3,9 km/h (1 Bft) S 188 ° 0 min 0,000 mm 0,0 UV-I 0 W/m² 3,0 °C 5,8 °C 4,8 km/h (1 Bft)
08.04.2017 00:09 5,8 °C 5,8 °C 82 % 1024,4 hPa 0,0 mm 3,7 km/h (1 Bft) S 184 ° 0 min 0,000 mm 0,0 UV-I 0 W/m² 3,0 °C 5,8 °C 4,8 km/h (1 Bft)
08.04.2017 00:26 5,6 °C 5,6 °C 83 % 1024,4 hPa 0,0 mm 3,2 km/h (1 Bft) S-SW 202 ° 0 min 0,000 mm 0,0 UV-I 0 W/m² 2,9 °C 5,6 °C 6,4 km/h (2 Bft)
08.04.2017 00:27 5,6 °C 5,6 °C 83 % 1024,4 hPa 0,0 mm 4,8 km/h (1 Bft) S-SO 157 ° 0 min 0,000 mm 0,0 UV-I 0 W/m² 2,9 °C 4,8 °C 6,4 km/h (2 Bft)
08.04.2017 00:28 5,6 °C 5,6 °C 83 % 1024,4 hPa 0,0 mm 4,8 km/h (1 Bft) S 180 ° 0 min 0,000 mm 0,0 UV-I 0 W/m² 2,9 °C 4,8 °C 8,0 km/h (2 Bft)
08.04.2017 00:29 5,7 °C 5,7 °C 83 % 1024,4 hPa 0,0 mm 3,2 km/h (1 Bft) S 180 ° 0 min 0,000 mm 0,0 UV-I 0 W/m² 3,0 °C 5,7 °C 4,8 km/h (1 Bft)
08.04.2017 00:30 5,7 °C 5,7 °C 82 % 1024,4 hPa 0,0 mm 3,2 km/h (1 Bft) S 180 ° 0 min 0,000 mm 0,0 UV-I 0 W/m² 2,9 °C 5,7 °C 4,8 km/h (1 Bft)
08.04.2017 00:31 5,8 °C 5,8 °C 82 % 1024,4 hPa 0,0 mm 3,2 km/h (1 Bft) S 180 ° 0 min 0,000 mm 0,0 UV-I 0 W/m² 3,0 °C 5,8 °C 4,8 km/h (1 Bft)
08.04.2017 00:32 5,8 °C 5,8 °C 82 % 1024,4 hPa 0,0 mm 3,2 km/h (1 Bft) S 180 ° 0 min 0,000 mm 0,0 UV-I 0 W/m² 3,0 °C 5,8 °C 4,8 km/h (1 Bft)
08.04.2017 00:33 5,8 °C 5,8 °C 82 % 1024,4 hPa 0,0 mm 3,2 km/h (1 Bft) S 180 ° 0 min 0,000 mm 0,0 UV-I 0 W/m² 3,0 °C 5,8 °C 4,8 km/h (1 Bft)
08.04.2017 00:34 5,8 °C 5,8 °C 82 % 1024,4 hPa 0,0 mm 3,2 km/h (1 Bft) S 180 ° 0 min 0,000 mm 0,0 UV-I 0 W/m² 3,0 °C 5,8 °C 4,8 km/h (1 Bft)
08.04.2017 00:35 5,8 °C 5,8 °C 82 % 1024,3 hPa 0,0 mm 3,2 km/h (1 Bft) S 180 ° 0 min 0,000 mm 0,0 UV-I 0 W/m² 3,0 °C 5,8 °C 4,8 km/h (1 Bft)
08.04.2017 00:36 5,8 °C 5,8 °C 82 % 1024,3 hPa 0,0 mm 3,2 km/h (1 Bft) S 180 ° 0 min 0,000 mm 0,0 UV-I 0 W/m² 3,0 °C 5,8 °C 4,8 km/h (1 Bft)
08.04.2017 00:37 5,8 °C 5,8 °C 82 % 1024,3 hPa 0,0 mm 3,2 km/h (1 Bft) S 180 ° 0 min 0,000 mm 0,0 UV-I 0 W/m² 3,0 °C 5,8 °C 6,4 km/h (2 Bft)
08.04.2017 00:38 5,8 °C 5,8 °C 82 % 1024,4 hPa 0,0 mm 3,2 km/h (1 Bft) S 180 ° 0 min 0,000 mm 0,0 UV-I 0 W/m² 3,0 °C 5,8 °C 4,8 km/h (1 Bft)
08.04.2017 00:17 5,8 °C 5,8 °C 82 % 1024,3 hPa 0,0 mm 2,2 km/h (1 Bft) S 180 ° 0 min 0,000 mm 0,0 UV-I 0 W/m² 3,0 °C 5,8 °C 3,2 km/h (1 Bft)
08.04.2017 00:18 5,8 °C 5,8 °C 82 % 1024,4 hPa 0,0 mm 2,6 km/h (1 Bft) S 180 ° 0 min 0,000 mm 0,0 UV-I 0 W/m² 3,0 °C 5,8 °C 4,8 km/h (1 Bft)
08.04.2017 00:19 5,8 °C 5,8 °C 82 % 1024,4 hPa 0,0 mm 2,9 km/h (1 Bft) S 178 ° 0 min 0,000 mm 0,0 UV-I 0 W/m² 3,0 °C 5,8 °C 4,8 km/h (1 Bft)
08.04.2017 00:20 5,8 °C 5,8 °C 82 % 1024,3 hPa 0,0 mm 2,5 km/h (1 Bft) S 178 ° 0 min 0,000 mm 0,0 UV-I 0 W/m² 3,0 °C 5,8 °C 4,8 km/h (1 Bft)
08.04.2017 00:21 5,8 °C 5,8 °C 81 % 1024,4 hPa 0,0 mm 2,5 km/h (1 Bft) S 178 ° 0 min 0,000 mm 0,0 UV-I 0 W/m² 2,8 °C 5,8 °C 3,2 km/h (1 Bft)
08.04.2017 00:22 5,6 °C 5,8 °C 81 % 1024,4 hPa 0,0 mm 1,9 km/h (1 Bft) S 178 ° 0 min 0,000 mm 0,0 UV-I 0 W/m² 2,6 °C 5,6 °C 3,2 km/h (1 Bft)
08.04.2017 00:23 5,6 °C 5,6 °C 82 % 1024,3 hPa 0,0 mm 1,9 km/h (1 Bft) S 178 ° 0 min 0,000 mm 0,0 UV-I 0 W/m² 2,8 °C 5,6 °C 3,2 km/h (1 Bft)
08.04.2017 00:24 5,4 °C 5,6 °C 82 % 1024,4 hPa 0,0 mm 1,6 km/h (1 Bft) S 178 ° 0 min 0,000 mm 0,0 UV-I 0 W/m² 2,6 °C 5,4 °C 3,2 km/h (1 Bft)
08.04.2017 00:25 5,2 °C 5,4 °C 82 % 1024,4 hPa 0,0 mm 1,5 km/h (1 Bft) S 178 ° 0 min 0,000 mm 0,0 UV-I 0 W/m² 2,4 °C 5,2 °C 4,8 km/h (1 Bft)
08.04.2017 00:26 4,9 °C 5,2 °C 82 % 1024,4 hPa 0,0 mm 0,5 km/h (0 Bft) S 178 ° 0 min 0,000 mm 0,0 UV-I 0 W/m² 2,1 °C 4,9 °C 1,6 km/h (1 Bft)
08.04.2017 00:27 4,7 °C 4,9 °C 83 % 1024,4 hPa 0,0 mm 0,1 km/h (0 Bft) S 178 ° 0 min 0,000 mm 0,0 UV-I 0 W/m² 2,1 °C 4,7 °C 1,6 km/h (1 Bft)
08.04.2017 00:28 4,5 °C 4,7 °C 84 % 1024,3 hPa 0,0 mm 0,0 km/h (0 Bft) S 178 ° 0 min 0,000 mm 0,0 UV-I 0 W/m² 2,0 °C 4,5 °C 0,0 km/h (0 Bft)
08.04.2017 00:29 4,3 °C 4,5 °C 84 % 1024,4 hPa 0,0 mm 0,0 km/h (0 Bft) S 178 ° 0 min 0,000 mm 0,0 UV-I 0 W/m² 1,8 °C 4,3 °C 0,0 km/h (0 Bft)
08.04.2017 00:30 4,2 °C 4,3 °C 85 % 1024,4 hPa 0,0 mm 0,0 km/h (0 Bft) S 178 ° 0 min 0,000 mm 0,0 UV-I 0 W/m² 1,9 °C 4,2 °C 0,0 km/h (0 Bft)
08.04.2017 00:31 4,1 °C 4,2 °C 86 % 1024,4 hPa 0,0 mm 0,0 km/h (0 Bft) S 178 ° 0 min 0,000 mm 0,0 UV-I 0 W/m² 2,0 °C 4,1 °C 0,0 km/h (0 Bft)
08.04.2017 00:32 3,9 °C 4,1 °C 87 % 1024,3 hPa 0,0 mm 0,0 km/h (0 Bft) S 178 ° 0 min 0,000 mm 0,0 UV-I 0 W/m² 1,9 °C 3,9 °C 0,0 km/h (0 Bft)
08.04.2017 00:33 3,9 °C 3,9 °C 87 % 1024,4 hPa 0,0 mm 0,0 km/h (0 Bft) S 178 ° 0 min 0,000 mm 0,0 UV-I 0 W/m² 1,9 °C 3,9 °C 0,0 km/h (0 Bft)
08.04.2017 00:34 3,8 °C 3,9 °C 87 % 1024,4 hPa 0,0 mm 0,0 km/h (0 Bft) S 178 ° 0 min 0,000 mm 0,0 UV-I 0 W/m² 1,8 °C 3,8 °C 0,0 km/h (0 Bft)
08.04.2017 00:35 3,7 °C 3,8 °C 87 % 1024,4 hPa 0,0 mm 0,0 km/h (0 Bft) S 178 ° 0 min 0,000 mm 0,0 UV-I 0 W/m² 1,7 °C 3,7 °C 0,0 km/h (0 Bft)
08.04.2017 00:36 3,7 °C 3,7 °C 88 % 1024,4 hPa 0,0 mm 0,0 km/h (0 Bft) S 178 ° 0 min 0,000 mm 0,0 UV-I 0 W/m² 1,9 °C 3,7 °C 0,0 km/h (0 Bft)
08.04.2017 00:37 3,7 °C 3,7 °C 88 % 1024,3 hPa 0,0 mm 0,0 km/h (0 Bft) S 178 ° 0 min 0,000 mm 0,0 UV-I 0 W/m² 1,9 °C 3,7 °C 0,0 km/h (0 Bft)
08.04.2017 00:38 3,7 °C 3,7 °C 88 % 1024,3 hPa 0,0 mm 0,0 km/h (0 Bft) S 178 ° 0 min 0,000 mm 0,0 UV-I 0 W/m² 1,9 °C 3,7 °C 0,0 km/h (0 Bft)
08.04.2017 00:39 3,7 °C 3,7 °C 88 % 1024,4 hPa 0,0 mm 0,0 km/h (0 Bft) S 178 ° 0 min 0,000 mm 0,0 UV-I 0 W/m² 1,9 °C 3,7 °C 0,0 km/h (0 Bft)
08.04.2017 00:40 3,7 °C 3,7 °C 88 % 1024,3 hPa 0,0 mm 0,0 km/h (0 Bft) S 178 ° 0 min 0,000 mm 0,0 UV-I 0 W/m² 1,9 °C 3,7 °C 0,0 km/h (0 Bft)
08.04.2017 00:41 3,7 °C 3,7 °C 88 % 1024,3 hPa 0,0 mm 0,0 km/h (0 Bft) S 178 ° 0 min 0,000 mm 0,0 UV-I 0 W/m² 1,9 °C 3,7 °C 0,0 km/h (0 Bft)
08.04.2017 00:42 3,6 °C 3,7 °C 89 % 1024,4 hPa 0,0 mm 0,0 km/h (0 Bft) S 178 ° 0 min 0,000 mm 0,0 UV-I 0 W/m² 2,0 °C 3,6 °C 0,0 km/h (0 Bft)
08.04.2017 00:43 3,7 °C 3,7 °C 89 % 1024,4 hPa 0,0 mm 0,0 km/h (0 Bft) S 178 ° 0 min 0,000 mm 0,0 UV-I 0 W/m² 2,1 °C 3,7 °C 0,0 km/h (0 Bft)
08.04.2017 00:44 3,7 °C 3,7 °C 89 % 1024,4 hPa 0,0 mm 0,1 km/h (0 Bft) S 178 ° 0 min 0,000 mm 0,0 UV-I 0 W/m² 2,1 °C 3,7 °C 1,6 km/h (1 Bft)
08.04.2017 00:45 3,7 °C 3,7 °C 88 % 1024,4 hPa 0,0 mm 0,7 km/h (0 Bft) S 178 ° 0 min 0,000 mm 0,0 UV-I 0 W/m² 1,9 °C 3,7 °C 1,6 km/h (1 Bft)
08.04.2017 00:46 3,6 °C 3,7 °C 88 % 1024,4 hPa 0,0 mm 0,0 km/h (0 Bft) S 178 ° 0 min 0,000 mm 0,0 UV-I 0 W/m² 1,8 °C 3,6 °C 0,0 km/h (0 Bft)
08.04.2017 00:47 3,5 °C 3,6 °C 88 % 1024,4 hPa 0,0 mm 0,0 km/h (0 Bft) S 178 ° 0 min 0,000 mm 0,0 UV-I 0 W/m² 1,7 °C 3,5 °C 0,0 km/h (0 Bft)
08.04.2017 00:48 3,3 °C 3,5 °C 87 % 1024,4 hPa 0,0 mm 0,0 km/h (0 Bft) S 178 ° 0 min 0,000 mm 0,0 UV-I 0 W/m² 1,3 °C 3,3 °C 0,0 km/h (0 Bft)
08.04.2017 00:49 3,2 °C 3,3 °C 88 % 1024,4 hPa 0,0 mm 0,0 km/h (0 Bft) S 178 ° 0 min 0,000 mm 0,0 UV-I 0 W/m² 1,4 °C 3,2 °C 0,0 km/h (0 Bft)
08.04.2017 00:50 3,3 °C 3,3 °C 89 % 1024,4 hPa 0,0 mm 0,0 km/h (0 Bft) S 178 ° 0 min 0,000 mm 0,0 UV-I 0 W/m² 1,7 °C 3,3 °C 0,0 km/h (0 Bft)
08.04.2017 00:51 3,3 °C 3,3 °C 89 % 1024,4 hPa 0,0 mm 0,0 km/h (0 Bft) S 178 ° 0 min 0,000 mm 0,0 UV-I 0 W/m² 1,7 °C 3,3 °C 0,0 km/h (0 Bft)
08.04.2017 00:52 3,4 °C 3,4 °C 90 % 1024,4 hPa 0,0 mm 0,2 km/h (0 Bft) S 178 ° 0 min 0,000 mm 0,0 UV-I 0 W/m² 1,9 °C 3,4 °C 1,6 km/h (1 Bft)
08.04.2017 00:53 3,6 °C 3,6 °C 90 % 1024,4 hPa 0,0 mm 1,8 km/h (1 Bft) S 178 ° 0 min 0,000 mm 0,0 UV-I 0 W/m² 2,1 °C 3,6 °C 3,2 km/h (1 Bft)
08.04.2017 00:54 3,7 °C 3,7 °C 89 % 1024,4 hPa 0,0 mm 1,4 km/h (1 Bft) S 178 ° 0 min 0,000 mm 0,0 UV-I 0 W/m² 2,1 °C 3,7 °C 1,6 km/h (1 Bft)
08.04.2017 00:55 3,8 °C 3,8 °C 89 % 1024,4 hPa 0,0 mm 0,4 km/h (0 Bft) S 178 ° 0 min 0,000 mm 0,0 UV-I 0 W/m² 2,2 °C 3,8 °C 1,6 km/h (1 Bft)
08.04.2017 00:56 3,7 °C 3,8 °C 88 % 1024,3 hPa 0,0 mm 1,0 km/h (0 Bft) S 178 ° 0 min 0,000 mm 0,0 UV-I 0 W/m² 1,9 °C 3,7 °C 1,6 km/h (1 Bft)
08.04.2017 00:57 3,7 °C 3,7 °C 88 % 1024,3 hPa 0,0 mm 1,5 km/h (1 Bft) S 178 ° 0 min 0,000 mm 0,0 UV-I 0 W/m² 1,9 °C 3,7 °C 3,2 km/h (1 Bft)
08.04.2017 00:58 3,7 °C 3,7 °C 89 % 1024,4 hPa 0,0 mm 0,7 km/h (0 Bft) S 178 ° 0 min 0,000 mm 0,0 UV-I 0 W/m² 2,1 °C 3,7 °C 1,6 km/h (1 Bft)
08.04.2017 00:59 3,5 °C 3,7 °C 88 % 1024,4 hPa 0,0 mm 1,6 km/h (1 Bft) S 178 ° 0 min 0,000 mm 0,0 UV-I 0 W/m² 1,7 °C 3,5 °C 3,2 km/h (1 Bft)
08.04.2017 01:00 3,3 °C 3,5 °C 87 % 1024,4 hPa 0,0 mm 0,2 km/h (0 Bft) S 178 ° 0 min 0,000 mm 0,0 UV-I 0 W/m² 1,3 °C 3,3 °C 1,6 km/h (1 Bft)
08.04.2017 01:01 3,2 °C 3,3 °C 88 % 1024,3 hPa 0,0 mm 0,5 km/h (0 Bft) S 178 ° 0 min 0,000 mm 0,0 UV-I 0 W/m² 1,4 °C 3,2 °C 1,6 km/h (1 Bft)
08.04.2017 01:02 3,1 °C 3,2 °C 89 % 1024,3 hPa 0,0 mm 0,1 km/h (0 Bft) S 178 ° 0 min 0,000 mm 0,0 UV-I 0 W/m² 1,5 °C 3,1 °C 1,6 km/h (1 Bft)
08.04.2017 01:03 3,1 °C 3,1 °C 88 % 1024,3 hPa 0,0 mm 1,6 km/h (1 Bft) S 178 ° 0 min 0,000 mm 0,0 UV-I 0 W/m² 1,3 °C 3,1 °C 3,2 km/h (1 Bft)
08.04.2017 01:04 3,1 °C 3,1 °C 89 % 1024,3 hPa 0,0 mm 1,3 km/h (1 Bft) S 178 ° 0 min 0,000 mm 0,0 UV-I 0 W/m² 1,5 °C 3,1 °C 1,6 km/h (1 Bft)
08.04.2017 01:05 3,2 °C 3,2 °C 90 % 1024,3 hPa 0,0 mm 1,6 km/h (1 Bft) S 178 ° 0 min 0,000 mm 0,0 UV-I 0 W/m² 1,7 °C 3,2 °C 3,2 km/h (1 Bft)
08.04.2017 01:06 3,3 °C 3,3 °C 89 % 1024,3 hPa 0,0 mm 1,7 km/h (1 Bft) S 178 ° 0 min 0,000 mm 0,0 UV-I 0 W/m² 1,7 °C 3,3 °C 3,2 km/h (1 Bft)
08.04.2017 01:07 3,3 °C 3,3 °C 89 % 1024,3 hPa 0,0 mm 1,5 km/h (1 Bft) S 178 ° 0 min 0,000 mm 0,0 UV-I 0 W/m² 1,7 °C 3,3 °C 3,2 km/h (1 Bft)
08.04.2017 01:08 3,3 °C 3,3 °C 89 % 1024,3 hPa 0,0 mm 2,0 km/h (1 Bft) S 178 ° 0 min 0,000 mm 0,0 UV-I 0 W/m² 1,7 °C 3,3 °C 3,2 km/h (1 Bft)
08.04.2017 01:09 3,5 °C 3,5 °C 89 % 1024,2 hPa 0,0 mm 1,9 km/h (1 Bft) S 178 ° 0 min 0,000 mm 0,0 UV-I 0 W/m² 1,9 °C 3,5 °C 3,2 km/h (1 Bft)
08.04.2017 01:10 3,6 °C 3,6 °C 89 % 1024,2 hPa 0,0 mm 2,6 km/h (1 Bft) S 178 ° 0 min 0,000 mm 0,0 UV-I 0 W/m² 2,0 °C 3,6 °C 3,2 km/h (1 Bft)
08.04.2017 01:11 3,6 °C 3,6 °C 89 % 1024,2 hPa 0,0 mm 2,3 km/h (1 Bft) S 178 ° 0 min 0,000 mm 0,0 UV-I 0 W/m² 2,0 °C 3,6 °C 3,2 km/h (1 Bft)
08.04.2017 01:12 3,7 °C 3,7 °C 89 % 1024,2 hPa 0,0 mm 2,7 km/h (1 Bft) S 178 ° 0 min 0,000 mm 0,0 UV-I 0 W/m² 2,1 °C 3,7 °C 4,8 km/h (1 Bft)
08.04.2017 01:13 3,7 °C 3,7 °C 89 % 1024,2 hPa 0,0 mm 3,4 km/h (1 Bft) S 178 ° 0 min 0,000 mm 0,0 UV-I 0 W/m² 2,1 °C 3,7 °C 4,8 km/h (1 Bft)
08.04.2017 01:14 3,7 °C 3,7 °C 88 % 1024,2 hPa 0,0 mm 3,0 km/h (1 Bft) S 178 ° 0 min 0,000 mm 0,0 UV-I 0 W/m² 1,9 °C 3,7 °C 3,2 km/h (1 Bft)
08.04.2017 01:15 3,7 °C 3,7 °C 88 % 1024,2 hPa 0,0 mm 1,9 km/h (1 Bft) S 178 ° 0 min 0,000 mm 0,0 UV-I 0 W/m² 1,9 °C 3,7 °C 3,2 km/h (1 Bft)
08.04.2017 01:16 3,7 °C 3,7 °C 89 % 1024,2 hPa 0,0 mm 2,3 km/h (1 Bft) S 178 ° 0 min 0,000 mm 0,0 UV-I 0 W/m² 2,1 °C 3,7 °C 3,2 km/h (1 Bft)
08.04.2017 01:17 3,6 °C 3,7 °C 87 % 1024,2 hPa 0,0 mm 2,4 km/h (1 Bft) S 178 ° 0 min 0,000 mm 0,0 UV-I 0 W/m² 1,6 °C 3,6 °C 3,2 km/h (1 Bft)
08.04.2017 01:18 3,6 °C 3,6 °C 88 % 1024,2 hPa 0,0 mm 2,5 km/h (1 Bft) S 178 ° 0 min 0,000 mm 0,0 UV-I 0 W/m² 1,8 °C 3,6 °C 3,2 km/h (1 Bft)
08.04.2017 01:19 3,6 °C 3,6 °C 89 % 1024,2 hPa 0,0 mm 2,1 km/h (1 Bft) S 178 ° 0 min 0,000 mm 0,0 UV-I 0 W/m² 2,0 °C 3,6 °C 3,2 km/h (1 Bft)
08.04.2017 01:20 3,4 °C 3,6 °C 87 % 1024,2 hPa 0,0 mm 2,1 km/h (1 Bft) S 178 ° 0 min 0,000 mm 0,0 UV-I 0 W/m² 1,4 °C 3,4 °C 3,2 km/h (1 Bft)
08.04.2017 01:21 3,4 °C 3,4 °C 88 % 1024,2 hPa 0,0 mm 2,7 km/h (1 Bft) S 178 ° 0 min 0,000 mm 0,0 UV-I 0 W/m² 1,6 °C 3,4 °C 4,8 km/h (1 Bft)
08.04.2017 01:22 3,4 °C 3,4 °C 89 % 1024,2 hPa 0,0 mm 1,6 km/h (1 Bft) S 178 ° 0 min 0,000 mm 0,0 UV-I 0 W/m² 1,8 °C 3,4 °C 3,2 km/h (1 Bft)
08.04.2017 01:23 3,4 °C 3,5 °C 89 % 1024,2 hPa 0,0 mm 3,2 km/h (1 Bft) S 178 ° 0 min 0,000 mm 0,0 UV-I 0 W/m² 1,8 °C 3,4 °C 4,8 km/h (1 Bft)
08.04.2017 01:24 3,5 °C 3,5 °C 89 % 1024,2 hPa 0,0 mm 2,3 km/h (1 Bft) S 178 ° 0 min 0,000 mm 0,0 UV-I 0 W/m² 1,9 °C 3,5 °C 3,2 km/h (1 Bft)
08.04.2017 01:25 3,5 °C 3,5 °C 89 % 1024,2 hPa 0,0 mm 1,9 km/h (1 Bft) S 178 ° 0 min 0,000 mm 0,0 UV-I 0 W/m² 1,9 °C 3,5 °C 3,2 km/h (1 Bft)
08.04.2017 01:26 3,4 °C 3,5 °C 88 % 1024,2 hPa 0,0 mm 2,2 km/h (1 Bft) S 178 ° 0 min 0,000 mm 0,0 UV-I 0 W/m² 1,6 °C 3,4 °C 3,2 km/h (1 Bft)
08.04.2017 01:27 3,4 °C 3,4 °C 88 % 1024,2 hPa 0,0 mm 3,0 km/h (1 Bft) S 178 ° 0 min 0,000 mm 0,0 UV-I 0 W/m² 1,6 °C 3,4 °C 4,8 km/h (1 Bft)
08.04.2017 01:28 3,4 °C 3,4 °C 89 % 1024,2 hPa 0,0 mm 2,4 km/h (1 Bft) S 178 ° 0 min 0,000 mm 0,0 UV-I 0 W/m² 1,8 °C 3,4 °C 4,8 km/h (1 Bft)
08.04.2017 01:29 3,4 °C 3,4 °C 89 % 1024,2 hPa 0,0 mm 2,5 km/h (1 Bft) S 178 ° 0 min 0,000 mm 0,0 UV-I 0 W/m² 1,8 °C 3,4 °C 3,2 km/h (1 Bft)
08.04.2017 01:30 3,4 °C 3,4 °C 89 % 1024,2 hPa 0,0 mm 2,3 km/h (1 Bft) S 178 ° 0 min 0,000 mm 0,0 UV-I 0 W/m² 1,8 °C 3,4 °C 3,2 km/h (1 Bft)
08.04.2017 01:31 3,5 °C 3,5 °C 89 % 1024,2 hPa 0,0 mm 2,4 km/h (1 Bft) S 178 ° 0 min 0,000 mm 0,0 UV-I 0 W/m² 1,9 °C 3,5 °C 3,2 km/h (1 Bft)
08.04.2017 01:32 3,5 °C 3,5 °C 89 % 1024,2 hPa 0,0 mm 2,7 km/h (1 Bft) S 178 ° 0 min 0,000 mm 0,0 UV-I 0 W/m² 1,9 °C 3,5 °C 4,8 km/h (1 Bft)
08.04.2017 01:33 3,5 °C 3,5 °C 89 % 1024,1 hPa 0,0 mm 2,2 km/h (1 Bft) S 178 ° 0 min 0,000 mm 0,0 UV-I 0 W/m² 1,9 °C 3,5 °C 4,8 km/h (1 Bft)
08.04.2017 01:34 3,6 °C 3,6 °C 89 % 1024,2 hPa 0,0 mm 2,5 km/h (1 Bft) S 178 ° 0 min 0,000 mm 0,0 UV-I 0 W/m² 2,0 °C 3,6 °C 4,8 km/h (1 Bft)
08.04.2017 01:35 3,6 °C 3,6 °C 89 % 1024,1 hPa 0,0 mm 2,3 km/h (1 Bft) S 178 ° 0 min 0,000 mm 0,0 UV-I 0 W/m² 2,0 °C 3,6 °C 3,2 km/h (1 Bft)
08.04.2017 01:36 3,6 °C 3,6 °C 89 % 1024,2 hPa 0,0 mm 2,8 km/h (1 Bft) S 178 ° 0 min 0,000 mm 0,0 UV-I 0 W/m² 2,0 °C 3,6 °C 4,8 km/h (1 Bft)
08.04.2017 01:37 3,6 °C 3,6 °C 89 % 1024,2 hPa 0,0 mm 2,9 km/h (1 Bft) S 178 ° 0 min 0,000 mm 0,0 UV-I 0 W/m² 2,0 °C 3,6 °C 4,8 km/h (1 Bft)
08.04.2017 01:38 3,6 °C 3,7 °C 89 % 1024,2 hPa 0,0 mm 0,9 km/h (0 Bft) S 178 ° 0 min 0,000 mm 0,0 UV-I 0 W/m² 2,0 °C 3,6 °C 1,6 km/h (1 Bft)
08.04.2017 01:39 3,7 °C 3,7 °C 89 % 1024,2 hPa 0,0 mm 1,4 km/h (1 Bft) S 178 ° 0 min 0,000 mm 0,0 UV-I 0 W/m² 2,1 °C 3,7 °C 3,2 km/h (1 Bft)
08.04.2017 01:40 3,7 °C 3,7 °C 89 % 1024,2 hPa 0,0 mm 1,3 km/h (1 Bft) S 178 ° 0 min 0,000 mm 0,0 UV-I 0 W/m² 2,1 °C 3,7 °C 3,2 km/h (1 Bft)
08.04.2017 01:41 3,8 °C 3,8 °C 88 % 1024,2 hPa 0,0 mm 1,0 km/h (0 Bft) S 178 ° 0 min 0,000 mm 0,0 UV-I 0 W/m² 2,0 °C 3,8 °C 3,2 km/h (1 Bft)
08.04.2017 01:42 3,8 °C 3,8 °C 88 % 1024,2 hPa 0,0 mm 0,7 km/h (0 Bft) S 178 ° 0 min 0,000 mm 0,0 UV-I 0 W/m² 2,0 °C 3,8 °C 3,2 km/h (1 Bft)
08.04.2017 01:43 3,8 °C 3,8 °C 88 % 1024,2 hPa 0,0 mm 2,1 km/h (1 Bft) S 178 ° 0 min 0,000 mm 0,0 UV-I 0 W/m² 2,0 °C 3,8 °C 3,2 km/h (1 Bft)
08.04.2017 01:44 3,9 °C 3,9 °C 88 % 1024,2 hPa 0,0 mm 2,7 km/h (1 Bft) S 178 ° 0 min 0,000 mm 0,0 UV-I 0 W/m² 2,1 °C 3,9 °C 3,2 km/h (1 Bft)
08.04.2017 01:45 3,9 °C 3,9 °C 88 % 1024,2 hPa 0,0 mm 2,3 km/h (1 Bft) S 178 ° 0 min 0,000 mm 0,0 UV-I 0 W/m² 2,1 °C 3,9 °C 3,2 km/h (1 Bft)
08.04.2017 01:46 3,9 °C 3,9 °C 88 % 1024,2 hPa 0,0 mm 2,1 km/h (1 Bft) S 178 ° 0 min 0,000 mm 0,0 UV-I 0 W/m² 2,1 °C 3,9 °C 3,2 km/h (1 Bft)
08.04.2017 01:47 3,9 °C 3,9 °C 88 % 1024,3 hPa 0,0 mm 1,7 km/h (1 Bft) S 178 ° 0 min 0,000 mm 0,0 UV-I 0 W/m² 2,1 °C 3,9 °C 3,2 km/h (1 Bft)
08.04.2017 01:48 3,8 °C 3,9 °C 87 % 1024,2 hPa 0,0 mm 2,8 km/h (1 Bft) S 178 ° 0 min 0,000 mm 0,0 UV-I 0 W/m² 1,8 °C 3,8 °C 4,8 km/h (1 Bft)
08.04.2017 01:49 3,8 °C 3,9 °C 87 % 1024,2 hPa 0,0 mm 1,9 km/h (1 Bft) S 178 ° 0 min 0,000 mm 0,0 UV-I 0 W/m² 1,8 °C 3,8 °C 3,2 km/h (1 Bft)
08.04.2017 01:50 3,8 °C 3,8 °C 87 % 1024,2 hPa 0,0 mm 2,2 km/h (1 Bft) S 178 ° 0 min 0,000 mm 0,0 UV-I 0 W/m² 1,8 °C 3,8 °C 3,2 km/h (1 Bft)
08.04.2017 01:51 3,8 °C 3,8 °C 87 % 1024,2 hPa 0,0 mm 2,7 km/h (1 Bft) S 178 ° 0 min 0,000 mm 0,0 UV-I 0 W/m² 1,8 °C 3,8 °C 3,2 km/h (1 Bft)
08.04.2017 01:52 3,8 °C 3,8 °C 87 % 1024,2 hPa 0,0 mm 2,4 km/h (1 Bft) S 178 ° 0 min 0,000 mm 0,0 UV-I 0 W/m² 1,8 °C 3,8 °C 3,2 km/h (1 Bft)
08.04.2017 01:53 3,8 °C 3,8 °C 87 % 1024,2 hPa 0,0 mm 2,8 km/h (1 Bft) S 178 ° 0 min 0,000 mm 0,0 UV-I 0 W/m² 1,8 °C 3,8 °C 3,2 km/h (1 Bft)
08.04.2017 01:54 3,7 °C 3,8 °C 87 % 1024,2 hPa 0,0 mm 2,7 km/h (1 Bft) S 178 ° 0 min 0,000 mm 0,0 UV-I 0 W/m² 1,7 °C 3,7 °C 3,2 km/h (1 Bft)
08.04.2017 01:55 3,7 °C 3,7 °C 87 % 1024,2 hPa 0,0 mm 2,7 km/h (1 Bft) S 178 ° 0 min 0,000 mm 0,0 UV-I 0 W/m² 1,7 °C 3,7 °C 3,2 km/h (1 Bft)
08.04.2017 01:56 3,7 °C 3,7 °C 87 % 1024,2 hPa 0,0 mm 2,7 km/h (1 Bft) S 178 ° 0 min 0,000 mm 0,0 UV-I 0 W/m² 1,7 °C 3,7 °C 3,2 km/h (1 Bft)
08.04.2017 01:57 3,6 °C 3,7 °C 88 % 1024,2 hPa 0,0 mm 2,2 km/h (1 Bft) S 178 ° 0 min 0,000 mm 0,0 UV-I 0 W/m² 1,8 °C 3,6 °C 3,2 km/h (1 Bft)
08.04.2017 01:58 3,6 °C 3,6 °C 88 % 1024,1 hPa 0,0 mm 2,4 km/h (1 Bft) S 178 ° 0 min 0,000 mm 0,0 UV-I 0 W/m² 1,8 °C 3,6 °C 3,2 km/h (1 Bft)
08.04.2017 01:59 3,6 °C 3,6 °C 88 % 1024,1 hPa 0,0 mm 2,3 km/h (1 Bft) S 178 ° 0 min 0,000 mm 0,0 UV-I 0 W/m² 1,8 °C 3,6 °C 3,2 km/h (1 Bft)
08.04.2017 02:00 3,6 °C 3,6 °C 88 % 1024,1 hPa 0,0 mm 2,4 km/h (1 Bft) S 178 ° 0 min 0,000 mm 0,0 UV-I 0 W/m² 1,8 °C 3,6 °C 4,8 km/h (1 Bft)
08.04.2017 02:01 3,5 °C 3,6 °C 88 % 1024,1 hPa 0,0 mm 2,7 km/h (1 Bft) S 178 ° 0 min 0,000 mm 0,0 UV-I 0 W/m² 1,7 °C 3,5 °C 3,2 km/h (1 Bft)
08.04.2017 02:02 3,4 °C 3,5 °C 88 % 1024,1 hPa 0,0 mm 2,7 km/h (1 Bft) S 178 ° 0 min 0,000 mm 0,0 UV-I 0 W/m² 1,6 °C 3,4 °C 3,2 km/h (1 Bft)
08.04.2017 02:03 3,4 °C 3,4 °C 88 % 1024,1 hPa 0,0 mm 2,5 km/h (1 Bft) S 178 ° 0 min 0,000 mm 0,0 UV-I 0 W/m² 1,6 °C 3,4 °C 3,2 km/h (1 Bft)
08.04.2017 02:04 3,4 °C 3,4 °C 89 % 1024,1 hPa 0,0 mm 2,9 km/h (1 Bft) S 178 ° 0 min 0,000 mm 0,0 UV-I 0 W/m² 1,8 °C 3,4 °C 3,2 km/h (1 Bft)
08.04.2017 02:05 3,4 °C 3,4 °C 88 % 1024,1 hPa 0,0 mm 3,2 km/h (1 Bft) S 178 ° 0 min 0,000 mm 0,0 UV-I 0 W/m² 1,6 °C 3,4 °C 3,2 km/h (1 Bft)
08.04.2017 02:06 3,4 °C 3,5 °C 88 % 1024,1 hPa 0,0 mm 2,8 km/h (1 Bft) S 178 ° 0 min 0,000 mm 0,0 UV-I 0 W/m² 1,6 °C 3,4 °C 4,8 km/h (1 Bft)
08.04.2017 02:07 3,4 °C 3,5 °C 89 % 1024,0 hPa 0,0 mm 3,1 km/h (1 Bft) S 178 ° 0 min 0,000 mm 0,0 UV-I 0 W/m² 1,8 °C 3,4 °C 4,8 km/h (1 Bft)
08.04.2017 02:08 3,4 °C 3,4 °C 89 % 1024,1 hPa 0,0 mm 3,5 km/h (1 Bft) S 178 ° 0 min 0,000 mm 0,0 UV-I 0 W/m² 1,8 °C 3,4 °C 4,8 km/h (1 Bft)
08.04.2017 02:09 3,4 °C 3,4 °C 88 % 1023,9 hPa 0,0 mm 3,9 km/h (1 Bft) S 178 ° 0 min 0,000 mm 0,0 UV-I 0 W/m² 1,6 °C 3,4 °C 4,8 km/h (1 Bft)
08.04.2017 02:10 3,3 °C 3,4 °C 88 % 1024,0 hPa 0,0 mm 2,9 km/h (1 Bft) S 178 ° 0 min 0,000 mm 0,0 UV-I 0 W/m² 1,5 °C 3,3 °C 4,8 km/h (1 Bft)
08.04.2017 02:11 3,3 °C 3,3 °C 88 % 1024,0 hPa 0,0 mm 3,5 km/h (1 Bft) S 178 ° 0 min 0,000 mm 0,0 UV-I 0 W/m² 1,5 °C 3,3 °C 4,8 km/h (1 Bft)
08.04.2017 02:12 3,3 °C 3,3 °C 89 % 1024,0 hPa 0,0 mm 3,5 km/h (1 Bft) S 178 ° 0 min 0,000 mm 0,0 UV-I 0 W/m² 1,7 °C 3,3 °C 4,8 km/h (1 Bft)
08.04.2017 02:13 3,3 °C 3,3 °C 89 % 1024,0 hPa 0,0 mm 3,9 km/h (1 Bft) S 178 ° 0 min 0,000 mm 0,0 UV-I 0 W/m² 1,7 °C 3,3 °C 4,8 km/h (1 Bft)
08.04.2017 02:14 3,3 °C 3,3 °C 89 % 1024,0 hPa 0,0 mm 4,0 km/h (1 Bft) S 178 ° 0 min 0,000 mm 0,0 UV-I 0 W/m² 1,7 °C 3,3 °C 4,8 km/h (1 Bft)
08.04.2017 02:15 3,3 °C 3,3 °C 89 % 1024,0 hPa 0,0 mm 3,6 km/h (1 Bft) S 178 ° 0 min 0,000 mm 0,0 UV-I 0 W/m² 1,7 °C 3,3 °C 4,8 km/h (1 Bft)
08.04.2017 02:16 3,3 °C 3,3 °C 89 % 1023,9 hPa 0,0 mm 3,6 km/h (1 Bft) S 178 ° 0 min 0,000 mm 0,0 UV-I 0 W/m² 1,7 °C 3,3 °C 4,8 km/h (1 Bft)
08.04.2017 02:17 3,3 °C 3,3 °C 89 % 1024,0 hPa 0,0 mm 3,3 km/h (1 Bft) S 178 ° 0 min 0,000 mm 0,0 UV-I 0 W/m² 1,7 °C 3,3 °C 4,8 km/h (1 Bft)
08.04.2017 02:18 3,3 °C 3,3 °C 89 % 1024,0 hPa 0,0 mm 3,2 km/h (1 Bft) S 178 ° 0 min 0,000 mm 0,0 UV-I 0 W/m² 1,7 °C 3,3 °C 4,8 km/h (1 Bft)
08.04.2017 02:19 3,3 °C 3,3 °C 89 % 1023,9 hPa 0,0 mm 2,9 km/h (1 Bft) S 178 ° 0 min 0,000 mm 0,0 UV-I 0 W/m² 1,7 °C 3,3 °C 3,2 km/h (1 Bft)
08.04.2017 02:20 3,4 °C 3,4 °C 89 % 1023,9 hPa 0,0 mm 2,6 km/h (1 Bft) S 178 ° 0 min 0,000 mm 0,0 UV-I 0 W/m² 1,8 °C 3,4 °C 3,2 km/h (1 Bft)
08.04.2017 02:21 3,4 °C 3,4 °C 89 % 1023,9 hPa 0,0 mm 2,1 km/h (1 Bft) S 178 ° 0 min 0,000 mm 0,0 UV-I 0 W/m² 1,8 °C 3,4 °C 3,2 km/h (1 Bft)
08.04.2017 02:22 3,4 °C 3,4 °C 89 % 1023,9 hPa 0,0 mm 2,4 km/h (1 Bft) S 178 ° 0 min 0,000 mm 0,0 UV-I 0 W/m² 1,8 °C 3,4 °C 3,2 km/h (1 Bft)
08.04.2017 02:23 3,4 °C 3,4 °C 89 % 1023,8 hPa 0,0 mm 2,5 km/h (1 Bft) S 178 ° 0 min 0,000 mm 0,0 UV-I 0 W/m² 1,8 °C 3,4 °C 3,2 km/h (1 Bft)
08.04.2017 02:24 3,4 °C 3,4 °C 88 % 1023,8 hPa 0,0 mm 1,8 km/h (1 Bft) S 178 ° 0 min 0,000 mm 0,0 UV-I 0 W/m² 1,6 °C 3,4 °C 3,2 km/h (1 Bft)
08.04.2017 02:25 3,4 °C 3,4 °C 88 % 1023,8 hPa 0,0 mm 2,5 km/h (1 Bft) S 178 ° 0 min 0,000 mm 0,0 UV-I 0 W/m² 1,6 °C 3,4 °C 3,2 km/h (1 Bft)
08.04.2017 02:26 3,4 °C 3,4 °C 88 % 1023,8 hPa 0,0 mm 2,5 km/h (1 Bft) S 178 ° 0 min 0,000 mm 0,0 UV-I 0 W/m² 1,6 °C 3,4 °C 3,2 km/h (1 Bft)
08.04.2017 02:27 3,3 °C 3,4 °C 88 % 1023,8 hPa 0,0 mm 2,9 km/h (1 Bft) S 178 ° 0 min 0,000 mm 0,0 UV-I 0 W/m² 1,5 °C 3,3 °C 3,2 km/h (1 Bft)
08.04.2017 02:28 3,3 °C 3,3 °C 88 % 1023,8 hPa 0,0 mm 2,7 km/h (1 Bft) S 178 ° 0 min 0,000 mm 0,0 UV-I 0 W/m² 1,5 °C 3,3 °C 3,2 km/h (1 Bft)
08.04.2017 02:29 3,3 °C 3,3 °C 89 % 1023,8 hPa 0,0 mm 2,1 km/h (1 Bft) S 178 ° 0 min 0,000 mm 0,0 UV-I 0 W/m² 1,7 °C 3,3 °C 3,2 km/h (1 Bft)
08.04.2017 02:30 3,2 °C 3,3 °C 88 % 1023,8 hPa 0,0 mm 2,5 km/h (1 Bft) S 178 ° 0 min 0,000 mm 0,0 UV-I 0 W/m² 1,4 °C 3,2 °C 3,2 km/h (1 Bft)
08.04.2017 02:31 3,2 °C 3,2 °C 89 % 1023,7 hPa 0,0 mm 2,0 km/h (1 Bft) S 178 ° 0 min 0,000 mm 0,0 UV-I 0 W/m² 1,6 °C 3,2 °C 3,2 km/h (1 Bft)
08.04.2017 02:32 3,1 °C 3,2 °C 89 % 1023,7 hPa 0,0 mm 2,2 km/h (1 Bft) S 178 ° 0 min 0,000 mm 0,0 UV-I 0 W/m² 1,5 °C 3,1 °C 3,2 km/h (1 Bft)
08.04.2017 02:33 3,1 °C 3,2 °C 89 % 1023,7 hPa 0,0 mm 2,2 km/h (1 Bft) S 178 ° 0 min 0,000 mm 0,0 UV-I 0 W/m² 1,5 °C 3,1 °C 3,2 km/h (1 Bft)
08.04.2017 02:34 3,1 °C 3,1 °C 89 % 1023,7 hPa 0,0 mm 2,5 km/h (1 Bft) S 178 ° 0 min 0,000 mm 0,0 UV-I 0 W/m² 1,5 °C 3,1 °C 3,2 km/h (1 Bft)
08.04.2017 02:35 3,1 °C 3,1 °C 89 % 1023,7 hPa 0,0 mm 1,8 km/h (1 Bft) S 178 ° 0 min 0,000 mm 0,0 UV-I 0 W/m² 1,5 °C 3,1 °C 3,2 km/h (1 Bft)
08.04.2017 02:36 3,2 °C 3,2 °C 89 % 1023,7 hPa 0,0 mm 2,1 km/h (1 Bft) S 178 ° 0 min 0,000 mm 0,0 UV-I 0 W/m² 1,6 °C 3,2 °C 3,2 km/h (1 Bft)
08.04.2017 02:37 3,1 °C 3,2 °C 89 % 1023,7 hPa 0,0 mm 1,1 km/h (1 Bft) S 178 ° 0 min 0,000 mm 0,0 UV-I 0 W/m² 1,5 °C 3,1 °C 1,6 km/h (1 Bft)
08.04.2017 02:38 3,1 °C 3,1 °C 89 % 1023,7 hPa 0,0 mm 1,5 km/h (1 Bft) S 178 ° 0 min 0,000 mm 0,0 UV-I 0 W/m² 1,5 °C 3,1 °C 1,6 km/h (1 Bft)
08.04.2017 02:39 3,0 °C 3,1 °C 89 % 1023,7 hPa 0,0 mm 0,5 km/h (0 Bft) S 178 ° 0 min 0,000 mm 0,0 UV-I 0 W/m² 1,4 °C 3,0 °C 1,6 km/h (1 Bft)
08.04.2017 02:40 3,0 °C 3,0 °C 89 % 1023,6 hPa 0,0 mm 1,1 km/h (1 Bft) S 178 ° 0 min 0,000 mm 0,0 UV-I 0 W/m² 1,4 °C 3,0 °C 1,6 km/h (1 Bft)
08.04.2017 02:41 3,0 °C 3,0 °C 89 % 1023,7 hPa 0,0 mm 1,3 km/h (1 Bft) S 178 ° 0 min 0,000 mm 0,0 UV-I 0 W/m² 1,4 °C 3,0 °C 1,6 km/h (1 Bft)
08.04.2017 02:42 3,1 °C 3,1 °C 89 % 1023,7 hPa 0,0 mm 0,9 km/h (0 Bft) S 178 ° 0 min 0,000 mm 0,0 UV-I 0 W/m² 1,5 °C 3,1 °C 3,2 km/h (1 Bft)
08.04.2017 02:43 2,9 °C 3,1 °C 89 % 1023,7 hPa 0,0 mm 0,3 km/h (0 Bft) S 178 ° 0 min 0,000 mm 0,0 UV-I 0 W/m² 1,3 °C 2,9 °C 1,6 km/h (1 Bft)
08.04.2017 02:44 2,9 °C 2,9 °C 88 % 1023,7 hPa 0,0 mm 0,0 km/h (0 Bft) S 178 ° 0 min 0,000 mm 0,0 UV-I 0 W/m² 1,1 °C 2,9 °C 0,0 km/h (0 Bft)
08.04.2017 02:45 2,9 °C 2,9 °C 89 % 1023,7 hPa 0,0 mm 0,0 km/h (0 Bft) S 178 ° 0 min 0,000 mm 0,0 UV-I 0 W/m² 1,3 °C 2,9 °C 0,0 km/h (0 Bft)
08.04.2017 02:46 2,8 °C 2,9 °C 89 % 1023,7 hPa 0,0 mm 0,0 km/h (0 Bft) S 178 ° 0 min 0,000 mm 0,0 UV-I 0 W/m² 1,2 °C 2,8 °C 0,0 km/h (0 Bft)
08.04.2017 02:47 2,8 °C 2,8 °C 89 % 1023,6 hPa 0,0 mm 0,7 km/h (0 Bft) S 178 ° 0 min 0,000 mm 0,0 UV-I 0 W/m² 1,2 °C 2,8 °C 3,2 km/h (1 Bft)
08.04.2017 02:48 2,8 °C 2,8 °C 90 % 1023,6 hPa 0,0 mm 2,3 km/h (1 Bft) S 178 ° 0 min 0,000 mm 0,0 UV-I 0 W/m² 1,3 °C 2,8 °C 4,8 km/h (1 Bft)
08.04.2017 02:49 2,7 °C 2,8 °C 89 % 1023,6 hPa 0,0 mm 3,6 km/h (1 Bft) S 178 ° 0 min 0,000 mm 0,0 UV-I 0 W/m² 1,1 °C 2,7 °C 4,8 km/h (1 Bft)
08.04.2017 02:50 2,7 °C 2,7 °C 89 % 1023,6 hPa 0,0 mm 3,0 km/h (1 Bft) S 178 ° 0 min 0,000 mm 0,0 UV-I 0 W/m² 1,1 °C 2,7 °C 4,8 km/h (1 Bft)
08.04.2017 02:51 2,5 °C 2,7 °C 89 % 1023,6 hPa 0,0 mm 3,3 km/h (1 Bft) S 178 ° 0 min 0,000 mm 0,0 UV-I 0 W/m² 0,9 °C 2,5 °C 4,8 km/h (1 Bft)
08.04.2017 02:52 2,4 °C 2,5 °C 89 % 1023,6 hPa 0,0 mm 2,4 km/h (1 Bft) S 178 ° 0 min 0,000 mm 0,0 UV-I 0 W/m² 0,8 °C 2,4 °C 3,2 km/h (1 Bft)
08.04.2017 02:53 2,4 °C 2,4 °C 90 % 1023,6 hPa 0,0 mm 2,1 km/h (1 Bft) S 178 ° 0 min 0,000 mm 0,0 UV-I 0 W/m² 0,9 °C 2,4 °C 3,2 km/h (1 Bft)
08.04.2017 02:54 2,3 °C 2,4 °C 89 % 1023,6 hPa 0,0 mm 1,3 km/h (1 Bft) S 178 ° 0 min 0,000 mm 0,0 UV-I 0 W/m² 0,7 °C 2,3 °C 1,6 km/h (1 Bft)
08.04.2017 02:55 2,3 °C 2,3 °C 89 % 1023,6 hPa 0,0 mm 1,5 km/h (1 Bft) S 178 ° 0 min 0,000 mm 0,0 UV-I 0 W/m² 0,7 °C 2,3 °C 3,2 km/h (1 Bft)
08.04.2017 02:56 2,3 °C 2,3 °C 90 % 1023,7 hPa 0,0 mm 2,1 km/h (1 Bft) S 178 ° 0 min 0,000 mm 0,0 UV-I 0 W/m² 0,8 °C 2,3 °C 3,2 km/h (1 Bft)
08.04.2017 02:57 2,3 °C 2,3 °C 90 % 1023,7 hPa 0,0 mm 1,3 km/h (1 Bft) S 178 ° 0 min 0,000 mm 0,0 UV-I 0 W/m² 0,8 °C 2,3 °C 1,6 km/h (1 Bft)
08.04.2017 02:58 2,3 °C 2,3 °C 90 % 1023,7 hPa 0,0 mm 0,6 km/h (0 Bft) S 178 ° 0 min 0,000 mm 0,0 UV-I 0 W/m² 0,8 °C 2,3 °C 1,6 km/h (1 Bft)
08.04.2017 02:59 2,2 °C 2,3 °C 90 % 1023,7 hPa 0,0 mm 0,0 km/h (0 Bft) S 178 ° 0 min 0,000 mm 0,0 UV-I 0 W/m² 0,7 °C 2,2 °C 0,0 km/h (0 Bft)
08.04.2017 03:00 2,1 °C 2,2 °C 90 % 1023,6 hPa 0,0 mm 0,0 km/h (0 Bft) S 178 ° 0 min 0,000 mm 0,0 UV-I 0 W/m² 0,6 °C 2,1 °C 0,0 km/h (0 Bft)
08.04.2017 03:01 2,1 °C 2,1 °C 90 % 1023,6 hPa 0,0 mm 0,0 km/h (0 Bft) S 178 ° 0 min 0,000 mm 0,0 UV-I 0 W/m² 0,6 °C 2,1 °C 0,0 km/h (0 Bft)
08.04.2017 03:02 1,9 °C 2,1 °C 90 % 1023,6 hPa 0,0 mm 0,1 km/h (0 Bft) S 178 ° 0 min 0,000 mm 0,0 UV-I 0 W/m² 0,4 °C 1,9 °C 1,6 km/h (1 Bft)
08.04.2017 03:03 1,8 °C 1,9 °C 90 % 1023,6 hPa 0,0 mm 0,0 km/h (0 Bft) S 178 ° 0 min 0,000 mm 0,0 UV-I 0 W/m² 0,3 °C 1,8 °C 0,0 km/h (0 Bft)
08.04.2017 03:04 1,8 °C 1,9 °C 90 % 1023,6 hPa 0,0 mm 0,0 km/h (0 Bft) S 178 ° 0 min 0,000 mm 0,0 UV-I 0 W/m² 0,3 °C 1,8 °C 0,0 km/h (0 Bft)
08.04.2017 03:05 1,7 °C 1,8 °C 90 % 1023,6 hPa 0,0 mm 0,0 km/h (0 Bft) S 178 ° 0 min 0,000 mm 0,0 UV-I 0 W/m² 0,2 °C 1,7 °C 0,0 km/h (0 Bft)
08.04.2017 03:06 1,7 °C 1,7 °C 90 % 1023,6 hPa 0,0 mm 0,0 km/h (0 Bft) S 178 ° 0 min 0,000 mm 0,0 UV-I 0 W/m² 0,2 °C 1,7 °C 0,0 km/h (0 Bft)
08.04.2017 03:07 1,7 °C 1,7 °C 91 % 1023,6 hPa 0,0 mm 0,0 km/h (0 Bft) S 178 ° 0 min 0,000 mm 0,0 UV-I 0 W/m² 0,4 °C 1,7 °C 0,0 km/h (0 Bft)
08.04.2017 03:08 1,7 °C 1,7 °C 91 % 1023,6 hPa 0,0 mm 0,0 km/h (0 Bft) S 178 ° 0 min 0,000 mm 0,0 UV-I 0 W/m² 0,4 °C 1,7 °C 0,0 km/h (0 Bft)
08.04.2017 03:09 1,7 °C 1,7 °C 91 % 1023,6 hPa 0,0 mm 0,0 km/h (0 Bft) S 178 ° 0 min 0,000 mm 0,0 UV-I 0 W/m² 0,4 °C 1,7 °C 0,0 km/h (0 Bft)
08.04.2017 03:10 1,8 °C 1,8 °C 91 % 1023,6 hPa 0,0 mm 0,0 km/h (0 Bft) S 178 ° 0 min 0,000 mm 0,0 UV-I 0 W/m² 0,5 °C 1,8 °C 0,0 km/h (0 Bft)
08.04.2017 03:11 1,9 °C 1,9 °C 92 % 1023,5 hPa 0,0 mm 0,0 km/h (0 Bft) S 178 ° 0 min 0,000 mm 0,0 UV-I 0 W/m² 0,7 °C 1,9 °C 0,0 km/h (0 Bft)
08.04.2017 03:12 1,9 °C 1,9 °C 92 % 1023,5 hPa 0,0 mm 0,0 km/h (0 Bft) S 178 ° 0 min 0,000 mm 0,0 UV-I 0 W/m² 0,7 °C 1,9 °C 0,0 km/h (0 Bft)
08.04.2017 03:13 2,0 °C 2,0 °C 92 % 1023,5 hPa 0,0 mm 0,0 km/h (0 Bft) S 178 ° 0 min 0,000 mm 0,0 UV-I 0 W/m² 0,8 °C 2,0 °C 0,0 km/h (0 Bft)
08.04.2017 03:14 2,1 °C 2,1 °C 92 % 1023,5 hPa 0,0 mm 0,0 km/h (0 Bft) S 178 ° 0 min 0,000 mm 0,0 UV-I 0 W/m² 0,9 °C 2,1 °C 0,0 km/h (0 Bft)
08.04.2017 03:15 2,1 °C 2,1 °C 92 % 1023,5 hPa 0,0 mm 0,0 km/h (0 Bft) S 178 ° 0 min 0,000 mm 0,0 UV-I 0 W/m² 0,9 °C 2,1 °C 0,0 km/h (0 Bft)
08.04.2017 03:16 2,1 °C 2,1 °C 91 % 1023,5 hPa 0,0 mm 0,0 km/h (0 Bft) S 178 ° 0 min 0,000 mm 0,0 UV-I 0 W/m² 0,8 °C 2,1 °C 0,0 km/h (0 Bft)
08.04.2017 03:17 2,1 °C 2,1 °C 91 % 1023,5 hPa 0,0 mm 0,0 km/h (0 Bft) S 178 ° 0 min 0,000 mm 0,0 UV-I 0 W/m² 0,8 °C 2,1 °C 0,0 km/h (0 Bft)
08.04.2017 03:18 2,0 °C 2,1 °C 91 % 1023,5 hPa 0,0 mm 0,0 km/h (0 Bft) S 178 ° 0 min 0,000 mm 0,0 UV-I 0 W/m² 0,7 °C 2,0 °C 0,0 km/h (0 Bft)
08.04.2017 03:19 1,9 °C 2,0 °C 91 % 1023,5 hPa 0,0 mm 0,0 km/h (0 Bft) S 178 ° 0 min 0,000 mm 0,0 UV-I 0 W/m² 0,6 °C 1,9 °C 0,0 km/h (0 Bft)
08.04.2017 03:20 1,9 °C 1,9 °C 91 % 1023,5 hPa 0,0 mm 0,0 km/h (0 Bft) S 178 ° 0 min 0,000 mm 0,0 UV-I 0 W/m² 0,6 °C 1,9 °C 0,0 km/h (0 Bft)
08.04.2017 03:21 1,9 °C 1,9 °C 91 % 1023,4 hPa 0,0 mm 0,0 km/h (0 Bft) S 178 ° 0 min 0,000 mm 0,0 UV-I 0 W/m² 0,6 °C 1,9 °C 0,0 km/h (0 Bft)
08.04.2017 03:22 1,9 °C 1,9 °C 91 % 1023,5 hPa 0,0 mm 0,0 km/h (0 Bft) S 178 ° 0 min 0,000 mm 0,0 UV-I 0 W/m² 0,6 °C 1,9 °C 0,0 km/h (0 Bft)
08.04.2017 03:23 1,8 °C 1,9 °C 91 % 1023,5 hPa 0,0 mm 0,0 km/h (0 Bft) S 178 ° 0 min 0,000 mm 0,0 UV-I 0 W/m² 0,5 °C 1,8 °C 0,0 km/h (0 Bft)
08.04.2017 03:24 1,8 °C 1,8 °C 91 % 1023,5 hPa 0,0 mm 0,0 km/h (0 Bft) S 178 ° 0 min 0,000 mm 0,0 UV-I 0 W/m² 0,5 °C 1,8 °C 0,0 km/h (0 Bft)
08.04.2017 03:25 1,8 °C 1,8 °C 91 % 1023,5 hPa 0,0 mm 0,0 km/h (0 Bft) S 178 ° 0 min 0,000 mm 0,0 UV-I 0 W/m² 0,5 °C 1,8 °C 0,0 km/h (0 Bft)
08.04.2017 03:26 1,7 °C 1,8 °C 91 % 1023,5 hPa 0,0 mm 0,0 km/h (0 Bft) S 178 ° 0 min 0,000 mm 0,0 UV-I 0 W/m² 0,4 °C 1,7 °C 0,0 km/h (0 Bft)
08.04.2017 03:27 1,7 °C 1,7 °C 91 % 1023,5 hPa 0,0 mm 0,0 km/h (0 Bft) S 178 ° 0 min 0,000 mm 0,0 UV-I 0 W/m² 0,4 °C 1,7 °C 0,0 km/h (0 Bft)
08.04.2017 03:28 1,7 °C 1,7 °C 91 % 1023,5 hPa 0,0 mm 0,0 km/h (0 Bft) S 178 ° 0 min 0,000 mm 0,0 UV-I 0 W/m² 0,4 °C 1,7 °C 0,0 km/h (0 Bft)
08.04.2017 03:29 1,7 °C 1,7 °C 92 % 1023,5 hPa 0,0 mm 0,0 km/h (0 Bft) S 178 ° 0 min 0,000 mm 0,0 UV-I 0 W/m² 0,5 °C 1,7 °C 0,0 km/h (0 Bft)
08.04.2017 03:30 1,7 °C 1,7 °C 92 % 1023,5 hPa 0,0 mm 0,0 km/h (0 Bft) S 178 ° 0 min 0,000 mm 0,0 UV-I 0 W/m² 0,5 °C 1,7 °C 0,0 km/h (0 Bft)
08.04.2017 03:31 1,7 °C 1,7 °C 92 % 1023,5 hPa 0,0 mm 0,0 km/h (0 Bft) S 178 ° 0 min 0,000 mm 0,0 UV-I 0 W/m² 0,5 °C 1,7 °C 0,0 km/h (0 Bft)
08.04.2017 03:32 1,7 °C 1,7 °C 92 % 1023,5 hPa 0,0 mm 0,0 km/h (0 Bft) S 178 ° 0 min 0,000 mm 0,0 UV-I 0 W/m² 0,5 °C 1,7 °C 0,0 km/h (0 Bft)
08.04.2017 03:33 1,7 °C 1,7 °C 92 % 1023,4 hPa 0,0 mm 0,0 km/h (0 Bft) S 178 ° 0 min 0,000 mm 0,0 UV-I 0 W/m² 0,5 °C 1,7 °C 0,0 km/h (0 Bft)
08.04.2017 03:34 1,7 °C 1,8 °C 92 % 1023,5 hPa 0,0 mm 0,0 km/h (0 Bft) S 178 ° 0 min 0,000 mm 0,0 UV-I 0 W/m² 0,5 °C 1,7 °C 0,0 km/h (0 Bft)
08.04.2017 03:35 1,8 °C 1,8 °C 92 % 1023,5 hPa 0,0 mm 0,0 km/h (0 Bft) S 178 ° 0 min 0,000 mm 0,0 UV-I 0 W/m² 0,6 °C 1,8 °C 0,0 km/h (0 Bft)
08.04.2017 03:36 1,8 °C 1,8 °C 92 % 1023,4 hPa 0,0 mm 0,0 km/h (0 Bft) S 178 ° 0 min 0,000 mm 0,0 UV-I 0 W/m² 0,6 °C 1,8 °C 0,0 km/h (0 Bft)
08.04.2017 03:37 1,8 °C 1,8 °C 92 % 1023,4 hPa 0,0 mm 0,0 km/h (0 Bft) S 178 ° 0 min 0,000 mm 0,0 UV-I 0 W/m² 0,6 °C 1,8 °C 0,0 km/h (0 Bft)
08.04.2017 03:38 1,8 °C 1,8 °C 92 % 1023,4 hPa 0,0 mm 0,0 km/h (0 Bft) S 178 ° 0 min 0,000 mm 0,0 UV-I 0 W/m² 0,6 °C 1,8 °C 0,0 km/h (0 Bft)
08.04.2017 03:39 1,9 °C 1,9 °C 92 % 1023,4 hPa 0,0 mm 0,0 km/h (0 Bft) S 178 ° 0 min 0,000 mm 0,0 UV-I 0 W/m² 0,7 °C 1,9 °C 0,0 km/h (0 Bft)
08.04.2017 03:40 1,9 °C 1,9 °C 93 % 1023,4 hPa 0,0 mm 0,0 km/h (0 Bft) S 178 ° 0 min 0,000 mm 0,0 UV-I 0 W/m² 0,9 °C 1,9 °C 0,0 km/h (0 Bft)
08.04.2017 03:41 2,0 °C 2,0 °C 93 % 1023,4 hPa 0,0 mm 0,0 km/h (0 Bft) S 178 ° 0 min 0,000 mm 0,0 UV-I 0 W/m² 1,0 °C 2,0 °C 0,0 km/h (0 Bft)
08.04.2017 03:42 2,0 °C 2,0 °C 93 % 1023,4 hPa 0,0 mm 0,0 km/h (0 Bft) S 178 ° 0 min 0,000 mm 0,0 UV-I 0 W/m² 1,0 °C 2,0 °C 0,0 km/h (0 Bft)
08.04.2017 03:43 2,1 °C 2,1 °C 93 % 1023,4 hPa 0,0 mm 0,0 km/h (0 Bft) S 178 ° 0 min 0,000 mm 0,0 UV-I 0 W/m² 1,1 °C 2,1 °C 0,0 km/h (0 Bft)
08.04.2017 03:44 2,1 °C 2,1 °C 92 % 1023,4 hPa 0,0 mm 0,0 km/h (0 Bft) S 178 ° 0 min 0,000 mm 0,0 UV-I 0 W/m² 0,9 °C 2,1 °C 0,0 km/h (0 Bft)
08.04.2017 03:45 2,1 °C 2,1 °C 92 % 1023,4 hPa 0,0 mm 0,0 km/h (0 Bft) S 178 ° 0 min 0,000 mm 0,0 UV-I 0 W/m² 0,9 °C 2,1 °C 0,0 km/h (0 Bft)
08.04.2017 03:46 2,1 °C 2,1 °C 92 % 1023,4 hPa 0,0 mm 0,0 km/h (0 Bft) S 178 ° 0 min 0,000 mm 0,0 UV-I 0 W/m² 0,9 °C 2,1 °C 0,0 km/h (0 Bft)
08.04.2017 03:47 2,1 °C 2,2 °C 92 % 1023,5 hPa 0,0 mm 0,0 km/h (0 Bft) S 178 ° 0 min 0,000 mm 0,0 UV-I 0 W/m² 0,9 °C 2,1 °C 0,0 km/h (0 Bft)
08.04.2017 03:48 2,1 °C 2,1 °C 92 % 1023,5 hPa 0,0 mm 0,0 km/h (0 Bft) S 178 ° 0 min 0,000 mm 0,0 UV-I 0 W/m² 0,9 °C 2,1 °C 0,0 km/h (0 Bft)
08.04.2017 03:49 1,9 °C 2,1 °C 92 % 1023,5 hPa 0,0 mm 0,0 km/h (0 Bft) S 178 ° 0 min 0,000 mm 0,0 UV-I 0 W/m² 0,7 °C 1,9 °C 0,0 km/h (0 Bft)
08.04.2017 03:50 1,8 °C 1,9 °C 91 % 1023,5 hPa 0,0 mm 0,0 km/h (0 Bft) S 178 ° 0 min 0,000 mm 0,0 UV-I 0 W/m² 0,5 °C 1,8 °C 0,0 km/h (0 Bft)
08.04.2017 03:51 1,8 °C 1,8 °C 91 % 1023,5 hPa 0,0 mm 0,0 km/h (0 Bft) S 178 ° 0 min 0,000 mm 0,0 UV-I 0 W/m² 0,5 °C 1,8 °C 0,0 km/h (0 Bft)
08.04.2017 03:52 1,7 °C 1,8 °C 91 % 1023,5 hPa 0,0 mm 0,0 km/h (0 Bft) S 178 ° 0 min 0,000 mm 0,0 UV-I 0 W/m² 0,4 °C 1,7 °C 0,0 km/h (0 Bft)
08.04.2017 03:53 1,8 °C 1,8 °C 92 % 1023,5 hPa 0,0 mm 0,0 km/h (0 Bft) S 178 ° 0 min 0,000 mm 0,0 UV-I 0 W/m² 0,6 °C 1,8 °C 0,0 km/h (0 Bft)
08.04.2017 03:54 1,7 °C 1,8 °C 92 % 1023,5 hPa 0,0 mm 0,0 km/h (0 Bft) S 178 ° 0 min 0,000 mm 0,0 UV-I 0 W/m² 0,5 °C 1,7 °C 0,0 km/h (0 Bft)
08.04.2017 03:55 1,7 °C 1,8 °C 92 % 1023,5 hPa 0,0 mm 0,0 km/h (0 Bft) S 178 ° 0 min 0,000 mm 0,0 UV-I 0 W/m² 0,5 °C 1,7 °C 0,0 km/h (0 Bft)
08.04.2017 03:56 1,7 °C 1,7 °C 92 % 1023,5 hPa 0,0 mm 0,0 km/h (0 Bft) S 178 ° 0 min 0,000 mm 0,0 UV-I 0 W/m² 0,5 °C 1,7 °C 0,0 km/h (0 Bft)
08.04.2017 03:57 1,7 °C 1,7 °C 92 % 1023,5 hPa 0,0 mm 0,0 km/h (0 Bft) S 178 ° 0 min 0,000 mm 0,0 UV-I 0 W/m² 0,5 °C 1,7 °C 0,0 km/h (0 Bft)
08.04.2017 03:58 1,7 °C 1,7 °C 92 % 1023,5 hPa 0,0 mm 0,0 km/h (0 Bft) S 178 ° 0 min 0,000 mm 0,0 UV-I 0 W/m² 0,5 °C 1,7 °C 0,0 km/h (0 Bft)
08.04.2017 03:59 1,7 °C 1,7 °C 92 % 1023,5 hPa 0,0 mm 0,0 km/h (0 Bft) S 178 ° 0 min 0,000 mm 0,0 UV-I 0 W/m² 0,5 °C 1,7 °C 0,0 km/h (0 Bft)
08.04.2017 04:00 1,7 °C 1,7 °C 92 % 1023,5 hPa 0,0 mm 0,0 km/h (0 Bft) S 178 ° 0 min 0,000 mm 0,0 UV-I 0 W/m² 0,5 °C 1,7 °C 0,0 km/h (0 Bft)
08.04.2017 04:01 1,6 °C 1,7 °C 92 % 1023,5 hPa 0,0 mm 0,0 km/h (0 Bft) S 178 ° 0 min 0,000 mm 0,0 UV-I 0 W/m² 0,4 °C 1,6 °C 0,0 km/h (0 Bft)
08.04.2017 04:02 1,6 °C 1,6 °C 92 % 1023,5 hPa 0,0 mm 0,0 km/h (0 Bft) S 178 ° 0 min 0,000 mm 0,0 UV-I 0 W/m² 0,4 °C 1,6 °C 0,0 km/h (0 Bft)
08.04.2017 04:03 1,6 °C 1,6 °C 92 % 1023,5 hPa 0,0 mm 0,0 km/h (0 Bft) S 178 ° 0 min 0,000 mm 0,0 UV-I 0 W/m² 0,4 °C 1,6 °C 0,0 km/h (0 Bft)
08.04.2017 04:04 1,5 °C 1,6 °C 92 % 1023,5 hPa 0,0 mm 0,0 km/h (0 Bft) S 178 ° 0 min 0,000 mm 0,0 UV-I 0 W/m² 0,3 °C 1,5 °C 0,0 km/h (0 Bft)
08.04.2017 04:05 1,5 °C 1,5 °C 92 % 1023,5 hPa 0,0 mm 0,0 km/h (0 Bft) S 178 ° 0 min 0,000 mm 0,0 UV-I 0 W/m² 0,3 °C 1,5 °C 0,0 km/h (0 Bft)
08.04.2017 04:06 1,4 °C 1,5 °C 92 % 1023,6 hPa 0,0 mm 0,0 km/h (0 Bft) S 178 ° 0 min 0,000 mm 0,0 UV-I 0 W/m² 0,2 °C 1,4 °C 0,0 km/h (0 Bft)
08.04.2017 04:07 1,4 °C 1,4 °C 92 % 1023,5 hPa 0,0 mm 0,0 km/h (0 Bft) S 178 ° 0 min 0,000 mm 0,0 UV-I 0 W/m² 0,2 °C 1,4 °C 0,0 km/h (0 Bft)
08.04.2017 04:08 1,4 °C 1,4 °C 92 % 1023,5 hPa 0,0 mm 0,0 km/h (0 Bft) S 178 ° 0 min 0,000 mm 0,0 UV-I 0 W/m² 0,2 °C 1,4 °C 0,0 km/h (0 Bft)
08.04.2017 04:09 1,4 °C 1,4 °C 92 % 1023,6 hPa 0,0 mm 0,0 km/h (0 Bft) S 178 ° 0 min 0,000 mm 0,0 UV-I 0 W/m² 0,2 °C 1,4 °C 0,0 km/h (0 Bft)
08.04.2017 04:10 1,4 °C 1,4 °C 92 % 1023,5 hPa 0,0 mm 0,0 km/h (0 Bft) S 178 ° 0 min 0,000 mm 0,0 UV-I 0 W/m² 0,2 °C 1,4 °C 0,0 km/h (0 Bft)
08.04.2017 04:11 1,4 °C 1,4 °C 92 % 1023,6 hPa 0,0 mm 0,0 km/h (0 Bft) S 178 ° 0 min 0,000 mm 0,0 UV-I 0 W/m² 0,2 °C 1,4 °C 0,0 km/h (0 Bft)
08.04.2017 04:12 1,5 °C 1,5 °C 92 % 1023,6 hPa 0,0 mm 0,0 km/h (0 Bft) S 178 ° 0 min 0,000 mm 0,0 UV-I 0 W/m² 0,3 °C 1,5 °C 0,0 km/h (0 Bft)
08.04.2017 04:13 1,5 °C 1,5 °C 93 % 1023,6 hPa 0,0 mm 0,0 km/h (0 Bft) S 178 ° 0 min 0,000 mm 0,0 UV-I 0 W/m² 0,5 °C 1,5 °C 0,0 km/h (0 Bft)
08.04.2017 04:14 1,5 °C 1,6 °C 92 % 1023,5 hPa 0,0 mm 0,0 km/h (0 Bft) S 178 ° 0 min 0,000 mm 0,0 UV-I 0 W/m² 0,3 °C 1,5 °C 0,0 km/h (0 Bft)
08.04.2017 04:15 1,4 °C 1,5 °C 92 % 1023,6 hPa 0,0 mm 0,0 km/h (0 Bft) S 178 ° 0 min 0,000 mm 0,0 UV-I 0 W/m² 0,2 °C 1,4 °C 0,0 km/h (0 Bft)
08.04.2017 04:16 1,3 °C 1,4 °C 92 % 1023,5 hPa 0,0 mm 0,0 km/h (0 Bft) S 178 ° 0 min 0,000 mm 0,0 UV-I 0 W/m² 0,1 °C 1,3 °C 0,0 km/h (0 Bft)
08.04.2017 04:17 1,3 °C 1,3 °C 92 % 1023,5 hPa 0,0 mm 0,0 km/h (0 Bft) S 178 ° 0 min 0,000 mm 0,0 UV-I 0 W/m² 0,1 °C 1,3 °C 0,0 km/h (0 Bft)
08.04.2017 04:18 1,3 °C 1,3 °C 92 % 1023,5 hPa 0,0 mm 0,0 km/h (0 Bft) S 178 ° 0 min 0,000 mm 0,0 UV-I 0 W/m² 0,1 °C 1,3 °C 0,0 km/h (0 Bft)
08.04.2017 04:19 1,3 °C 1,3 °C 93 % 1023,6 hPa 0,0 mm 0,0 km/h (0 Bft) S 178 ° 0 min 0,000 mm 0,0 UV-I 0 W/m² 0,3 °C 1,3 °C 0,0 km/h (0 Bft)
08.04.2017 04:20 1,4 °C 1,4 °C 93 % 1023,5 hPa 0,0 mm 0,0 km/h (0 Bft) S 178 ° 0 min 0,000 mm 0,0 UV-I 0 W/m² 0,4 °C 1,4 °C 0,0 km/h (0 Bft)
08.04.2017 04:21 1,4 °C 1,4 °C 93 % 1023,5 hPa 0,0 mm 0,0 km/h (0 Bft) S 178 ° 0 min 0,000 mm 0,0 UV-I 0 W/m² 0,4 °C 1,4 °C 0,0 km/h (0 Bft)
08.04.2017 04:22 1,5 °C 1,5 °C 93 % 1023,5 hPa 0,0 mm 0,0 km/h (0 Bft) S 178 ° 0 min 0,000 mm 0,0 UV-I 0 W/m² 0,5 °C 1,5 °C 0,0 km/h (0 Bft)
08.04.2017 04:23 1,5 °C 1,6 °C 93 % 1023,5 hPa 0,0 mm 0,0 km/h (0 Bft) S 178 ° 0 min 0,000 mm 0,0 UV-I 0 W/m² 0,5 °C 1,5 °C 0,0 km/h (0 Bft)
08.04.2017 04:24 1,4 °C 1,5 °C 93 % 1023,5 hPa 0,0 mm 0,0 km/h (0 Bft) S 178 ° 0 min 0,000 mm 0,0 UV-I 0 W/m² 0,4 °C 1,4 °C 0,0 km/h (0 Bft)
08.04.2017 04:25 1,4 °C 1,5 °C 93 % 1023,5 hPa 0,0 mm 0,0 km/h (0 Bft) S 178 ° 0 min 0,000 mm 0,0 UV-I 0 W/m² 0,4 °C 1,4 °C 0,0 km/h (0 Bft)
08.04.2017 04:26 1,4 °C 1,4 °C 93 % 1023,5 hPa 0,0 mm 0,0 km/h (0 Bft) S 178 ° 0 min 0,000 mm 0,0 UV-I 0 W/m² 0,4 °C 1,4 °C 0,0 km/h (0 Bft)
08.04.2017 04:27 1,3 °C 1,4 °C 93 % 1023,5 hPa 0,0 mm 0,0 km/h (0 Bft) S 178 ° 0 min 0,000 mm 0,0 UV-I 0 W/m² 0,3 °C 1,3 °C 0,0 km/h (0 Bft)
08.04.2017 04:28 1,3 °C 1,4 °C 92 % 1023,5 hPa 0,0 mm 0,0 km/h (0 Bft) S 178 ° 0 min 0,000 mm 0,0 UV-I 0 W/m² 0,1 °C 1,3 °C 0,0 km/h (0 Bft)
08.04.2017 04:29 1,3 °C 1,3 °C 92 % 1023,5 hPa 0,0 mm 0,0 km/h (0 Bft) S 178 ° 0 min 0,000 mm 0,0 UV-I 0 W/m² 0,1 °C 1,3 °C 0,0 km/h (0 Bft)
08.04.2017 04:30 1,2 °C 1,3 °C 92 % 1023,5 hPa 0,0 mm 0,0 km/h (0 Bft) S 178 ° 0 min 0,000 mm 0,0 UV-I 0 W/m² 0,0 °C 1,2 °C 0,0 km/h (0 Bft)
08.04.2017 04:31 1,1 °C 1,2 °C 92 % 1023,5 hPa 0,0 mm 0,0 km/h (0 Bft) S 178 ° 0 min 0,000 mm 0,0 UV-I 0 W/m² -0,1 °C 1,1 °C 0,0 km/h (0 Bft)
08.04.2017 04:32 1,1 °C 1,2 °C 93 % 1023,6 hPa 0,0 mm 0,0 km/h (0 Bft) S 178 ° 0 min 0,000 mm 0,0 UV-I 0 W/m² 0,1 °C 1,1 °C 0,0 km/h (0 Bft)
08.04.2017 04:33 1,1 °C 1,2 °C 93 % 1023,5 hPa 0,0 mm 0,0 km/h (0 Bft) S 178 ° 0 min 0,000 mm 0,0 UV-I 0 W/m² 0,1 °C 1,1 °C 0,0 km/h (0 Bft)
08.04.2017 04:34 1,0 °C 1,1 °C 92 % 1023,6 hPa 0,0 mm 0,0 km/h (0 Bft) S 178 ° 0 min 0,000 mm 0,0 UV-I 0 W/m² -0,2 °C 1,0 °C 0,0 km/h (0 Bft)
08.04.2017 04:35 1,0 °C 1,0 °C 92 % 1023,6 hPa 0,0 mm 0,0 km/h (0 Bft) S 178 ° 0 min 0,000 mm 0,0 UV-I 0 W/m² -0,2 °C 1,0 °C 0,0 km/h (0 Bft)
08.04.2017 04:36 0,9 °C 1,0 °C 92 % 1023,5 hPa 0,0 mm 0,0 km/h (0 Bft) S 178 ° 0 min 0,000 mm 0,0 UV-I 0 W/m² -0,2 °C 0,9 °C 0,0 km/h (0 Bft)
08.04.2017 04:37 0,9 °C 0,9 °C 93 % 1023,5 hPa 0,0 mm 0,0 km/h (0 Bft) S 178 ° 0 min 0,000 mm 0,0 UV-I 0 W/m² -0,1 °C 0,9 °C 0,0 km/h (0 Bft)
08.04.2017 04:38 0,9 °C 0,9 °C 93 % 1023,6 hPa 0,0 mm 0,0 km/h (0 Bft) S 178 ° 0 min 0,000 mm 0,0 UV-I 0 W/m² -0,1 °C 0,9 °C 0,0 km/h (0 Bft)
08.04.2017 04:39 1,0 °C 1,0 °C 93 % 1023,6 hPa 0,0 mm 0,0 km/h (0 Bft) S 178 ° 0 min 0,000 mm 0,0 UV-I 0 W/m² -0,0 °C 1,0 °C 0,0 km/h (0 Bft)
08.04.2017 04:40 1,0 °C 1,0 °C 93 % 1023,5 hPa 0,0 mm 0,0 km/h (0 Bft) S 178 ° 0 min 0,000 mm 0,0 UV-I 0 W/m² -0,0 °C 1,0 °C 0,0 km/h (0 Bft)
08.04.2017 04:41 1,1 °C 1,1 °C 93 % 1023,5 hPa 0,0 mm 0,0 km/h (0 Bft) S 178 ° 0 min 0,000 mm 0,0 UV-I 0 W/m² 0,1 °C 1,1 °C 0,0 km/h (0 Bft)
08.04.2017 04:42 1,1 °C 1,1 °C 93 % 1023,6 hPa 0,0 mm 0,0 km/h (0 Bft) S 178 ° 0 min 0,000 mm 0,0 UV-I 0 W/m² 0,1 °C 1,1 °C 0,0 km/h (0 Bft)
08.04.2017 04:43 1,1 °C 1,1 °C 93 % 1023,5 hPa 0,0 mm 0,0 km/h (0 Bft) S 178 ° 0 min 0,000 mm 0,0 UV-I 0 W/m² 0,1 °C 1,1 °C 0,0 km/h (0 Bft)
08.04.2017 04:44 1,1 °C 1,1 °C 93 % 1023,6 hPa 0,0 mm 0,0 km/h (0 Bft) S 178 ° 0 min 0,000 mm 0,0 UV-I 0 W/m² 0,1 °C 1,1 °C 0,0 km/h (0 Bft)
08.04.2017 04:45 1,1 °C 1,1 °C 93 % 1023,5 hPa 0,0 mm 0,0 km/h (0 Bft) S 178 ° 0 min 0,000 mm 0,0 UV-I 0 W/m² 0,1 °C 1,1 °C 0,0 km/h (0 Bft)
08.04.2017 04:46 1,1 °C 1,2 °C 93 % 1023,5 hPa 0,0 mm 0,0 km/h (0 Bft) S 178 ° 0 min 0,000 mm 0,0 UV-I 0 W/m² 0,1 °C 1,1 °C 0,0 km/h (0 Bft)
08.04.2017 04:47 1,2 °C 1,2 °C 93 % 1023,5 hPa 0,0 mm 0,0 km/h (0 Bft) S 178 ° 0 min 0,000 mm 0,0 UV-I 0 W/m² 0,2 °C 1,2 °C 0,0 km/h (0 Bft)
08.04.2017 04:48 1,3 °C 1,3 °C 94 % 1023,5 hPa 0,0 mm 0,0 km/h (0 Bft) S 178 ° 0 min 0,000 mm 0,0 UV-I 0 W/m² 0,4 °C 1,3 °C 0,0 km/h (0 Bft)
08.04.2017 04:49 1,3 °C 1,3 °C 93 % 1023,5 hPa 0,0 mm 0,5 km/h (0 Bft) S 178 ° 0 min 0,000 mm 0,0 UV-I 0 W/m² 0,3 °C 1,3 °C 1,6 km/h (1 Bft)
08.04.2017 04:50 1,2 °C 1,3 °C 93 % 1023,5 hPa 0,0 mm 0,0 km/h (0 Bft) S 178 ° 0 min 0,000 mm 0,0 UV-I 0 W/m² 0,2 °C 1,2 °C 0,0 km/h (0 Bft)
08.04.2017 04:51 1,1 °C 1,2 °C 93 % 1023,5 hPa 0,0 mm 0,0 km/h (0 Bft) S 178 ° 0 min 0,000 mm 0,0 UV-I 0 W/m² 0,1 °C 1,1 °C 0,0 km/h (0 Bft)
08.04.2017 04:52 0,9 °C 1,1 °C 93 % 1023,6 hPa 0,0 mm 0,0 km/h (0 Bft) S 178 ° 0 min 0,000 mm 0,0 UV-I 0 W/m² -0,1 °C 0,9 °C 0,0 km/h (0 Bft)
08.04.2017 04:53 0,9 °C 0,9 °C 93 % 1023,6 hPa 0,0 mm 0,0 km/h (0 Bft) S 178 ° 0 min 0,000 mm 0,0 UV-I 0 W/m² -0,1 °C 0,9 °C 0,0 km/h (0 Bft)
08.04.2017 04:54 0,8 °C 0,9 °C 93 % 1023,6 hPa 0,0 mm 0,0 km/h (0 Bft) S 178 ° 0 min 0,000 mm 0,0 UV-I 0 W/m² -0,2 °C 0,8 °C 0,0 km/h (0 Bft)
08.04.2017 04:55 0,9 °C 0,9 °C 93 % 1023,6 hPa 0,0 mm 0,0 km/h (0 Bft) S 178 ° 0 min 0,000 mm 0,0 UV-I 0 W/m² -0,1 °C 0,9 °C 0,0 km/h (0 Bft)
08.04.2017 04:56 1,0 °C 1,0 °C 93 % 1023,6 hPa 0,0 mm 0,0 km/h (0 Bft) S 178 ° 0 min 0,000 mm 0,0 UV-I 0 W/m² -0,0 °C 1,0 °C 0,0 km/h (0 Bft)
08.04.2017 04:57 1,1 °C 1,1 °C 93 % 1023,6 hPa 0,0 mm 0,0 km/h (0 Bft) S 178 ° 0 min 0,000 mm 0,0 UV-I 0 W/m² 0,1 °C 1,1 °C 0,0 km/h (0 Bft)
08.04.2017 04:58 1,2 °C 1,2 °C 94 % 1023,6 hPa 0,0 mm 0,0 km/h (0 Bft) S 178 ° 0 min 0,000 mm 0,0 UV-I 0 W/m² 0,3 °C 1,2 °C 0,0 km/h (0 Bft)
08.04.2017 04:59 1,3 °C 1,3 °C 94 % 1023,6 hPa 0,0 mm 0,0 km/h (0 Bft) S 178 ° 0 min 0,000 mm 0,0 UV-I 0 W/m² 0,4 °C 1,3 °C 0,0 km/h (0 Bft)
08.04.2017 05:00 1,2 °C 1,3 °C 94 % 1023,6 hPa 0,0 mm 0,0 km/h (0 Bft) S 178 ° 0 min 0,000 mm 0,0 UV-I 0 W/m² 0,3 °C 1,2 °C 0,0 km/h (0 Bft)
08.04.2017 05:01 1,1 °C 1,2 °C 93 % 1023,5 hPa 0,0 mm 0,0 km/h (0 Bft) S 178 ° 0 min 0,000 mm 0,0 UV-I 0 W/m² 0,1 °C 1,1 °C 0,0 km/h (0 Bft)
08.04.2017 05:02 0,9 °C 1,1 °C 93 % 1023,6 hPa 0,0 mm 0,0 km/h (0 Bft) S 178 ° 0 min 0,000 mm 0,0 UV-I 0 W/m² -0,1 °C 0,9 °C 0,0 km/h (0 Bft)
08.04.2017 05:03 0,8 °C 0,9 °C 92 % 1023,5 hPa 0,0 mm 0,0 km/h (0 Bft) S 178 ° 0 min 0,000 mm 0,0 UV-I 0 W/m² -0,3 °C 0,8 °C 0,0 km/h (0 Bft)
08.04.2017 05:04 0,8 °C 0,9 °C 93 % 1023,6 hPa 0,0 mm 0,0 km/h (0 Bft) S 178 ° 0 min 0,000 mm 0,0 UV-I 0 W/m² -0,2 °C 0,8 °C 0,0 km/h (0 Bft)
08.04.2017 05:05 0,9 °C 0,9 °C 93 % 1023,5 hPa 0,0 mm 0,0 km/h (0 Bft) S 178 ° 0 min 0,000 mm 0,0 UV-I 0 W/m² -0,1 °C 0,9 °C 0,0 km/h (0 Bft)
08.04.2017 05:06 1,1 °C 1,1 °C 94 % 1023,5 hPa 0,0 mm 0,0 km/h (0 Bft) S 178 ° 0 min 0,000 mm 0,0 UV-I 0 W/m² 0,2 °C 1,1 °C 0,0 km/h (0 Bft)
08.04.2017 05:07 1,2 °C 1,2 °C 94 % 1023,5 hPa 0,0 mm 0,0 km/h (0 Bft) S 178 ° 0 min 0,000 mm 0,0 UV-I 0 W/m² 0,3 °C 1,2 °C 0,0 km/h (0 Bft)
08.04.2017 05:08 1,3 °C 1,3 °C 94 % 1023,6 hPa 0,0 mm 0,0 km/h (0 Bft) S 178 ° 0 min 0,000 mm 0,0 UV-I 0 W/m² 0,4 °C 1,3 °C 0,0 km/h (0 Bft)
08.04.2017 05:09 1,3 °C 1,4 °C 94 % 1023,6 hPa 0,0 mm 0,0 km/h (0 Bft) S 178 ° 0 min 0,000 mm 0,0 UV-I 0 W/m² 0,4 °C 1,3 °C 0,0 km/h (0 Bft)
08.04.2017 05:10 1,3 °C 1,4 °C 94 % 1023,6 hPa 0,0 mm 0,0 km/h (0 Bft) S 178 ° 0 min 0,000 mm 0,0 UV-I 0 W/m² 0,4 °C 1,3 °C 0,0 km/h (0 Bft)
08.04.2017 05:11 1,2 °C 1,3 °C 94 % 1023,5 hPa 0,0 mm 0,0 km/h (0 Bft) S 178 ° 0 min 0,000 mm 0,0 UV-I 0 W/m² 0,3 °C 1,2 °C 0,0 km/h (0 Bft)
08.04.2017 05:12 1,1 °C 1,2 °C 93 % 1023,5 hPa 0,0 mm 0,0 km/h (0 Bft) S 178 ° 0 min 0,000 mm 0,0 UV-I 0 W/m² 0,1 °C 1,1 °C 0,0 km/h (0 Bft)
08.04.2017 05:13 0,9 °C 1,1 °C 93 % 1023,5 hPa 0,0 mm 0,0 km/h (0 Bft) S 178 ° 0 min 0,000 mm 0,0 UV-I 0 W/m² -0,1 °C 0,9 °C 0,0 km/h (0 Bft)
08.04.2017 05:14 0,9 °C 0,9 °C 93 % 1023,5 hPa 0,0 mm 0,0 km/h (0 Bft) S 178 ° 0 min 0,000 mm 0,0 UV-I 0 W/m² -0,1 °C 0,9 °C 0,0 km/h (0 Bft)
08.04.2017 05:15 0,8 °C 0,9 °C 93 % 1023,5 hPa 0,0 mm 0,0 km/h (0 Bft) S 178 ° 0 min 0,000 mm 0,0 UV-I 0 W/m² -0,2 °C 0,8 °C 0,0 km/h (0 Bft)
08.04.2017 05:16 0,9 °C 0,9 °C 93 % 1023,5 hPa 0,0 mm 0,0 km/h (0 Bft) S 178 ° 0 min 0,000 mm 0,0 UV-I 0 W/m² -0,1 °C 0,9 °C 0,0 km/h (0 Bft)
08.04.2017 05:17 0,9 °C 0,9 °C 93 % 1023,5 hPa 0,0 mm 0,0 km/h (0 Bft) S 178 ° 0 min 0,000 mm 0,0 UV-I 0 W/m² -0,1 °C 0,9 °C 0,0 km/h (0 Bft)
08.04.2017 05:18 0,9 °C 0,9 °C 93 % 1023,4 hPa 0,0 mm 0,0 km/h (0 Bft) S 178 ° 0 min 0,000 mm 0,0 UV-I 0 W/m² -0,1 °C 0,9 °C 0,0 km/h (0 Bft)
08.04.2017 05:19 0,9 °C 0,9 °C 93 % 1023,4 hPa 0,0 mm 0,0 km/h (0 Bft) S 178 ° 0 min 0,000 mm 0,0 UV-I 0 W/m² -0,1 °C 0,9 °C 0,0 km/h (0 Bft)
08.04.2017 05:20 0,8 °C 0,9 °C 93 % 1023,4 hPa 0,0 mm 0,0 km/h (0 Bft) S 178 ° 0 min 0,000 mm 0,0 UV-I 0 W/m² -0,2 °C 0,8 °C 0,0 km/h (0 Bft)
08.04.2017 05:21 0,8 °C 0,8 °C 93 % 1023,4 hPa 0,0 mm 0,0 km/h (0 Bft) S 178 ° 0 min 0,000 mm 0,0 UV-I 0 W/m² -0,2 °C 0,8 °C 0,0 km/h (0 Bft)
08.04.2017 05:22 0,8 °C 0,8 °C 93 % 1023,4 hPa 0,0 mm 0,0 km/h (0 Bft) S 178 ° 0 min 0,000 mm 0,0 UV-I 0 W/m² -0,2 °C 0,8 °C 0,0 km/h (0 Bft)
08.04.2017 05:23 0,7 °C 0,8 °C 93 % 1023,4 hPa 0,0 mm 0,0 km/h (0 Bft) S 178 ° 0 min 0,000 mm 0,0 UV-I 0 W/m² -0,3 °C 0,7 °C 0,0 km/h (0 Bft)
08.04.2017 05:24 0,7 °C 0,7 °C 93 % 1023,4 hPa 0,0 mm 0,0 km/h (0 Bft) S 178 ° 0 min 0,000 mm 0,0 UV-I 0 W/m² -0,3 °C 0,7 °C 0,0 km/h (0 Bft)
08.04.2017 05:25 0,6 °C 0,7 °C 93 % 1023,4 hPa 0,0 mm 0,0 km/h (0 Bft) S 178 ° 0 min 0,000 mm 0,0 UV-I 0 W/m² -0,4 °C 0,6 °C 0,0 km/h (0 Bft)
08.04.2017 05:26 0,6 °C 0,6 °C 93 % 1023,4 hPa 0,0 mm 0,0 km/h (0 Bft) S 178 ° 0 min 0,000 mm 0,0 UV-I 0 W/m² -0,4 °C 0,6 °C 0,0 km/h (0 Bft)
08.04.2017 05:27 0,5 °C 0,6 °C 93 % 1023,4 hPa 0,0 mm 0,0 km/h (0 Bft) S 178 ° 0 min 0,000 mm 0,0 UV-I 0 W/m² -0,5 °C 0,5 °C 0,0 km/h (0 Bft)
08.04.2017 05:28 0,5 °C 0,6 °C 93 % 1023,4 hPa 0,0 mm 0,0 km/h (0 Bft) S 178 ° 0 min 0,000 mm 0,0 UV-I 0 W/m² -0,5 °C 0,5 °C 0,0 km/h (0 Bft)
08.04.2017 05:29 0,4 °C 0,5 °C 93 % 1023,4 hPa 0,0 mm 0,0 km/h (0 Bft) S 178 ° 0 min 0,000 mm 0,0 UV-I 0 W/m² -0,6 °C 0,4 °C 0,0 km/h (0 Bft)
08.04.2017 05:30 0,4 °C 0,5 °C 93 % 1023,3 hPa 0,0 mm 0,3 km/h (0 Bft) S 178 ° 0 min 0,000 mm 0,0 UV-I 0 W/m² -0,6 °C 0,4 °C 1,6 km/h (1 Bft)
08.04.2017 05:31 0,5 °C 0,5 °C 93 % 1023,3 hPa 0,0 mm 1,3 km/h (1 Bft) S 178 ° 0 min 0,000 mm 0,0 UV-I 0 W/m² -0,5 °C 0,5 °C 1,6 km/h (1 Bft)
08.04.2017 05:32 0,6 °C 0,6 °C 94 % 1023,3 hPa 0,0 mm 1,7 km/h (1 Bft) S 178 ° 0 min 0,000 mm 0,0 UV-I 0 W/m² -0,3 °C 0,6 °C 3,2 km/h (1 Bft)
08.04.2017 05:33 0,6 °C 0,6 °C 94 % 1023,4 hPa 0,0 mm 0,9 km/h (0 Bft) S 178 ° 0 min 0,000 mm 0,0 UV-I 0 W/m² -0,3 °C 0,6 °C 1,6 km/h (1 Bft)
08.04.2017 05:34 0,4 °C 0,6 °C 93 % 1023,4 hPa 0,0 mm 0,0 km/h (0 Bft) S 178 ° 0 min 0,000 mm 0,0 UV-I 0 W/m² -0,6 °C 0,4 °C 0,0 km/h (0 Bft)
08.04.2017 05:35 0,3 °C 0,4 °C 93 % 1023,3 hPa 0,0 mm 0,0 km/h (0 Bft) S 178 ° 0 min 0,000 mm 0,0 UV-I 0 W/m² -0,7 °C 0,3 °C 0,0 km/h (0 Bft)
08.04.2017 05:36 0,3 °C 0,3 °C 93 % 1023,3 hPa 0,0 mm 0,0 km/h (0 Bft) S 178 ° 0 min 0,000 mm 0,0 UV-I 0 W/m² -0,7 °C 0,3 °C 0,0 km/h (0 Bft)
08.04.2017 05:37 0,3 °C 0,3 °C 93 % 1023,3 hPa 0,0 mm 0,0 km/h (0 Bft) S 178 ° 0 min 0,000 mm 0,0 UV-I 0 W/m² -0,7 °C 0,3 °C 0,0 km/h (0 Bft)
08.04.2017 05:38 0,2 °C 0,3 °C 93 % 1023,3 hPa 0,0 mm 0,0 km/h (0 Bft) S 178 ° 0 min 0,000 mm 0,0 UV-I 0 W/m² -0,8 °C 0,2 °C 0,0 km/h (0 Bft)
08.04.2017 05:39 0,2 °C 0,2 °C 93 % 1023,2 hPa 0,0 mm 0,0 km/h (0 Bft) S 178 ° 0 min 0,000 mm 0,0 UV-I 0 W/m² -0,8 °C 0,2 °C 0,0 km/h (0 Bft)
08.04.2017 05:40 0,2 °C 0,2 °C 93 % 1023,3 hPa 0,0 mm 0,0 km/h (0 Bft) S 178 ° 0 min 0,000 mm 0,0 UV-I 0 W/m² -0,8 °C 0,2 °C 0,0 km/h (0 Bft)
08.04.2017 05:41 0,2 °C 0,2 °C 93 % 1023,3 hPa 0,0 mm 0,0 km/h (0 Bft) S 178 ° 0 min 0,000 mm 0,0 UV-I 0 W/m² -0,8 °C 0,2 °C 0,0 km/h (0 Bft)
08.04.2017 05:42 0,2 °C 0,2 °C 93 % 1023,3 hPa 0,0 mm 0,0 km/h (0 Bft) S 178 ° 0 min 0,000 mm 0,0 UV-I 0 W/m² -0,8 °C 0,2 °C 0,0 km/h (0 Bft)
08.04.2017 05:43 0,2 °C 0,2 °C 93 % 1023,3 hPa 0,0 mm 0,0 km/h (0 Bft) S 178 ° 0 min 0,000 mm 0,0 UV-I 0 W/m² -0,8 °C 0,2 °C 0,0 km/h (0 Bft)
08.04.2017 05:44 0,2 °C 0,2 °C 93 % 1023,3 hPa 0,0 mm 0,0 km/h (0 Bft) S 178 ° 0 min 0,000 mm 0,0 UV-I 0 W/m² -0,8 °C 0,2 °C 0,0 km/h (0 Bft)
08.04.2017 05:45 0,2 °C 0,2 °C 93 % 1023,3 hPa 0,0 mm 0,0 km/h (0 Bft) S 178 ° 0 min 0,000 mm 0,0 UV-I 0 W/m² -0,8 °C 0,2 °C 0,0 km/h (0 Bft)
08.04.2017 05:46 0,2 °C 0,2 °C 93 % 1023,3 hPa 0,0 mm 0,0 km/h (0 Bft) S 178 ° 0 min 0,000 mm 0,0 UV-I 0 W/m² -0,8 °C 0,2 °C 0,0 km/h (0 Bft)
08.04.2017 05:47 0,2 °C 0,2 °C 93 % 1023,3 hPa 0,0 mm 0,0 km/h (0 Bft) S 178 ° 0 min 0,000 mm 0,0 UV-I 0 W/m² -0,8 °C 0,2 °C 0,0 km/h (0 Bft)
08.04.2017 05:48 0,1 °C 0,2 °C 93 % 1023,3 hPa 0,0 mm 0,0 km/h (0 Bft) S 178 ° 0 min 0,000 mm 0,0 UV-I 0 W/m² -0,9 °C 0,1 °C 0,0 km/h (0 Bft)
08.04.2017 05:49 0,1 °C 0,1 °C 93 % 1023,3 hPa 0,0 mm 0,0 km/h (0 Bft) S 178 ° 0 min 0,000 mm 0,0 UV-I 0 W/m² -0,9 °C 0,1 °C 0,0 km/h (0 Bft)
08.04.2017 05:50 0,1 °C 0,1 °C 93 % 1023,3 hPa 0,0 mm 0,0 km/h (0 Bft) S 178 ° 0 min 0,000 mm 0,0 UV-I 0 W/m² -0,9 °C 0,1 °C 0,0 km/h (0 Bft)
08.04.2017 05:51 0,0 °C 0,1 °C 93 % 1023,4 hPa 0,0 mm 0,0 km/h (0 Bft) S 178 ° 0 min 0,000 mm 0,0 UV-I 0 W/m² -1,0 °C 0,0 °C 0,0 km/h (0 Bft)
08.04.2017 05:52 0,0 °C 0,1 °C 93 % 1023,3 hPa 0,0 mm 0,0 km/h (0 Bft) S 178 ° 0 min 0,000 mm 0,0 UV-I 0 W/m² -1,0 °C 0,0 °C 0,0 km/h (0 Bft)
08.04.2017 05:53 0,0 °C 0,1 °C 93 % 1023,3 hPa 0,0 mm 0,0 km/h (0 Bft) S 178 ° 0 min 0,000 mm 0,0 UV-I 0 W/m² -1,0 °C 0,0 °C 0,0 km/h (0 Bft)
08.04.2017 05:54 0,1 °C 0,1 °C 93 % 1023,4 hPa 0,0 mm 0,0 km/h (0 Bft) S 178 ° 0 min 0,000 mm 0,0 UV-I 0 W/m² -0,9 °C 0,1 °C 0,0 km/h (0 Bft)
08.04.2017 05:55 0,1 °C 0,1 °C 93 % 1023,4 hPa 0,0 mm 0,0 km/h (0 Bft) S 178 ° 0 min 0,000 mm 0,0 UV-I 0 W/m² -0,9 °C 0,1 °C 0,0 km/h (0 Bft)
08.04.2017 05:56 0,1 °C 0,1 °C 93 % 1023,3 hPa 0,0 mm 0,0 km/h (0 Bft) S 178 ° 0 min 0,000 mm 0,0 UV-I 0 W/m² -0,9 °C 0,1 °C 0,0 km/h (0 Bft)
08.04.2017 05:57 0,1 °C 0,1 °C 93 % 1023,3 hPa 0,0 mm 0,0 km/h (0 Bft) S 178 ° 0 min 0,000 mm 0,0 UV-I 0 W/m² -0,9 °C 0,1 °C 0,0 km/h (0 Bft)
08.04.2017 05:58 0,1 °C 0,1 °C 94 % 1023,3 hPa 0,0 mm 0,0 km/h (0 Bft) S 178 ° 0 min 0,000 mm 0,0 UV-I 0 W/m² -0,7 °C 0,1 °C 0,0 km/h (0 Bft)
08.04.2017 05:59 0,2 °C 0,2 °C 94 % 1023,3 hPa 0,0 mm 0,0 km/h (0 Bft) S 178 ° 0 min 0,000 mm 0,0 UV-I 0 W/m² -0,6 °C 0,2 °C 0,0 km/h (0 Bft)
08.04.2017 06:00 0,2 °C 0,2 °C 94 % 1023,3 hPa 0,0 mm 0,0 km/h (0 Bft) S 178 ° 0 min 0,000 mm 0,0 UV-I 0 W/m² -0,6 °C 0,2 °C 0,0 km/h (0 Bft)
08.04.2017 06:01 0,3 °C 0,3 °C 94 % 1023,3 hPa 0,0 mm 0,0 km/h (0 Bft) S 178 ° 0 min 0,000 mm 0,0 UV-I 0 W/m² -0,5 °C 0,3 °C 0,0 km/h (0 Bft)
08.04.2017 06:02 0,3 °C 0,3 °C 94 % 1023,3 hPa 0,0 mm 0,0 km/h (0 Bft) S 178 ° 0 min 0,000 mm 0,0 UV-I 0 W/m² -0,5 °C 0,3 °C 0,0 km/h (0 Bft)
08.04.2017 06:03 0,2 °C 0,3 °C 94 % 1023,4 hPa 0,0 mm 0,0 km/h (0 Bft) S 178 ° 0 min 0,000 mm 0,0 UV-I 0 W/m² -0,6 °C 0,2 °C 0,0 km/h (0 Bft)
08.04.2017 06:04 0,2 °C 0,2 °C 94 % 1023,4 hPa 0,0 mm 0,0 km/h (0 Bft) S 178 ° 0 min 0,000 mm 0,0 UV-I 0 W/m² -0,6 °C 0,2 °C 0,0 km/h (0 Bft)
08.04.2017 06:05 0,2 °C 0,2 °C 94 % 1023,4 hPa 0,0 mm 0,0 km/h (0 Bft) S 178 ° 0 min 0,000 mm 0,0 UV-I 0 W/m² -0,6 °C 0,2 °C 0,0 km/h (0 Bft)
08.04.2017 06:06 0,2 °C 0,2 °C 94 % 1023,3 hPa 0,0 mm 0,0 km/h (0 Bft) S 178 ° 0 min 0,000 mm 0,0 UV-I 0 W/m² -0,6 °C 0,2 °C 0,0 km/h (0 Bft)
08.04.2017 06:07 0,3 °C 0,3 °C 94 % 1023,3 hPa 0,0 mm 0,0 km/h (0 Bft) S 178 ° 0 min 0,000 mm 0,0 UV-I 0 W/m² -0,5 °C 0,3 °C 0,0 km/h (0 Bft)
08.04.2017 06:08 0,3 °C 0,3 °C 94 % 1023,4 hPa 0,0 mm 0,0 km/h (0 Bft) S 178 ° 0 min 0,000 mm 0,0 UV-I 0 W/m² -0,5 °C 0,3 °C 0,0 km/h (0 Bft)
08.04.2017 06:09 0,3 °C 0,3 °C 94 % 1023,4 hPa 0,0 mm 0,0 km/h (0 Bft) S 178 ° 0 min 0,000 mm 0,0 UV-I 0 W/m² -0,5 °C 0,3 °C 0,0 km/h (0 Bft)
08.04.2017 06:10 0,3 °C 0,3 °C 94 % 1023,4 hPa 0,0 mm 0,0 km/h (0 Bft) S 178 ° 0 min 0,000 mm 0,0 UV-I 0 W/m² -0,5 °C 0,3 °C 0,0 km/h (0 Bft)
08.04.2017 06:11 0,4 °C 0,4 °C 94 % 1023,4 hPa 0,0 mm 0,0 km/h (0 Bft) S 178 ° 0 min 0,000 mm 0,0 UV-I 0 W/m² -0,5 °C 0,4 °C 0,0 km/h (0 Bft)
08.04.2017 06:12 0,4 °C 0,4 °C 94 % 1023,4 hPa 0,0 mm 0,0 km/h (0 Bft) S 178 ° 0 min 0,000 mm 0,0 UV-I 0 W/m² -0,5 °C 0,4 °C 0,0 km/h (0 Bft)
08.04.2017 06:13 0,4 °C 0,4 °C 94 % 1023,4 hPa 0,0 mm 0,0 km/h (0 Bft) S 178 ° 0 min 0,000 mm 0,0 UV-I 0 W/m² -0,5 °C 0,4 °C 0,0 km/h (0 Bft)
08.04.2017 06:14 0,4 °C 0,4 °C 94 % 1023,4 hPa 0,0 mm 0,0 km/h (0 Bft) S 178 ° 0 min 0,000 mm 0,0 UV-I 0 W/m² -0,5 °C 0,4 °C 0,0 km/h (0 Bft)
08.04.2017 06:15 0,4 °C 0,4 °C 94 % 1023,4 hPa 0,0 mm 0,0 km/h (0 Bft) S 178 ° 0 min 0,000 mm 0,0 UV-I 0 W/m² -0,5 °C 0,4 °C 0,0 km/h (0 Bft)
08.04.2017 06:16 0,4 °C 0,4 °C 94 % 1023,4 hPa 0,0 mm 0,0 km/h (0 Bft) S 178 ° 0 min 0,000 mm 0,0 UV-I 0 W/m² -0,5 °C 0,4 °C 0,0 km/h (0 Bft)
08.04.2017 06:17 0,4 °C 0,4 °C 94 % 1023,4 hPa 0,0 mm 0,0 km/h (0 Bft) S 178 ° 0 min 0,000 mm 0,0 UV-I 0 W/m² -0,5 °C 0,4 °C 0,0 km/h (0 Bft)
08.04.2017 06:18 0,5 °C 0,5 °C 94 % 1023,3 hPa 0,0 mm 0,0 km/h (0 Bft) S 178 ° 0 min 0,000 mm 0,0 UV-I 0 W/m² -0,4 °C 0,5 °C 0,0 km/h (0 Bft)
08.04.2017 06:19 0,4 °C 0,5 °C 94 % 1023,4 hPa 0,0 mm 0,0 km/h (0 Bft) S 178 ° 0 min 0,000 mm 0,0 UV-I 0 W/m² -0,5 °C 0,4 °C 0,0 km/h (0 Bft)
08.04.2017 06:20 0,4 °C 0,4 °C 94 % 1023,4 hPa 0,0 mm 0,0 km/h (0 Bft) S 178 ° 0 min 0,000 mm 0,0 UV-I 0 W/m² -0,5 °C 0,4 °C 0,0 km/h (0 Bft)
08.04.2017 06:21 0,3 °C 0,4 °C 94 % 1023,4 hPa 0,0 mm 0,0 km/h (0 Bft) S 178 ° 0 min 0,000 mm 0,0 UV-I 0 W/m² -0,5 °C 0,3 °C 0,0 km/h (0 Bft)
08.04.2017 06:22 0,3 °C 0,3 °C 94 % 1023,4 hPa 0,0 mm 0,0 km/h (0 Bft) S 178 ° 0 min 0,000 mm 0,0 UV-I 0 W/m² -0,5 °C 0,3 °C 0,0 km/h (0 Bft)
08.04.2017 06:23 0,3 °C 0,3 °C 94 % 1023,4 hPa 0,0 mm 0,0 km/h (0 Bft) S 178 ° 0 min 0,000 mm 0,0 UV-I 0 W/m² -0,5 °C 0,3 °C 0,0 km/h (0 Bft)
08.04.2017 06:24 0,3 °C 0,3 °C 94 % 1023,4 hPa 0,0 mm 0,0 km/h (0 Bft) S 178 ° 0 min 0,000 mm 0,0 UV-I 0 W/m² -0,5 °C 0,3 °C 0,0 km/h (0 Bft)
08.04.2017 06:25 0,3 °C 0,3 °C 94 % 1023,4 hPa 0,0 mm 0,0 km/h (0 Bft) S 178 ° 0 min 0,000 mm 0,0 UV-I 0 W/m² -0,5 °C 0,3 °C 0,0 km/h (0 Bft)
08.04.2017 06:26 0,3 °C 0,3 °C 94 % 1023,4 hPa 0,0 mm 0,0 km/h (0 Bft) S 178 ° 0 min 0,000 mm 0,0 UV-I 0 W/m² -0,5 °C 0,3 °C 0,0 km/h (0 Bft)
08.04.2017 06:27 0,3 °C 0,3 °C 94 % 1023,4 hPa 0,0 mm 0,0 km/h (0 Bft) S 178 ° 0 min 0,000 mm 0,0 UV-I 0 W/m² -0,5 °C 0,3 °C 0,0 km/h (0 Bft)
08.04.2017 06:28 0,3 °C 0,4 °C 94 % 1023,4 hPa 0,0 mm 0,0 km/h (0 Bft) S 178 ° 0 min 0,000 mm 0,0 UV-I 0 W/m² -0,5 °C 0,3 °C 0,0 km/h (0 Bft)
08.04.2017 06:29 0,4 °C 0,4 °C 94 % 1023,4 hPa 0,0 mm 0,0 km/h (0 Bft) S 178 ° 0 min 0,000 mm 0,0 UV-I 0 W/m² -0,5 °C 0,4 °C 0,0 km/h (0 Bft)
08.04.2017 06:30 0,4 °C 0,4 °C 94 % 1023,4 hPa 0,0 mm 0,0 km/h (0 Bft) S 178 ° 0 min 0,000 mm 0,0 UV-I 0 W/m² -0,5 °C 0,4 °C 0,0 km/h (0 Bft)
08.04.2017 06:31 0,4 °C 0,4 °C 94 % 1023,4 hPa 0,0 mm 0,0 km/h (0 Bft) S 178 ° 0 min 0,000 mm 0,0 UV-I 0 W/m² -0,5 °C 0,4 °C 0,0 km/h (0 Bft)
08.04.2017 06:32 0,4 °C 0,4 °C 94 % 1023,5 hPa 0,0 mm 0,0 km/h (0 Bft) S 178 ° 0 min 0,000 mm 0,0 UV-I 0 W/m² -0,5 °C 0,4 °C 0,0 km/h (0 Bft)
08.04.2017 06:33 0,3 °C 0,4 °C 94 % 1023,4 hPa 0,0 mm 0,0 km/h (0 Bft) S 178 ° 0 min 0,000 mm 0,0 UV-I 0 W/m² -0,5 °C 0,3 °C 0,0 km/h (0 Bft)
08.04.2017 06:34 0,3 °C 0,3 °C 94 % 1023,5 hPa 0,0 mm 0,0 km/h (0 Bft) S 178 ° 0 min 0,000 mm 0,0 UV-I 0 W/m² -0,5 °C 0,3 °C 0,0 km/h (0 Bft)
08.04.2017 06:35 0,2 °C 0,3 °C 94 % 1023,5 hPa 0,0 mm 0,0 km/h (0 Bft) S 178 ° 0 min 0,000 mm 0,0 UV-I 0 W/m² -0,6 °C 0,2 °C 0,0 km/h (0 Bft)
08.04.2017 06:36 0,1 °C 0,2 °C 94 % 1023,5 hPa 0,0 mm 0,0 km/h (0 Bft) S 178 ° 0 min 0,000 mm 0,0 UV-I 0 W/m² -0,7 °C 0,1 °C 0,0 km/h (0 Bft)
08.04.2017 06:37 0,1 °C 0,1 °C 94 % 1023,5 hPa 0,0 mm 0,0 km/h (0 Bft) S 178 ° 0 min 0,000 mm 0,0 UV-I 0 W/m² -0,7 °C 0,1 °C 0,0 km/h (0 Bft)
08.04.2017 06:38 0,1 °C 0,1 °C 94 % 1023,5 hPa 0,0 mm 0,0 km/h (0 Bft) S 178 ° 0 min 0,000 mm 0,0 UV-I 0 W/m² -0,7 °C 0,1 °C 0,0 km/h (0 Bft)
08.04.2017 06:39 0,1 °C 0,1 °C 94 % 1023,5 hPa 0,0 mm 0,0 km/h (0 Bft) S 178 ° 0 min 0,000 mm 0,0 UV-I 0 W/m² -0,7 °C 0,1 °C 0,0 km/h (0 Bft)
08.04.2017 06:40 0,2 °C 0,2 °C 94 % 1023,5 hPa 0,0 mm 0,0 km/h (0 Bft) S 178 ° 0 min 0,000 mm 0,0 UV-I 0 W/m² -0,6 °C 0,2 °C 0,0 km/h (0 Bft)
08.04.2017 06:41 0,3 °C 0,3 °C 94 % 1023,5 hPa 0,0 mm 0,0 km/h (0 Bft) S 178 ° 0 min 0,000 mm 0,0 UV-I 0 W/m² -0,5 °C 0,3 °C 0,0 km/h (0 Bft)
08.04.2017 06:42 0,3 °C 0,3 °C 94 % 1023,4 hPa 0,0 mm 0,0 km/h (0 Bft) S 178 ° 0 min 0,000 mm 0,0 UV-I 0 W/m² -0,5 °C 0,3 °C 0,0 km/h (0 Bft)
08.04.2017 06:43 0,4 °C 0,4 °C 94 % 1023,5 hPa 0,0 mm 0,0 km/h (0 Bft) S 178 ° 0 min 0,000 mm 0,0 UV-I 5 W/m² -0,5 °C 0,4 °C 0,0 km/h (0 Bft)
08.04.2017 06:44 0,4 °C 0,4 °C 94 % 1023,5 hPa 0,0 mm 0,0 km/h (0 Bft) S 178 ° 0 min 0,000 mm 0,0 UV-I 5 W/m² -0,5 °C 0,4 °C 0,0 km/h (0 Bft)
08.04.2017 06:45 0,4 °C 0,5 °C 94 % 1023,5 hPa 0,0 mm 0,0 km/h (0 Bft) S 178 ° 0 min 0,000 mm 0,0 UV-I 5 W/m² -0,5 °C 0,4 °C 0,0 km/h (0 Bft)
08.04.2017 06:46 0,4 °C 0,4 °C 94 % 1023,5 hPa 0,0 mm 0,0 km/h (0 Bft) S 178 ° 0 min 0,000 mm 0,0 UV-I 5 W/m² -0,5 °C 0,4 °C 0,0 km/h (0 Bft)
08.04.2017 06:47 0,3 °C 0,4 °C 94 % 1023,5 hPa 0,0 mm 0,0 km/h (0 Bft) S 178 ° 0 min 0,000 mm 0,0 UV-I 5 W/m² -0,5 °C 0,3 °C 0,0 km/h (0 Bft)
08.04.2017 06:48 0,3 °C 0,3 °C 94 % 1023,5 hPa 0,0 mm 0,0 km/h (0 Bft) S 178 ° 0 min 0,000 mm 0,0 UV-I 5 W/m² -0,5 °C 0,3 °C 0,0 km/h (0 Bft)
08.04.2017 06:49 0,2 °C 0,3 °C 94 % 1023,5 hPa 0,0 mm 0,0 km/h (0 Bft) S 178 ° 0 min 0,000 mm 0,0 UV-I 7 W/m² -0,6 °C 0,2 °C 0,0 km/h (0 Bft)
08.04.2017 06:50 0,3 °C 0,3 °C 94 % 1023,5 hPa 0,0 mm 0,0 km/h (0 Bft) S 178 ° 0 min 0,000 mm 0,0 UV-I 7 W/m² -0,5 °C 0,3 °C 0,0 km/h (0 Bft)
08.04.2017 06:51 0,3 °C 0,3 °C 94 % 1023,6 hPa 0,0 mm 0,0 km/h (0 Bft) S 178 ° 0 min 0,000 mm 0,0 UV-I 7 W/m² -0,5 °C 0,3 °C 0,0 km/h (0 Bft)
08.04.2017 06:52 0,3 °C 0,3 °C 94 % 1023,6 hPa 0,0 mm 0,0 km/h (0 Bft) S 178 ° 0 min 0,000 mm 0,0 UV-I 7 W/m² -0,5 °C 0,3 °C 0,0 km/h (0 Bft)
08.04.2017 06:53 0,2 °C 0,3 °C 94 % 1023,6 hPa 0,0 mm 0,0 km/h (0 Bft) S 178 ° 0 min 0,000 mm 0,0 UV-I 7 W/m² -0,6 °C 0,2 °C 0,0 km/h (0 Bft)
08.04.2017 06:54 0,3 °C 0,3 °C 94 % 1023,6 hPa 0,0 mm 0,0 km/h (0 Bft) S 178 ° 0 min 0,000 mm 0,0 UV-I 9 W/m² -0,5 °C 0,3 °C 0,0 km/h (0 Bft)
08.04.2017 06:55 0,4 °C 0,4 °C 94 % 1023,6 hPa 0,0 mm 0,0 km/h (0 Bft) S 178 ° 0 min 0,000 mm 0,0 UV-I 9 W/m² -0,5 °C 0,4 °C 0,0 km/h (0 Bft)
08.04.2017 06:56 0,4 °C 0,4 °C 94 % 1023,6 hPa 0,0 mm 0,0 km/h (0 Bft) S 178 ° 0 min 0,000 mm 0,0 UV-I 11 W/m² -0,5 °C 0,4 °C 0,0 km/h (0 Bft)
08.04.2017 06:57 0,4 °C 0,4 °C 94 % 1023,6 hPa 0,0 mm 0,0 km/h (0 Bft) S 178 ° 0 min 0,000 mm 0,0 UV-I 11 W/m² -0,5 °C 0,4 °C 0,0 km/h (0 Bft)
08.04.2017 06:58 0,4 °C 0,4 °C 94 % 1023,6 hPa 0,0 mm 0,0 km/h (0 Bft) S 178 ° 0 min 0,000 mm 0,0 UV-I 11 W/m² -0,5 °C 0,4 °C 0,0 km/h (0 Bft)
08.04.2017 06:59 0,3 °C 0,4 °C 94 % 1023,6 hPa 0,0 mm 0,0 km/h (0 Bft) S 178 ° 0 min 0,000 mm 0,0 UV-I 12 W/m² -0,5 °C 0,3 °C 0,0 km/h (0 Bft)
08.04.2017 07:00 0,3 °C 0,3 °C 94 % 1023,6 hPa 0,0 mm 0,0 km/h (0 Bft) S 178 ° 0 min 0,000 mm 0,0 UV-I 14 W/m² -0,5 °C 0,3 °C 0,0 km/h (0 Bft)
08.04.2017 07:01 0,3 °C 0,3 °C 94 % 1023,6 hPa 0,0 mm 0,0 km/h (0 Bft) S 178 ° 0 min 0,000 mm 0,0 UV-I 14 W/m² -0,5 °C 0,3 °C 0,0 km/h (0 Bft)
08.04.2017 07:02 0,3 °C 0,3 °C 94 % 1023,6 hPa 0,0 mm 0,0 km/h (0 Bft) S 178 ° 0 min 0,000 mm 0,0 UV-I 14 W/m² -0,5 °C 0,3 °C 0,0 km/h (0 Bft)
08.04.2017 07:03 0,3 °C 0,3 °C 94 % 1023,6 hPa 0,0 mm 0,0 km/h (0 Bft) S 178 ° 0 min 0,000 mm 0,0 UV-I 16 W/m² -0,5 °C 0,3 °C 0,0 km/h (0 Bft)
08.04.2017 07:04 0,2 °C 0,3 °C 94 % 1023,6 hPa 0,0 mm 0,0 km/h (0 Bft) S 178 ° 0 min 0,000 mm 0,0 UV-I 16 W/m² -0,6 °C 0,2 °C 0,0 km/h (0 Bft)
08.04.2017 07:05 0,2 °C 0,2 °C 94 % 1023,7 hPa 0,0 mm 0,0 km/h (0 Bft) S 178 ° 0 min 0,000 mm 0,0 UV-I 18 W/m² -0,6 °C 0,2 °C 0,0 km/h (0 Bft)
08.04.2017 07:06 0,1 °C 0,2 °C 93 % 1023,7 hPa 0,0 mm 0,0 km/h (0 Bft) S 178 ° 0 min 0,000 mm 0,0 UV-I 18 W/m² -0,9 °C 0,1 °C 0,0 km/h (0 Bft)
08.04.2017 07:07 0,0 °C 0,1 °C 93 % 1023,7 hPa 0,0 mm 0,0 km/h (0 Bft) S 178 ° 0 min 0,000 mm 0,0 UV-I 18 W/m² -1,0 °C 0,0 °C 0,0 km/h (0 Bft)
08.04.2017 07:08 -0,1 °C 0,0 °C 94 % 1023,7 hPa 0,0 mm 0,0 km/h (0 Bft) S 178 ° 0 min 0,000 mm 0,0 UV-I 19 W/m² -0,9 °C -0,1 °C 0,0 km/h (0 Bft)
08.04.2017 07:09 -0,1 °C -0,1 °C 94 % 1023,7 hPa 0,0 mm 0,0 km/h (0 Bft) S 178 ° 0 min 0,000 mm 0,0 UV-I 19 W/m² -0,9 °C -0,1 °C 0,0 km/h (0 Bft)
08.04.2017 07:10 -0,1 °C -0,1 °C 94 % 1023,7 hPa 0,0 mm 0,0 km/h (0 Bft) S 178 ° 0 min 0,000 mm 0,0 UV-I 19 W/m² -0,9 °C -0,1 °C 0,0 km/h (0 Bft)
08.04.2017 07:11 0,0 °C 0,0 °C 94 % 1023,7 hPa 0,0 mm 0,0 km/h (0 Bft) S 178 ° 0 min 0,000 mm 0,0 UV-I 21 W/m² -0,8 °C 0,0 °C 0,0 km/h (0 Bft)
08.04.2017 07:12 0,0 °C 0,0 °C 94 % 1023,7 hPa 0,0 mm 0,0 km/h (0 Bft) S 178 ° 0 min 0,000 mm 0,0 UV-I 21 W/m² -0,8 °C 0,0 °C 0,0 km/h (0 Bft)
08.04.2017 07:13 0,1 °C 0,1 °C 94 % 1023,7 hPa 0,0 mm 0,0 km/h (0 Bft) S 178 ° 0 min 0,000 mm 0,0 UV-I 21 W/m² -0,7 °C 0,1 °C 0,0 km/h (0 Bft)
08.04.2017 07:14 0,1 °C 0,1 °C 94 % 1023,7 hPa 0,0 mm 0,0 km/h (0 Bft) S 178 ° 0 min 0,000 mm 0,0 UV-I 23 W/m² -0,7 °C 0,1 °C 0,0 km/h (0 Bft)
08.04.2017 07:15 0,2 °C 0,2 °C 94 % 1023,7 hPa 0,0 mm 0,0 km/h (0 Bft) S 178 ° 0 min 0,000 mm 0,0 UV-I 23 W/m² -0,6 °C 0,2 °C 0,0 km/h (0 Bft)
08.04.2017 07:16 0,2 °C 0,2 °C 94 % 1023,8 hPa 0,0 mm 0,0 km/h (0 Bft) S 178 ° 0 min 0,000 mm 0,0 UV-I 23 W/m² -0,6 °C 0,2 °C 0,0 km/h (0 Bft)
08.04.2017 07:17 0,1 °C 0,2 °C 94 % 1023,8 hPa 0,0 mm 0,0 km/h (0 Bft) S 178 ° 0 min 0,000 mm 0,0 UV-I 25 W/m² -0,7 °C 0,1 °C 0,0 km/h (0 Bft)
08.04.2017 07:18 0,2 °C 0,2 °C 94 % 1023,8 hPa 0,0 mm 0,0 km/h (0 Bft) S 178 ° 0 min 0,000 mm 0,0 UV-I 25 W/m² -0,6 °C 0,2 °C 0,0 km/h (0 Bft)
08.04.2017 07:19 0,2 °C 0,2 °C 94 % 1023,8 hPa 0,0 mm 0,0 km/h (0 Bft) S 178 ° 0 min 0,000 mm 0,0 UV-I 25 W/m² -0,6 °C 0,2 °C 0,0 km/h (0 Bft)
08.04.2017 07:20 0,2 °C 0,2 °C 94 % 1023,8 hPa 0,0 mm 0,0 km/h (0 Bft) S 178 ° 0 min 0,000 mm 0,0 UV-I 26 W/m² -0,6 °C 0,2 °C 0,0 km/h (0 Bft)
08.04.2017 07:21 0,3 °C 0,3 °C 94 % 1023,8 hPa 0,0 mm 0,0 km/h (0 Bft) S 178 ° 0 min 0,000 mm 0,0 UV-I 26 W/m² -0,5 °C 0,3 °C 0,0 km/h (0 Bft)
08.04.2017 07:22 0,3 °C 0,3 °C 94 % 1023,8 hPa 0,0 mm 0,0 km/h (0 Bft) S 178 ° 0 min 0,000 mm 0,0 UV-I 26 W/m² -0,5 °C 0,3 °C 0,0 km/h (0 Bft)
08.04.2017 07:23 0,3 °C 0,3 °C 94 % 1023,8 hPa 0,0 mm 0,0 km/h (0 Bft) S 178 ° 0 min 0,000 mm 0,0 UV-I 28 W/m² -0,5 °C 0,3 °C 0,0 km/h (0 Bft)
08.04.2017 07:24 0,2 °C 0,3 °C 94 % 1023,8 hPa 0,0 mm 0,0 km/h (0 Bft) S 178 ° 0 min 0,000 mm 0,0 UV-I 28 W/m² -0,6 °C 0,2 °C 0,0 km/h (0 Bft)
08.04.2017 07:25 0,2 °C 0,2 °C 94 % 1023,8 hPa 0,0 mm 0,0 km/h (0 Bft) S 178 ° 0 min 0,000 mm 0,0 UV-I 28 W/m² -0,6 °C 0,2 °C 0,0 km/h (0 Bft)
08.04.2017 07:26 0,2 °C 0,2 °C 94 % 1023,8 hPa 0,0 mm 0,0 km/h (0 Bft) S 178 ° 0 min 0,000 mm 0,0 UV-I 28 W/m² -0,6 °C 0,2 °C 0,0 km/h (0 Bft)
08.04.2017 07:27 0,3 °C 0,3 °C 94 % 1023,8 hPa 0,0 mm 0,0 km/h (0 Bft) S 178 ° 0 min 0,000 mm 0,0 UV-I 30 W/m² -0,5 °C 0,3 °C 0,0 km/h (0 Bft)
08.04.2017 07:28 0,3 °C 0,3 °C 94 % 1023,9 hPa 0,0 mm 0,0 km/h (0 Bft) S 178 ° 0 min 0,000 mm 0,0 UV-I 30 W/m² -0,5 °C 0,3 °C 0,0 km/h (0 Bft)
08.04.2017 07:29 0,4 °C 0,4 °C 94 % 1023,8 hPa 0,0 mm 0,0 km/h (0 Bft) S 178 ° 0 min 0,000 mm 0,0 UV-I 30 W/m² -0,5 °C 0,4 °C 0,0 km/h (0 Bft)
08.04.2017 07:30 0,6 °C 0,6 °C 94 % 1023,8 hPa 0,0 mm 0,0 km/h (0 Bft) S 178 ° 0 min 0,000 mm 0,0 UV-I 32 W/m² -0,3 °C 0,6 °C 0,0 km/h (0 Bft)
08.04.2017 07:31 0,7 °C 0,7 °C 95 % 1023,9 hPa 0,0 mm 0,0 km/h (0 Bft) S 178 ° 0 min 0,000 mm 0,0 UV-I 32 W/m² -0,0 °C 0,7 °C 0,0 km/h (0 Bft)
08.04.2017 07:32 0,8 °C 0,8 °C 95 % 1023,8 hPa 0,0 mm 0,0 km/h (0 Bft) S 178 ° 0 min 0,000 mm 0,0 UV-I 32 W/m² 0,1 °C 0,8 °C 0,0 km/h (0 Bft)
08.04.2017 07:33 0,8 °C 0,8 °C 95 % 1023,8 hPa 0,0 mm 0,0 km/h (0 Bft) S 178 ° 0 min 0,000 mm 0,0 UV-I 33 W/m² 0,1 °C 0,8 °C 0,0 km/h (0 Bft)
08.04.2017 07:34 0,9 °C 0,9 °C 95 % 1023,9 hPa 0,0 mm 0,0 km/h (0 Bft) S 178 ° 0 min 0,000 mm 0,0 UV-I 33 W/m² 0,2 °C 0,9 °C 0,0 km/h (0 Bft)
08.04.2017 07:35 1,0 °C 1,0 °C 95 % 1023,8 hPa 0,0 mm 0,0 km/h (0 Bft) S 178 ° 0 min 0,000 mm 0,0 UV-I 35 W/m² 0,3 °C 1,0 °C 0,0 km/h (0 Bft)
08.04.2017 07:36 1,1 °C 1,1 °C 95 % 1023,8 hPa 0,0 mm 0,0 km/h (0 Bft) S 178 ° 0 min 0,000 mm 0,0 UV-I 35 W/m² 0,4 °C 1,1 °C 0,0 km/h (0 Bft)
08.04.2017 07:37 1,1 °C 1,1 °C 95 % 1023,8 hPa 0,0 mm 0,0 km/h (0 Bft) S 178 ° 0 min 0,000 mm 0,0 UV-I 35 W/m² 0,4 °C 1,1 °C 0,0 km/h (0 Bft)
08.04.2017 07:38 1,1 °C 1,1 °C 95 % 1023,8 hPa 0,0 mm 0,0 km/h (0 Bft) S 178 ° 0 min 0,000 mm 0,0 UV-I 35 W/m² 0,4 °C 1,1 °C 0,0 km/h (0 Bft)
08.04.2017 07:39 1,1 °C 1,1 °C 94 % 1023,9 hPa 0,0 mm 0,0 km/h (0 Bft) S 178 ° 0 min 0,000 mm 0,0 UV-I 37 W/m² 0,2 °C 1,1 °C 0,0 km/h (0 Bft)
08.04.2017 07:40 1,1 °C 1,1 °C 94 % 1023,9 hPa 0,0 mm 0,0 km/h (0 Bft) S 178 ° 0 min 0,000 mm 0,0 UV-I 37 W/m² 0,2 °C 1,1 °C 0,0 km/h (0 Bft)
08.04.2017 07:41 1,1 °C 1,1 °C 94 % 1023,9 hPa 0,0 mm 0,0 km/h (0 Bft) S 178 ° 0 min 0,000 mm 0,0 UV-I 37 W/m² 0,2 °C 1,1 °C 0,0 km/h (0 Bft)
08.04.2017 07:42 1,2 °C 1,2 °C 94 % 1023,9 hPa 0,0 mm 0,0 km/h (0 Bft) S 178 ° 0 min 0,000 mm 0,0 UV-I 39 W/m² 0,3 °C 1,2 °C 0,0 km/h (0 Bft)
08.04.2017 07:43 1,2 °C 1,2 °C 94 % 1023,9 hPa 0,0 mm 0,0 km/h (0 Bft) S 178 ° 0 min 0,000 mm 0,0 UV-I 39 W/m² 0,3 °C 1,2 °C 0,0 km/h (0 Bft)
08.04.2017 07:44 1,3 °C 1,3 °C 94 % 1023,9 hPa 0,0 mm 0,0 km/h (0 Bft) S 178 ° 0 min 0,000 mm 0,0 UV-I 39 W/m² 0,4 °C 1,3 °C 0,0 km/h (0 Bft)
08.04.2017 07:45 1,3 °C 1,3 °C 94 % 1023,9 hPa 0,0 mm 0,0 km/h (0 Bft) S 178 ° 0 min 0,000 mm 0,0 UV-I 42 W/m² 0,4 °C 1,3 °C 0,0 km/h (0 Bft)
08.04.2017 07:46 1,3 °C 1,4 °C 94 % 1023,9 hPa 0,0 mm 0,0 km/h (0 Bft) S 178 ° 0 min 0,000 mm 0,0 UV-I 54 W/m² 0,4 °C 1,3 °C 0,0 km/h (0 Bft)
08.04.2017 07:47 1,3 °C 1,3 °C 94 % 1023,9 hPa 0,0 mm 0,0 km/h (0 Bft) S 178 ° 0 min 0,000 mm 0,0 UV-I 58 W/m² 0,4 °C 1,3 °C 0,0 km/h (0 Bft)
08.04.2017 07:48 1,3 °C 1,3 °C 94 % 1023,9 hPa 0,0 mm 0,0 km/h (0 Bft) S 178 ° 0 min 0,000 mm 0,0 UV-I 60 W/m² 0,4 °C 1,3 °C 0,0 km/h (0 Bft)
08.04.2017 07:49 1,3 °C 1,3 °C 94 % 1023,9 hPa 0,0 mm 0,0 km/h (0 Bft) S 178 ° 0 min 0,000 mm 0,0 UV-I 63 W/m² 0,4 °C 1,3 °C 0,0 km/h (0 Bft)
08.04.2017 07:50 1,3 °C 1,3 °C 94 % 1023,8 hPa 0,0 mm 0,0 km/h (0 Bft) S 178 ° 0 min 0,000 mm 0,0 UV-I 65 W/m² 0,4 °C 1,3 °C 0,0 km/h (0 Bft)
08.04.2017 07:51 1,4 °C 1,4 °C 94 % 1023,9 hPa 0,0 mm 0,0 km/h (0 Bft) S 178 ° 0 min 0,000 mm 0,0 UV-I 60 W/m² 0,5 °C 1,4 °C 0,0 km/h (0 Bft)
08.04.2017 07:52 1,4 °C 1,4 °C 94 % 1023,9 hPa 0,0 mm 0,0 km/h (0 Bft) S 178 ° 0 min 0,000 mm 0,0 UV-I 56 W/m² 0,5 °C 1,4 °C 0,0 km/h (0 Bft)
08.04.2017 07:53 1,4 °C 1,4 °C 94 % 1023,9 hPa 0,0 mm 0,0 km/h (0 Bft) S 178 ° 0 min 0,000 mm 0,0 UV-I 53 W/m² 0,5 °C 1,4 °C 0,0 km/h (0 Bft)
08.04.2017 07:54 1,5 °C 1,5 °C 94 % 1023,9 hPa 0,0 mm 0,0 km/h (0 Bft) S 178 ° 0 min 0,000 mm 0,0 UV-I 54 W/m² 0,6 °C 1,5 °C 0,0 km/h (0 Bft)
08.04.2017 07:55 1,5 °C 1,5 °C 94 % 1024,0 hPa 0,0 mm 0,0 km/h (0 Bft) S 178 ° 0 min 0,000 mm 0,0 UV-I 53 W/m² 0,6 °C 1,5 °C 0,0 km/h (0 Bft)
08.04.2017 07:56 1,6 °C 1,6 °C 94 % 1023,9 hPa 0,0 mm 0,0 km/h (0 Bft) S 178 ° 0 min 0,000 mm 0,0 UV-I 51 W/m² 0,7 °C 1,6 °C 0,0 km/h (0 Bft)
08.04.2017 07:57 1,6 °C 1,6 °C 94 % 1023,9 hPa 0,0 mm 0,0 km/h (0 Bft) S 178 ° 0 min 0,000 mm 0,0 UV-I 51 W/m² 0,7 °C 1,6 °C 0,0 km/h (0 Bft)
08.04.2017 07:58 1,6 °C 1,7 °C 94 % 1024,0 hPa 0,0 mm 0,0 km/h (0 Bft) S 178 ° 0 min 0,000 mm 0,0 UV-I 53 W/m² 0,7 °C 1,6 °C 0,0 km/h (0 Bft)
08.04.2017 07:59 1,7 °C 1,7 °C 94 % 1024,0 hPa 0,0 mm 0,0 km/h (0 Bft) S 178 ° 0 min 0,000 mm 0,0 UV-I 53 W/m² 0,8 °C 1,7 °C 0,0 km/h (0 Bft)
08.04.2017 08:00 1,7 °C 1,7 °C 94 % 1023,9 hPa 0,0 mm 0,0 km/h (0 Bft) S 178 ° 0 min 0,000 mm 0,0 UV-I 54 W/m² 0,8 °C 1,7 °C 0,0 km/h (0 Bft)
08.04.2017 08:01 1,8 °C 1,8 °C 94 % 1023,9 hPa 0,0 mm 0,0 km/h (0 Bft) S 178 ° 0 min 0,000 mm 0,5 UV-I 63 W/m² 0,9 °C 1,8 °C 0,0 km/h (0 Bft)
08.04.2017 08:02 1,8 °C 1,8 °C 94 % 1023,9 hPa 0,0 mm 0,0 km/h (0 Bft) S 178 ° 0 min 0,000 mm 0,5 UV-I 72 W/m² 0,9 °C 1,8 °C 0,0 km/h (0 Bft)
08.04.2017 08:03 1,8 °C 1,9 °C 94 % 1023,9 hPa 0,0 mm 0,0 km/h (0 Bft) S 178 ° 0 min 0,000 mm 0,5 UV-I 63 W/m² 0,9 °C 1,8 °C 0,0 km/h (0 Bft)
08.04.2017 08:04 1,9 °C 1,9 °C 94 % 1024,0 hPa 0,0 mm 0,0 km/h (0 Bft) S 178 ° 0 min 0,000 mm 0,0 UV-I 49 W/m² 1,0 °C 1,9 °C 0,0 km/h (0 Bft)
08.04.2017 08:05 1,9 °C 1,9 °C 94 % 1024,0 hPa 0,0 mm 0,0 km/h (0 Bft) S 178 ° 0 min 0,000 mm 0,0 UV-I 53 W/m² 1,0 °C 1,9 °C 0,0 km/h (0 Bft)
08.04.2017 08:06 2,0 °C 2,0 °C 94 % 1024,0 hPa 0,0 mm 0,0 km/h (0 Bft) S 178 ° 0 min 0,000 mm 0,6 UV-I 65 W/m² 1,1 °C 2,0 °C 0,0 km/h (0 Bft)
08.04.2017 08:07 2,0 °C 2,0 °C 93 % 1024,0 hPa 0,0 mm 0,0 km/h (0 Bft) S 178 ° 0 min 0,000 mm 0,6 UV-I 98 W/m² 1,0 °C 2,0 °C 0,0 km/h (0 Bft)
08.04.2017 08:08 2,1 °C 2,1 °C 93 % 1024,0 hPa 0,0 mm 0,5 km/h (0 Bft) S 178 ° 0 min 0,000 mm 0,6 UV-I 141 W/m² 1,1 °C 2,1 °C 1,6 km/h (1 Bft)
08.04.2017 08:09 2,1 °C 2,1 °C 93 % 1023,9 hPa 0,0 mm 0,3 km/h (0 Bft) S 178 ° 0 min 0,000 mm 0,6 UV-I 156 W/m² 1,1 °C 2,1 °C 1,6 km/h (1 Bft)
08.04.2017 08:10 2,2 °C 2,2 °C 93 % 1024,0 hPa 0,0 mm 0,0 km/h (0 Bft) S 178 ° 0 min 0,000 mm 0,6 UV-I 162 W/m² 1,2 °C 2,2 °C 0,0 km/h (0 Bft)
08.04.2017 08:11 2,3 °C 2,3 °C 93 % 1024,0 hPa 0,0 mm 0,0 km/h (0 Bft) S 178 ° 0 min 0,000 mm 0,7 UV-I 167 W/m² 1,3 °C 2,3 °C 0,0 km/h (0 Bft)
08.04.2017 08:12 2,3 °C 2,3 °C 93 % 1024,0 hPa 0,0 mm 0,0 km/h (0 Bft) S 178 ° 0 min 0,000 mm 0,7 UV-I 169 W/m² 1,3 °C 2,3 °C 0,0 km/h (0 Bft)
08.04.2017 08:13 2,3 °C 2,3 °C 93 % 1024,0 hPa 0,0 mm 0,0 km/h (0 Bft) S 178 ° 0 min 0,000 mm 0,7 UV-I 171 W/m² 1,3 °C 2,3 °C 0,0 km/h (0 Bft)
08.04.2017 08:14 2,3 °C 2,3 °C 93 % 1024,0 hPa 0,0 mm 0,0 km/h (0 Bft) S 178 ° 0 min 0,000 mm 0,7 UV-I 174 W/m² 1,3 °C 2,3 °C 0,0 km/h (0 Bft)
08.04.2017 08:15 2,3 °C 2,3 °C 93 % 1024,0 hPa 0,0 mm 0,0 km/h (0 Bft) S 178 ° 0 min 0,000 mm 0,7 UV-I 178 W/m² 1,3 °C 2,3 °C 0,0 km/h (0 Bft)
08.04.2017 08:16 2,3 °C 2,3 °C 93 % 1024,0 hPa 0,0 mm 0,0 km/h (0 Bft) S 178 ° 0 min 0,000 mm 0,7 UV-I 179 W/m² 1,3 °C 2,3 °C 0,0 km/h (0 Bft)
08.04.2017 08:17 2,4 °C 2,4 °C 93 % 1024,0 hPa 0,0 mm 0,0 km/h (0 Bft) S 178 ° 0 min 0,000 mm 0,7 UV-I 181 W/m² 1,4 °C 2,4 °C 0,0 km/h (0 Bft)
08.04.2017 08:18 2,5 °C 2,5 °C 93 % 1024,0 hPa 0,0 mm 0,1 km/h (0 Bft) S 178 ° 0 min 0,000 mm 0,8 UV-I 185 W/m² 1,5 °C 2,5 °C 1,6 km/h (1 Bft)
08.04.2017 08:19 2,6 °C 2,6 °C 93 % 1023,9 hPa 0,0 mm 0,0 km/h (0 Bft) S 178 ° 0 min 0,000 mm 0,8 UV-I 188 W/m² 1,6 °C 2,6 °C 0,0 km/h (0 Bft)
08.04.2017 08:20 2,6 °C 2,6 °C 93 % 1023,9 hPa 0,0 mm 0,0 km/h (0 Bft) S 178 ° 0 min 0,000 mm 0,8 UV-I 190 W/m² 1,6 °C 2,6 °C 0,0 km/h (0 Bft)
08.04.2017 08:21 2,6 °C 2,6 °C 92 % 1024,0 hPa 0,0 mm 0,0 km/h (0 Bft) S 178 ° 0 min 0,000 mm 0,8 UV-I 193 W/m² 1,4 °C 2,6 °C 0,0 km/h (0 Bft)
08.04.2017 08:22 2,7 °C 2,7 °C 93 % 1024,0 hPa 0,0 mm 0,0 km/h (0 Bft) S 178 ° 0 min 0,000 mm 0,8 UV-I 197 W/m² 1,7 °C 2,7 °C 0,0 km/h (0 Bft)
08.04.2017 08:23 2,8 °C 2,8 °C 93 % 1023,9 hPa 0,0 mm 0,0 km/h (0 Bft) S 178 ° 0 min 0,000 mm 0,8 UV-I 199 W/m² 1,8 °C 2,8 °C 0,0 km/h (0 Bft)
08.04.2017 08:24 2,8 °C 2,8 °C 93 % 1024,0 hPa 0,0 mm 0,0 km/h (0 Bft) S 178 ° 0 min 0,000 mm 0,8 UV-I 200 W/m² 1,8 °C 2,8 °C 0,0 km/h (0 Bft)
08.04.2017 08:25 2,9 °C 2,9 °C 93 % 1024,0 hPa 0,0 mm 0,0 km/h (0 Bft) S 178 ° 0 min 0,000 mm 0,8 UV-I 202 W/m² 1,9 °C 2,9 °C 0,0 km/h (0 Bft)
08.04.2017 08:26 2,9 °C 2,9 °C 93 % 1023,9 hPa 0,0 mm 0,0 km/h (0 Bft) S 178 ° 0 min 0,000 mm 0,9 UV-I 204 W/m² 1,9 °C 2,9 °C 0,0 km/h (0 Bft)
08.04.2017 08:27 3,1 °C 3,1 °C 92 % 1023,9 hPa 0,0 mm 0,0 km/h (0 Bft) S 178 ° 0 min 0,000 mm 0,9 UV-I 209 W/m² 1,9 °C 3,1 °C 0,0 km/h (0 Bft)
08.04.2017 08:28 3,2 °C 3,2 °C 92 % 1024,0 hPa 0,0 mm 0,0 km/h (0 Bft) S 178 ° 0 min 0,000 mm 0,9 UV-I 211 W/m² 2,0 °C 3,2 °C 0,0 km/h (0 Bft)
08.04.2017 08:29 3,3 °C 3,3 °C 92 % 1023,9 hPa 0,0 mm 0,0 km/h (0 Bft) S 178 ° 0 min 0,000 mm 0,9 UV-I 213 W/m² 2,1 °C 3,3 °C 0,0 km/h (0 Bft)
08.04.2017 08:30 3,3 °C 3,3 °C 91 % 1023,9 hPa 0,0 mm 0,0 km/h (0 Bft) S 178 ° 0 min 0,000 mm 0,9 UV-I 216 W/m² 2,0 °C 3,3 °C 0,0 km/h (0 Bft)
08.04.2017 08:31 3,4 °C 3,4 °C 91 % 1024,0 hPa 0,0 mm 0,0 km/h (0 Bft) S 178 ° 0 min 0,000 mm 0,9 UV-I 220 W/m² 2,1 °C 3,4 °C 0,0 km/h (0 Bft)
08.04.2017 08:32 3,4 °C 3,4 °C 91 % 1024,0 hPa 0,0 mm 0,0 km/h (0 Bft) S 178 ° 0 min 0,000 mm 0,9 UV-I 221 W/m² 2,1 °C 3,4 °C 0,0 km/h (0 Bft)
08.04.2017 08:33 3,5 °C 3,5 °C 91 % 1024,0 hPa 0,0 mm 0,0 km/h (0 Bft) S 178 ° 0 min 0,000 mm 1,0 UV-I 227 W/m² 2,2 °C 3,5 °C 0,0 km/h (0 Bft)
08.04.2017 08:34 3,6 °C 3,6 °C 91 % 1024,0 hPa 0,0 mm 0,0 km/h (0 Bft) S 178 ° 0 min 0,000 mm 1,0 UV-I 229 W/m² 2,3 °C 3,6 °C 0,0 km/h (0 Bft)
08.04.2017 08:35 3,8 °C 3,8 °C 90 % 1024,0 hPa 0,0 mm 0,0 km/h (0 Bft) S 178 ° 0 min 0,000 mm 1,0 UV-I 230 W/m² 2,3 °C 3,8 °C 0,0 km/h (0 Bft)
08.04.2017 08:36 3,9 °C 3,9 °C 90 % 1024,0 hPa 0,0 mm 0,0 km/h (0 Bft) S 178 ° 0 min 0,000 mm 1,0 UV-I 225 W/m² 2,4 °C 3,9 °C 0,0 km/h (0 Bft)
08.04.2017 08:37 3,9 °C 3,9 °C 90 % 1024,0 hPa 0,0 mm 0,0 km/h (0 Bft) S 178 ° 0 min 0,000 mm 1,0 UV-I 237 W/m² 2,4 °C 3,9 °C 0,0 km/h (0 Bft)
08.04.2017 08:38 4,1 °C 4,1 °C 89 % 1024,0 hPa 0,0 mm 0,0 km/h (0 Bft) S 178 ° 0 min 0,026 mm 1,0 UV-I 239 W/m² 2,5 °C 4,1 °C 0,0 km/h (0 Bft)
08.04.2017 08:39 4,1 °C 4,1 °C 89 % 1024,0 hPa 0,0 mm 0,0 km/h (0 Bft) S 178 ° 0 min 0,000 mm 1,0 UV-I 243 W/m² 2,5 °C 4,1 °C 0,0 km/h (0 Bft)
08.04.2017 08:40 4,2 °C 4,2 °C 89 % 1024,0 hPa 0,0 mm 0,0 km/h (0 Bft) S 178 ° 0 min 0,000 mm 1,1 UV-I 244 W/m² 2,6 °C 4,2 °C 0,0 km/h (0 Bft)
08.04.2017 08:41 4,2 °C 4,2 °C 89 % 1024,1 hPa 0,0 mm 0,0 km/h (0 Bft) S 178 ° 0 min 0,000 mm 1,1 UV-I 248 W/m² 2,6 °C 4,2 °C 0,0 km/h (0 Bft)
08.04.2017 08:42 4,2 °C 4,2 °C 89 % 1024,0 hPa 0,0 mm 0,0 km/h (0 Bft) S 178 ° 0 min 0,000 mm 1,1 UV-I 251 W/m² 2,6 °C 4,2 °C 0,0 km/h (0 Bft)
08.04.2017 08:43 4,2 °C 4,2 °C 88 % 1024,0 hPa 0,0 mm 0,0 km/h (0 Bft) S 178 ° 0 min 0,000 mm 1,1 UV-I 253 W/m² 2,4 °C 4,2 °C 0,0 km/h (0 Bft)
08.04.2017 08:44 4,2 °C 4,2 °C 88 % 1024,0 hPa 0,0 mm 0,0 km/h (0 Bft) S 178 ° 0 min 0,000 mm 1,2 UV-I 255 W/m² 2,4 °C 4,2 °C 0,0 km/h (0 Bft)
08.04.2017 08:45 4,3 °C 4,3 °C 88 % 1023,9 hPa 0,0 mm 0,0 km/h (0 Bft) S 178 ° 0 min 0,000 mm 1,2 UV-I 260 W/m² 2,5 °C 4,3 °C 0,0 km/h (0 Bft)
08.04.2017 08:46 4,3 °C 4,3 °C 88 % 1024,0 hPa 0,0 mm 0,0 km/h (0 Bft) S 178 ° 0 min 0,000 mm 1,2 UV-I 260 W/m² 2,5 °C 4,3 °C 0,0 km/h (0 Bft)
08.04.2017 08:47 4,4 °C 4,4 °C 88 % 1024,0 hPa 0,0 mm 0,0 km/h (0 Bft) S 178 ° 0 min 0,000 mm 1,2 UV-I 264 W/m² 2,6 °C 4,4 °C 0,0 km/h (0 Bft)
08.04.2017 08:48 4,5 °C 4,5 °C 88 % 1024,0 hPa 0,0 mm 0,0 km/h (0 Bft) S 178 ° 0 min 0,000 mm 1,2 UV-I 265 W/m² 2,7 °C 4,5 °C 0,0 km/h (0 Bft)
08.04.2017 08:49 4,6 °C 4,6 °C 88 % 1024,0 hPa 0,0 mm 0,0 km/h (0 Bft) S 178 ° 0 min 0,000 mm 1,2 UV-I 267 W/m² 2,8 °C 4,6 °C 0,0 km/h (0 Bft)
08.04.2017 08:50 4,7 °C 4,7 °C 88 % 1024,0 hPa 0,0 mm 0,0 km/h (0 Bft) S 178 ° 0 min 0,000 mm 1,3 UV-I 271 W/m² 2,9 °C 4,7 °C 0,0 km/h (0 Bft)
08.04.2017 08:51 4,8 °C 4,8 °C 88 % 1023,9 hPa 0,0 mm 0,0 km/h (0 Bft) S 178 ° 0 min 0,000 mm 1,3 UV-I 278 W/m² 3,0 °C 4,8 °C 0,0 km/h (0 Bft)
08.04.2017 08:52 4,9 °C 4,9 °C 88 % 1023,9 hPa 0,0 mm 0,0 km/h (0 Bft) S 178 ° 0 min 0,000 mm 1,3 UV-I 278 W/m² 3,1 °C 4,9 °C 0,0 km/h (0 Bft)
08.04.2017 08:53 5,0 °C 5,0 °C 88 % 1023,9 hPa 0,0 mm 0,0 km/h (0 Bft) S 178 ° 0 min 0,000 mm 1,3 UV-I 279 W/m² 3,2 °C 5,0 °C 0,0 km/h (0 Bft)
08.04.2017 08:54 5,1 °C 5,1 °C 87 % 1023,9 hPa 0,0 mm 0,0 km/h (0 Bft) S 178 ° 0 min 0,000 mm 1,3 UV-I 281 W/m² 3,1 °C 5,1 °C 0,0 km/h (0 Bft)
08.04.2017 08:55 5,1 °C 5,1 °C 87 % 1023,9 hPa 0,0 mm 0,0 km/h (0 Bft) S 178 ° 0 min 0,000 mm 1,3 UV-I 283 W/m² 3,1 °C 5,1 °C 0,0 km/h (0 Bft)
08.04.2017 08:56 5,2 °C 5,2 °C 87 % 1023,9 hPa 0,0 mm 0,0 km/h (0 Bft) S 178 ° 0 min 0,000 mm 1,4 UV-I 287 W/m² 3,2 °C 5,2 °C 0,0 km/h (0 Bft)
08.04.2017 08:57 5,3 °C 5,3 °C 89 % 1023,9 hPa 0,0 mm 0,0 km/h (0 Bft) S 178 ° 1 min 0,000 mm 1,4 UV-I 290 W/m² 3,6 °C 5,3 °C 0,0 km/h (0 Bft)
08.04.2017 08:58 5,4 °C 5,4 °C 89 % 1023,9 hPa 0,0 mm 0,0 km/h (0 Bft) S 178 ° 1 min 0,000 mm 1,4 UV-I 294 W/m² 3,7 °C 5,4 °C 0,0 km/h (0 Bft)
08.04.2017 08:59 5,4 °C 5,5 °C 87 % 1023,9 hPa 0,0 mm 0,0 km/h (0 Bft) S 178 ° 1 min 0,000 mm 1,4 UV-I 295 W/m² 3,4 °C 5,4 °C 0,0 km/h (0 Bft)
08.04.2017 09:00 5,4 °C 5,5 °C 86 % 1024,0 hPa 0,0 mm 0,0 km/h (0 Bft) S 178 ° 1 min 0,000 mm 1,4 UV-I 297 W/m² 3,3 °C 5,4 °C 0,0 km/h (0 Bft)
08.04.2017 09:01 5,5 °C 5,5 °C 86 % 1023,9 hPa 0,0 mm 0,0 km/h (0 Bft) S 178 ° 1 min 0,000 mm 1,4 UV-I 301 W/m² 3,3 °C 5,5 °C 0,0 km/h (0 Bft)
08.04.2017 09:02 5,5 °C 5,5 °C 87 % 1023,9 hPa 0,0 mm 0,0 km/h (0 Bft) S 178 ° 1 min 0,000 mm 1,5 UV-I 304 W/m² 3,5 °C 5,5 °C 0,0 km/h (0 Bft)
08.04.2017 09:03 5,6 °C 5,6 °C 88 % 1023,9 hPa 0,0 mm 0,0 km/h (0 Bft) S 178 ° 1 min 0,000 mm 1,5 UV-I 308 W/m² 3,8 °C 5,6 °C 0,0 km/h (0 Bft)
08.04.2017 09:04 5,9 °C 5,9 °C 89 % 1023,9 hPa 0,0 mm 0,0 km/h (0 Bft) S 178 ° 1 min 0,000 mm 1,5 UV-I 311 W/m² 4,2 °C 5,9 °C 0,0 km/h (0 Bft)
08.04.2017 09:05 6,1 °C 6,1 °C 88 % 1023,9 hPa 0,0 mm 0,0 km/h (0 Bft) S 178 ° 1 min 0,000 mm 1,5 UV-I 313 W/m² 4,3 °C 6,1 °C 0,0 km/h (0 Bft)
08.04.2017 09:06 6,3 °C 6,3 °C 87 % 1023,9 hPa 0,0 mm 0,0 km/h (0 Bft) S 178 ° 1 min 0,000 mm 1,5 UV-I 315 W/m² 4,3 °C 6,3 °C 0,0 km/h (0 Bft)
08.04.2017 09:07 6,3 °C 6,3 °C 86 % 1023,8 hPa 0,0 mm 0,0 km/h (0 Bft) S 178 ° 1 min 0,000 mm 1,6 UV-I 316 W/m² 4,1 °C 6,3 °C 0,0 km/h (0 Bft)
08.04.2017 09:08 6,3 °C 6,4 °C 85 % 1023,8 hPa 0,0 mm 0,0 km/h (0 Bft) S 178 ° 1 min 0,000 mm 1,6 UV-I 323 W/m² 4,0 °C 6,3 °C 0,0 km/h (0 Bft)
08.04.2017 09:09 6,3 °C 6,4 °C 85 % 1023,8 hPa 0,0 mm 0,0 km/h (0 Bft) S 178 ° 1 min 0,000 mm 1,6 UV-I 325 W/m² 4,0 °C 6,3 °C 0,0 km/h (0 Bft)
08.04.2017 09:10 6,3 °C 6,3 °C 85 % 1023,8 hPa 0,0 mm 0,0 km/h (0 Bft) S 178 ° 1 min 0,000 mm 1,6 UV-I 327 W/m² 4,0 °C 6,3 °C 0,0 km/h (0 Bft)
08.04.2017 09:11 6,2 °C 6,3 °C 85 % 1023,9 hPa 0,0 mm 0,7 km/h (0 Bft) S 178 ° 1 min 0,000 mm 1,7 UV-I 330 W/m² 3,9 °C 6,2 °C 1,6 km/h (1 Bft)
08.04.2017 09:12 6,3 °C 6,3 °C 86 % 1023,8 hPa 0,0 mm 0,1 km/h (0 Bft) S 178 ° 1 min 0,000 mm 1,7 UV-I 332 W/m² 4,1 °C 6,3 °C 1,6 km/h (1 Bft)
08.04.2017 09:13 6,3 °C 6,3 °C 85 % 1023,8 hPa 0,0 mm 0,3 km/h (0 Bft) S 178 ° 1 min 0,000 mm 1,7 UV-I 336 W/m² 4,0 °C 6,3 °C 1,6 km/h (1 Bft)
08.04.2017 09:14 6,3 °C 6,3 °C 85 % 1023,8 hPa 0,0 mm 0,9 km/h (0 Bft) S 178 ° 1 min 0,000 mm 1,7 UV-I 341 W/m² 4,0 °C 6,3 °C 1,6 km/h (1 Bft)
08.04.2017 09:15 6,3 °C 6,3 °C 85 % 1023,8 hPa 0,0 mm 0,0 km/h (0 Bft) S 178 ° 1 min 0,000 mm 1,7 UV-I 345 W/m² 4,0 °C 6,3 °C 0,0 km/h (0 Bft)
08.04.2017 09:16 6,4 °C 6,4 °C 85 % 1023,9 hPa 0,0 mm 0,0 km/h (0 Bft) S 178 ° 1 min 0,000 mm 1,8 UV-I 346 W/m² 4,1 °C 6,4 °C 0,0 km/h (0 Bft)
08.04.2017 09:17 6,5 °C 6,5 °C 85 % 1023,9 hPa 0,0 mm 0,0 km/h (0 Bft) S 178 ° 1 min 0,000 mm 1,8 UV-I 350 W/m² 4,2 °C 6,5 °C 0,0 km/h (0 Bft)
08.04.2017 09:18 6,5 °C 6,6 °C 84 % 1023,9 hPa 0,0 mm 0,0 km/h (0 Bft) S 178 ° 1 min 0,000 mm 1,8 UV-I 352 W/m² 4,0 °C 6,5 °C 0,0 km/h (0 Bft)
08.04.2017 09:19 6,6 °C 6,6 °C 85 % 1023,8 hPa 0,0 mm 0,6 km/h (0 Bft) S 178 ° 1 min 0,000 mm 1,8 UV-I 355 W/m² 4,3 °C 6,6 °C 1,6 km/h (1 Bft)
08.04.2017 09:20 6,7 °C 6,7 °C 84 % 1023,9 hPa 0,0 mm 0,1 km/h (0 Bft) S 178 ° 1 min 0,000 mm 1,8 UV-I 360 W/m² 4,2 °C 6,7 °C 1,6 km/h (1 Bft)
08.04.2017 09:21 6,8 °C 6,8 °C 85 % 1023,8 hPa 0,0 mm 0,0 km/h (0 Bft) S 178 ° 1 min 0,000 mm 1,9 UV-I 362 W/m² 4,5 °C 6,8 °C 0,0 km/h (0 Bft)
08.04.2017 09:22 7,0 °C 7,0 °C 86 % 1023,9 hPa 0,0 mm 0,3 km/h (0 Bft) S 178 ° 1 min 0,000 mm 1,9 UV-I 364 W/m² 4,8 °C 7,0 °C 1,6 km/h (1 Bft)
08.04.2017 09:23 7,2 °C 7,2 °C 85 % 1023,9 hPa 0,0 mm 0,0 km/h (0 Bft) S 178 ° 1 min 0,000 mm 1,9 UV-I 367 W/m² 4,9 °C 7,2 °C 0,0 km/h (0 Bft)
08.04.2017 09:24 7,3 °C 7,3 °C 84 % 1023,9 hPa 0,0 mm 0,0 km/h (0 Bft) S 178 ° 1 min 0,000 mm 1,9 UV-I 369 W/m² 4,8 °C 7,3 °C 0,0 km/h (0 Bft)
08.04.2017 09:25 7,4 °C 7,4 °C 84 % 1023,9 hPa 0,0 mm 0,0 km/h (0 Bft) S 178 ° 1 min 0,000 mm 1,9 UV-I 371 W/m² 4,9 °C 7,4 °C 0,0 km/h (0 Bft)
08.04.2017 09:26 7,6 °C 7,6 °C 83 % 1023,8 hPa 0,0 mm 0,0 km/h (0 Bft) S 178 ° 1 min 0,000 mm 1,9 UV-I 374 W/m² 4,9 °C 7,6 °C 0,0 km/h (0 Bft)
08.04.2017 09:27 7,6 °C 7,6 °C 82 % 1023,9 hPa 0,0 mm 0,0 km/h (0 Bft) S 178 ° 1 min 0,000 mm 2,0 UV-I 376 W/m² 4,7 °C 7,6 °C 0,0 km/h (0 Bft)
08.04.2017 09:28 7,7 °C 7,7 °C 82 % 1023,8 hPa 0,0 mm 0,1 km/h (0 Bft) S 178 ° 1 min 0,000 mm 2,0 UV-I 378 W/m² 4,8 °C 7,7 °C 1,6 km/h (1 Bft)
08.04.2017 09:29 7,7 °C 7,7 °C 83 % 1023,8 hPa 0,0 mm 0,0 km/h (0 Bft) S 178 ° 1 min 0,000 mm 2,0 UV-I 381 W/m² 5,0 °C 7,7 °C 0,0 km/h (0 Bft)
08.04.2017 09:30 7,8 °C 7,8 °C 82 % 1023,9 hPa 0,0 mm 0,0 km/h (0 Bft) S 178 ° 1 min 0,000 mm 2,0 UV-I 385 W/m² 4,9 °C 7,8 °C 0,0 km/h (0 Bft)
08.04.2017 09:31 7,8 °C 7,8 °C 83 % 1023,8 hPa 0,0 mm 0,0 km/h (0 Bft) S 178 ° 1 min 0,000 mm 2,1 UV-I 388 W/m² 5,1 °C 7,8 °C 0,0 km/h (0 Bft)
08.04.2017 09:32 7,7 °C 7,8 °C 82 % 1023,8 hPa 0,0 mm 0,0 km/h (0 Bft) S 178 ° 1 min 0,000 mm 2,1 UV-I 392 W/m² 4,8 °C 7,7 °C 0,0 km/h (0 Bft)
08.04.2017 09:33 7,6 °C 7,7 °C 82 % 1023,8 hPa 0,0 mm 0,0 km/h (0 Bft) S 178 ° 1 min 0,000 mm 2,1 UV-I 396 W/m² 4,7 °C 7,6 °C 0,0 km/h (0 Bft)
08.04.2017 09:34 7,5 °C 7,6 °C 82 % 1023,9 hPa 0,0 mm 0,0 km/h (0 Bft) S 178 ° 1 min 0,000 mm 2,2 UV-I 399 W/m² 4,6 °C 7,5 °C 0,0 km/h (0 Bft)
08.04.2017 09:35 7,6 °C 7,6 °C 84 % 1023,8 hPa 0,0 mm 0,0 km/h (0 Bft) S 178 ° 1 min 0,000 mm 2,2 UV-I 403 W/m² 5,1 °C 7,6 °C 0,0 km/h (0 Bft)
08.04.2017 09:36 7,7 °C 7,7 °C 84 % 1023,7 hPa 0,0 mm 0,0 km/h (0 Bft) S 178 ° 1 min 0,000 mm 2,2 UV-I 406 W/m² 5,2 °C 7,7 °C 0,0 km/h (0 Bft)
08.04.2017 09:37 7,8 °C 7,8 °C 83 % 1023,8 hPa 0,0 mm 0,0 km/h (0 Bft) S 178 ° 1 min 0,000 mm 2,2 UV-I 410 W/m² 5,1 °C 7,8 °C 0,0 km/h (0 Bft)
08.04.2017 09:38 7,8 °C 7,8 °C 85 % 1023,8 hPa 0,0 mm 0,0 km/h (0 Bft) S 178 ° 1 min 0,127 mm 2,2 UV-I 413 W/m² 5,4 °C 7,8 °C 0,0 km/h (0 Bft)
08.04.2017 09:39 7,9 °C 7,9 °C 83 % 1023,9 hPa 0,0 mm 0,0 km/h (0 Bft) S 178 ° 1 min 0,000 mm 2,3 UV-I 417 W/m² 5,2 °C 7,9 °C 0,0 km/h (0 Bft)
08.04.2017 09:40 7,9 °C 7,9 °C 81 % 1023,7 hPa 0,0 mm 0,0 km/h (0 Bft) S 178 ° 1 min 0,000 mm 2,3 UV-I 418 W/m² 4,8 °C 7,9 °C 0,0 km/h (0 Bft)
08.04.2017 09:41 8,2 °C 8,2 °C 83 % 1023,8 hPa 0,0 mm 0,0 km/h (0 Bft) S 178 ° 1 min 0,000 mm 2,3 UV-I 420 W/m² 5,5 °C 8,2 °C 0,0 km/h (0 Bft)
08.04.2017 09:42 8,3 °C 8,3 °C 81 % 1023,7 hPa 0,0 mm 0,0 km/h (0 Bft) S 178 ° 1 min 0,000 mm 2,3 UV-I 422 W/m² 5,2 °C 8,3 °C 0,0 km/h (0 Bft)
08.04.2017 09:43 8,3 °C 8,3 °C 80 % 1023,7 hPa 0,0 mm 0,4 km/h (0 Bft) S 178 ° 1 min 0,000 mm 2,3 UV-I 427 W/m² 5,1 °C 8,3 °C 1,6 km/h (1 Bft)
08.04.2017 09:44 8,5 °C 8,5 °C 80 % 1023,7 hPa 0,0 mm 0,5 km/h (0 Bft) S 178 ° 1 min 0,000 mm 2,3 UV-I 431 W/m² 5,3 °C 8,5 °C 1,6 km/h (1 Bft)
08.04.2017 09:45 8,6 °C 8,6 °C 80 % 1023,7 hPa 0,0 mm 0,3 km/h (0 Bft) S 178 ° 1 min 0,000 mm 2,4 UV-I 432 W/m² 5,3 °C 8,6 °C 1,6 km/h (1 Bft)
08.04.2017 09:46 8,7 °C 8,7 °C 79 % 1023,7 hPa 0,0 mm 0,5 km/h (0 Bft) S 178 ° 1 min 0,000 mm 2,4 UV-I 434 W/m² 5,3 °C 8,7 °C 1,6 km/h (1 Bft)
08.04.2017 09:47 8,7 °C 8,8 °C 79 % 1023,7 hPa 0,0 mm 0,9 km/h (0 Bft) S 178 ° 1 min 0,000 mm 2,4 UV-I 436 W/m² 5,3 °C 8,7 °C 3,2 km/h (1 Bft)
08.04.2017 09:48 8,8 °C 8,8 °C 79 % 1023,7 hPa 0,0 mm 2,4 km/h (1 Bft) S 178 ° 1 min 0,000 mm 2,5 UV-I 441 W/m² 5,4 °C 8,8 °C 3,2 km/h (1 Bft)
08.04.2017 09:49 8,8 °C 8,9 °C 79 % 1023,7 hPa 0,0 mm 2,0 km/h (1 Bft) S 178 ° 1 min 0,000 mm 2,5 UV-I 445 W/m² 5,4 °C 8,8 °C 3,2 km/h (1 Bft)
08.04.2017 09:50 8,9 °C 8,9 °C 78 % 1023,7 hPa 0,0 mm 0,4 km/h (0 Bft) S 178 ° 1 min 0,000 mm 2,5 UV-I 446 W/m² 5,3 °C 8,9 °C 1,6 km/h (1 Bft)
08.04.2017 09:51 9,0 °C 9,0 °C 80 % 1023,6 hPa 0,0 mm 0,1 km/h (0 Bft) S 178 ° 1 min 0,000 mm 2,5 UV-I 450 W/m² 5,7 °C 9,0 °C 1,6 km/h (1 Bft)
08.04.2017 09:52 9,1 °C 9,1 °C 79 % 1023,6 hPa 0,0 mm 0,6 km/h (0 Bft) S 170 ° 1 min 0,000 mm 2,6 UV-I 454 W/m² 5,7 °C 9,1 °C 3,2 km/h (1 Bft)
08.04.2017 09:53 9,2 °C 9,2 °C 78 % 1023,7 hPa 0,0 mm 2,8 km/h (1 Bft) S 170 ° 1 min 0,000 mm 2,6 UV-I 455 W/m² 5,6 °C 9,2 °C 6,4 km/h (2 Bft)
08.04.2017 09:54 9,3 °C 9,3 °C 78 % 1023,6 hPa 0,0 mm 0,1 km/h (0 Bft) S 170 ° 1 min 0,000 mm 2,6 UV-I 455 W/m² 5,7 °C 9,3 °C 1,6 km/h (1 Bft)
08.04.2017 09:55 9,4 °C 9,4 °C 77 % 1023,6 hPa 0,0 mm 2,5 km/h (1 Bft) N 355 ° 1 min 0,000 mm 2,6 UV-I 459 W/m² 5,6 °C 9,4 °C 4,8 km/h (1 Bft)
08.04.2017 09:56 9,4 °C 9,4 °C 78 % 1023,6 hPa 0,0 mm 1,1 km/h (1 Bft) N-NW 346 ° 1 min 0,000 mm 2,7 UV-I 462 W/m² 5,8 °C 9,4 °C 3,2 km/h (1 Bft)
08.04.2017 09:57 9,6 °C 9,6 °C 78 % 1023,6 hPa 0,0 mm 1,8 km/h (1 Bft) N-NW 346 ° 1 min 0,000 mm 2,7 UV-I 462 W/m² 6,0 °C 9,6 °C 3,2 km/h (1 Bft)
08.04.2017 09:58 9,7 °C 9,7 °C 78 % 1023,6 hPa 0,0 mm 0,6 km/h (0 Bft) N-NW 346 ° 1 min 0,000 mm 2,7 UV-I 464 W/m² 6,1 °C 9,7 °C 1,6 km/h (1 Bft)
08.04.2017 09:59 9,8 °C 9,8 °C 79 % 1023,6 hPa 0,0 mm 0,0 km/h (0 Bft) N-NW 346 ° 1 min 0,000 mm 2,7 UV-I 468 W/m² 6,3 °C 9,8 °C 0,0 km/h (0 Bft)
08.04.2017 10:00 9,8 °C 9,8 °C 77 % 1023,6 hPa 0,0 mm 0,7 km/h (0 Bft) N-NW 346 ° 1 min 0,000 mm 2,7 UV-I 471 W/m² 6,0 °C 9,8 °C 1,6 km/h (1 Bft)
08.04.2017 10:01 9,7 °C 9,8 °C 79 % 1023,6 hPa 0,0 mm 0,3 km/h (0 Bft) N-NW 346 ° 1 min 0,000 mm 2,7 UV-I 476 W/m² 6,2 °C 9,7 °C 1,6 km/h (1 Bft)
08.04.2017 10:02 9,8 °C 9,8 °C 77 % 1023,6 hPa 0,0 mm 1,5 km/h (1 Bft) N-NO 13 ° 1 min 0,000 mm 2,8 UV-I 478 W/m² 6,0 °C 9,8 °C 3,2 km/h (1 Bft)
08.04.2017 10:03 9,9 °C 9,9 °C 78 % 1023,6 hPa 0,0 mm 1,9 km/h (1 Bft) N-NO 13 ° 1 min 0,000 mm 2,8 UV-I 482 W/m² 6,2 °C 9,9 °C 3,2 km/h (1 Bft)
08.04.2017 10:04 9,9 °C 9,9 °C 78 % 1023,6 hPa 0,0 mm 1,5 km/h (1 Bft) N-NO 13 ° 1 min 0,000 mm 2,8 UV-I 480 W/m² 6,2 °C 9,9 °C 3,2 km/h (1 Bft)
08.04.2017 10:05 10,1 °C 10,1 °C 75 % 1023,6 hPa 0,0 mm 3,9 km/h (1 Bft) N-NO 29 ° 1 min 0,000 mm 2,8 UV-I 482 W/m² 5,9 °C 10,1 °C 6,4 km/h (2 Bft)
08.04.2017 10:06 10,1 °C 10,1 °C 75 % 1023,6 hPa 0,0 mm 3,2 km/h (1 Bft) NO 42 ° 1 min 0,000 mm 2,8 UV-I 487 W/m² 5,9 °C 10,1 °C 4,8 km/h (1 Bft)
08.04.2017 10:07 10,1 °C 10,1 °C 76 % 1023,6 hPa 0,0 mm 2,4 km/h (1 Bft) N-NO 17 ° 1 min 0,000 mm 2,9 UV-I 490 W/m² 6,1 °C 10,1 °C 4,8 km/h (1 Bft)
08.04.2017 10:08 10,1 °C 10,1 °C 75 % 1023,6 hPa 0,0 mm 1,9 km/h (1 Bft) N-NO 17 ° 1 min 0,000 mm 2,9 UV-I 494 W/m² 5,9 °C 10,1 °C 3,2 km/h (1 Bft)
08.04.2017 10:09 10,1 °C 10,1 °C 76 % 1023,6 hPa 0,0 mm 0,9 km/h (0 Bft) N-NO 17 ° 1 min 0,000 mm 2,9 UV-I 494 W/m² 6,1 °C 10,1 °C 1,6 km/h (1 Bft)
08.04.2017 10:10 10,2 °C 10,2 °C 75 % 1023,6 hPa 0,0 mm 2,8 km/h (1 Bft) N-NO 17 ° 1 min 0,000 mm 2,9 UV-I 496 W/m² 6,0 °C 10,2 °C 4,8 km/h (1 Bft)
08.04.2017 10:11 10,3 °C 10,3 °C 76 % 1023,6 hPa 0,0 mm 1,7 km/h (1 Bft) N-NO 17 ° 1 min 0,000 mm 2,9 UV-I 499 W/m² 6,3 °C 10,3 °C 3,2 km/h (1 Bft)
08.04.2017 10:12 10,4 °C 10,4 °C 76 % 1023,6 hPa 0,0 mm 1,8 km/h (1 Bft) N-NO 17 ° 1 min 0,000 mm 3,0 UV-I 503 W/m² 6,4 °C 10,4 °C 4,8 km/h (1 Bft)
08.04.2017 10:13 10,4 °C 10,4 °C 73 % 1023,6 hPa 0,0 mm 2,3 km/h (1 Bft) N-NO 17 ° 1 min 0,000 mm 3,0 UV-I 504 W/m² 5,8 °C 10,4 °C 3,2 km/h (1 Bft)
08.04.2017 10:14 10,4 °C 10,4 °C 74 % 1023,6 hPa 0,0 mm 1,0 km/h (0 Bft) N-NO 17 ° 1 min 0,000 mm 3,0 UV-I 508 W/m² 6,0 °C 10,4 °C 3,2 km/h (1 Bft)
08.04.2017 10:15 10,6 °C 10,6 °C 76 % 1023,6 hPa 0,0 mm 2,4 km/h (1 Bft) N-NO 17 ° 1 min 0,000 mm 3,0 UV-I 512 W/m² 6,5 °C 10,6 °C 4,8 km/h (1 Bft)
08.04.2017 10:16 10,7 °C 10,7 °C 74 % 1023,6 hPa 0,0 mm 3,7 km/h (1 Bft) NO 52 ° 1 min 0,000 mm 3,1 UV-I 513 W/m² 6,3 °C 10,7 °C 6,4 km/h (2 Bft)
08.04.2017 10:17 10,7 °C 10,7 °C 73 % 1023,6 hPa 0,0 mm 3,1 km/h (1 Bft) NO 49 ° 1 min 0,000 mm 3,1 UV-I 517 W/m² 6,1 °C 10,7 °C 4,8 km/h (1 Bft)
08.04.2017 10:18 10,8 °C 10,8 °C 73 % 1023,6 hPa 0,0 mm 2,3 km/h (1 Bft) NO 40 ° 1 min 0,000 mm 3,1 UV-I 519 W/m² 6,2 °C 10,8 °C 3,2 km/h (1 Bft)
08.04.2017 10:19 10,8 °C 10,8 °C 77 % 1023,6 hPa 0,0 mm 2,5 km/h (1 Bft) N-NO 28 ° 1 min 0,000 mm 3,1 UV-I 524 W/m² 6,9 °C 10,8 °C 4,8 km/h (1 Bft)
08.04.2017 10:20 10,9 °C 10,9 °C 73 % 1023,6 hPa 0,0 mm 2,7 km/h (1 Bft) N-NW 344 ° 1 min 0,000 mm 3,1 UV-I 524 W/m² 6,3 °C 10,9 °C 4,8 km/h (1 Bft)
08.04.2017 10:21 10,9 °C 10,9 °C 72 % 1023,6 hPa 0,0 mm 3,6 km/h (1 Bft) N 11 ° 1 min 0,000 mm 3,1 UV-I 527 W/m² 6,1 °C 10,9 °C 6,4 km/h (2 Bft)
08.04.2017 10:22 10,9 °C 10,9 °C 71 % 1023,6 hPa 0,0 mm 1,8 km/h (1 Bft) N-NW 327 ° 1 min 0,000 mm 3,1 UV-I 529 W/m² 5,9 °C 10,9 °C 3,2 km/h (1 Bft)
08.04.2017 10:23 11,0 °C 11,0 °C 72 % 1023,6 hPa 0,0 mm 1,3 km/h (1 Bft) N-NW 347 ° 1 min 0,000 mm 3,2 UV-I 531 W/m² 6,2 °C 11,0 °C 4,8 km/h (1 Bft)
08.04.2017 10:24 11,1 °C 11,1 °C 72 % 1023,6 hPa 0,0 mm 3,2 km/h (1 Bft) N 11 ° 1 min 0,000 mm 3,2 UV-I 534 W/m² 6,2 °C 11,1 °C 6,4 km/h (2 Bft)
08.04.2017 10:25 11,1 °C 11,1 °C 70 % 1023,6 hPa 0,0 mm 1,9 km/h (1 Bft) N-NW 336 ° 1 min 0,000 mm 3,2 UV-I 538 W/m² 5,8 °C 11,1 °C 4,8 km/h (1 Bft)
08.04.2017 10:26 11,1 °C 11,1 °C 71 % 1023,6 hPa 0,0 mm 2,9 km/h (1 Bft) N-NW 344 ° 1 min 0,000 mm 3,2 UV-I 541 W/m² 6,0 °C 11,1 °C 4,8 km/h (1 Bft)
08.04.2017 10:27 11,1 °C 11,1 °C 71 % 1023,6 hPa 0,0 mm 5,0 km/h (1 Bft) N 360 ° 1 min 0,000 mm 3,2 UV-I 543 W/m² 6,0 °C 11,1 °C 9,7 km/h (2 Bft)
08.04.2017 10:28 11,1 °C 11,1 °C 71 % 1023,6 hPa 0,0 mm 5,5 km/h (1 Bft) N-NO 25 ° 1 min 0,000 mm 3,3 UV-I 543 W/m² 6,0 °C 11,1 °C 8,0 km/h (2 Bft)
08.04.2017 10:29 11,0 °C 11,1 °C 73 % 1023,6 hPa 0,0 mm 3,2 km/h (1 Bft) NO 49 ° 1 min 0,000 mm 3,3 UV-I 547 W/m² 6,4 °C 11,0 °C 4,8 km/h (1 Bft)
08.04.2017 10:30 10,9 °C 11,0 °C 71 % 1023,6 hPa 0,0 mm 2,7 km/h (1 Bft) N-NO 21 ° 1 min 0,000 mm 3,3 UV-I 550 W/m² 5,9 °C 10,9 °C 3,2 km/h (1 Bft)
08.04.2017 10:31 11,1 °C 11,1 °C 72 % 1023,6 hPa 0,0 mm 3,9 km/h (1 Bft) N-NO 28 ° 1 min 0,000 mm 3,3 UV-I 550 W/m² 6,2 °C 11,1 °C 8,0 km/h (2 Bft)
08.04.2017 10:32 11,1 °C 11,1 °C 70 % 1023,6 hPa 0,0 mm 4,2 km/h (1 Bft) NO 38 ° 1 min 0,000 mm 3,3 UV-I 552 W/m² 5,8 °C 11,1 °C 8,0 km/h (2 Bft)
08.04.2017 10:33 11,1 °C 11,1 °C 70 % 1023,6 hPa 0,0 mm 4,7 km/h (1 Bft) O-NO 57 ° 1 min 0,000 mm 3,4 UV-I 555 W/m² 5,8 °C 11,1 °C 6,4 km/h (2 Bft)
08.04.2017 10:34 11,1 °C 11,1 °C 70 % 1023,6 hPa 0,0 mm 5,1 km/h (1 Bft) N-NO 12 ° 1 min 0,000 mm 3,4 UV-I 557 W/m² 5,8 °C 11,1 °C 6,4 km/h (2 Bft)
08.04.2017 10:35 10,9 °C 11,1 °C 70 % 1023,6 hPa 0,0 mm 6,6 km/h (2 Bft) N-NW 331 ° 1 min 0,000 mm 3,4 UV-I 561 W/m² 5,6 °C 10,9 °C 8,0 km/h (2 Bft)
08.04.2017 10:36 11,1 °C 11,1 °C 71 % 1023,6 hPa 0,0 mm 4,0 km/h (1 Bft) N-NO 14 ° 1 min 0,000 mm 3,4 UV-I 563 W/m² 6,0 °C 11,1 °C 8,0 km/h (2 Bft)
08.04.2017 10:37 11,1 °C 11,1 °C 70 % 1023,6 hPa 0,0 mm 6,8 km/h (2 Bft) NO 39 ° 1 min 0,000 mm 3,4 UV-I 564 W/m² 5,8 °C 11,1 °C 8,0 km/h (2 Bft)
08.04.2017 10:38 11,1 °C 11,2 °C 70 % 1023,6 hPa 0,0 mm 4,6 km/h (1 Bft) N 355 ° 1 min 0,228 mm 3,4 UV-I 566 W/m² 5,8 °C 11,1 °C 6,4 km/h (2 Bft)
08.04.2017 10:39 11,1 °C 11,1 °C 70 % 1023,6 hPa 0,0 mm 4,6 km/h (1 Bft) N-NO 27 ° 1 min 0,000 mm 3,4 UV-I 571 W/m² 5,8 °C 11,1 °C 6,4 km/h (2 Bft)
08.04.2017 10:40 11,1 °C 11,1 °C 70 % 1023,6 hPa 0,0 mm 5,4 km/h (1 Bft) NO 35 ° 1 min 0,000 mm 3,4 UV-I 573 W/m² 5,8 °C 11,1 °C 8,0 km/h (2 Bft)
08.04.2017 10:41 11,2 °C 11,2 °C 71 % 1023,6 hPa 0,0 mm 4,3 km/h (1 Bft) NO 37 ° 1 min 0,000 mm 3,5 UV-I 575 W/m² 6,1 °C 11,2 °C 8,0 km/h (2 Bft)
08.04.2017 10:42 11,1 °C 11,2 °C 70 % 1023,6 hPa 0,0 mm 3,2 km/h (1 Bft) NO 50 ° 1 min 0,000 mm 3,5 UV-I 577 W/m² 5,8 °C 11,1 °C 6,4 km/h (2 Bft)
08.04.2017 10:43 11,2 °C 11,2 °C 71 % 1023,5 hPa 0,0 mm 5,0 km/h (1 Bft) NO 42 ° 1 min 0,000 mm 3,5 UV-I 582 W/m² 6,1 °C 11,2 °C 6,4 km/h (2 Bft)
08.04.2017 10:44 11,2 °C 11,2 °C 71 % 1023,5 hPa 0,0 mm 5,4 km/h (1 Bft) NO 47 ° 1 min 0,000 mm 3,5 UV-I 584 W/m² 6,1 °C 11,2 °C 8,0 km/h (2 Bft)
08.04.2017 10:45 11,2 °C 11,3 °C 71 % 1023,5 hPa 0,0 mm 4,4 km/h (1 Bft) NO 44 ° 1 min 0,000 mm 3,5 UV-I 585 W/m² 6,1 °C 11,2 °C 6,4 km/h (2 Bft)
08.04.2017 10:46 11,3 °C 11,3 °C 70 % 1023,5 hPa 0,0 mm 4,4 km/h (1 Bft) N-NO 15 ° 1 min 0,000 mm 3,5 UV-I 589 W/m² 6,0 °C 11,3 °C 8,0 km/h (2 Bft)
08.04.2017 10:47 11,3 °C 11,3 °C 70 % 1023,6 hPa 0,0 mm 4,4 km/h (1 Bft) NO 40 ° 1 min 0,000 mm 3,5 UV-I 591 W/m² 6,0 °C 11,3 °C 6,4 km/h (2 Bft)
08.04.2017 10:48 11,3 °C 11,3 °C 70 % 1023,5 hPa 0,0 mm 2,1 km/h (1 Bft) NO 40 ° 1 min 0,000 mm 3,6 UV-I 591 W/m² 6,0 °C 11,3 °C 3,2 km/h (1 Bft)
08.04.2017 10:49 11,4 °C 11,4 °C 70 % 1023,5 hPa 0,0 mm 6,1 km/h (2 Bft) N-NO 24 ° 1 min 0,000 mm 3,6 UV-I 592 W/m² 6,1 °C 11,4 °C 9,7 km/h (2 Bft)
08.04.2017 10:50 11,4 °C 11,4 °C 69 % 1023,5 hPa 0,0 mm 5,6 km/h (1 Bft) NO 42 ° 1 min 0,000 mm 3,6 UV-I 596 W/m² 5,9 °C 11,4 °C 8,0 km/h (2 Bft)
08.04.2017 10:51 11,2 °C 11,4 °C 68 % 1023,6 hPa 0,0 mm 7,0 km/h (2 Bft) N-NO 14 ° 1 min 0,000 mm 3,6 UV-I 598 W/m² 5,5 °C 11,2 °C 9,7 km/h (2 Bft)
08.04.2017 10:52 11,2 °C 11,2 °C 70 % 1023,6 hPa 0,0 mm 3,0 km/h (1 Bft) N-NO 32 ° 1 min 0,000 mm 3,6 UV-I 599 W/m² 5,9 °C 11,2 °C 4,8 km/h (1 Bft)
08.04.2017 10:53 11,2 °C 11,2 °C 69 % 1023,6 hPa 0,0 mm 4,7 km/h (1 Bft) N-NO 16 ° 1 min 0,000 mm 3,6 UV-I 601 W/m² 5,7 °C 11,2 °C 6,4 km/h (2 Bft)
08.04.2017 10:54 11,3 °C 11,3 °C 70 % 1023,6 hPa 0,0 mm 4,3 km/h (1 Bft) NO 34 ° 1 min 0,000 mm 3,7 UV-I 606 W/m² 6,0 °C 11,3 °C 8,0 km/h (2 Bft)
08.04.2017 10:55 11,4 °C 11,4 °C 71 % 1023,6 hPa 0,0 mm 1,9 km/h (1 Bft) N-NW 334 ° 1 min 0,000 mm 3,7 UV-I 606 W/m² 6,3 °C 11,4 °C 3,2 km/h (1 Bft)
08.04.2017 10:56 11,6 °C 11,6 °C 68 % 1023,6 hPa 0,0 mm 4,2 km/h (1 Bft) NO 40 ° 1 min 0,000 mm 3,7 UV-I 608 W/m² 5,9 °C 11,6 °C 6,4 km/h (2 Bft)
08.04.2017 10:57 11,7 °C 11,7 °C 68 % 1023,6 hPa 0,0 mm 3,9 km/h (1 Bft) NO 44 ° 1 min 0,000 mm 3,7 UV-I 612 W/m² 6,0 °C 11,7 °C 4,8 km/h (1 Bft)
08.04.2017 10:58 11,7 °C 11,7 °C 69 % 1023,6 hPa 0,0 mm 1,6 km/h (1 Bft) NW 325 ° 1 min 0,000 mm 3,7 UV-I 612 W/m² 6,2 °C 11,7 °C 3,2 km/h (1 Bft)
08.04.2017 10:59 11,7 °C 11,8 °C 69 % 1023,6 hPa 0,0 mm 3,0 km/h (1 Bft) NO 53 ° 1 min 0,000 mm 3,7 UV-I 613 W/m² 6,2 °C 11,7 °C 4,8 km/h (1 Bft)
08.04.2017 11:00 11,7 °C 11,7 °C 69 % 1023,5 hPa 0,0 mm 4,3 km/h (1 Bft) N-NO 16 ° 1 min 0,000 mm 3,8 UV-I 617 W/m² 6,2 °C 11,7 °C 8,0 km/h (2 Bft)
08.04.2017 11:01 11,7 °C 11,7 °C 67 % 1023,6 hPa 0,0 mm 4,0 km/h (1 Bft) N-NO 31 ° 1 min 0,000 mm 3,8 UV-I 619 W/m² 5,8 °C 11,7 °C 6,4 km/h (2 Bft)
08.04.2017 11:02 11,7 °C 11,7 °C 69 % 1023,5 hPa 0,0 mm 3,7 km/h (1 Bft) O 86 ° 1 min 0,000 mm 3,8 UV-I 624 W/m² 6,2 °C 11,7 °C 6,4 km/h (2 Bft)
08.04.2017 11:03 11,6 °C 11,7 °C 71 % 1023,5 hPa 0,0 mm 1,5 km/h (1 Bft) NO 45 ° 1 min 0,000 mm 3,8 UV-I 624 W/m² 6,5 °C 11,6 °C 4,8 km/h (1 Bft)
08.04.2017 11:04 11,7 °C 11,7 °C 67 % 1023,5 hPa 0,0 mm 5,0 km/h (1 Bft) N-NW 346 ° 1 min 0,000 mm 3,9 UV-I 628 W/m² 5,8 °C 11,7 °C 8,0 km/h (2 Bft)
08.04.2017 11:05 11,7 °C 11,7 °C 68 % 1023,5 hPa 0,0 mm 4,3 km/h (1 Bft) N 360 ° 1 min 0,000 mm 3,9 UV-I 629 W/m² 6,0 °C 11,7 °C 8,0 km/h (2 Bft)
08.04.2017 11:06 11,8 °C 11,8 °C 69 % 1023,5 hPa 0,0 mm 4,6 km/h (1 Bft) N-NO 18 ° 1 min 0,000 mm 3,9 UV-I 631 W/m² 6,3 °C 11,8 °C 6,4 km/h (2 Bft)
08.04.2017 11:07 11,7 °C 11,8 °C 68 % 1023,5 hPa 0,0 mm 4,2 km/h (1 Bft) NO 42 ° 1 min 0,000 mm 3,9 UV-I 633 W/m² 6,0 °C 11,7 °C 6,4 km/h (2 Bft)
08.04.2017 11:08 11,8 °C 11,8 °C 68 % 1023,5 hPa 0,0 mm 4,7 km/h (1 Bft) NO 42 ° 1 min 0,000 mm 3,9 UV-I 635 W/m² 6,1 °C 11,8 °C 6,4 km/h (2 Bft)
08.04.2017 11:09 11,7 °C 11,8 °C 68 % 1023,5 hPa 0,0 mm 3,5 km/h (1 Bft) N 5 ° 1 min 0,000 mm 3,9 UV-I 635 W/m² 6,0 °C 11,7 °C 4,8 km/h (1 Bft)
08.04.2017 11:10 11,9 °C 11,9 °C 70 % 1023,5 hPa 0,0 mm 3,2 km/h (1 Bft) O-NO 64 ° 1 min 0,000 mm 4,0 UV-I 636 W/m² 6,6 °C 11,9 °C 6,4 km/h (2 Bft)
08.04.2017 11:11 11,9 °C 11,9 °C 70 % 1023,5 hPa 0,0 mm 2,6 km/h (1 Bft) O-NO 57 ° 1 min 0,000 mm 4,0 UV-I 640 W/m² 6,6 °C 11,9 °C 4,8 km/h (1 Bft)
08.04.2017 11:12 12,0 °C 12,0 °C 68 % 1023,5 hPa 0,0 mm 3,0 km/h (1 Bft) NO 40 ° 1 min 0,000 mm 4,0 UV-I 642 W/m² 6,3 °C 12,0 °C 4,8 km/h (1 Bft)
08.04.2017 11:13 12,0 °C 12,1 °C 69 % 1023,5 hPa 0,0 mm 4,1 km/h (1 Bft) N 350 ° 1 min 0,000 mm 4,0 UV-I 640 W/m² 6,5 °C 12,0 °C 4,8 km/h (1 Bft)
08.04.2017 11:14 12,0 °C 12,1 °C 67 % 1023,5 hPa 0,0 mm 2,5 km/h (1 Bft) N 360 ° 1 min 0,000 mm 4,0 UV-I 645 W/m² 6,1 °C 12,0 °C 3,2 km/h (1 Bft)
08.04.2017 11:15 12,1 °C 12,1 °C 67 % 1023,5 hPa 0,0 mm 4,9 km/h (1 Bft) N-NW 345 ° 1 min 0,000 mm 4,0 UV-I 647 W/m² 6,2 °C 12,1 °C 8,0 km/h (2 Bft)
08.04.2017 11:16 12,1 °C 12,1 °C 67 % 1023,5 hPa 0,0 mm 4,0 km/h (1 Bft) N 11 ° 1 min 0,000 mm 4,1 UV-I 649 W/m² 6,2 °C 12,1 °C 6,4 km/h (2 Bft)
08.04.2017 11:17 12,0 °C 12,1 °C 67 % 1023,5 hPa 0,0 mm 4,5 km/h (1 Bft) N 5 ° 1 min 0,000 mm 4,1 UV-I 652 W/m² 6,1 °C 12,0 °C 6,4 km/h (2 Bft)
08.04.2017 11:18 12,0 °C 12,0 °C 68 % 1023,5 hPa 0,0 mm 4,2 km/h (1 Bft) N-NO 17 ° 1 min 0,000 mm 4,1 UV-I 656 W/m² 6,3 °C 12,0 °C 6,4 km/h (2 Bft)
08.04.2017 11:19 11,9 °C 12,0 °C 67 % 1023,4 hPa 0,0 mm 4,8 km/h (1 Bft) N-NO 29 ° 1 min 0,000 mm 4,1 UV-I 657 W/m² 6,0 °C 11,9 °C 8,0 km/h (2 Bft)
08.04.2017 11:20 11,9 °C 11,9 °C 67 % 1023,5 hPa 0,0 mm 3,9 km/h (1 Bft) NO 55 ° 1 min 0,000 mm 4,2 UV-I 661 W/m² 6,0 °C 11,9 °C 8,0 km/h (2 Bft)
08.04.2017 11:21 11,9 °C 11,9 °C 70 % 1023,4 hPa 0,0 mm 1,7 km/h (1 Bft) NO 55 ° 1 min 0,000 mm 4,2 UV-I 663 W/m² 6,6 °C 11,9 °C 4,8 km/h (1 Bft)
08.04.2017 11:22 12,2 °C 12,2 °C 70 % 1023,5 hPa 0,0 mm 2,1 km/h (1 Bft) NW 321 ° 1 min 0,000 mm 4,2 UV-I 661 W/m² 6,9 °C 12,2 °C 4,8 km/h (1 Bft)
08.04.2017 11:23 12,3 °C 12,4 °C 67 % 1023,4 hPa 0,0 mm 4,7 km/h (1 Bft) N-NW 347 ° 1 min 0,000 mm 4,2 UV-I 663 W/m² 6,4 °C 12,3 °C 6,4 km/h (2 Bft)
08.04.2017 11:24 12,4 °C 12,4 °C 67 % 1023,4 hPa 0,0 mm 4,8 km/h (1 Bft) N-NO 19 ° 1 min 0,000 mm 4,2 UV-I 664 W/m² 6,4 °C 12,4 °C 8,0 km/h (2 Bft)
08.04.2017 11:25 12,3 °C 12,4 °C 66 % 1023,4 hPa 0,0 mm 1,3 km/h (1 Bft) N-NO 21 ° 1 min 0,000 mm 4,2 UV-I 666 W/m² 6,1 °C 12,3 °C 3,2 km/h (1 Bft)
08.04.2017 11:26 12,2 °C 12,3 °C 67 % 1023,4 hPa 0,0 mm 3,8 km/h (1 Bft) O-NO 61 ° 1 min 0,000 mm 4,2 UV-I 668 W/m² 6,3 °C 12,2 °C 8,0 km/h (2 Bft)
08.04.2017 11:27 12,1 °C 12,2 °C 67 % 1023,4 hPa 0,0 mm 5,0 km/h (1 Bft) O-NO 69 ° 1 min 0,000 mm 4,3 UV-I 670 W/m² 6,2 °C 12,1 °C 8,0 km/h (2 Bft)
08.04.2017 11:28 12,2 °C 12,2 °C 69 % 1023,4 hPa 0,0 mm 4,1 km/h (1 Bft) O-NO 67 ° 1 min 0,000 mm 4,3 UV-I 673 W/m² 6,7 °C 12,2 °C 6,4 km/h (2 Bft)
08.04.2017 11:29 12,3 °C 12,3 °C 68 % 1023,5 hPa 0,0 mm 2,9 km/h (1 Bft) N-NO 20 ° 1 min 0,000 mm 4,3 UV-I 675 W/m² 6,6 °C 12,3 °C 4,8 km/h (1 Bft)
08.04.2017 11:30 12,4 °C 12,4 °C 67 % 1023,4 hPa 0,0 mm 3,5 km/h (1 Bft) NO 43 ° 1 min 0,000 mm 4,3 UV-I 675 W/m² 6,4 °C 12,4 °C 4,8 km/h (1 Bft)
08.04.2017 11:31 12,6 °C 12,6 °C 68 % 1023,4 hPa 0,0 mm 4,4 km/h (1 Bft) N-NO 26 ° 1 min 0,000 mm 4,3 UV-I 679 W/m² 6,9 °C 12,6 °C 9,7 km/h (2 Bft)
08.04.2017 11:32 12,6 °C 12,7 °C 64 % 1023,4 hPa 0,0 mm 5,5 km/h (1 Bft) N 360 ° 1 min 0,000 mm 4,3 UV-I 679 W/m² 6,0 °C 12,6 °C 8,0 km/h (2 Bft)
08.04.2017 11:33 12,6 °C 12,6 °C 65 % 1023,4 hPa 0,0 mm 5,5 km/h (1 Bft) NO 43 ° 1 min 0,000 mm 4,3 UV-I 680 W/m² 6,2 °C 12,6 °C 8,0 km/h (2 Bft)
08.04.2017 11:34 12,4 °C 12,6 °C 65 % 1023,4 hPa 0,0 mm 2,2 km/h (1 Bft) NO 48 ° 1 min 0,000 mm 4,4 UV-I 680 W/m² 6,0 °C 12,4 °C 4,8 km/h (1 Bft)
08.04.2017 11:35 12,3 °C 12,4 °C 65 % 1023,4 hPa 0,0 mm 0,9 km/h (0 Bft) NO 48 ° 1 min 0,000 mm 4,4 UV-I 686 W/m² 5,9 °C 12,3 °C 3,2 km/h (1 Bft)
08.04.2017 11:36 12,3 °C 12,3 °C 68 % 1023,4 hPa 0,0 mm 2,6 km/h (1 Bft) NO 41 ° 1 min 0,000 mm 4,4 UV-I 686 W/m² 6,6 °C 12,3 °C 9,7 km/h (2 Bft)
08.04.2017 11:37 12,4 °C 12,4 °C 68 % 1023,4 hPa 0,0 mm 5,1 km/h (1 Bft) O-NO 57 ° 1 min 0,000 mm 4,4 UV-I 687 W/m² 6,7 °C 12,4 °C 8,0 km/h (2 Bft)
08.04.2017 11:38 12,3 °C 12,4 °C 66 % 1023,3 hPa 0,0 mm 5,0 km/h (1 Bft) NO 53 ° 1 min 0,305 mm 4,4 UV-I 687 W/m² 6,1 °C 12,3 °C 8,0 km/h (2 Bft)
08.04.2017 11:39 12,3 °C 12,3 °C 67 % 1023,3 hPa 0,0 mm 1,7 km/h (1 Bft) NO 53 ° 1 min 0,000 mm 4,4 UV-I 689 W/m² 6,4 °C 12,3 °C 4,8 km/h (1 Bft)
08.04.2017 11:40 12,4 °C 12,4 °C 66 % 1023,3 hPa 0,0 mm 4,7 km/h (1 Bft) N-NO 22 ° 1 min 0,000 mm 4,5 UV-I 693 W/m² 6,2 °C 12,4 °C 9,7 km/h (2 Bft)
08.04.2017 11:41 12,4 °C 12,4 °C 65 % 1023,4 hPa 0,0 mm 4,7 km/h (1 Bft) NO 53 ° 1 min 0,000 mm 4,5 UV-I 693 W/m² 6,0 °C 12,4 °C 6,4 km/h (2 Bft)
08.04.2017 11:42 12,4 °C 12,4 °C 64 % 1023,4 hPa 0,0 mm 4,3 km/h (1 Bft) O-NO 65 ° 1 min 0,000 mm 4,5 UV-I 693 W/m² 5,8 °C 12,4 °C 6,4 km/h (2 Bft)
08.04.2017 11:43 12,4 °C 12,4 °C 65 % 1023,3 hPa 0,0 mm 3,0 km/h (1 Bft) O-NO 71 ° 1 min 0,000 mm 4,5 UV-I 693 W/m² 6,0 °C 12,4 °C 4,8 km/h (1 Bft)
08.04.2017 11:44 12,5 °C 12,5 °C 67 % 1023,3 hPa 0,0 mm 1,4 km/h (1 Bft) N-NO 32 ° 1 min 0,000 mm 4,5 UV-I 696 W/m² 6,5 °C 12,5 °C 3,2 km/h (1 Bft)
08.04.2017 11:45 12,7 °C 12,7 °C 67 % 1023,3 hPa 0,0 mm 2,0 km/h (1 Bft) N-NO 33 ° 1 min 0,000 mm 4,5 UV-I 698 W/m² 6,7 °C 12,7 °C 6,4 km/h (2 Bft)
08.04.2017 11:46 12,7 °C 12,7 °C 65 % 1023,3 hPa 0,0 mm 1,6 km/h (1 Bft) NO 34 ° 1 min 0,000 mm 4,6 UV-I 701 W/m² 6,3 °C 12,7 °C 3,2 km/h (1 Bft)
08.04.2017 11:47 12,6 °C 12,7 °C 64 % 1023,3 hPa 0,0 mm 3,2 km/h (1 Bft) NO 34 ° 1 min 0,000 mm 4,6 UV-I 705 W/m² 6,0 °C 12,6 °C 4,8 km/h (1 Bft)
08.04.2017 11:48 12,6 °C 12,6 °C 64 % 1023,3 hPa 0,0 mm 2,7 km/h (1 Bft) N 360 ° 1 min 0,000 mm 4,6 UV-I 705 W/m² 6,0 °C 12,6 °C 4,8 km/h (1 Bft)
08.04.2017 11:49 12,7 °C 12,7 °C 62 % 1023,3 hPa 0,0 mm 4,9 km/h (1 Bft) N-NO 32 ° 1 min 0,000 mm 4,6 UV-I 707 W/m² 5,6 °C 12,7 °C 8,0 km/h (2 Bft)
08.04.2017 11:50 12,7 °C 12,7 °C 63 % 1023,3 hPa 0,0 mm 3,6 km/h (1 Bft) NO 36 ° 1 min 0,000 mm 4,7 UV-I 708 W/m² 5,8 °C 12,7 °C 6,4 km/h (2 Bft)
08.04.2017 11:51 12,7 °C 12,7 °C 62 % 1023,3 hPa 0,0 mm 5,2 km/h (1 Bft) N-NO 28 ° 1 min 0,000 mm 4,7 UV-I 708 W/m² 5,6 °C 12,7 °C 6,4 km/h (2 Bft)
08.04.2017 11:52 12,7 °C 12,7 °C 61 % 1023,2 hPa 0,0 mm 2,2 km/h (1 Bft) N-NO 28 ° 1 min 0,000 mm 4,7 UV-I 712 W/m² 5,4 °C 12,7 °C 3,2 km/h (1 Bft)
08.04.2017 11:53 12,6 °C 12,7 °C 63 % 1023,2 hPa 0,0 mm 0,9 km/h (0 Bft) N-NO 28 ° 1 min 0,000 mm 4,7 UV-I 710 W/m² 5,7 °C 12,6 °C 3,2 km/h (1 Bft)
08.04.2017 11:54 12,7 °C 12,7 °C 63 % 1023,3 hPa 0,0 mm 2,9 km/h (1 Bft) N 350 ° 1 min 0,000 mm 4,7 UV-I 712 W/m² 5,8 °C 12,7 °C 6,4 km/h (2 Bft)
08.04.2017 11:55 12,8 °C 12,8 °C 64 % 1023,2 hPa 0,0 mm 3,3 km/h (1 Bft) NW 309 ° 1 min 0,000 mm 4,7 UV-I 714 W/m² 6,2 °C 12,8 °C 4,8 km/h (1 Bft)
08.04.2017 11:56 12,9 °C 12,9 °C 63 % 1023,2 hPa 0,0 mm 3,0 km/h (1 Bft) N-NO 17 ° 1 min 0,000 mm 4,8 UV-I 714 W/m² 6,0 °C 12,9 °C 6,4 km/h (2 Bft)
08.04.2017 11:57 13,1 °C 13,1 °C 62 % 1023,3 hPa 0,0 mm 5,8 km/h (2 Bft) N-NO 19 ° 1 min 0,000 mm 4,8 UV-I 715 W/m² 6,0 °C 13,1 °C 8,0 km/h (2 Bft)
08.04.2017 11:58 13,1 °C 13,1 °C 61 % 1023,3 hPa 0,0 mm 4,6 km/h (1 Bft) N-NO 12 ° 1 min 0,000 mm 4,8 UV-I 719 W/m² 5,8 °C 13,1 °C 6,4 km/h (2 Bft)
08.04.2017 11:59 13,1 °C 13,1 °C 62 % 1023,3 hPa 0,0 mm 4,0 km/h (1 Bft) N-NO 24 ° 1 min 0,000 mm 4,8 UV-I 719 W/m² 6,0 °C 13,1 °C 6,4 km/h (2 Bft)
08.04.2017 12:00 13,2 °C 13,2 °C 65 % 1023,2 hPa 0,0 mm 3,2 km/h (1 Bft) N-NO 27 ° 1 min 0,000 mm 4,9 UV-I 722 W/m² 6,8 °C 13,2 °C 4,8 km/h (1 Bft)
08.04.2017 12:01 13,3 °C 13,3 °C 63 % 1023,2 hPa 0,0 mm 3,8 km/h (1 Bft) N-NO 33 ° 1 min 0,000 mm 4,9 UV-I 721 W/m² 6,4 °C 13,3 °C 4,8 km/h (1 Bft)
08.04.2017 12:02 13,3 °C 13,3 °C 65 % 1023,2 hPa 0,0 mm 1,7 km/h (1 Bft) N 5 ° 1 min 0,000 mm 4,9 UV-I 721 W/m² 6,9 °C 13,3 °C 3,2 km/h (1 Bft)
08.04.2017 12:03 13,3 °C 13,3 °C 61 % 1023,3 hPa 0,0 mm 2,1 km/h (1 Bft) N 355 ° 1 min 0,000 mm 4,9 UV-I 722 W/m² 5,9 °C 13,3 °C 4,8 km/h (1 Bft)
08.04.2017 12:04 13,4 °C 13,4 °C 64 % 1023,2 hPa 0,0 mm 2,7 km/h (1 Bft) N 355 ° 1 min 0,000 mm 4,9 UV-I 724 W/m² 6,7 °C 13,4 °C 8,0 km/h (2 Bft)
08.04.2017 12:05 13,7 °C 13,7 °C 63 % 1023,2 hPa 0,0 mm 3,8 km/h (1 Bft) N-NO 13 ° 1 min 0,000 mm 4,9 UV-I 726 W/m² 6,8 °C 13,7 °C 8,0 km/h (2 Bft)
08.04.2017 12:06 13,8 °C 13,8 °C 61 % 1023,2 hPa 0,0 mm 8,3 km/h (2 Bft) N-NO 17 ° 1 min 0,000 mm 4,9 UV-I 728 W/m² 6,4 °C 13,8 °C 14,5 km/h (3 Bft)
08.04.2017 12:07 13,6 °C 13,8 °C 60 % 1023,2 hPa 0,0 mm 6,6 km/h (2 Bft) N-NO 17 ° 1 min 0,000 mm 4,9 UV-I 728 W/m² 6,0 °C 13,6 °C 11,3 km/h (2 Bft)
08.04.2017 12:08 13,6 °C 13,6 °C 61 % 1023,2 hPa 0,0 mm 3,7 km/h (1 Bft) NO 53 ° 1 min 0,000 mm 4,9 UV-I 728 W/m² 6,2 °C 13,6 °C 6,4 km/h (2 Bft)
08.04.2017 12:09 13,5 °C 13,6 °C 60 % 1023,2 hPa 0,0 mm 4,4 km/h (1 Bft) NO 44 ° 1 min 0,000 mm 4,9 UV-I 729 W/m² 5,9 °C 13,5 °C 6,4 km/h (2 Bft)
08.04.2017 12:10 13,3 °C 13,5 °C 62 % 1023,2 hPa 0,0 mm 0,4 km/h (0 Bft) N-NW 348 ° 1 min 0,000 mm 4,9 UV-I 731 W/m² 6,2 °C 13,3 °C 3,2 km/h (1 Bft)
08.04.2017 12:11 13,4 °C 13,4 °C 61 % 1023,2 hPa 0,0 mm 3,4 km/h (1 Bft) NO 35 ° 1 min 0,000 mm 4,9 UV-I 731 W/m² 6,0 °C 13,4 °C 4,8 km/h (1 Bft)
08.04.2017 12:12 13,6 °C 13,6 °C 60 % 1023,2 hPa 0,0 mm 1,5 km/h (1 Bft) N-NW 344 ° 1 min 0,000 mm 5,0 UV-I 733 W/m² 6,0 °C 13,6 °C 4,8 km/h (1 Bft)
08.04.2017 12:13 13,7 °C 13,7 °C 59 % 1023,2 hPa 0,0 mm 2,4 km/h (1 Bft) N 355 ° 1 min 0,000 mm 5,0 UV-I 731 W/m² 5,8 °C 13,7 °C 4,8 km/h (1 Bft)
08.04.2017 12:14 13,7 °C 13,7 °C 60 % 1023,1 hPa 0,0 mm 3,8 km/h (1 Bft) N 10 ° 1 min 0,000 mm 5,0 UV-I 733 W/m² 6,1 °C 13,7 °C 4,8 km/h (1 Bft)
08.04.2017 12:15 13,8 °C 13,8 °C 60 % 1023,1 hPa 0,0 mm 4,6 km/h (1 Bft) NO 51 ° 1 min 0,000 mm 5,0 UV-I 735 W/m² 6,2 °C 13,8 °C 6,4 km/h (2 Bft)
08.04.2017 12:16 13,8 °C 13,8 °C 60 % 1023,2 hPa 0,0 mm 2,6 km/h (1 Bft) NW 323 ° 1 min 0,000 mm 5,0 UV-I 737 W/m² 6,2 °C 13,8 °C 4,8 km/h (1 Bft)
08.04.2017 12:17 13,9 °C 13,9 °C 60 % 1023,2 hPa 0,0 mm 4,1 km/h (1 Bft) N-NW 329 ° 1 min 0,000 mm 5,0 UV-I 735 W/m² 6,3 °C 13,9 °C 8,0 km/h (2 Bft)
08.04.2017 12:18 13,9 °C 14,0 °C 59 % 1023,2 hPa 0,0 mm 6,8 km/h (2 Bft) NO 38 ° 1 min 0,000 mm 5,0 UV-I 735 W/m² 6,0 °C 13,9 °C 11,3 km/h (2 Bft)
08.04.2017 12:19 13,8 °C 13,9 °C 58 % 1023,2 hPa 0,0 mm 2,9 km/h (1 Bft) O-SO 107 ° 1 min 0,000 mm 5,0 UV-I 738 W/m² 5,7 °C 13,8 °C 4,8 km/h (1 Bft)
08.04.2017 12:20 13,8 °C 13,8 °C 61 % 1023,1 hPa 0,0 mm 2,7 km/h (1 Bft) N-NO 30 ° 1 min 0,000 mm 5,0 UV-I 740 W/m² 6,4 °C 13,8 °C 8,0 km/h (2 Bft)
08.04.2017 12:21 13,7 °C 13,8 °C 58 % 1023,2 hPa 0,0 mm 6,8 km/h (2 Bft) NO 44 ° 1 min 0,000 mm 5,1 UV-I 740 W/m² 5,6 °C 13,7 °C 8,0 km/h (2 Bft)
08.04.2017 12:22 13,7 °C 13,7 °C 59 % 1023,2 hPa 0,0 mm 1,5 km/h (1 Bft) N-NO 28 ° 1 min 0,000 mm 5,1 UV-I 742 W/m² 5,8 °C 13,7 °C 4,8 km/h (1 Bft)
08.04.2017 12:23 13,7 °C 13,7 °C 60 % 1023,2 hPa 0,0 mm 1,5 km/h (1 Bft) N 5 ° 1 min 0,000 mm 5,1 UV-I 744 W/m² 6,1 °C 13,7 °C 3,2 km/h (1 Bft)
08.04.2017 12:24 13,8 °C 13,8 °C 61 % 1023,1 hPa 0,0 mm 4,3 km/h (1 Bft) N 11 ° 1 min 0,000 mm 5,1 UV-I 744 W/m² 6,4 °C 13,8 °C 6,4 km/h (2 Bft)
08.04.2017 12:25 13,7 °C 13,8 °C 58 % 1023,1 hPa 0,0 mm 2,8 km/h (1 Bft) NO 38 ° 1 min 0,000 mm 5,1 UV-I 745 W/m² 5,6 °C 13,7 °C 6,4 km/h (2 Bft)
08.04.2017 12:26 13,7 °C 13,7 °C 60 % 1023,1 hPa 0,0 mm 5,0 km/h (1 Bft) N 360 ° 1 min 0,000 mm 5,1 UV-I 745 W/m² 6,1 °C 13,7 °C 6,4 km/h (2 Bft)
08.04.2017 12:27 13,7 °C 13,7 °C 60 % 1023,1 hPa 0,0 mm 4,4 km/h (1 Bft) NO 47 ° 1 min 0,000 mm 5,1 UV-I 747 W/m² 6,1 °C 13,7 °C 6,4 km/h (2 Bft)
08.04.2017 12:28 13,8 °C 13,8 °C 61 % 1023,1 hPa 0,0 mm 5,3 km/h (1 Bft) NO 43 ° 1 min 0,000 mm 5,1 UV-I 747 W/m² 6,4 °C 13,8 °C 8,0 km/h (2 Bft)
08.04.2017 12:29 13,9 °C 13,9 °C 60 % 1023,1 hPa 0,0 mm 6,0 km/h (2 Bft) NO 44 ° 1 min 0,000 mm 5,1 UV-I 747 W/m² 6,3 °C 13,9 °C 11,3 km/h (2 Bft)
08.04.2017 12:30 13,8 °C 13,9 °C 61 % 1023,1 hPa 0,0 mm 5,8 km/h (2 Bft) N-NO 19 ° 1 min 0,000 mm 5,1 UV-I 747 W/m² 6,4 °C 13,8 °C 8,0 km/h (2 Bft)
08.04.2017 12:31 13,8 °C 13,8 °C 60 % 1023,1 hPa 0,0 mm 6,7 km/h (2 Bft) NO 56 ° 1 min 0,000 mm 5,2 UV-I 749 W/m² 6,2 °C 13,8 °C 9,7 km/h (2 Bft)
08.04.2017 12:32 13,9 °C 13,9 °C 62 % 1023,1 hPa 0,0 mm 3,1 km/h (1 Bft) NO 51 ° 1 min 0,000 mm 5,2 UV-I 751 W/m² 6,7 °C 13,9 °C 6,4 km/h (2 Bft)
08.04.2017 12:33 13,9 °C 13,9 °C 59 % 1023,1 hPa 0,0 mm 7,8 km/h (2 Bft) N-NO 32 ° 1 min 0,000 mm 5,1 UV-I 747 W/m² 6,0 °C 13,9 °C 11,3 km/h (2 Bft)
08.04.2017 12:34 13,9 °C 13,9 °C 59 % 1023,1 hPa 0,0 mm 5,0 km/h (1 Bft) NO 40 ° 1 min 0,000 mm 5,1 UV-I 749 W/m² 6,0 °C 13,9 °C 8,0 km/h (2 Bft)
08.04.2017 12:35 13,9 °C 13,9 °C 59 % 1023,1 hPa 0,0 mm 5,4 km/h (1 Bft) O-NO 59 ° 1 min 0,000 mm 5,2 UV-I 754 W/m² 6,0 °C 13,9 °C 11,3 km/h (2 Bft)
08.04.2017 12:36 13,8 °C 13,9 °C 60 % 1023,1 hPa 0,0 mm 3,9 km/h (1 Bft) NO 51 ° 1 min 0,000 mm 5,2 UV-I 754 W/m² 6,2 °C 13,8 °C 4,8 km/h (1 Bft)
08.04.2017 12:37 13,8 °C 13,8 °C 60 % 1023,1 hPa 0,0 mm 4,8 km/h (1 Bft) NO 42 ° 1 min 0,000 mm 5,2 UV-I 752 W/m² 6,2 °C 13,8 °C 6,4 km/h (2 Bft)
08.04.2017 12:38 13,8 °C 13,8 °C 58 % 1023,1 hPa 0,0 mm 3,9 km/h (1 Bft) NO 34 ° 1 min 0,381 mm 5,1 UV-I 754 W/m² 5,7 °C 13,8 °C 6,4 km/h (2 Bft)
08.04.2017 12:39 13,9 °C 13,9 °C 57 % 1023,1 hPa 0,0 mm 4,5 km/h (1 Bft) N-NW 331 ° 1 min 0,000 mm 5,1 UV-I 742 W/m² 5,5 °C 13,9 °C 6,4 km/h (2 Bft)
08.04.2017 12:40 14,0 °C 14,0 °C 58 % 1023,0 hPa 0,0 mm 3,6 km/h (1 Bft) N-NO 28 ° 1 min 0,000 mm 5,1 UV-I 747 W/m² 5,9 °C 14,0 °C 6,4 km/h (2 Bft)
08.04.2017 12:41 13,8 °C 14,0 °C 57 % 1023,0 hPa 0,0 mm 2,1 km/h (1 Bft) N-NO 29 ° 1 min 0,000 mm 5,2 UV-I 751 W/m² 5,4 °C 13,8 °C 4,8 km/h (1 Bft)
08.04.2017 12:42 13,9 °C 13,9 °C 58 % 1023,0 hPa 0,0 mm 2,2 km/h (1 Bft) N-NW 346 ° 1 min 0,000 mm 5,2 UV-I 754 W/m² 5,8 °C 13,9 °C 6,4 km/h (2 Bft)
08.04.2017 12:43 13,9 °C 13,9 °C 61 % 1023,0 hPa 0,0 mm 2,3 km/h (1 Bft) N-NW 331 ° 1 min 0,000 mm 5,2 UV-I 754 W/m² 6,5 °C 13,9 °C 4,8 km/h (1 Bft)
08.04.2017 12:44 14,1 °C 14,1 °C 59 % 1023,0 hPa 0,0 mm 3,2 km/h (1 Bft) N-NW 338 ° 1 min 0,000 mm 5,2 UV-I 752 W/m² 6,2 °C 14,1 °C 4,8 km/h (1 Bft)
08.04.2017 12:45 14,2 °C 14,2 °C 58 % 1023,0 hPa 0,0 mm 4,5 km/h (1 Bft) N 360 ° 1 min 0,000 mm 5,2 UV-I 752 W/m² 6,1 °C 14,2 °C 6,4 km/h (2 Bft)
08.04.2017 12:46 14,3 °C 14,3 °C 58 % 1023,0 hPa 0,0 mm 4,5 km/h (1 Bft) O-NO 71 ° 1 min 0,000 mm 5,2 UV-I 756 W/m² 6,2 °C 14,3 °C 6,4 km/h (2 Bft)
08.04.2017 12:47 14,1 °C 14,3 °C 58 % 1023,0 hPa 0,0 mm 6,5 km/h (2 Bft) NO 55 ° 1 min 0,000 mm 5,2 UV-I 754 W/m² 6,0 °C 14,1 °C 9,7 km/h (2 Bft)
08.04.2017 12:48 14,1 °C 14,1 °C 59 % 1023,0 hPa 0,0 mm 5,2 km/h (1 Bft) NO 44 ° 1 min 0,000 mm 5,2 UV-I 758 W/m² 6,2 °C 14,1 °C 14,5 km/h (3 Bft)
08.04.2017 12:49 14,1 °C 14,1 °C 59 % 1022,9 hPa 0,0 mm 5,9 km/h (2 Bft) N 355 ° 1 min 0,000 mm 5,2 UV-I 758 W/m² 6,2 °C 14,1 °C 11,3 km/h (2 Bft)
08.04.2017 12:50 14,0 °C 14,1 °C 59 % 1022,9 hPa 0,0 mm 3,0 km/h (1 Bft) N-NO 28 ° 1 min 0,000 mm 5,2 UV-I 759 W/m² 6,1 °C 14,0 °C 6,4 km/h (2 Bft)
08.04.2017 12:51 14,1 °C 14,1 °C 58 % 1022,9 hPa 0,0 mm 4,6 km/h (1 Bft) N-NO 15 ° 1 min 0,000 mm 5,2 UV-I 759 W/m² 6,0 °C 14,1 °C 6,4 km/h (2 Bft)
08.04.2017 12:52 13,9 °C 14,1 °C 58 % 1022,9 hPa 0,0 mm 0,5 km/h (0 Bft) O-SO 105 ° 1 min 0,000 mm 5,3 UV-I 761 W/m² 5,8 °C 13,9 °C 3,2 km/h (1 Bft)
08.04.2017 12:53 14,0 °C 14,0 °C 60 % 1022,9 hPa 0,0 mm 4,2 km/h (1 Bft) NO 34 ° 1 min 0,000 mm 5,3 UV-I 765 W/m² 6,4 °C 14,0 °C 9,7 km/h (2 Bft)
08.04.2017 12:54 13,9 °C 14,0 °C 58 % 1022,8 hPa 0,0 mm 6,3 km/h (2 Bft) O-NO 74 ° 1 min 0,000 mm 5,3 UV-I 765 W/m² 5,8 °C 13,9 °C 8,0 km/h (2 Bft)
08.04.2017 12:55 14,1 °C 14,1 °C 60 % 1022,9 hPa 0,0 mm 4,2 km/h (1 Bft) NO 35 ° 1 min 0,000 mm 5,3 UV-I 763 W/m² 6,5 °C 14,1 °C 6,4 km/h (2 Bft)
08.04.2017 12:56 14,1 °C 14,1 °C 60 % 1022,8 hPa 0,0 mm 8,4 km/h (2 Bft) NO 36 ° 1 min 0,000 mm 5,3 UV-I 765 W/m² 6,5 °C 14,1 °C 16,1 km/h (3 Bft)
08.04.2017 12:57 14,1 °C 14,2 °C 61 % 1022,9 hPa 0,0 mm 6,2 km/h (2 Bft) NO 48 ° 1 min 0,000 mm 5,3 UV-I 763 W/m² 6,7 °C 14,1 °C 11,3 km/h (2 Bft)
08.04.2017 12:58 14,2 °C 14,2 °C 60 % 1022,8 hPa 0,0 mm 6,2 km/h (2 Bft) N-NO 18 ° 1 min 0,000 mm 5,3 UV-I 766 W/m² 6,5 °C 14,2 °C 9,7 km/h (2 Bft)
08.04.2017 12:59 14,2 °C 14,2 °C 59 % 1022,8 hPa 0,0 mm 10,1 km/h (2 Bft) NO 39 ° 1 min 0,000 mm 5,3 UV-I 765 W/m² 6,3 °C 14,2 °C 16,1 km/h (3 Bft)
08.04.2017 13:00 14,2 °C 14,2 °C 60 % 1022,8 hPa 0,0 mm 10,3 km/h (2 Bft) O-NO 62 ° 1 min 0,000 mm 5,3 UV-I 765 W/m² 6,5 °C 14,2 °C 16,1 km/h (3 Bft)
08.04.2017 13:01 14,2 °C 14,2 °C 60 % 1022,8 hPa 0,0 mm 6,0 km/h (2 Bft) NO 55 ° 1 min 0,000 mm 5,2 UV-I 756 W/m² 6,5 °C 14,2 °C 9,7 km/h (2 Bft)
08.04.2017 13:02 14,2 °C 14,2 °C 63 % 1022,7 hPa 0,0 mm 0,7 km/h (0 Bft) NO 56 ° 1 min 0,000 mm 5,2 UV-I 759 W/m² 7,3 °C 14,2 °C 3,2 km/h (1 Bft)
08.04.2017 13:03 14,2 °C 14,2 °C 62 % 1022,7 hPa 0,0 mm 0,8 km/h (0 Bft) NO 56 ° 1 min 0,000 mm 5,2 UV-I 761 W/m² 7,0 °C 14,2 °C 3,2 km/h (1 Bft)
08.04.2017 13:04 14,2 °C 14,3 °C 63 % 1022,7 hPa 0,0 mm 6,0 km/h (2 Bft) N-NO 12 ° 1 min 0,000 mm 5,3 UV-I 766 W/m² 7,3 °C 14,2 °C 8,0 km/h (2 Bft)
08.04.2017 13:05 14,3 °C 14,3 °C 61 % 1022,7 hPa 0,0 mm 3,8 km/h (1 Bft) N 5 ° 1 min 0,000 mm 5,2 UV-I 761 W/m² 6,9 °C 14,3 °C 8,0 km/h (2 Bft)
08.04.2017 13:06 14,4 °C 14,4 °C 63 % 1022,7 hPa 0,0 mm 4,7 km/h (1 Bft) N-NO 31 ° 1 min 0,000 mm 5,2 UV-I 763 W/m² 7,4 °C 14,4 °C 8,0 km/h (2 Bft)
08.04.2017 13:07 14,3 °C 14,4 °C 61 % 1022,7 hPa 0,0 mm 3,8 km/h (1 Bft) NO 52 ° 1 min 0,000 mm 5,2 UV-I 758 W/m² 6,9 °C 14,3 °C 8,0 km/h (2 Bft)
08.04.2017 13:08 14,4 °C 14,4 °C 64 % 1022,7 hPa 0,0 mm 4,2 km/h (1 Bft) N-NO 29 ° 1 min 0,000 mm 5,2 UV-I 754 W/m² 7,7 °C 14,4 °C 6,4 km/h (2 Bft)
08.04.2017 13:09 14,6 °C 14,6 °C 62 % 1022,7 hPa 0,0 mm 6,8 km/h (2 Bft) N-NO 19 ° 1 min 0,000 mm 5,2 UV-I 754 W/m² 7,4 °C 14,6 °C 9,7 km/h (2 Bft)
08.04.2017 13:10 14,6 °C 14,6 °C 60 % 1022,6 hPa 0,0 mm 9,7 km/h (2 Bft) N 11 ° 1 min 0,000 mm 5,2 UV-I 752 W/m² 6,9 °C 14,6 °C 12,9 km/h (3 Bft)
08.04.2017 13:11 14,4 °C 14,6 °C 59 % 1022,7 hPa 0,0 mm 8,2 km/h (2 Bft) NO 47 ° 1 min 0,000 mm 5,2 UV-I 754 W/m² 6,5 °C 14,4 °C 14,5 km/h (3 Bft)
08.04.2017 13:12 14,4 °C 14,4 °C 62 % 1022,7 hPa 0,0 mm 5,2 km/h (1 Bft) N 5 ° 1 min 0,000 mm 5,2 UV-I 756 W/m² 7,2 °C 14,4 °C 8,0 km/h (2 Bft)
08.04.2017 13:13 14,3 °C 14,4 °C 59 % 1022,7 hPa 0,0 mm 8,9 km/h (2 Bft) NO 45 ° 1 min 0,000 mm 5,2 UV-I 758 W/m² 6,4 °C 14,3 °C 12,9 km/h (3 Bft)
08.04.2017 13:14 14,4 °C 14,4 °C 60 % 1022,7 hPa 0,0 mm 3,8 km/h (1 Bft) N-NO 19 ° 1 min 0,000 mm 5,2 UV-I 765 W/m² 6,7 °C 14,4 °C 8,0 km/h (2 Bft)
08.04.2017 13:15 14,4 °C 14,4 °C 60 % 1022,6 hPa 0,0 mm 3,9 km/h (1 Bft) O-NO 65 ° 1 min 0,000 mm 5,2 UV-I 759 W/m² 6,7 °C 14,4 °C 6,4 km/h (2 Bft)
08.04.2017 13:16 14,4 °C 14,4 °C 60 % 1022,6 hPa 0,0 mm 2,0 km/h (1 Bft) N-NW 337 ° 1 min 0,000 mm 5,2 UV-I 759 W/m² 6,7 °C 14,4 °C 9,7 km/h (2 Bft)
08.04.2017 13:17 14,7 °C 14,7 °C 58 % 1022,6 hPa 0,0 mm 5,0 km/h (1 Bft) N-NO 27 ° 1 min 0,000 mm 5,2 UV-I 758 W/m² 6,5 °C 14,7 °C 9,7 km/h (2 Bft)
08.04.2017 13:18 14,7 °C 14,7 °C 61 % 1022,6 hPa 0,0 mm 2,3 km/h (1 Bft) N-NO 15 ° 1 min 0,000 mm 5,2 UV-I 754 W/m² 7,3 °C 14,7 °C 4,8 km/h (1 Bft)
08.04.2017 13:19 14,8 °C 14,8 °C 62 % 1022,6 hPa 0,0 mm 1,9 km/h (1 Bft) N-NO 17 ° 1 min 0,000 mm 5,2 UV-I 759 W/m² 7,6 °C 14,8 °C 4,8 km/h (1 Bft)
08.04.2017 13:20 15,1 °C 15,1 °C 60 % 1022,6 hPa 0,0 mm 3,0 km/h (1 Bft) N 5 ° 1 min 0,000 mm 5,3 UV-I 763 W/m² 7,4 °C 15,1 °C 6,4 km/h (2 Bft)
08.04.2017 13:21 15,1 °C 15,1 °C 62 % 1022,6 hPa 0,0 mm 5,8 km/h (2 Bft) O-NO 69 ° 1 min 0,000 mm 5,3 UV-I 765 W/m² 7,9 °C 15,1 °C 9,7 km/h (2 Bft)
08.04.2017 13:22 14,9 °C 15,1 °C 59 % 1022,6 hPa 0,0 mm 7,5 km/h (2 Bft) N 355 ° 1 min 0,000 mm 5,3 UV-I 763 W/m² 7,0 °C 14,9 °C 11,3 km/h (2 Bft)
08.04.2017 13:23 14,8 °C 14,9 °C 57 % 1022,6 hPa 0,0 mm 5,4 km/h (1 Bft) NO 36 ° 1 min 0,000 mm 5,2 UV-I 758 W/m² 6,4 °C 14,8 °C 8,0 km/h (2 Bft)
08.04.2017 13:24 14,8 °C 14,8 °C 61 % 1022,6 hPa 0,0 mm 2,5 km/h (1 Bft) NO 37 ° 1 min 0,000 mm 5,2 UV-I 758 W/m² 7,4 °C 14,8 °C 4,8 km/h (1 Bft)
08.04.2017 13:25 14,7 °C 14,8 °C 59 % 1022,6 hPa 0,0 mm 4,9 km/h (1 Bft) N-NO 22 ° 1 min 0,000 mm 5,2 UV-I 758 W/m² 6,8 °C 14,7 °C 11,3 km/h (2 Bft)
08.04.2017 13:26 14,7 °C 14,7 °C 58 % 1022,6 hPa 0,0 mm 6,5 km/h (2 Bft) N-NO 26 ° 1 min 0,000 mm 5,2 UV-I 752 W/m² 6,5 °C 14,7 °C 9,7 km/h (2 Bft)
08.04.2017 13:27 14,5 °C 14,7 °C 58 % 1022,5 hPa 0,0 mm 4,5 km/h (1 Bft) N 5 ° 1 min 0,000 mm 5,2 UV-I 759 W/m² 6,3 °C 14,5 °C 8,0 km/h (2 Bft)
08.04.2017 13:28 14,6 °C 14,6 °C 58 % 1022,6 hPa 0,0 mm 6,0 km/h (2 Bft) N 355 ° 1 min 0,000 mm 5,2 UV-I 763 W/m² 6,4 °C 14,6 °C 8,0 km/h (2 Bft)
08.04.2017 13:29 14,4 °C 14,6 °C 58 % 1022,5 hPa 0,0 mm 2,3 km/h (1 Bft) N 355 ° 1 min 0,000 mm 5,2 UV-I 761 W/m² 6,2 °C 14,4 °C 4,8 km/h (1 Bft)
08.04.2017 13:30 14,3 °C 14,4 °C 58 % 1022,6 hPa 0,0 mm 3,0 km/h (1 Bft) NO 39 ° 1 min 0,000 mm 5,2 UV-I 761 W/m² 6,2 °C 14,3 °C 4,8 km/h (1 Bft)
08.04.2017 13:31 14,3 °C 14,3 °C 60 % 1022,5 hPa 0,0 mm 4,4 km/h (1 Bft) NO 42 ° 1 min 0,000 mm 5,3 UV-I 765 W/m² 6,6 °C 14,3 °C 6,4 km/h (2 Bft)
08.04.2017 13:32 14,4 °C 14,4 °C 60 % 1022,6 hPa 0,0 mm 6,1 km/h (2 Bft) N-NO 25 ° 1 min 0,000 mm 5,3 UV-I 763 W/m² 6,7 °C 14,4 °C 8,0 km/h (2 Bft)
08.04.2017 13:33 14,7 °C 14,7 °C 61 % 1022,5 hPa 0,0 mm 5,0 km/h (1 Bft) N 355 ° 1 min 0,000 mm 5,2 UV-I 759 W/m² 7,3 °C 14,7 °C 8,0 km/h (2 Bft)
08.04.2017 13:34 14,8 °C 14,8 °C 59 % 1022,6 hPa 0,0 mm 6,2 km/h (2 Bft) N-NO 26 ° 1 min 0,000 mm 5,2 UV-I 758 W/m² 6,9 °C 14,8 °C 11,3 km/h (2 Bft)
08.04.2017 13:35 14,9 °C 14,9 °C 59 % 1022,6 hPa 0,0 mm 4,1 km/h (1 Bft) NO 34 ° 1 min 0,000 mm 5,2 UV-I 759 W/m² 7,0 °C 14,9 °C 6,4 km/h (2 Bft)
08.04.2017 13:36 14,8 °C 14,9 °C 57 % 1022,5 hPa 0,0 mm 3,8 km/h (1 Bft) N-NO 30 ° 1 min 0,000 mm 5,2 UV-I 758 W/m² 6,4 °C 14,8 °C 6,4 km/h (2 Bft)
08.04.2017 13:37 14,7 °C 14,8 °C 58 % 1022,5 hPa 0,0 mm 3,1 km/h (1 Bft) N-NO 25 ° 1 min 0,000 mm 5,2 UV-I 758 W/m² 6,5 °C 14,7 °C 6,4 km/h (2 Bft)
08.04.2017 13:38 14,6 °C 14,7 °C 58 % 1022,5 hPa 0,0 mm 2,8 km/h (1 Bft) N-NO 26 ° 1 min 0,407 mm 5,2 UV-I 761 W/m² 6,4 °C 14,6 °C 6,4 km/h (2 Bft)
08.04.2017 13:39 14,7 °C 14,7 °C 58 % 1022,5 hPa 0,0 mm 3,1 km/h (1 Bft) N 355 ° 1 min 0,000 mm 5,2 UV-I 752 W/m² 6,5 °C 14,7 °C 6,4 km/h (2 Bft)
08.04.2017 13:40 14,8 °C 14,8 °C 58 % 1022,5 hPa 0,0 mm 3,5 km/h (1 Bft) N-NW 342 ° 1 min 0,000 mm 5,1 UV-I 747 W/m² 6,6 °C 14,8 °C 4,8 km/h (1 Bft)
08.04.2017 13:41 14,9 °C 14,9 °C 58 % 1022,5 hPa 0,0 mm 2,8 km/h (1 Bft) N 5 ° 1 min 0,000 mm 5,2 UV-I 751 W/m² 6,7 °C 14,9 °C 6,4 km/h (2 Bft)
08.04.2017 13:42 14,9 °C 14,9 °C 56 % 1022,5 hPa 0,0 mm 3,6 km/h (1 Bft) N-NO 27 ° 1 min 0,000 mm 5,2 UV-I 765 W/m² 6,2 °C 14,9 °C 6,4 km/h (2 Bft)
08.04.2017 13:43 14,8 °C 14,9 °C 58 % 1022,4 hPa 0,0 mm 5,5 km/h (1 Bft) N-NW 329 ° 1 min 0,000 mm 5,2 UV-I 759 W/m² 6,6 °C 14,8 °C 11,3 km/h (2 Bft)
08.04.2017 13:44 14,9 °C 14,9 °C 59 % 1022,5 hPa 0,0 mm 1,1 km/h (1 Bft) N-NW 348 ° 1 min 0,000 mm 5,2 UV-I 756 W/m² 7,0 °C 14,9 °C 3,2 km/h (1 Bft)
08.04.2017 13:45 15,1 °C 15,1 °C 62 % 1022,5 hPa 0,0 mm 2,7 km/h (1 Bft) W-NW 299 ° 1 min 0,000 mm 5,2 UV-I 759 W/m² 7,9 °C 15,1 °C 6,4 km/h (2 Bft)
08.04.2017 13:46 15,2 °C 15,2 °C 58 % 1022,5 hPa 0,0 mm 5,0 km/h (1 Bft) N 9 ° 1 min 0,000 mm 5,2 UV-I 761 W/m² 7,0 °C 15,2 °C 6,4 km/h (2 Bft)
08.04.2017 13:47 15,1 °C 15,2 °C 56 % 1022,5 hPa 0,0 mm 7,7 km/h (2 Bft) N 5 ° 1 min 0,000 mm 5,3 UV-I 763 W/m² 6,4 °C 15,1 °C 11,3 km/h (2 Bft)
08.04.2017 13:48 15,0 °C 15,1 °C 57 % 1022,5 hPa 0,0 mm 6,3 km/h (2 Bft) NW 319 ° 1 min 0,000 mm 5,3 UV-I 761 W/m² 6,6 °C 15,0 °C 11,3 km/h (2 Bft)
08.04.2017 13:49 15,0 °C 15,0 °C 59 % 1022,4 hPa 0,0 mm 3,8 km/h (1 Bft) NO 53 ° 1 min 0,000 mm 5,2 UV-I 756 W/m² 7,1 °C 15,0 °C 6,4 km/h (2 Bft)
08.04.2017 13:50 14,8 °C 15,0 °C 58 % 1022,4 hPa 0,0 mm 1,4 km/h (1 Bft) NO 53 ° 1 min 0,000 mm 5,2 UV-I 752 W/m² 6,6 °C 14,8 °C 4,8 km/h (1 Bft)
08.04.2017 13:51 14,7 °C 14,8 °C 59 % 1022,4 hPa 0,0 mm 3,4 km/h (1 Bft) N 10 ° 1 min 0,000 mm 5,2 UV-I 751 W/m² 6,8 °C 14,7 °C 8,0 km/h (2 Bft)
08.04.2017 13:52 14,6 °C 14,7 °C 56 % 1022,4 hPa 0,0 mm 3,5 km/h (1 Bft) N-NO 28 ° 1 min 0,000 mm 5,2 UV-I 754 W/m² 5,9 °C 14,6 °C 6,4 km/h (2 Bft)
08.04.2017 13:53 14,6 °C 14,6 °C 58 % 1022,4 hPa 0,0 mm 5,5 km/h (1 Bft) NO 53 ° 1 min 0,000 mm 5,2 UV-I 752 W/m² 6,4 °C 14,6 °C 8,0 km/h (2 Bft)
08.04.2017 13:54 14,4 °C 14,6 °C 58 % 1022,4 hPa 0,0 mm 5,3 km/h (1 Bft) NO 55 ° 1 min 0,000 mm 5,2 UV-I 752 W/m² 6,2 °C 14,4 °C 8,0 km/h (2 Bft)
08.04.2017 13:55 14,4 °C 14,5 °C 58 % 1022,4 hPa 0,0 mm 3,4 km/h (1 Bft) NO 53 ° 1 min 0,000 mm 5,2 UV-I 754 W/m² 6,2 °C 14,4 °C 8,0 km/h (2 Bft)
08.04.2017 13:56 14,6 °C 14,6 °C 61 % 1022,4 hPa 0,0 mm 4,5 km/h (1 Bft) O-NO 63 ° 1 min 0,000 mm 5,1 UV-I 752 W/m² 7,2 °C 14,6 °C 8,0 km/h (2 Bft)
08.04.2017 13:57 14,6 °C 14,6 °C 58 % 1022,4 hPa 0,0 mm 3,8 km/h (1 Bft) N-NO 19 ° 1 min 0,000 mm 5,2 UV-I 754 W/m² 6,4 °C 14,6 °C 6,4 km/h (2 Bft)
08.04.2017 13:58 14,6 °C 14,6 °C 58 % 1022,4 hPa 0,0 mm 1,8 km/h (1 Bft) W-NW 295 ° 1 min 0,000 mm 5,2 UV-I 754 W/m² 6,4 °C 14,6 °C 3,2 km/h (1 Bft)
08.04.2017 13:59 14,7 °C 14,7 °C 60 % 1022,3 hPa 0,0 mm 3,4 km/h (1 Bft) O-NO 65 ° 1 min 0,000 mm 5,1 UV-I 751 W/m² 7,0 °C 14,7 °C 6,4 km/h (2 Bft)
08.04.2017 14:00 14,7 °C 14,7 °C 61 % 1022,4 hPa 0,0 mm 2,7 km/h (1 Bft) NO 34 ° 1 min 0,000 mm 5,1 UV-I 752 W/m² 7,3 °C 14,7 °C 4,8 km/h (1 Bft)
08.04.2017 14:01 14,7 °C 14,7 °C 62 % 1022,4 hPa 0,0 mm 4,7 km/h (1 Bft) O-NO 71 ° 1 min 0,000 mm 5,1 UV-I 751 W/m² 7,5 °C 14,7 °C 8,0 km/h (2 Bft)
08.04.2017 14:02 14,7 °C 14,8 °C 59 % 1022,4 hPa 0,0 mm 6,0 km/h (2 Bft) NO 54 ° 1 min 0,000 mm 5,1 UV-I 749 W/m² 6,8 °C 14,7 °C 9,7 km/h (2 Bft)
08.04.2017 14:03 14,8 °C 14,8 °C 60 % 1022,3 hPa 0,0 mm 5,4 km/h (1 Bft) N-NO 32 ° 1 min 0,000 mm 5,1 UV-I 744 W/m² 7,1 °C 14,8 °C 6,4 km/h (2 Bft)
08.04.2017 14:04 14,9 °C 14,9 °C 58 % 1022,3 hPa 0,0 mm 5,0 km/h (1 Bft) NO 50 ° 1 min 0,000 mm 5,0 UV-I 742 W/m² 6,7 °C 14,9 °C 8,0 km/h (2 Bft)
08.04.2017 14:05 14,8 °C 14,9 °C 59 % 1022,4 hPa 0,0 mm 6,8 km/h (2 Bft) O-NO 58 ° 1 min 0,000 mm 5,0 UV-I 738 W/m² 6,9 °C 14,8 °C 11,3 km/h (2 Bft)
08.04.2017 14:06 14,7 °C 14,8 °C 58 % 1022,2 hPa 0,0 mm 3,8 km/h (1 Bft) N-NO 23 ° 1 min 0,000 mm 5,0 UV-I 742 W/m² 6,5 °C 14,7 °C 6,4 km/h (2 Bft)
08.04.2017 14:07 14,7 °C 14,7 °C 58 % 1022,3 hPa 0,0 mm 2,6 km/h (1 Bft) N-NO 26 ° 1 min 0,000 mm 5,0 UV-I 747 W/m² 6,5 °C 14,7 °C 4,8 km/h (1 Bft)
08.04.2017 14:08 14,7 °C 14,7 °C 61 % 1022,3 hPa 0,0 mm 2,0 km/h (1 Bft) NO 38 ° 1 min 0,000 mm 5,1 UV-I 749 W/m² 7,3 °C 14,7 °C 3,2 km/h (1 Bft)
08.04.2017 14:09 14,7 °C 14,7 °C 58 % 1022,3 hPa 0,0 mm 2,2 km/h (1 Bft) NW 305 ° 1 min 0,000 mm 5,0 UV-I 745 W/m² 6,5 °C 14,7 °C 4,8 km/h (1 Bft)
08.04.2017 14:10 14,9 °C 14,9 °C 60 % 1022,3 hPa 0,0 mm 2,4 km/h (1 Bft) NW 305 ° 1 min 0,000 mm 5,0 UV-I 744 W/m² 7,2 °C 14,9 °C 4,8 km/h (1 Bft)
08.04.2017 14:11 15,1 °C 15,1 °C 57 % 1022,2 hPa 0,0 mm 7,1 km/h (2 Bft) N-NO 12 ° 1 min 0,000 mm 5,0 UV-I 745 W/m² 6,6 °C 15,1 °C 12,9 km/h (3 Bft)
08.04.2017 14:12 15,2 °C 15,2 °C 57 % 1022,2 hPa 0,0 mm 7,7 km/h (2 Bft) O-NO 67 ° 1 min 0,000 mm 5,0 UV-I 742 W/m² 6,7 °C 15,2 °C 16,1 km/h (3 Bft)
08.04.2017 14:13 15,1 °C 15,2 °C 57 % 1022,3 hPa 0,0 mm 6,6 km/h (2 Bft) N 360 ° 1 min 0,000 mm 5,0 UV-I 742 W/m² 6,6 °C 15,1 °C 9,7 km/h (2 Bft)
08.04.2017 14:14 15,1 °C 15,1 °C 55 % 1022,3 hPa 0,0 mm 7,2 km/h (2 Bft) N-NO 30 ° 1 min 0,000 mm 5,0 UV-I 745 W/m² 6,1 °C 15,1 °C 8,0 km/h (2 Bft)
08.04.2017 14:15 15,1 °C 15,1 °C 57 % 1022,3 hPa 0,0 mm 5,5 km/h (1 Bft) NO 54 ° 1 min 0,000 mm 5,0 UV-I 745 W/m² 6,6 °C 15,1 °C 8,0 km/h (2 Bft)
08.04.2017 14:16 15,1 °C 15,1 °C 56 % 1022,3 hPa 0,0 mm 6,2 km/h (2 Bft) N-NO 22 ° 1 min 0,000 mm 5,0 UV-I 744 W/m² 6,4 °C 15,1 °C 8,0 km/h (2 Bft)
08.04.2017 14:17 15,1 °C 15,1 °C 58 % 1022,3 hPa 0,0 mm 5,9 km/h (2 Bft) NO 49 ° 1 min 0,000 mm 5,0 UV-I 742 W/m² 6,9 °C 15,1 °C 8,0 km/h (2 Bft)
08.04.2017 14:18 15,0 °C 15,1 °C 59 % 1022,3 hPa 0,0 mm 3,3 km/h (1 Bft) NO 39 ° 1 min 0,000 mm 4,9 UV-I 737 W/m² 7,1 °C 15,0 °C 4,8 km/h (1 Bft)
08.04.2017 14:19 14,9 °C 15,0 °C 58 % 1022,3 hPa 0,0 mm 4,1 km/h (1 Bft) O-NO 59 ° 1 min 0,000 mm 4,9 UV-I 735 W/m² 6,7 °C 14,9 °C 6,4 km/h (2 Bft)
08.04.2017 14:20 14,8 °C 14,9 °C 58 % 1022,2 hPa 0,0 mm 2,3 km/h (1 Bft) O-NO 59 ° 1 min 0,000 mm 4,9 UV-I 735 W/m² 6,6 °C 14,8 °C 3,2 km/h (1 Bft)
08.04.2017 14:21 14,9 °C 14,9 °C 62 % 1022,2 hPa 0,0 mm 2,7 km/h (1 Bft) NO 38 ° 1 min 0,000 mm 4,9 UV-I 737 W/m² 7,7 °C 14,9 °C 4,8 km/h (1 Bft)
08.04.2017 14:22 15,1 °C 15,1 °C 58 % 1022,2 hPa 0,0 mm 5,2 km/h (1 Bft) N-NO 25 ° 1 min 0,000 mm 4,9 UV-I 731 W/m² 6,9 °C 15,1 °C 8,0 km/h (2 Bft)
08.04.2017 14:23 15,2 °C 15,2 °C 55 % 1022,2 hPa 0,0 mm 4,5 km/h (1 Bft) NO 41 ° 1 min 0,000 mm 4,9 UV-I 728 W/m² 6,2 °C 15,2 °C 8,0 km/h (2 Bft)
08.04.2017 14:24 15,2 °C 15,2 °C 56 % 1022,3 hPa 0,0 mm 3,8 km/h (1 Bft) N-NO 29 ° 1 min 0,000 mm 4,9 UV-I 735 W/m² 6,5 °C 15,2 °C 6,4 km/h (2 Bft)
08.04.2017 14:25 15,1 °C 15,2 °C 55 % 1022,2 hPa 0,0 mm 6,0 km/h (2 Bft) NO 44 ° 1 min 0,000 mm 4,9 UV-I 733 W/m² 6,1 °C 15,1 °C 8,0 km/h (2 Bft)
08.04.2017 14:26 14,9 °C 15,1 °C 54 % 1022,2 hPa 0,0 mm 4,1 km/h (1 Bft) NO 44 ° 1 min 0,000 mm 4,9 UV-I 729 W/m² 5,7 °C 14,9 °C 4,8 km/h (1 Bft)
08.04.2017 14:27 14,8 °C 14,9 °C 57 % 1022,3 hPa 0,0 mm 3,8 km/h (1 Bft) NO 40 ° 1 min 0,000 mm 4,9 UV-I 731 W/m² 6,4 °C 14,8 °C 6,4 km/h (2 Bft)
08.04.2017 14:28 14,8 °C 14,8 °C 55 % 1022,2 hPa 0,0 mm 4,2 km/h (1 Bft) N-NO 22 ° 1 min 0,000 mm 4,9 UV-I 729 W/m² 5,8 °C 14,8 °C 6,4 km/h (2 Bft)
08.04.2017 14:29 14,7 °C 14,8 °C 56 % 1022,2 hPa 0,0 mm 3,0 km/h (1 Bft) O-NO 74 ° 1 min 0,000 mm 4,8 UV-I 726 W/m² 6,0 °C 14,7 °C 6,4 km/h (2 Bft)
08.04.2017 14:30 14,8 °C 14,8 °C 58 % 1022,2 hPa 0,0 mm 1,3 km/h (1 Bft) N-NW 348 ° 1 min 0,000 mm 4,8 UV-I 724 W/m² 6,6 °C 14,8 °C 3,2 km/h (1 Bft)
08.04.2017 14:31 15,1 °C 15,1 °C 60 % 1022,3 hPa 0,0 mm 7,2 km/h (2 Bft) O 98 ° 1 min 0,000 mm 4,8 UV-I 722 W/m² 7,4 °C 15,1 °C 9,7 km/h (2 Bft)
08.04.2017 14:32 15,1 °C 15,1 °C 57 % 1022,2 hPa 0,0 mm 1,8 km/h (1 Bft) NO 50 ° 1 min 0,000 mm 4,8 UV-I 724 W/m² 6,6 °C 15,1 °C 4,8 km/h (1 Bft)
08.04.2017 14:33 15,2 °C 15,2 °C 58 % 1022,2 hPa 0,0 mm 2,9 km/h (1 Bft) NO 38 ° 1 min 0,000 mm 4,8 UV-I 726 W/m² 7,0 °C 15,2 °C 4,8 km/h (1 Bft)
08.04.2017 14:34 15,3 °C 15,3 °C 58 % 1022,3 hPa 0,0 mm 5,2 km/h (1 Bft) NO 44 ° 1 min 0,000 mm 4,8 UV-I 726 W/m² 7,1 °C 15,3 °C 6,4 km/h (2 Bft)
08.04.2017 14:35 15,3 °C 15,3 °C 57 % 1022,2 hPa 0,0 mm 4,6 km/h (1 Bft) O-NO 59 ° 1 min 0,000 mm 4,8 UV-I 724 W/m² 6,8 °C 15,3 °C 6,4 km/h (2 Bft)
08.04.2017 14:36 15,3 °C 15,3 °C 58 % 1022,2 hPa 0,0 mm 3,6 km/h (1 Bft) O 93 ° 1 min 0,000 mm 4,8 UV-I 719 W/m² 7,1 °C 15,3 °C 6,4 km/h (2 Bft)
08.04.2017 14:37 15,4 °C 15,4 °C 60 % 1022,2 hPa 0,0 mm 2,3 km/h (1 Bft) O-NO 78 ° 1 min 0,000 mm 4,8 UV-I 724 W/m² 7,7 °C 15,4 °C 4,8 km/h (1 Bft)
08.04.2017 14:38 15,3 °C 15,4 °C 55 % 1022,2 hPa 0,0 mm 0,9 km/h (0 Bft) O-NO 78 ° 1 min 0,406 mm 4,8 UV-I 721 W/m² 6,3 °C 15,3 °C 3,2 km/h (1 Bft)
08.04.2017 14:39 15,3 °C 15,3 °C 58 % 1022,2 hPa 0,0 mm 4,9 km/h (1 Bft) NO 46 ° 1 min 0,000 mm 4,8 UV-I 719 W/m² 7,1 °C 15,3 °C 6,4 km/h (2 Bft)
08.04.2017 14:40 15,3 °C 15,3 °C 55 % 1022,2 hPa 0,0 mm 4,8 km/h (1 Bft) N-NO 32 ° 1 min 0,000 mm 4,7 UV-I 717 W/m² 6,3 °C 15,3 °C 6,4 km/h (2 Bft)
08.04.2017 14:41 15,3 °C 15,3 °C 55 % 1022,2 hPa 0,0 mm 7,4 km/h (2 Bft) N-NO 13 ° 1 min 0,000 mm 4,7 UV-I 717 W/m² 6,3 °C 15,3 °C 14,5 km/h (3 Bft)
08.04.2017 14:42 15,3 °C 15,3 °C 56 % 1022,1 hPa 0,0 mm 7,3 km/h (2 Bft) NO 46 ° 1 min 0,000 mm 4,7 UV-I 715 W/m² 6,6 °C 15,3 °C 12,9 km/h (3 Bft)
08.04.2017 14:43 15,4 °C 15,4 °C 59 % 1022,1 hPa 0,0 mm 4,8 km/h (1 Bft) NO 49 ° 1 min 0,000 mm 4,7 UV-I 714 W/m² 7,4 °C 15,4 °C 8,0 km/h (2 Bft)
08.04.2017 14:44 15,4 °C 15,4 °C 55 % 1022,1 hPa 0,0 mm 5,0 km/h (1 Bft) NO 50 ° 1 min 0,000 mm 4,7 UV-I 710 W/m² 6,4 °C 15,4 °C 8,0 km/h (2 Bft)
08.04.2017 14:45 15,3 °C 15,4 °C 54 % 1022,1 hPa 0,0 mm 4,1 km/h (1 Bft) NO 42 ° 1 min 0,000 mm 4,6 UV-I 707 W/m² 6,0 °C 15,3 °C 8,0 km/h (2 Bft)
08.04.2017 14:46 15,6 °C 15,6 °C 59 % 1022,1 hPa 0,0 mm 4,7 km/h (1 Bft) NO 52 ° 1 min 0,000 mm 4,6 UV-I 707 W/m² 7,6 °C 15,6 °C 6,4 km/h (2 Bft)
08.04.2017 14:47 15,6 °C 15,7 °C 56 % 1022,0 hPa 0,0 mm 5,4 km/h (1 Bft) O-NO 76 ° 1 min 0,000 mm 4,6 UV-I 707 W/m² 6,9 °C 15,6 °C 8,0 km/h (2 Bft)
08.04.2017 14:48 15,6 °C 15,6 °C 57 % 1022,0 hPa 0,0 mm 2,5 km/h (1 Bft) O-NO 75 ° 1 min 0,000 mm 4,6 UV-I 705 W/m² 7,1 °C 15,6 °C 3,2 km/h (1 Bft)
08.04.2017 14:49 15,6 °C 15,6 °C 59 % 1022,0 hPa 0,0 mm 2,7 km/h (1 Bft) NO 35 ° 1 min 0,000 mm 4,6 UV-I 705 W/m² 7,6 °C 15,6 °C 4,8 km/h (1 Bft)
08.04.2017 14:50 15,6 °C 15,6 °C 55 % 1022,0 hPa 0,0 mm 4,1 km/h (1 Bft) N-NO 32 ° 1 min 0,000 mm 4,6 UV-I 703 W/m² 6,6 °C 15,6 °C 8,0 km/h (2 Bft)
08.04.2017 14:51 15,6 °C 15,6 °C 55 % 1022,0 hPa 0,0 mm 3,0 km/h (1 Bft) N-NO 30 ° 1 min 0,000 mm 4,6 UV-I 703 W/m² 6,6 °C 15,6 °C 8,0 km/h (2 Bft)
08.04.2017 14:52 15,5 °C 15,6 °C 56 % 1022,0 hPa 0,0 mm 2,1 km/h (1 Bft) N-NO 33 ° 1 min 0,000 mm 4,6 UV-I 701 W/m² 6,8 °C 15,5 °C 4,8 km/h (1 Bft)
08.04.2017 14:53 15,4 °C 15,5 °C 57 % 1022,0 hPa 0,0 mm 4,4 km/h (1 Bft) N-NO 23 ° 1 min 0,000 mm 4,6 UV-I 700 W/m² 6,9 °C 15,4 °C 12,9 km/h (3 Bft)
08.04.2017 14:54 15,5 °C 15,5 °C 55 % 1022,0 hPa 0,0 mm 7,5 km/h (2 Bft) NO 51 ° 1 min 0,000 mm 4,6 UV-I 701 W/m² 6,5 °C 15,5 °C 12,9 km/h (3 Bft)
08.04.2017 14:55 15,4 °C 15,5 °C 56 % 1022,0 hPa 0,0 mm 3,0 km/h (1 Bft) NO 50 ° 1 min 0,000 mm 4,5 UV-I 700 W/m² 6,7 °C 15,4 °C 4,8 km/h (1 Bft)
08.04.2017 14:56 15,4 °C 15,5 °C 55 % 1022,0 hPa 0,0 mm 1,6 km/h (1 Bft) NO 50 ° 1 min 0,000 mm 4,5 UV-I 696 W/m² 6,4 °C 15,4 °C 3,2 km/h (1 Bft)
08.04.2017 14:57 15,4 °C 15,6 °C 55 % 1022,0 hPa 0,0 mm 1,3 km/h (1 Bft) NO 50 ° 1 min 0,000 mm 4,5 UV-I 693 W/m² 6,4 °C 15,4 °C 3,2 km/h (1 Bft)
08.04.2017 14:58 15,4 °C 15,4 °C 56 % 1021,9 hPa 0,0 mm 0,9 km/h (0 Bft) NO 50 ° 1 min 0,000 mm 4,5 UV-I 694 W/m² 6,7 °C 15,4 °C 1,6 km/h (1 Bft)
08.04.2017 14:59 15,4 °C 15,4 °C 57 % 1022,0 hPa 0,0 mm 0,2 km/h (0 Bft) NO 50 ° 1 min 0,000 mm 4,5 UV-I 691 W/m² 6,9 °C 15,4 °C 1,6 km/h (1 Bft)
08.04.2017 15:00 15,4 °C 15,4 °C 55 % 1021,9 hPa 0,0 mm 0,1 km/h (0 Bft) NO 50 ° 1 min 0,000 mm 4,5 UV-I 689 W/m² 6,4 °C 15,4 °C 1,6 km/h (1 Bft)
08.04.2017 15:01 15,4 °C 15,4 °C 55 % 1022,0 hPa 0,0 mm 0,3 km/h (0 Bft) NO 50 ° 1 min 0,000 mm 4,5 UV-I 687 W/m² 6,4 °C 15,4 °C 3,2 km/h (1 Bft)
08.04.2017 15:02 15,6 °C 15,6 °C 59 % 1021,9 hPa 0,0 mm 5,4 km/h (1 Bft) N 5 ° 1 min 0,000 mm 4,5 UV-I 687 W/m² 7,6 °C 15,6 °C 8,0 km/h (2 Bft)
08.04.2017 15:03 15,6 °C 15,6 °C 56 % 1021,9 hPa 0,0 mm 5,0 km/h (1 Bft) N-NO 15 ° 1 min 0,000 mm 4,4 UV-I 686 W/m² 6,9 °C 15,6 °C 8,0 km/h (2 Bft)
08.04.2017 15:04 15,7 °C 15,7 °C 55 % 1021,9 hPa 0,0 mm 6,0 km/h (2 Bft) O-NO 74 ° 1 min 0,000 mm 4,4 UV-I 680 W/m² 6,7 °C 15,7 °C 8,0 km/h (2 Bft)
08.04.2017 15:05 15,7 °C 15,7 °C 58 % 1021,9 hPa 0,0 mm 3,1 km/h (1 Bft) O-NO 65 ° 1 min 0,000 mm 4,4 UV-I 680 W/m² 7,5 °C 15,7 °C 4,8 km/h (1 Bft)
08.04.2017 15:06 15,7 °C 15,7 °C 55 % 1022,0 hPa 0,0 mm 2,7 km/h (1 Bft) NO 38 ° 1 min 0,000 mm 4,4 UV-I 675 W/m² 6,7 °C 15,7 °C 4,8 km/h (1 Bft)
08.04.2017 15:07 15,6 °C 15,7 °C 53 % 1021,9 hPa 0,0 mm 2,4 km/h (1 Bft) NO 46 ° 1 min 0,000 mm 4,3 UV-I 671 W/m² 6,1 °C 15,6 °C 3,2 km/h (1 Bft)
08.04.2017 15:08 15,6 °C 15,6 °C 59 % 1021,8 hPa 0,0 mm 3,2 km/h (1 Bft) NW 317 ° 1 min 0,000 mm 4,3 UV-I 673 W/m² 7,6 °C 15,6 °C 4,8 km/h (1 Bft)
08.04.2017 15:09 15,7 °C 15,7 °C 56 % 1021,9 hPa 0,0 mm 6,1 km/h (2 Bft) N-NO 27 ° 1 min 0,000 mm 4,3 UV-I 673 W/m² 6,9 °C 15,7 °C 8,0 km/h (2 Bft)
08.04.2017 15:10 15,8 °C 15,8 °C 54 % 1021,9 hPa 0,0 mm 6,6 km/h (2 Bft) N-NO 23 ° 1 min 0,000 mm 4,3 UV-I 673 W/m² 6,5 °C 15,8 °C 9,7 km/h (2 Bft)
08.04.2017 15:11 15,7 °C 15,8 °C 54 % 1021,9 hPa 0,0 mm 6,3 km/h (2 Bft) N-NO 19 ° 1 min 0,000 mm 4,3 UV-I 675 W/m² 6,4 °C 15,7 °C 8,0 km/h (2 Bft)
08.04.2017 15:12 15,7 °C 15,7 °C 55 % 1021,9 hPa 0,0 mm 5,8 km/h (2 Bft) NO 46 ° 1 min 0,000 mm 4,3 UV-I 671 W/m² 6,7 °C 15,7 °C 9,7 km/h (2 Bft)
08.04.2017 15:13 15,6 °C 15,7 °C 53 % 1021,9 hPa 0,0 mm 2,2 km/h (1 Bft) NO 46 ° 1 min 0,000 mm 4,3 UV-I 670 W/m² 6,1 °C 15,6 °C 3,2 km/h (1 Bft)
08.04.2017 15:14 15,5 °C 15,6 °C 59 % 1021,8 hPa 0,0 mm 2,7 km/h (1 Bft) NO 46 ° 1 min 0,000 mm 4,2 UV-I 668 W/m² 7,5 °C 15,5 °C 4,8 km/h (1 Bft)
08.04.2017 15:15 15,6 °C 15,6 °C 56 % 1021,8 hPa 0,0 mm 2,5 km/h (1 Bft) N-NW 344 ° 1 min 0,000 mm 4,2 UV-I 668 W/m² 6,9 °C 15,6 °C 4,8 km/h (1 Bft)
08.04.2017 15:16 15,7 °C 15,7 °C 56 % 1021,8 hPa 0,0 mm 3,3 km/h (1 Bft) N 5 ° 1 min 0,000 mm 4,2 UV-I 666 W/m² 6,9 °C 15,7 °C 4,8 km/h (1 Bft)
08.04.2017 15:17 15,9 °C 15,9 °C 58 % 1021,9 hPa 0,0 mm 4,6 km/h (1 Bft) O 90 ° 1 min 0,000 mm 4,2 UV-I 663 W/m² 7,6 °C 15,9 °C 9,7 km/h (2 Bft)
08.04.2017 15:18 15,8 °C 15,9 °C 54 % 1021,9 hPa 0,0 mm 5,6 km/h (1 Bft) O-NO 75 ° 1 min 0,000 mm 4,2 UV-I 659 W/m² 6,5 °C 15,8 °C 11,3 km/h (2 Bft)
08.04.2017 15:19 15,7 °C 15,8 °C 56 % 1021,8 hPa 0,0 mm 2,8 km/h (1 Bft) O-SO 108 ° 1 min 0,000 mm 4,1 UV-I 657 W/m² 6,9 °C 15,7 °C 4,8 km/h (1 Bft)
08.04.2017 15:20 15,9 °C 15,9 °C 58 % 1021,8 hPa 0,0 mm 2,1 km/h (1 Bft) NO 36 ° 1 min 0,000 mm 4,1 UV-I 656 W/m² 7,6 °C 15,9 °C 4,8 km/h (1 Bft)
08.04.2017 15:21 16,1 °C 16,1 °C 55 % 1021,8 hPa 0,0 mm 4,4 km/h (1 Bft) NO 43 ° 1 min 0,000 mm 4,1 UV-I 649 W/m² 7,1 °C 16,1 °C 6,4 km/h (2 Bft)
08.04.2017 15:22 16,3 °C 16,3 °C 56 % 1021,8 hPa 0,0 mm 3,2 km/h (1 Bft) N-NO 20 ° 1 min 0,000 mm 4,0 UV-I 645 W/m² 7,5 °C 16,3 °C 4,8 km/h (1 Bft)
08.04.2017 15:23 16,3 °C 16,3 °C 54 % 1021,8 hPa 0,0 mm 3,9 km/h (1 Bft) NO 34 ° 1 min 0,000 mm 4,0 UV-I 640 W/m² 7,0 °C 16,3 °C 8,0 km/h (2 Bft)
08.04.2017 15:24 16,2 °C 16,3 °C 55 % 1021,8 hPa 0,0 mm 3,6 km/h (1 Bft) NW 320 ° 1 min 0,000 mm 4,0 UV-I 642 W/m² 7,2 °C 16,2 °C 4,8 km/h (1 Bft)
08.04.2017 15:25 16,2 °C 16,2 °C 54 % 1021,8 hPa 0,0 mm 4,1 km/h (1 Bft) W-SW 255 ° 1 min 0,000 mm 4,0 UV-I 647 W/m² 6,9 °C 16,2 °C 8,0 km/h (2 Bft)
08.04.2017 15:26 16,2 °C 16,2 °C 55 % 1021,8 hPa 0,0 mm 4,8 km/h (1 Bft) W 279 ° 1 min 0,000 mm 4,0 UV-I 647 W/m² 7,2 °C 16,2 °C 8,0 km/h (2 Bft)
08.04.2017 15:27 16,1 °C 16,2 °C 53 % 1021,8 hPa 0,0 mm 3,8 km/h (1 Bft) W-NW 301 ° 1 min 0,000 mm 4,0 UV-I 640 W/m² 6,5 °C 16,1 °C 6,4 km/h (2 Bft)
08.04.2017 15:28 16,1 °C 16,1 °C 54 % 1021,8 hPa 0,0 mm 5,3 km/h (1 Bft) N 360 ° 1 min 0,000 mm 4,0 UV-I 640 W/m² 6,8 °C 16,1 °C 6,4 km/h (2 Bft)
08.04.2017 15:29 15,9 °C 16,1 °C 53 % 1021,8 hPa 0,0 mm 4,5 km/h (1 Bft) N 9 ° 1 min 0,000 mm 4,0 UV-I 636 W/m² 6,3 °C 15,9 °C 8,0 km/h (2 Bft)
08.04.2017 15:30 16,0 °C 16,0 °C 55 % 1021,7 hPa 0,0 mm 0,7 km/h (0 Bft) N 9 ° 1 min 0,000 mm 3,9 UV-I 633 W/m² 7,0 °C 16,0 °C 1,6 km/h (1 Bft)
08.04.2017 15:31 16,0 °C 16,0 °C 56 % 1021,7 hPa 0,0 mm 1,8 km/h (1 Bft) W-NW 297 ° 1 min 0,000 mm 3,9 UV-I 631 W/m² 7,2 °C 16,0 °C 3,2 km/h (1 Bft)
08.04.2017 15:32 16,1 °C 16,1 °C 57 % 1021,7 hPa 0,0 mm 1,6 km/h (1 Bft) N 355 ° 1 min 0,000 mm 3,9 UV-I 626 W/m² 7,6 °C 16,1 °C 4,8 km/h (1 Bft)
08.04.2017 15:33 16,1 °C 16,1 °C 55 % 1021,7 hPa 0,0 mm 2,6 km/h (1 Bft) NO 44 ° 1 min 0,000 mm 3,9 UV-I 624 W/m² 7,1 °C 16,1 °C 6,4 km/h (2 Bft)
08.04.2017 15:34 16,1 °C 16,2 °C 53 % 1021,7 hPa 0,0 mm 4,5 km/h (1 Bft) N-NW 339 ° 1 min 0,000 mm 3,8 UV-I 619 W/m² 6,5 °C 16,1 °C 6,4 km/h (2 Bft)
08.04.2017 15:35 16,2 °C 16,2 °C 57 % 1021,7 hPa 0,0 mm 3,1 km/h (1 Bft) N-NW 340 ° 1 min 0,000 mm 3,8 UV-I 621 W/m² 7,7 °C 16,2 °C 9,7 km/h (2 Bft)
08.04.2017 15:36 16,2 °C 16,2 °C 55 % 1021,7 hPa 0,0 mm 1,9 km/h (1 Bft) N 5 ° 1 min 0,000 mm 3,8 UV-I 621 W/m² 7,2 °C 16,2 °C 4,8 km/h (1 Bft)
08.04.2017 15:37 16,0 °C 16,2 °C 53 % 1021,7 hPa 0,0 mm 1,9 km/h (1 Bft) N 5 ° 1 min 0,000 mm 3,8 UV-I 621 W/m² 6,4 °C 16,0 °C 3,2 km/h (1 Bft)
08.04.2017 15:38 15,9 °C 16,0 °C 55 % 1021,7 hPa 0,0 mm 3,0 km/h (1 Bft) N-NO 32 ° 1 min 0,381 mm 3,8 UV-I 619 W/m² 6,9 °C 15,9 °C 4,8 km/h (1 Bft)
08.04.2017 15:39 15,7 °C 15,7 °C 56 % 1021,8 hPa 0,0 mm 3,2 km/h (1 Bft) N 360 ° 1 min 0,000 mm 4,2 UV-I 666 W/m² 6,9 °C 15,7 °C 4,8 km/h (1 Bft)
08.04.2017 15:40 15,9 °C 15,9 °C 58 % 1021,9 hPa 0,0 mm 4,8 km/h (1 Bft) O 90 ° 1 min 0,000 mm 4,2 UV-I 664 W/m² 7,6 °C 15,9 °C 9,7 km/h (2 Bft)
08.04.2017 15:41 15,7 °C 15,9 °C 54 % 1021,9 hPa 0,0 mm 4,8 km/h (1 Bft) O-NO 67 ° 1 min 0,000 mm 4,2 UV-I 659 W/m² 6,4 °C 15,7 °C 11,3 km/h (2 Bft)
08.04.2017 15:42 15,7 °C 15,7 °C 56 % 1021,8 hPa 0,0 mm 3,2 km/h (1 Bft) O-NO 67 ° 1 min 0,000 mm 4,1 UV-I 657 W/m² 6,9 °C 15,7 °C 4,8 km/h (1 Bft)
08.04.2017 15:43 15,9 °C 15,9 °C 58 % 1021,8 hPa 0,0 mm 1,6 km/h (1 Bft) O-SO 112 ° 1 min 0,000 mm 4,1 UV-I 656 W/m² 7,6 °C 15,9 °C 4,8 km/h (1 Bft)
08.04.2017 15:44 16,1 °C 16,1 °C 55 % 1021,8 hPa 0,0 mm 4,8 km/h (1 Bft) NO 45 ° 1 min 0,000 mm 4,1 UV-I 649 W/m² 7,1 °C 16,1 °C 6,4 km/h (2 Bft)
08.04.2017 15:45 16,3 °C 16,3 °C 56 % 1021,8 hPa 0,0 mm 3,2 km/h (1 Bft) N-NO 22 ° 1 min 0,000 mm 4,0 UV-I 645 W/m² 7,5 °C 16,3 °C 4,8 km/h (1 Bft)
08.04.2017 15:46 16,3 °C 16,3 °C 54 % 1021,8 hPa 0,0 mm 4,8 km/h (1 Bft) N-NO 22 ° 1 min 0,000 mm 4,0 UV-I 640 W/m² 7,0 °C 16,3 °C 8,0 km/h (2 Bft)
08.04.2017 15:47 16,2 °C 16,3 °C 55 % 1021,8 hPa 0,0 mm 3,2 km/h (1 Bft) NW 315 ° 1 min 0,000 mm 4,0 UV-I 642 W/m² 7,2 °C 16,2 °C 4,8 km/h (1 Bft)
08.04.2017 15:48 16,2 °C 16,2 °C 54 % 1021,8 hPa 0,0 mm 4,8 km/h (1 Bft) W-SW 247 ° 1 min 0,000 mm 4,0 UV-I 647 W/m² 6,9 °C 16,2 °C 8,0 km/h (2 Bft)
08.04.2017 15:49 16,2 °C 16,2 °C 53 % 1021,8 hPa 0,0 mm 4,8 km/h (1 Bft) NW 315 ° 1 min 0,000 mm 4,0 UV-I 647 W/m² 6,6 °C 16,2 °C 11,3 km/h (2 Bft)
08.04.2017 15:50 16,1 °C 16,2 °C 53 % 1021,8 hPa 0,0 mm 3,2 km/h (1 Bft) W-NW 292 ° 1 min 0,000 mm 4,0 UV-I 640 W/m² 6,5 °C 16,1 °C 6,4 km/h (2 Bft)
08.04.2017 15:51 16,1 °C 16,1 °C 54 % 1021,8 hPa 0,0 mm 4,8 km/h (1 Bft) N 360 ° 1 min 0,000 mm 4,0 UV-I 640 W/m² 6,8 °C 16,1 °C 8,0 km/h (2 Bft)
08.04.2017 15:52 15,9 °C 16,1 °C 53 % 1021,8 hPa 0,0 mm 3,2 km/h (1 Bft) N 360 ° 1 min 0,000 mm 4,0 UV-I 636 W/m² 6,3 °C 15,9 °C 8,0 km/h (2 Bft)
08.04.2017 15:53 15,9 °C 16,0 °C 55 % 1021,7 hPa 0,0 mm 0,0 km/h (0 Bft) N 360 ° 1 min 0,000 mm 3,9 UV-I 633 W/m² 6,9 °C 15,9 °C 1,6 km/h (1 Bft)
08.04.2017 15:54 16,0 °C 16,0 °C 56 % 1021,7 hPa 0,0 mm 1,6 km/h (1 Bft) N-NW 337 ° 1 min 0,000 mm 3,9 UV-I 631 W/m² 7,2 °C 16,0 °C 4,8 km/h (1 Bft)
08.04.2017 15:55 16,1 °C 16,1 °C 56 % 1021,7 hPa 0,0 mm 1,6 km/h (1 Bft) N 360 ° 1 min 0,000 mm 3,9 UV-I 626 W/m² 7,3 °C 16,1 °C 4,8 km/h (1 Bft)
08.04.2017 15:56 16,1 °C 16,1 °C 55 % 1021,7 hPa 0,0 mm 3,2 km/h (1 Bft) NO 45 ° 1 min 0,000 mm 3,9 UV-I 624 W/m² 7,1 °C 16,1 °C 6,4 km/h (2 Bft)
08.04.2017 15:57 16,1 °C 16,2 °C 53 % 1021,7 hPa 0,0 mm 4,8 km/h (1 Bft) N-NO 22 ° 1 min 0,000 mm 3,8 UV-I 619 W/m² 6,5 °C 16,1 °C 6,4 km/h (2 Bft)
08.04.2017 15:58 16,2 °C 16,2 °C 57 % 1021,7 hPa 0,0 mm 3,2 km/h (1 Bft) N-NW 337 ° 1 min 0,000 mm 3,8 UV-I 621 W/m² 7,7 °C 16,2 °C 9,7 km/h (2 Bft)
08.04.2017 15:59 16,2 °C 16,2 °C 55 % 1021,7 hPa 0,0 mm 1,6 km/h (1 Bft) N 360 ° 1 min 0,000 mm 3,8 UV-I 621 W/m² 7,2 °C 16,2 °C 4,8 km/h (1 Bft)
08.04.2017 16:00 16,0 °C 16,2 °C 53 % 1021,7 hPa 0,0 mm 1,6 km/h (1 Bft) N 360 ° 1 min 0,381 mm 3,8 UV-I 621 W/m² 6,4 °C 16,0 °C 4,8 km/h (1 Bft)
08.04.2017 16:01 15,9 °C 15,9 °C 55 % 1021,7 hPa 0,0 mm 3,2 km/h (1 Bft) NO 45 ° 1 min 0,000 mm 3,8 UV-I 619 W/m² 6,9 °C 15,9 °C 4,8 km/h (1 Bft)
08.04.2017 16:02 15,9 °C 15,9 °C 55 % 1021,6 hPa 0,0 mm 3,2 km/h (1 Bft) NO 45 ° 1 min 0,000 mm 3,8 UV-I 619 W/m² 6,9 °C 15,9 °C 6,4 km/h (2 Bft)
08.04.2017 16:03 16,1 °C 16,1 °C 57 % 1021,6 hPa 0,0 mm 4,8 km/h (1 Bft) W-NW 292 ° 1 min 0,000 mm 3,8 UV-I 619 W/m² 7,6 °C 16,1 °C 11,3 km/h (2 Bft)
08.04.2017 16:04 16,0 °C 16,1 °C 57 % 1021,6 hPa 0,0 mm 4,8 km/h (1 Bft) O-NO 67 ° 1 min 0,000 mm 3,8 UV-I 617 W/m² 7,5 °C 16,0 °C 11,3 km/h (2 Bft)
08.04.2017 16:05 16,1 °C 16,1 °C 56 % 1021,6 hPa 0,0 mm 1,6 km/h (1 Bft) O-NO 67 ° 1 min 0,000 mm 3,7 UV-I 613 W/m² 7,3 °C 16,1 °C 3,2 km/h (1 Bft)
08.04.2017 16:06 16,1 °C 16,1 °C 55 % 1021,6 hPa 0,0 mm 4,8 km/h (1 Bft) O-NO 67 ° 1 min 0,000 mm 3,7 UV-I 613 W/m² 7,1 °C 16,1 °C 6,4 km/h (2 Bft)
08.04.2017 16:07 15,9 °C 16,1 °C 55 % 1021,6 hPa 0,0 mm 4,8 km/h (1 Bft) NO 45 ° 1 min 0,000 mm 3,7 UV-I 610 W/m² 6,9 °C 15,9 °C 6,4 km/h (2 Bft)
08.04.2017 16:08 15,7 °C 15,9 °C 53 % 1021,6 hPa 0,0 mm 3,2 km/h (1 Bft) NO 45 ° 1 min 0,000 mm 3,7 UV-I 610 W/m² 6,1 °C 15,7 °C 4,8 km/h (1 Bft)
08.04.2017 16:09 15,6 °C 15,7 °C 54 % 1021,6 hPa 0,0 mm 1,6 km/h (1 Bft) O-NO 67 ° 1 min 0,000 mm 3,7 UV-I 606 W/m² 6,3 °C 15,6 °C 3,2 km/h (1 Bft)
08.04.2017 16:10 15,6 °C 15,6 °C 54 % 1021,6 hPa 0,0 mm 1,6 km/h (1 Bft) O-NO 67 ° 1 min 0,000 mm 3,6 UV-I 601 W/m² 6,3 °C 15,6 °C 3,2 km/h (1 Bft)
08.04.2017 16:11 15,6 °C 15,6 °C 55 % 1021,6 hPa 0,0 mm 3,2 km/h (1 Bft) NO 45 ° 1 min 0,000 mm 3,6 UV-I 596 W/m² 6,6 °C 15,6 °C 6,4 km/h (2 Bft)
08.04.2017 15:50 15,7 °C 15,7 °C 57 % 1021,6 hPa 0,0 mm 3,0 km/h (1 Bft) N-NO 17 ° 5 min 0,000 mm 3,5 UV-I 591 W/m² 7,2 °C 15,7 °C 4,8 km/h (1 Bft)
08.04.2017 15:51 15,9 °C 15,9 °C 55 % 1021,6 hPa 0,0 mm 3,8 km/h (1 Bft) W 274 ° 1 min 0,000 mm 3,5 UV-I 589 W/m² 6,9 °C 15,9 °C 9,7 km/h (2 Bft)
08.04.2017 15:52 16,0 °C 16,0 °C 54 % 1021,6 hPa 0,0 mm 1,9 km/h (1 Bft) NW 326 ° 1 min 0,000 mm 3,5 UV-I 585 W/m² 6,7 °C 16,0 °C 3,2 km/h (1 Bft)
08.04.2017 15:53 16,1 °C 16,1 °C 55 % 1021,5 hPa 0,0 mm 3,0 km/h (1 Bft) W-NW 282 ° 1 min 0,000 mm 3,5 UV-I 584 W/m² 7,1 °C 16,1 °C 6,4 km/h (2 Bft)
08.04.2017 15:54 16,0 °C 16,1 °C 55 % 1021,6 hPa 0,0 mm 4,4 km/h (1 Bft) NW 311 ° 1 min 0,000 mm 3,5 UV-I 584 W/m² 7,0 °C 16,0 °C 6,4 km/h (2 Bft)
08.04.2017 15:55 15,9 °C 16,0 °C 56 % 1021,5 hPa 0,0 mm 6,4 km/h (2 Bft) W 278 ° 1 min 0,000 mm 3,4 UV-I 580 W/m² 7,1 °C 15,9 °C 9,7 km/h (2 Bft)
08.04.2017 15:56 15,9 °C 16,0 °C 57 % 1021,5 hPa 0,0 mm 2,5 km/h (1 Bft) N 360 ° 1 min 0,000 mm 3,4 UV-I 580 W/m² 7,4 °C 15,9 °C 4,8 km/h (1 Bft)
08.04.2017 15:57 16,1 °C 16,1 °C 56 % 1021,6 hPa 0,0 mm 2,3 km/h (1 Bft) N 350 ° 1 min 0,000 mm 3,4 UV-I 580 W/m² 7,3 °C 16,1 °C 6,4 km/h (2 Bft)
08.04.2017 15:58 16,2 °C 16,2 °C 56 % 1021,6 hPa 0,0 mm 2,3 km/h (1 Bft) NO 37 ° 1 min 0,000 mm 3,4 UV-I 578 W/m² 7,4 °C 16,2 °C 4,8 km/h (1 Bft)
08.04.2017 15:59 16,3 °C 16,3 °C 57 % 1021,5 hPa 0,0 mm 5,2 km/h (1 Bft) NO 39 ° 1 min 0,000 mm 3,4 UV-I 578 W/m² 7,8 °C 16,3 °C 6,4 km/h (2 Bft)
08.04.2017 16:00 16,3 °C 16,3 °C 56 % 1021,5 hPa 0,0 mm 5,2 km/h (1 Bft) N-NW 331 ° 1 min 0,000 mm 3,4 UV-I 577 W/m² 7,5 °C 16,3 °C 8,0 km/h (2 Bft)
08.04.2017 16:01 16,3 °C 16,3 °C 54 % 1021,6 hPa 0,0 mm 7,4 km/h (2 Bft) W-NW 302 ° 1 min 0,000 mm 3,4 UV-I 575 W/m² 7,0 °C 16,3 °C 11,3 km/h (2 Bft)
08.04.2017 16:02 16,2 °C 16,3 °C 56 % 1021,6 hPa 0,0 mm 3,8 km/h (1 Bft) W 281 ° 1 min 0,000 mm 3,3 UV-I 570 W/m² 7,4 °C 16,2 °C 6,4 km/h (2 Bft)
08.04.2017 16:03 16,3 °C 16,3 °C 56 % 1021,6 hPa 0,0 mm 3,4 km/h (1 Bft) N 350 ° 1 min 0,000 mm 3,3 UV-I 570 W/m² 7,5 °C 16,3 °C 6,4 km/h (2 Bft)
08.04.2017 16:04 16,2 °C 16,3 °C 53 % 1021,5 hPa 0,0 mm 3,3 km/h (1 Bft) W-NW 286 ° 1 min 0,000 mm 3,3 UV-I 564 W/m² 6,6 °C 16,2 °C 6,4 km/h (2 Bft)
08.04.2017 16:05 16,2 °C 16,2 °C 55 % 1021,5 hPa 0,0 mm 5,4 km/h (1 Bft) NO 34 ° 1 min 0,000 mm 3,3 UV-I 561 W/m² 7,2 °C 16,2 °C 12,9 km/h (3 Bft)
08.04.2017 16:06 16,1 °C 16,2 °C 55 % 1021,5 hPa 0,0 mm 3,4 km/h (1 Bft) NO 42 ° 1 min 0,000 mm 3,2 UV-I 559 W/m² 7,1 °C 16,1 °C 6,4 km/h (2 Bft)
08.04.2017 16:07 16,1 °C 16,1 °C 57 % 1021,5 hPa 0,0 mm 2,9 km/h (1 Bft) N 5 ° 1 min 0,000 mm 3,2 UV-I 557 W/m² 7,6 °C 16,1 °C 4,8 km/h (1 Bft)
08.04.2017 16:08 16,1 °C 16,1 °C 54 % 1021,5 hPa 0,0 mm 4,5 km/h (1 Bft) N-NO 13 ° 1 min 0,000 mm 3,2 UV-I 555 W/m² 6,8 °C 16,1 °C 6,4 km/h (2 Bft)
08.04.2017 16:09 16,0 °C 16,1 °C 54 % 1021,5 hPa 0,0 mm 5,2 km/h (1 Bft) N-NO 21 ° 1 min 0,000 mm 3,2 UV-I 554 W/m² 6,7 °C 16,0 °C 9,7 km/h (2 Bft)
08.04.2017 16:10 16,1 °C 16,1 °C 59 % 1021,5 hPa 0,0 mm 3,0 km/h (1 Bft) N 349 ° 1 min 0,000 mm 3,2 UV-I 548 W/m² 8,1 °C 16,1 °C 6,4 km/h (2 Bft)
08.04.2017 16:11 16,2 °C 16,2 °C 56 % 1021,5 hPa 0,0 mm 2,8 km/h (1 Bft) N 355 ° 1 min 0,000 mm 3,1 UV-I 545 W/m² 7,4 °C 16,2 °C 6,4 km/h (2 Bft)
08.04.2017 16:12 16,3 °C 16,3 °C 55 % 1021,6 hPa 0,0 mm 5,0 km/h (1 Bft) N-NO 26 ° 1 min 0,000 mm 3,1 UV-I 543 W/m² 7,2 °C 16,3 °C 8,0 km/h (2 Bft)
08.04.2017 16:13 16,3 °C 16,3 °C 53 % 1021,6 hPa 0,0 mm 4,2 km/h (1 Bft) NW 305 ° 1 min 0,000 mm 3,1 UV-I 545 W/m² 6,7 °C 16,3 °C 11,3 km/h (2 Bft)
08.04.2017 16:14 16,2 °C 16,3 °C 53 % 1021,5 hPa 0,0 mm 5,0 km/h (1 Bft) W 261 ° 1 min 0,000 mm 3,1 UV-I 543 W/m² 6,6 °C 16,2 °C 9,7 km/h (2 Bft)
08.04.2017 16:15 16,1 °C 16,2 °C 56 % 1021,5 hPa 0,0 mm 4,8 km/h (1 Bft) W 281 ° 1 min 0,000 mm 3,1 UV-I 541 W/m² 7,3 °C 16,1 °C 6,4 km/h (2 Bft)
08.04.2017 16:16 16,1 °C 16,1 °C 55 % 1021,4 hPa 0,0 mm 6,4 km/h (2 Bft) W-NW 298 ° 1 min 0,000 mm 3,1 UV-I 533 W/m² 7,1 °C 16,1 °C 11,3 km/h (2 Bft)
08.04.2017 16:17 16,1 °C 16,1 °C 54 % 1021,4 hPa 0,0 mm 2,5 km/h (1 Bft) N 5 ° 1 min 0,000 mm 3,0 UV-I 512 W/m² 6,8 °C 16,1 °C 4,8 km/h (1 Bft)
08.04.2017 16:18 16,0 °C 16,1 °C 54 % 1021,4 hPa 0,0 mm 2,8 km/h (1 Bft) N-NO 18 ° 1 min 0,000 mm 3,0 UV-I 483 W/m² 6,7 °C 16,0 °C 6,4 km/h (2 Bft)
08.04.2017 16:19 16,0 °C 16,1 °C 56 % 1021,4 hPa 0,0 mm 5,7 km/h (1 Bft) O-NO 61 ° 1 min 0,000 mm 2,9 UV-I 469 W/m² 7,2 °C 16,0 °C 11,3 km/h (2 Bft)
08.04.2017 16:20 16,0 °C 16,0 °C 55 % 1021,4 hPa 0,0 mm 6,1 km/h (2 Bft) O-NO 72 ° 1 min 0,000 mm 2,8 UV-I 439 W/m² 7,0 °C 16,0 °C 8,0 km/h (2 Bft)
08.04.2017 16:21 16,0 °C 16,0 °C 56 % 1021,4 hPa 0,0 mm 4,4 km/h (1 Bft) O-NO 74 ° 1 min 0,000 mm 2,8 UV-I 415 W/m² 7,2 °C 16,0 °C 6,4 km/h (2 Bft)
08.04.2017 16:22 15,9 °C 16,0 °C 55 % 1021,5 hPa 0,0 mm 2,4 km/h (1 Bft) O-NO 67 ° 1 min 0,000 mm 2,7 UV-I 381 W/m² 6,9 °C 15,9 °C 4,8 km/h (1 Bft)
08.04.2017 16:23 15,9 °C 15,9 °C 55 % 1021,4 hPa 0,0 mm 2,8 km/h (1 Bft) W-NW 300 ° 1 min 0,000 mm 2,5 UV-I 339 W/m² 6,9 °C 15,9 °C 6,4 km/h (2 Bft)
08.04.2017 16:24 15,9 °C 15,9 °C 55 % 1021,4 hPa 0,0 mm 4,6 km/h (1 Bft) W-NW 299 ° 1 min 0,000 mm 2,5 UV-I 315 W/m² 6,9 °C 15,9 °C 9,7 km/h (2 Bft)
08.04.2017 16:25 15,9 °C 15,9 °C 55 % 1021,4 hPa 0,0 mm 3,6 km/h (1 Bft) N-NW 327 ° 1 min 0,000 mm 2,4 UV-I 294 W/m² 6,9 °C 15,9 °C 6,4 km/h (2 Bft)
08.04.2017 16:26 15,9 °C 16,0 °C 54 % 1021,4 hPa 0,0 mm 2,2 km/h (1 Bft) N 5 ° 0 min 0,000 mm 2,3 UV-I 264 W/m² 6,6 °C 15,9 °C 4,8 km/h (1 Bft)
08.04.2017 16:27 15,9 °C 15,9 °C 54 % 1021,4 hPa 0,0 mm 3,2 km/h (1 Bft) N 10 ° 1 min 0,000 mm 2,2 UV-I 295 W/m² 6,6 °C 15,9 °C 6,4 km/h (2 Bft)
08.04.2017 16:28 15,9 °C 15,9 °C 54 % 1021,4 hPa 0,0 mm 1,0 km/h (0 Bft) N 10 ° 1 min 0,000 mm 2,2 UV-I 360 W/m² 6,6 °C 15,9 °C 1,6 km/h (1 Bft)
08.04.2017 16:29 16,0 °C 16,0 °C 55 % 1021,4 hPa 0,0 mm 1,1 km/h (1 Bft) W-NW 302 ° 1 min 0,000 mm 2,4 UV-I 406 W/m² 7,0 °C 16,0 °C 3,2 km/h (1 Bft)
08.04.2017 16:30 16,1 °C 16,1 °C 55 % 1021,4 hPa 0,0 mm 3,0 km/h (1 Bft) NW 319 ° 1 min 0,000 mm 2,5 UV-I 422 W/m² 7,1 °C 16,1 °C 6,4 km/h (2 Bft)
08.04.2017 16:31 16,2 °C 16,2 °C 57 % 1021,4 hPa 0,0 mm 1,1 km/h (1 Bft) NW 319 ° 1 min 0,000 mm 2,5 UV-I 438 W/m² 7,7 °C 16,2 °C 4,8 km/h (1 Bft)
08.04.2017 16:32 16,2 °C 16,3 °C 53 % 1021,4 hPa 0,0 mm 4,7 km/h (1 Bft) N-NW 346 ° 1 min 0,000 mm 2,6 UV-I 404 W/m² 6,6 °C 16,2 °C 8,0 km/h (2 Bft)
08.04.2017 16:33 16,2 °C 16,2 °C 54 % 1021,4 hPa 0,0 mm 2,7 km/h (1 Bft) N-NW 336 ° 1 min 0,000 mm 2,5 UV-I 388 W/m² 6,9 °C 16,2 °C 6,4 km/h (2 Bft)
08.04.2017 16:34 16,2 °C 16,2 °C 55 % 1021,4 hPa 0,0 mm 2,3 km/h (1 Bft) N-NO 14 ° 1 min 0,000 mm 2,5 UV-I 380 W/m² 7,2 °C 16,2 °C 3,2 km/h (1 Bft)
08.04.2017 16:35 16,3 °C 16,3 °C 55 % 1021,4 hPa 0,0 mm 4,2 km/h (1 Bft) N-NO 26 ° 1 min 0,000 mm 2,4 UV-I 396 W/m² 7,2 °C 16,3 °C 8,0 km/h (2 Bft)
08.04.2017 16:36 16,3 °C 16,3 °C 56 % 1021,4 hPa 0,0 mm 4,7 km/h (1 Bft) NO 36 ° 1 min 0,000 mm 2,4 UV-I 425 W/m² 7,5 °C 16,3 °C 8,0 km/h (2 Bft)
08.04.2017 16:37 16,3 °C 16,3 °C 55 % 1021,4 hPa 0,0 mm 2,0 km/h (1 Bft) NO 36 ° 1 min 0,000 mm 2,5 UV-I 471 W/m² 7,2 °C 16,3 °C 6,4 km/h (2 Bft)
08.04.2017 16:38 16,2 °C 16,3 °C 55 % 1021,4 hPa 0,0 mm 0,0 km/h (0 Bft) NO 36 ° 1 min 0,000 mm 2,6 UV-I 446 W/m² 7,2 °C 16,2 °C 0,0 km/h (0 Bft)
08.04.2017 16:39 16,2 °C 16,3 °C 55 % 1021,4 hPa 0,0 mm 1,4 km/h (1 Bft) NO 36 ° 1 min 0,000 mm 2,5 UV-I 318 W/m² 7,2 °C 16,2 °C 4,8 km/h (1 Bft)
08.04.2017 16:40 16,1 °C 16,2 °C 54 % 1021,3 hPa 0,0 mm 6,7 km/h (2 Bft) NO 40 ° 1 min 0,000 mm 2,3 UV-I 338 W/m² 6,8 °C 16,1 °C 11,3 km/h (2 Bft)
08.04.2017 16:41 16,1 °C 16,1 °C 55 % 1021,3 hPa 0,0 mm 5,8 km/h (2 Bft) N-NO 19 ° 1 min 0,000 mm 2,3 UV-I 338 W/m² 7,1 °C 16,1 °C 8,0 km/h (2 Bft)
08.04.2017 16:42 16,1 °C 16,1 °C 54 % 1021,3 hPa 0,0 mm 4,1 km/h (1 Bft) NW 308 ° 1 min 0,000 mm 2,2 UV-I 329 W/m² 6,8 °C 16,1 °C 8,0 km/h (2 Bft)
08.04.2017 16:43 16,0 °C 16,0 °C 55 % 1021,4 hPa 0,0 mm 6,4 km/h (2 Bft) O-NO 67 ° 1 min 0,000 mm 2,8 UV-I 439 W/m² 7,0 °C 16,0 °C 8,0 km/h (2 Bft)
08.04.2017 16:44 16,0 °C 16,0 °C 56 % 1021,4 hPa 0,0 mm 3,2 km/h (1 Bft) O-NO 67 ° 1 min 0,000 mm 2,8 UV-I 415 W/m² 7,2 °C 16,0 °C 6,4 km/h (2 Bft)
08.04.2017 16:45 15,9 °C 15,9 °C 55 % 1021,5 hPa 0,0 mm 1,6 km/h (1 Bft) O-NO 67 ° 1 min 0,000 mm 2,7 UV-I 381 W/m² 6,9 °C 15,9 °C 4,8 km/h (1 Bft)
08.04.2017 16:46 15,9 °C 15,9 °C 55 % 1021,4 hPa 0,0 mm 3,2 km/h (1 Bft) W-NW 292 ° 1 min 0,000 mm 2,5 UV-I 339 W/m² 6,9 °C 15,9 °C 6,4 km/h (2 Bft)
08.04.2017 16:47 15,9 °C 15,9 °C 57 % 1021,4 hPa 0,0 mm 4,8 km/h (1 Bft) W-NW 292 ° 1 min 0,000 mm 2,5 UV-I 315 W/m² 7,4 °C 15,9 °C 9,7 km/h (2 Bft)
08.04.2017 16:48 16,0 °C 16,0 °C 55 % 1021,4 hPa 0,0 mm 3,2 km/h (1 Bft) N-NW 337 ° 1 min 0,000 mm 2,4 UV-I 294 W/m² 7,0 °C 16,0 °C 6,4 km/h (2 Bft)
08.04.2017 16:49 15,9 °C 16,0 °C 54 % 1021,4 hPa 0,0 mm 3,2 km/h (1 Bft) N-NW 337 ° 0 min 0,000 mm 2,3 UV-I 264 W/m² 6,6 °C 15,9 °C 6,4 km/h (2 Bft)
08.04.2017 16:50 15,9 °C 15,9 °C 54 % 1021,4 hPa 0,0 mm 3,2 km/h (1 Bft) N 360 ° 1 min 0,000 mm 2,2 UV-I 295 W/m² 6,6 °C 15,9 °C 4,8 km/h (1 Bft)
08.04.2017 16:51 15,9 °C 15,9 °C 54 % 1021,4 hPa 0,0 mm 1,6 km/h (1 Bft) N 360 ° 1 min 0,000 mm 2,3 UV-I 360 W/m² 6,6 °C 15,9 °C 1,6 km/h (1 Bft)
08.04.2017 16:52 16,1 °C 16,1 °C 55 % 1021,4 hPa 0,0 mm 1,6 km/h (1 Bft) N 360 ° 1 min 0,000 mm 2,4 UV-I 406 W/m² 7,1 °C 16,1 °C 6,4 km/h (2 Bft)
08.04.2017 16:53 16,1 °C 16,1 °C 55 % 1021,4 hPa 0,0 mm 3,2 km/h (1 Bft) NW 315 ° 1 min 0,000 mm 2,5 UV-I 422 W/m² 7,1 °C 16,1 °C 6,4 km/h (2 Bft)
08.04.2017 16:54 16,2 °C 16,2 °C 57 % 1021,4 hPa 0,0 mm 1,6 km/h (1 Bft) NW 315 ° 1 min 0,000 mm 2,5 UV-I 438 W/m² 7,7 °C 16,2 °C 4,8 km/h (1 Bft)
08.04.2017 16:55 16,2 °C 16,3 °C 53 % 1021,4 hPa 0,0 mm 4,8 km/h (1 Bft) N-NW 337 ° 1 min 0,000 mm 2,6 UV-I 404 W/m² 6,6 °C 16,2 °C 8,0 km/h (2 Bft)
08.04.2017 16:56 16,2 °C 16,2 °C 54 % 1021,4 hPa 0,0 mm 1,6 km/h (1 Bft) N-NW 337 ° 1 min 0,000 mm 2,5 UV-I 388 W/m² 6,9 °C 16,2 °C 4,8 km/h (1 Bft)
08.04.2017 16:57 16,2 °C 16,2 °C 55 % 1021,4 hPa 0,0 mm 3,2 km/h (1 Bft) N-NO 22 ° 1 min 0,000 mm 2,5 UV-I 380 W/m² 7,2 °C 16,2 °C 3,2 km/h (1 Bft)
08.04.2017 16:58 16,3 °C 16,3 °C 55 % 1021,4 hPa 0,0 mm 4,8 km/h (1 Bft) N-NO 22 ° 1 min 0,000 mm 2,4 UV-I 396 W/m² 7,2 °C 16,3 °C 8,0 km/h (2 Bft)
08.04.2017 16:59 16,3 °C 16,3 °C 55 % 1021,4 hPa 0,0 mm 4,8 km/h (1 Bft) N-NO 22 ° 1 min 0,000 mm 2,4 UV-I 425 W/m² 7,2 °C 16,3 °C 8,0 km/h (2 Bft)
08.04.2017 17:00 16,3 °C 16,3 °C 55 % 1021,4 hPa 0,0 mm 1,6 km/h (1 Bft) NO 45 ° 1 min 0,305 mm 2,5 UV-I 471 W/m² 7,2 °C 16,3 °C 3,2 km/h (1 Bft)
08.04.2017 17:01 16,2 °C 16,3 °C 55 % 1021,4 hPa 0,0 mm 0,0 km/h (0 Bft) N 0 ° 1 min 0,000 mm 2,6 UV-I 446 W/m² 7,2 °C 16,2 °C 0,0 km/h (0 Bft)
08.04.2017 17:02 16,2 °C 16,3 °C 55 % 1021,4 hPa 0,0 mm 1,6 km/h (1 Bft) NO 45 ° 1 min 0,000 mm 2,5 UV-I 366 W/m² 7,2 °C 16,2 °C 6,4 km/h (2 Bft)
08.04.2017 17:03 16,1 °C 16,2 °C 54 % 1021,3 hPa 0,0 mm 6,4 km/h (2 Bft) NO 45 ° 1 min 0,000 mm 2,3 UV-I 338 W/m² 6,8 °C 16,1 °C 11,3 km/h (2 Bft)
08.04.2017 17:04 16,1 °C 16,1 °C 55 % 1021,3 hPa 0,0 mm 4,8 km/h (1 Bft) N-NO 22 ° 1 min 0,000 mm 2,3 UV-I 338 W/m² 7,1 °C 16,1 °C 8,0 km/h (2 Bft)
08.04.2017 17:05 16,1 °C 16,1 °C 55 % 1021,3 hPa 0,0 mm 3,2 km/h (1 Bft) NW 315 ° 1 min 0,000 mm 2,2 UV-I 329 W/m² 7,1 °C 16,1 °C 8,0 km/h (2 Bft)
08.04.2017 17:06 16,1 °C 16,1 °C 54 % 1021,3 hPa 0,0 mm 3,2 km/h (1 Bft) N-NO 22 ° 1 min 0,000 mm 2,2 UV-I 339 W/m² 6,8 °C 16,1 °C 4,8 km/h (1 Bft)
08.04.2017 17:07 15,9 °C 16,0 °C 54 % 1021,4 hPa 0,0 mm 1,6 km/h (1 Bft) N 360 ° 1 min 0,000 mm 2,2 UV-I 336 W/m² 6,6 °C 15,9 °C 3,2 km/h (1 Bft)
08.04.2017 17:08 15,9 °C 15,9 °C 55 % 1021,3 hPa 0,0 mm 3,2 km/h (1 Bft) W-NW 292 ° 0 min 0,000 mm 2,2 UV-I 285 W/m² 6,9 °C 15,9 °C 4,8 km/h (1 Bft)
08.04.2017 17:09 15,9 °C 15,9 °C 55 % 1021,3 hPa 0,0 mm 3,2 km/h (1 Bft) N-NO 22 ° 0 min 0,000 mm 2,1 UV-I 283 W/m² 6,9 °C 15,9 °C 6,4 km/h (2 Bft)
08.04.2017 17:10 15,9 °C 15,9 °C 54 % 1021,4 hPa 0,0 mm 1,6 km/h (1 Bft) N-NO 22 ° 1 min 0,000 mm 2,0 UV-I 290 W/m² 6,6 °C 15,9 °C 3,2 km/h (1 Bft)
08.04.2017 17:11 15,9 °C 15,9 °C 55 % 1021,3 hPa 0,0 mm 0,0 km/h (0 Bft) N-NO 22 ° 0 min 0,000 mm 2,0 UV-I 251 W/m² 6,9 °C 15,9 °C 1,6 km/h (1 Bft)
08.04.2017 17:12 15,9 °C 15,9 °C 55 % 1021,3 hPa 0,0 mm 1,6 km/h (1 Bft) N-NO 22 ° 0 min 0,000 mm 1,9 UV-I 241 W/m² 6,9 °C 15,9 °C 4,8 km/h (1 Bft)
08.04.2017 16:51 16,1 °C 16,1 °C 55 % 1021,4 hPa 0,0 mm 2,4 km/h (1 Bft) NW 313 ° 0 min 0,000 mm 2,0 UV-I 206 W/m² 7,1 °C 16,1 °C 4,8 km/h (1 Bft)
08.04.2017 16:52 16,1 °C 16,1 °C 56 % 1021,3 hPa 0,0 mm 0,4 km/h (0 Bft) NW 313 ° 0 min 0,000 mm 1,8 UV-I 202 W/m² 7,3 °C 16,1 °C 1,6 km/h (1 Bft)
08.04.2017 16:53 16,0 °C 16,1 °C 55 % 1021,3 hPa 0,0 mm 2,4 km/h (1 Bft) N-NW 329 ° 0 min 0,000 mm 1,8 UV-I 225 W/m² 7,0 °C 16,0 °C 4,8 km/h (1 Bft)
08.04.2017 16:54 16,0 °C 16,0 °C 54 % 1021,3 hPa 0,0 mm 2,5 km/h (1 Bft) N-NW 327 ° 0 min 0,000 mm 1,9 UV-I 257 W/m² 6,7 °C 16,0 °C 3,2 km/h (1 Bft)
08.04.2017 16:55 15,9 °C 16,0 °C 54 % 1021,3 hPa 0,0 mm 3,5 km/h (1 Bft) NW 307 ° 0 min 0,000 mm 1,9 UV-I 234 W/m² 6,6 °C 15,9 °C 4,8 km/h (1 Bft)
08.04.2017 16:56 15,9 °C 15,9 °C 55 % 1021,3 hPa 0,0 mm 0,5 km/h (0 Bft) NW 307 ° 0 min 0,000 mm 1,9 UV-I 192 W/m² 6,9 °C 15,9 °C 3,2 km/h (1 Bft)
08.04.2017 16:57 15,9 °C 15,9 °C 55 % 1021,3 hPa 0,0 mm 5,1 km/h (1 Bft) NO 37 ° 0 min 0,000 mm 1,8 UV-I 156 W/m² 6,9 °C 15,9 °C 9,7 km/h (2 Bft)
08.04.2017 16:58 15,9 °C 15,9 °C 55 % 1021,3 hPa 0,0 mm 6,2 km/h (2 Bft) N-NO 24 ° 0 min 0,000 mm 1,6 UV-I 120 W/m² 6,9 °C 15,9 °C 8,0 km/h (2 Bft)
08.04.2017 16:59 15,9 °C 15,9 °C 54 % 1021,3 hPa 0,0 mm 7,4 km/h (2 Bft) NO 44 ° 0 min 0,000 mm 1,6 UV-I 116 W/m² 6,6 °C 15,9 °C 12,9 km/h (3 Bft)
08.04.2017 17:00 15,9 °C 15,9 °C 55 % 1021,3 hPa 0,0 mm 3,2 km/h (1 Bft) N-NW 344 ° 0 min 0,000 mm 1,6 UV-I 120 W/m² 6,9 °C 15,9 °C 4,8 km/h (1 Bft)
08.04.2017 17:01 16,2 °C 16,3 °C 55 % 1021,4 hPa 0,0 mm 0,0 km/h (0 Bft) N 0 ° 1 min 0,000 mm 2,6 UV-I 446 W/m² 7,2 °C 16,2 °C 0,0 km/h (0 Bft)
08.04.2017 17:02 16,2 °C 16,3 °C 55 % 1021,4 hPa 0,0 mm 1,6 km/h (1 Bft) NO 45 ° 1 min 0,000 mm 2,5 UV-I 366 W/m² 7,2 °C 16,2 °C 6,4 km/h (2 Bft)
08.04.2017 17:03 16,1 °C 16,2 °C 54 % 1021,3 hPa 0,0 mm 6,4 km/h (2 Bft) NO 45 ° 1 min 0,000 mm 2,3 UV-I 338 W/m² 6,8 °C 16,1 °C 11,3 km/h (2 Bft)
08.04.2017 17:04 16,1 °C 16,1 °C 55 % 1021,3 hPa 0,0 mm 4,8 km/h (1 Bft) N-NO 22 ° 1 min 0,000 mm 2,3 UV-I 338 W/m² 7,1 °C 16,1 °C 8,0 km/h (2 Bft)
08.04.2017 17:05 16,1 °C 16,1 °C 55 % 1021,3 hPa 0,0 mm 3,2 km/h (1 Bft) NW 315 ° 1 min 0,000 mm 2,2 UV-I 329 W/m² 7,1 °C 16,1 °C 8,0 km/h (2 Bft)
08.04.2017 17:06 16,1 °C 16,1 °C 54 % 1021,3 hPa 0,0 mm 3,2 km/h (1 Bft) N-NO 22 ° 1 min 0,000 mm 2,2 UV-I 339 W/m² 6,8 °C 16,1 °C 4,8 km/h (1 Bft)
08.04.2017 17:07 15,9 °C 16,0 °C 54 % 1021,4 hPa 0,0 mm 1,6 km/h (1 Bft) N 360 ° 1 min 0,000 mm 2,2 UV-I 336 W/m² 6,6 °C 15,9 °C 3,2 km/h (1 Bft)
08.04.2017 17:08 15,9 °C 15,9 °C 55 % 1021,3 hPa 0,0 mm 3,2 km/h (1 Bft) W-NW 292 ° 0 min 0,000 mm 2,2 UV-I 285 W/m² 6,9 °C 15,9 °C 4,8 km/h (1 Bft)
08.04.2017 17:09 15,9 °C 15,9 °C 55 % 1021,3 hPa 0,0 mm 3,2 km/h (1 Bft) N-NO 22 ° 0 min 0,000 mm 2,1 UV-I 283 W/m² 6,9 °C 15,9 °C 6,4 km/h (2 Bft)
08.04.2017 17:10 15,9 °C 15,9 °C 54 % 1021,4 hPa 0,0 mm 1,6 km/h (1 Bft) N-NO 22 ° 1 min 0,000 mm 2,0 UV-I 290 W/m² 6,6 °C 15,9 °C 3,2 km/h (1 Bft)
08.04.2017 17:11 15,9 °C 15,9 °C 55 % 1021,3 hPa 0,0 mm 0,0 km/h (0 Bft) N-NO 22 ° 0 min 0,000 mm 2,0 UV-I 251 W/m² 6,9 °C 15,9 °C 1,6 km/h (1 Bft)
08.04.2017 17:12 15,9 °C 15,9 °C 55 % 1021,3 hPa 0,0 mm 1,6 km/h (1 Bft) N-NO 22 ° 0 min 0,000 mm 1,9 UV-I 241 W/m² 6,9 °C 15,9 °C 4,8 km/h (1 Bft)
08.04.2017 17:13 16,0 °C 16,0 °C 56 % 1021,3 hPa 0,0 mm 4,8 km/h (1 Bft) NW 315 ° 0 min 0,000 mm 1,9 UV-I 281 W/m² 7,2 °C 16,0 °C 8,0 km/h (2 Bft)
08.04.2017 17:14 16,1 °C 16,1 °C 55 % 1021,4 hPa 0,0 mm 1,6 km/h (1 Bft) NW 315 ° 0 min 0,000 mm 2,0 UV-I 206 W/m² 7,1 °C 16,1 °C 4,8 km/h (1 Bft)
08.04.2017 17:15 16,1 °C 16,1 °C 56 % 1021,3 hPa 0,0 mm 0,0 km/h (0 Bft) NW 315 ° 0 min 0,000 mm 1,8 UV-I 202 W/m² 7,3 °C 16,1 °C 1,6 km/h (1 Bft)
08.04.2017 17:16 16,0 °C 16,1 °C 55 % 1021,3 hPa 0,0 mm 3,2 km/h (1 Bft) N-NW 337 ° 0 min 0,000 mm 1,8 UV-I 225 W/m² 7,0 °C 16,0 °C 4,8 km/h (1 Bft)
08.04.2017 17:17 15,9 °C 16,0 °C 55 % 1021,3 hPa 0,0 mm 3,2 km/h (1 Bft) N-NW 337 ° 0 min 0,000 mm 1,9 UV-I 257 W/m² 6,9 °C 15,9 °C 4,8 km/h (1 Bft)
08.04.2017 17:18 15,9 °C 15,9 °C 54 % 1021,3 hPa 0,0 mm 3,2 km/h (1 Bft) NW 315 ° 0 min 0,000 mm 1,9 UV-I 234 W/m² 6,6 °C 15,9 °C 4,8 km/h (1 Bft)
08.04.2017 17:19 15,9 °C 15,9 °C 55 % 1021,3 hPa 0,0 mm 0,0 km/h (0 Bft) NW 315 ° 0 min 0,000 mm 1,9 UV-I 192 W/m² 6,9 °C 15,9 °C 3,2 km/h (1 Bft)
08.04.2017 17:20 15,9 °C 15,9 °C 55 % 1021,3 hPa 0,0 mm 4,8 km/h (1 Bft) NO 45 ° 0 min 0,000 mm 1,8 UV-I 156 W/m² 6,9 °C 15,9 °C 9,7 km/h (2 Bft)
08.04.2017 17:21 15,9 °C 15,9 °C 55 % 1021,3 hPa 0,0 mm 6,4 km/h (2 Bft) N-NO 22 ° 0 min 0,000 mm 1,6 UV-I 120 W/m² 6,9 °C 15,9 °C 11,3 km/h (2 Bft)
08.04.2017 17:22 15,9 °C 15,9 °C 54 % 1021,3 hPa 0,0 mm 6,4 km/h (2 Bft) NO 45 ° 0 min 0,000 mm 1,6 UV-I 116 W/m² 6,6 °C 15,9 °C 12,9 km/h (3 Bft)
08.04.2017 17:23 15,9 °C 15,9 °C 55 % 1021,3 hPa 0,0 mm 3,2 km/h (1 Bft) N-NW 337 ° 0 min 0,000 mm 1,6 UV-I 120 W/m² 6,9 °C 15,9 °C 4,8 km/h (1 Bft)
08.04.2017 17:24 15,9 °C 15,9 °C 54 % 1021,3 hPa 0,0 mm 3,2 km/h (1 Bft) N 360 ° 0 min 0,000 mm 1,6 UV-I 114 W/m² 6,6 °C 15,9 °C 6,4 km/h (2 Bft)
08.04.2017 17:25 15,9 °C 15,9 °C 55 % 1021,3 hPa 0,0 mm 4,8 km/h (1 Bft) NO 45 ° 0 min 0,000 mm 1,5 UV-I 111 W/m² 6,9 °C 15,9 °C 8,0 km/h (2 Bft)
08.04.2017 17:26 15,8 °C 15,9 °C 56 % 1021,3 hPa 0,0 mm 3,2 km/h (1 Bft) NO 45 ° 0 min 0,000 mm 1,5 UV-I 93 W/m² 7,0 °C 15,8 °C 4,8 km/h (1 Bft)
08.04.2017 17:05 15,8 °C 15,9 °C 56 % 1021,2 hPa 0,0 mm 3,8 km/h (1 Bft) N-NO 13 ° 0 min 0,000 mm 1,5 UV-I 81 W/m² 7,0 °C 15,8 °C 4,8 km/h (1 Bft)
08.04.2017 17:06 15,8 °C 15,8 °C 54 % 1021,2 hPa 0,0 mm 3,8 km/h (1 Bft) N-NO 22 ° 0 min 0,000 mm 1,4 UV-I 95 W/m² 6,5 °C 15,8 °C 6,4 km/h (2 Bft)
08.04.2017 17:07 15,7 °C 15,8 °C 56 % 1021,2 hPa 0,0 mm 2,9 km/h (1 Bft) N-NO 26 ° 0 min 0,000 mm 1,5 UV-I 127 W/m² 6,9 °C 15,7 °C 4,8 km/h (1 Bft)
08.04.2017 17:08 15,8 °C 15,8 °C 56 % 1021,2 hPa 0,0 mm 3,2 km/h (1 Bft) N-NO 26 ° 0 min 0,000 mm 1,5 UV-I 230 W/m² 7,0 °C 15,8 °C 4,8 km/h (1 Bft)
08.04.2017 17:09 15,8 °C 15,8 °C 56 % 1021,2 hPa 0,0 mm 2,7 km/h (1 Bft) N-NO 26 ° 0 min 0,000 mm 1,5 UV-I 220 W/m² 7,0 °C 15,8 °C 3,2 km/h (1 Bft)
08.04.2017 17:10 15,9 °C 15,9 °C 55 % 1021,2 hPa 0,0 mm 2,9 km/h (1 Bft) N-NO 26 ° 0 min 0,000 mm 1,6 UV-I 202 W/m² 6,9 °C 15,9 °C 4,8 km/h (1 Bft)
08.04.2017 17:11 15,9 °C 15,9 °C 54 % 1021,2 hPa 0,0 mm 4,1 km/h (1 Bft) N-NO 31 ° 0 min 0,000 mm 1,5 UV-I 213 W/m² 6,6 °C 15,9 °C 6,4 km/h (2 Bft)
08.04.2017 17:12 15,9 °C 15,9 °C 55 % 1021,2 hPa 0,0 mm 4,0 km/h (1 Bft) N-NO 17 ° 0 min 0,000 mm 1,5 UV-I 221 W/m² 6,9 °C 15,9 °C 6,4 km/h (2 Bft)
08.04.2017 17:13 15,9 °C 15,9 °C 55 % 1021,2 hPa 0,0 mm 3,5 km/h (1 Bft) N-NO 13 ° 0 min 0,000 mm 1,6 UV-I 255 W/m² 6,9 °C 15,9 °C 9,7 km/h (2 Bft)
08.04.2017 17:14 16,1 °C 16,1 °C 55 % 1021,2 hPa 0,0 mm 5,3 km/h (1 Bft) N-NO 15 ° 0 min 0,000 mm 1,6 UV-I 269 W/m² 7,1 °C 16,1 °C 8,0 km/h (2 Bft)
08.04.2017 17:15 16,0 °C 16,1 °C 54 % 1021,2 hPa 0,0 mm 1,4 km/h (1 Bft) N-NO 15 ° 0 min 0,000 mm 1,6 UV-I 262 W/m² 6,7 °C 16,0 °C 4,8 km/h (1 Bft)
08.04.2017 17:16 15,9 °C 16,0 °C 54 % 1021,2 hPa 0,0 mm 1,3 km/h (1 Bft) O-SO 115 ° 0 min 0,000 mm 1,5 UV-I 213 W/m² 6,6 °C 15,9 °C 3,2 km/h (1 Bft)
08.04.2017 17:17 15,9 °C 15,9 °C 55 % 1021,2 hPa 0,0 mm 0,2 km/h (0 Bft) O-SO 115 ° 0 min 0,000 mm 1,4 UV-I 134 W/m² 6,9 °C 15,9 °C 1,6 km/h (1 Bft)
08.04.2017 17:18 15,8 °C 15,9 °C 57 % 1021,2 hPa 0,0 mm 0,0 km/h (0 Bft) O-SO 115 ° 0 min 0,000 mm 1,4 UV-I 97 W/m² 7,3 °C 15,8 °C 0,0 km/h (0 Bft)
08.04.2017 17:19 15,8 °C 15,8 °C 56 % 1021,2 hPa 0,0 mm 0,3 km/h (0 Bft) O-SO 115 ° 0 min 0,000 mm 1,3 UV-I 113 W/m² 7,0 °C 15,8 °C 1,6 km/h (1 Bft)
08.04.2017 17:20 15,9 °C 15,9 °C 56 % 1021,2 hPa 0,0 mm 1,8 km/h (1 Bft) O-SO 113 ° 0 min 0,000 mm 1,4 UV-I 118 W/m² 7,1 °C 15,9 °C 3,2 km/h (1 Bft)
08.04.2017 17:21 15,9 °C 15,9 °C 55 % 1021,2 hPa 0,0 mm 0,0 km/h (0 Bft) O-SO 113 ° 0 min 0,000 mm 1,3 UV-I 130 W/m² 6,9 °C 15,9 °C 0,0 km/h (0 Bft)
08.04.2017 17:22 16,0 °C 16,0 °C 57 % 1021,2 hPa 0,0 mm 1,2 km/h (1 Bft) O-SO 113 ° 0 min 0,000 mm 1,3 UV-I 120 W/m² 7,5 °C 16,0 °C 3,2 km/h (1 Bft)
08.04.2017 17:23 16,0 °C 16,1 °C 55 % 1021,2 hPa 0,0 mm 2,1 km/h (1 Bft) N-NO 15 ° 0 min 0,000 mm 1,3 UV-I 102 W/m² 7,0 °C 16,0 °C 3,2 km/h (1 Bft)
08.04.2017 17:24 16,1 °C 16,1 °C 55 % 1021,3 hPa 0,0 mm 3,8 km/h (1 Bft) N 360 ° 0 min 0,000 mm 1,3 UV-I 79 W/m² 7,1 °C 16,1 °C 9,7 km/h (2 Bft)
08.04.2017 17:25 16,1 °C 16,1 °C 54 % 1021,3 hPa 0,0 mm 7,6 km/h (2 Bft) N-NO 26 ° 0 min 0,000 mm 1,3 UV-I 135 W/m² 6,8 °C 16,1 °C 12,9 km/h (3 Bft)
08.04.2017 17:26 16,1 °C 16,1 °C 54 % 1021,2 hPa 0,0 mm 5,0 km/h (1 Bft) N 355 ° 0 min 0,000 mm 1,4 UV-I 183 W/m² 6,8 °C 16,1 °C 8,0 km/h (2 Bft)
08.04.2017 17:27 16,1 °C 16,1 °C 55 % 1021,2 hPa 0,0 mm 2,3 km/h (1 Bft) NW 321 ° 0 min 0,000 mm 1,4 UV-I 153 W/m² 7,1 °C 16,1 °C 3,2 km/h (1 Bft)
08.04.2017 17:28 16,1 °C 16,1 °C 56 % 1021,2 hPa 0,0 mm 2,5 km/h (1 Bft) N-NO 17 ° 0 min 0,000 mm 1,3 UV-I 135 W/m² 7,3 °C 16,1 °C 4,8 km/h (1 Bft)
08.04.2017 17:29 16,1 °C 16,1 °C 54 % 1021,2 hPa 0,0 mm 2,8 km/h (1 Bft) N-NO 19 ° 0 min 0,000 mm 1,2 UV-I 95 W/m² 6,8 °C 16,1 °C 4,8 km/h (1 Bft)
08.04.2017 17:30 16,1 °C 16,1 °C 54 % 1021,2 hPa 0,0 mm 2,0 km/h (1 Bft) N-NO 19 ° 0 min 0,000 mm 1,2 UV-I 69 W/m² 6,8 °C 16,1 °C 3,2 km/h (1 Bft)
08.04.2017 17:31 16,1 °C 16,1 °C 55 % 1021,2 hPa 0,0 mm 3,8 km/h (1 Bft) O-NO 61 ° 0 min 0,000 mm 1,2 UV-I 60 W/m² 7,1 °C 16,1 °C 6,4 km/h (2 Bft)
08.04.2017 17:32 16,0 °C 16,1 °C 55 % 1021,2 hPa 0,0 mm 1,8 km/h (1 Bft) O-NO 62 ° 0 min 0,000 mm 1,2 UV-I 58 W/m² 7,0 °C 16,0 °C 3,2 km/h (1 Bft)
08.04.2017 17:33 15,9 °C 16,0 °C 54 % 1021,2 hPa 0,0 mm 0,4 km/h (0 Bft) O-NO 62 ° 0 min 0,000 mm 1,1 UV-I 60 W/m² 6,6 °C 15,9 °C 1,6 km/h (1 Bft)
08.04.2017 17:34 15,8 °C 15,9 °C 56 % 1021,2 hPa 0,0 mm 1,8 km/h (1 Bft) O-NO 62 ° 0 min 0,000 mm 1,1 UV-I 65 W/m² 7,0 °C 15,8 °C 3,2 km/h (1 Bft)
08.04.2017 17:35 15,8 °C 15,8 °C 55 % 1021,2 hPa 0,0 mm 0,3 km/h (0 Bft) O-NO 62 ° 0 min 0,000 mm 1,1 UV-I 76 W/m² 6,8 °C 15,8 °C 1,6 km/h (1 Bft)
08.04.2017 17:36 15,7 °C 15,8 °C 55 % 1021,2 hPa 0,0 mm 0,0 km/h (0 Bft) O-NO 62 ° 0 min 0,000 mm 1,1 UV-I 88 W/m² 6,7 °C 15,7 °C 0,0 km/h (0 Bft)
08.04.2017 17:37 15,8 °C 15,8 °C 56 % 1021,2 hPa 0,0 mm 1,5 km/h (1 Bft) NO 56 ° 0 min 0,000 mm 1,1 UV-I 84 W/m² 7,0 °C 15,8 °C 4,8 km/h (1 Bft)
08.04.2017 17:38 15,8 °C 15,8 °C 56 % 1021,2 hPa 0,0 mm 3,2 km/h (1 Bft) O-NO 65 ° 0 min 0,000 mm 1,1 UV-I 84 W/m² 7,0 °C 15,8 °C 4,8 km/h (1 Bft)
08.04.2017 17:39 15,8 °C 15,8 °C 56 % 1021,2 hPa 0,0 mm 3,4 km/h (1 Bft) NO 38 ° 0 min 0,000 mm 1,1 UV-I 69 W/m² 7,0 °C 15,8 °C 4,8 km/h (1 Bft)
08.04.2017 17:40 15,8 °C 15,8 °C 56 % 1021,2 hPa 0,0 mm 4,7 km/h (1 Bft) N-NO 22 ° 0 min 0,000 mm 1,1 UV-I 56 W/m² 7,0 °C 15,8 °C 6,4 km/h (2 Bft)
08.04.2017 17:41 15,8 °C 15,8 °C 56 % 1021,2 hPa 0,0 mm 4,0 km/h (1 Bft) NO 34 ° 0 min 0,000 mm 1,1 UV-I 56 W/m² 7,0 °C 15,8 °C 6,4 km/h (2 Bft)
08.04.2017 17:42 15,8 °C 15,8 °C 55 % 1021,2 hPa 0,0 mm 4,8 km/h (1 Bft) N 355 ° 0 min 0,000 mm 0,0 UV-I 54 W/m² 6,8 °C 15,8 °C 8,0 km/h (2 Bft)
08.04.2017 17:43 15,9 °C 15,9 °C 55 % 1021,2 hPa 0,0 mm 4,0 km/h (1 Bft) N-NO 26 ° 0 min 0,000 mm 0,0 UV-I 54 W/m² 6,9 °C 15,9 °C 4,8 km/h (1 Bft)
08.04.2017 17:44 15,9 °C 15,9 °C 55 % 1021,2 hPa 0,0 mm 4,6 km/h (1 Bft) N-NO 25 ° 0 min 0,000 mm 1,0 UV-I 91 W/m² 6,9 °C 15,9 °C 6,4 km/h (2 Bft)
08.04.2017 17:45 15,9 °C 15,9 °C 54 % 1021,2 hPa 0,0 mm 3,8 km/h (1 Bft) N-NO 20 ° 0 min 0,000 mm 1,1 UV-I 104 W/m² 6,6 °C 15,9 °C 4,8 km/h (1 Bft)
08.04.2017 17:46 15,9 °C 15,9 °C 55 % 1021,2 hPa 0,0 mm 3,4 km/h (1 Bft) N-NO 20 ° 0 min 0,000 mm 1,0 UV-I 74 W/m² 6,9 °C 15,9 °C 4,8 km/h (1 Bft)
08.04.2017 17:47 15,9 °C 15,9 °C 56 % 1021,1 hPa 0,0 mm 4,3 km/h (1 Bft) NO 48 ° 0 min 0,000 mm 0,0 UV-I 54 W/m² 7,1 °C 15,9 °C 6,4 km/h (2 Bft)
08.04.2017 17:48 15,9 °C 15,9 °C 60 % 1021,2 hPa 0,0 mm 0,4 km/h (0 Bft) NO 48 ° 0 min 0,000 mm 0,0 UV-I 53 W/m² 8,1 °C 15,9 °C 1,6 km/h (1 Bft)
08.04.2017 17:49 15,8 °C 15,9 °C 57 % 1021,1 hPa 0,0 mm 2,7 km/h (1 Bft) NO 51 ° 0 min 0,000 mm 0,0 UV-I 53 W/m² 7,3 °C 15,8 °C 4,8 km/h (1 Bft)
08.04.2017 17:50 15,8 °C 15,8 °C 55 % 1021,1 hPa 0,0 mm 3,0 km/h (1 Bft) NO 51 ° 0 min 0,000 mm 1,0 UV-I 98 W/m² 6,8 °C 15,8 °C 4,8 km/h (1 Bft)
08.04.2017 17:51 15,8 °C 15,8 °C 56 % 1021,1 hPa 0,0 mm 3,0 km/h (1 Bft) NO 51 ° 0 min 0,000 mm 1,0 UV-I 111 W/m² 7,0 °C 15,8 °C 4,8 km/h (1 Bft)
08.04.2017 17:52 15,8 °C 15,8 °C 55 % 1021,1 hPa 0,0 mm 1,4 km/h (1 Bft) NO 51 ° 0 min 0,000 mm 1,0 UV-I 90 W/m² 6,8 °C 15,8 °C 3,2 km/h (1 Bft)
08.04.2017 17:53 15,8 °C 15,8 °C 56 % 1021,2 hPa 0,0 mm 0,0 km/h (0 Bft) NO 51 ° 0 min 0,000 mm 1,0 UV-I 76 W/m² 7,0 °C 15,8 °C 0,0 km/h (0 Bft)
08.04.2017 17:54 15,8 °C 15,8 °C 58 % 1021,1 hPa 0,0 mm 0,1 km/h (0 Bft) NO 51 ° 0 min 0,000 mm 0,9 UV-I 83 W/m² 7,6 °C 15,8 °C 1,6 km/h (1 Bft)
08.04.2017 17:55 15,7 °C 15,8 °C 56 % 1021,1 hPa 0,0 mm 2,6 km/h (1 Bft) NO 51 ° 0 min 0,000 mm 1,0 UV-I 128 W/m² 6,9 °C 15,7 °C 4,8 km/h (1 Bft)
08.04.2017 17:56 15,7 °C 15,7 °C 55 % 1021,1 hPa 0,0 mm 4,0 km/h (1 Bft) NO 51 ° 0 min 0,000 mm 1,0 UV-I 91 W/m² 6,7 °C 15,7 °C 4,8 km/h (1 Bft)
08.04.2017 17:57 15,7 °C 15,7 °C 55 % 1021,1 hPa 0,0 mm 2,7 km/h (1 Bft) NO 51 ° 0 min 0,000 mm 0,9 UV-I 62 W/m² 6,7 °C 15,7 °C 4,8 km/h (1 Bft)
08.04.2017 17:58 15,7 °C 15,7 °C 55 % 1021,1 hPa 0,0 mm 1,5 km/h (1 Bft) NO 51 ° 0 min 0,000 mm 0,9 UV-I 58 W/m² 6,7 °C 15,7 °C 3,2 km/h (1 Bft)
08.04.2017 17:59 15,7 °C 15,7 °C 57 % 1021,2 hPa 0,0 mm 3,4 km/h (1 Bft) NO 51 ° 0 min 0,000 mm 0,0 UV-I 54 W/m² 7,2 °C 15,7 °C 4,8 km/h (1 Bft)
08.04.2017 18:00 15,7 °C 15,7 °C 56 % 1021,1 hPa 0,0 mm 1,2 km/h (1 Bft) NO 51 ° 0 min 0,000 mm 0,0 UV-I 51 W/m² 6,9 °C 15,7 °C 3,2 km/h (1 Bft)
08.04.2017 18:01 15,7 °C 15,7 °C 56 % 1021,2 hPa 0,0 mm 2,2 km/h (1 Bft) NO 51 ° 0 min 0,000 mm 0,0 UV-I 51 W/m² 6,9 °C 15,7 °C 3,2 km/h (1 Bft)
08.04.2017 18:02 15,8 °C 15,8 °C 56 % 1021,1 hPa 0,0 mm 2,7 km/h (1 Bft) N 10 ° 0 min 0,000 mm 0,0 UV-I 67 W/m² 7,0 °C 15,8 °C 6,4 km/h (2 Bft)
08.04.2017 18:03 15,8 °C 15,8 °C 55 % 1021,2 hPa 0,0 mm 1,0 km/h (0 Bft) N 10 ° 0 min 0,000 mm 0,9 UV-I 105 W/m² 6,8 °C 15,8 °C 3,2 km/h (1 Bft)
08.04.2017 18:04 15,7 °C 15,8 °C 56 % 1021,1 hPa 0,0 mm 1,0 km/h (0 Bft) N 10 ° 0 min 0,000 mm 0,9 UV-I 128 W/m² 6,9 °C 15,7 °C 3,2 km/h (1 Bft)
08.04.2017 18:05 15,7 °C 15,7 °C 55 % 1021,1 hPa 0,0 mm 1,1 km/h (1 Bft) N 10 ° 0 min 0,000 mm 0,9 UV-I 142 W/m² 6,7 °C 15,7 °C 3,2 km/h (1 Bft)
08.04.2017 18:06 15,7 °C 15,7 °C 56 % 1021,2 hPa 0,0 mm 0,0 km/h (0 Bft) N 10 ° 0 min 0,000 mm 0,9 UV-I 183 W/m² 6,9 °C 15,7 °C 0,0 km/h (0 Bft)
08.04.2017 18:07 15,7 °C 15,7 °C 55 % 1021,1 hPa 0,0 mm 0,0 km/h (0 Bft) N 10 ° 0 min 0,000 mm 0,9 UV-I 111 W/m² 6,7 °C 15,7 °C 0,0 km/h (0 Bft)
08.04.2017 18:08 15,7 °C 15,7 °C 57 % 1021,1 hPa 0,0 mm 0,7 km/h (0 Bft) N 10 ° 0 min 0,000 mm 0,0 UV-I 54 W/m² 7,2 °C 15,7 °C 1,6 km/h (1 Bft)
08.04.2017 18:09 15,7 °C 15,7 °C 56 % 1021,2 hPa 0,0 mm 0,2 km/h (0 Bft) N 10 ° 0 min 0,000 mm 0,0 UV-I 47 W/m² 6,9 °C 15,7 °C 1,6 km/h (1 Bft)
08.04.2017 18:10 15,7 °C 15,7 °C 58 % 1021,2 hPa 0,0 mm 1,9 km/h (1 Bft) NO 36 ° 0 min 0,000 mm 0,0 UV-I 47 W/m² 7,5 °C 15,7 °C 3,2 km/h (1 Bft)
08.04.2017 18:11 15,6 °C 15,7 °C 55 % 1021,2 hPa 0,0 mm 3,2 km/h (1 Bft) O-NO 69 ° 0 min 0,000 mm 0,0 UV-I 47 W/m² 6,6 °C 15,6 °C 4,8 km/h (1 Bft)
08.04.2017 18:12 15,6 °C 15,6 °C 56 % 1021,2 hPa 0,0 mm 1,9 km/h (1 Bft) O-NO 69 ° 0 min 0,000 mm 0,0 UV-I 47 W/m² 6,9 °C 15,6 °C 3,2 km/h (1 Bft)
08.04.2017 18:13 15,6 °C 15,6 °C 56 % 1021,2 hPa 0,0 mm 1,4 km/h (1 Bft) NO 55 ° 0 min 0,000 mm 0,0 UV-I 47 W/m² 6,9 °C 15,6 °C 3,2 km/h (1 Bft)
08.04.2017 18:14 15,6 °C 15,6 °C 56 % 1021,2 hPa 0,0 mm 2,1 km/h (1 Bft) NO 53 ° 0 min 0,000 mm 0,0 UV-I 47 W/m² 6,9 °C 15,6 °C 3,2 km/h (1 Bft)
08.04.2017 18:15 15,6 °C 15,6 °C 56 % 1021,2 hPa 0,0 mm 0,6 km/h (0 Bft) NO 53 ° 0 min 0,000 mm 0,0 UV-I 51 W/m² 6,9 °C 15,6 °C 1,6 km/h (1 Bft)
08.04.2017 18:16 15,6 °C 15,6 °C 56 % 1021,2 hPa 0,0 mm 3,6 km/h (1 Bft) N-NO 30 ° 0 min 0,000 mm 0,7 UV-I 76 W/m² 6,9 °C 15,6 °C 6,4 km/h (2 Bft)
08.04.2017 18:17 15,7 °C 15,7 °C 56 % 1021,2 hPa 0,0 mm 2,2 km/h (1 Bft) N-NO 28 ° 0 min 0,000 mm 0,7 UV-I 90 W/m² 6,9 °C 15,7 °C 4,8 km/h (1 Bft)
08.04.2017 18:18 15,8 °C 15,8 °C 55 % 1021,2 hPa 0,0 mm 1,0 km/h (0 Bft) N-NO 27 ° 0 min 0,000 mm 0,7 UV-I 76 W/m² 6,8 °C 15,8 °C 3,2 km/h (1 Bft)
08.04.2017 18:19 15,8 °C 15,8 °C 55 % 1021,2 hPa 0,0 mm 3,1 km/h (1 Bft) N 11 ° 0 min 0,000 mm 0,7 UV-I 81 W/m² 6,8 °C 15,8 °C 6,4 km/h (2 Bft)
08.04.2017 18:20 15,8 °C 15,8 °C 55 % 1021,2 hPa 0,0 mm 4,5 km/h (1 Bft) NO 53 ° 0 min 0,000 mm 0,7 UV-I 81 W/m² 6,8 °C 15,8 °C 6,4 km/h (2 Bft)
08.04.2017 18:21 15,8 °C 15,8 °C 56 % 1021,2 hPa 0,0 mm 3,0 km/h (1 Bft) NO 44 ° 0 min 0,000 mm 0,7 UV-I 60 W/m² 7,0 °C 15,8 °C 4,8 km/h (1 Bft)
08.04.2017 18:22 15,7 °C 15,8 °C 59 % 1021,2 hPa 0,0 mm 1,0 km/h (0 Bft) NO 44 ° 0 min 0,000 mm 0,0 UV-I 54 W/m² 7,7 °C 15,7 °C 3,2 km/h (1 Bft)
08.04.2017 18:23 15,6 °C 15,7 °C 57 % 1021,2 hPa 0,0 mm 4,2 km/h (1 Bft) NO 44 ° 0 min 0,000 mm 0,0 UV-I 46 W/m² 7,1 °C 15,6 °C 6,4 km/h (2 Bft)
08.04.2017 18:24 15,5 °C 15,6 °C 56 % 1021,3 hPa 0,0 mm 3,2 km/h (1 Bft) NO 44 ° 0 min 0,000 mm 0,0 UV-I 46 W/m² 6,8 °C 15,5 °C 4,8 km/h (1 Bft)
08.04.2017 18:25 15,5 °C 15,6 °C 56 % 1021,3 hPa 0,0 mm 2,4 km/h (1 Bft) O-NO 75 ° 0 min 0,000 mm 0,0 UV-I 44 W/m² 6,8 °C 15,5 °C 4,8 km/h (1 Bft)
08.04.2017 18:26 15,4 °C 15,5 °C 59 % 1021,3 hPa 0,0 mm 3,8 km/h (1 Bft) NO 38 ° 0 min 0,000 mm 0,0 UV-I 44 W/m² 7,4 °C 15,4 °C 6,4 km/h (2 Bft)
08.04.2017 18:27 15,4 °C 15,4 °C 57 % 1021,2 hPa 0,0 mm 4,6 km/h (1 Bft) N-NO 26 ° 0 min 0,000 mm 0,0 UV-I 46 W/m² 6,9 °C 15,4 °C 6,4 km/h (2 Bft)
08.04.2017 18:28 15,4 °C 15,4 °C 60 % 1021,3 hPa 0,0 mm 0,4 km/h (0 Bft) N-NO 26 ° 0 min 0,000 mm 0,0 UV-I 49 W/m² 7,7 °C 15,4 °C 1,6 km/h (1 Bft)
08.04.2017 18:29 15,3 °C 15,4 °C 60 % 1021,3 hPa 0,0 mm 0,6 km/h (0 Bft) N-NO 26 ° 0 min 0,000 mm 0,0 UV-I 49 W/m² 7,6 °C 15,3 °C 3,2 km/h (1 Bft)
08.04.2017 18:30 15,2 °C 15,3 °C 59 % 1021,3 hPa 0,0 mm 2,5 km/h (1 Bft) NO 34 ° 0 min 0,000 mm 0,0 UV-I 62 W/m² 7,2 °C 15,2 °C 4,8 km/h (1 Bft)
08.04.2017 18:31 15,2 °C 15,2 °C 58 % 1021,2 hPa 0,0 mm 1,8 km/h (1 Bft) NO 34 ° 0 min 0,000 mm 0,6 UV-I 83 W/m² 7,0 °C 15,2 °C 3,2 km/h (1 Bft)
08.04.2017 18:32 15,3 °C 15,3 °C 58 % 1021,2 hPa 0,0 mm 1,5 km/h (1 Bft) NO 34 ° 0 min 0,000 mm 0,6 UV-I 104 W/m² 7,1 °C 15,3 °C 4,8 km/h (1 Bft)
08.04.2017 18:33 15,3 °C 15,3 °C 58 % 1021,3 hPa 0,0 mm 3,1 km/h (1 Bft) NO 34 ° 0 min 0,000 mm 0,6 UV-I 102 W/m² 7,1 °C 15,3 °C 4,8 km/h (1 Bft)
08.04.2017 18:34 15,3 °C 15,3 °C 59 % 1021,2 hPa 0,0 mm 1,7 km/h (1 Bft) NO 34 ° 0 min 0,000 mm 0,6 UV-I 81 W/m² 7,3 °C 15,3 °C 3,2 km/h (1 Bft)
08.04.2017 18:35 15,3 °C 15,3 °C 60 % 1021,3 hPa 0,0 mm 0,5 km/h (0 Bft) NO 34 ° 0 min 0,000 mm 0,6 UV-I 69 W/m² 7,6 °C 15,3 °C 1,6 km/h (1 Bft)
08.04.2017 18:36 15,3 °C 15,3 °C 59 % 1021,3 hPa 0,0 mm 0,3 km/h (0 Bft) NO 34 ° 0 min 0,000 mm 0,6 UV-I 53 W/m² 7,3 °C 15,3 °C 1,6 km/h (1 Bft)
08.04.2017 18:37 15,3 °C 15,3 °C 59 % 1021,3 hPa 0,0 mm 0,1 km/h (0 Bft) NO 34 ° 0 min 0,000 mm 0,0 UV-I 62 W/m² 7,3 °C 15,3 °C 1,6 km/h (1 Bft)
08.04.2017 18:38 15,2 °C 15,3 °C 59 % 1021,3 hPa 0,0 mm 0,0 km/h (0 Bft) NO 34 ° 0 min 0,000 mm 0,5 UV-I 63 W/m² 7,2 °C 15,2 °C 0,0 km/h (0 Bft)
08.04.2017 18:39 15,2 °C 15,2 °C 58 % 1021,3 hPa 0,0 mm 0,7 km/h (0 Bft) NO 34 ° 0 min 0,000 mm 0,0 UV-I 54 W/m² 7,0 °C 15,2 °C 1,6 km/h (1 Bft)
08.04.2017 18:40 15,2 °C 15,2 °C 62 % 1021,2 hPa 0,0 mm 0,3 km/h (0 Bft) NO 34 ° 0 min 0,000 mm 0,0 UV-I 49 W/m² 8,0 °C 15,2 °C 1,6 km/h (1 Bft)
08.04.2017 18:41 15,1 °C 15,2 °C 60 % 1021,3 hPa 0,0 mm 1,0 km/h (0 Bft) NO 34 ° 0 min 0,000 mm 0,0 UV-I 49 W/m² 7,4 °C 15,1 °C 3,2 km/h (1 Bft)
08.04.2017 18:42 15,1 °C 15,1 °C 60 % 1021,3 hPa 0,0 mm 0,0 km/h (0 Bft) NO 34 ° 0 min 0,000 mm 0,0 UV-I 47 W/m² 7,4 °C 15,1 °C 0,0 km/h (0 Bft)
08.04.2017 18:43 15,1 °C 15,1 °C 60 % 1021,2 hPa 0,0 mm 1,2 km/h (1 Bft) NO 34 ° 0 min 0,000 mm 0,0 UV-I 42 W/m² 7,4 °C 15,1 °C 3,2 km/h (1 Bft)
08.04.2017 18:44 14,9 °C 15,1 °C 60 % 1021,2 hPa 0,0 mm 0,2 km/h (0 Bft) NO 34 ° 0 min 0,000 mm 0,0 UV-I 42 W/m² 7,2 °C 14,9 °C 1,6 km/h (1 Bft)
08.04.2017 18:45 14,9 °C 14,9 °C 58 % 1021,3 hPa 0,0 mm 0,0 km/h (0 Bft) NO 34 ° 0 min 0,000 mm 0,0 UV-I 40 W/m² 6,7 °C 14,9 °C 0,0 km/h (0 Bft)
08.04.2017 18:46 15,0 °C 15,0 °C 59 % 1021,3 hPa 0,0 mm 0,1 km/h (0 Bft) NO 34 ° 0 min 0,000 mm 0,0 UV-I 37 W/m² 7,1 °C 15,0 °C 1,6 km/h (1 Bft)
08.04.2017 18:47 14,9 °C 15,0 °C 60 % 1021,3 hPa 0,0 mm 0,4 km/h (0 Bft) NO 34 ° 0 min 0,000 mm 0,0 UV-I 37 W/m² 7,2 °C 14,9 °C 1,6 km/h (1 Bft)
08.04.2017 18:48 14,9 °C 15,0 °C 60 % 1021,3 hPa 0,0 mm 1,5 km/h (1 Bft) NO 34 ° 0 min 0,000 mm 0,0 UV-I 39 W/m² 7,2 °C 14,9 °C 3,2 km/h (1 Bft)
08.04.2017 18:49 14,9 °C 15,0 °C 61 % 1021,2 hPa 0,0 mm 1,6 km/h (1 Bft) NO 34 ° 0 min 0,000 mm 0,0 UV-I 46 W/m² 7,4 °C 14,9 °C 3,2 km/h (1 Bft)
08.04.2017 18:50 14,9 °C 14,9 °C 60 % 1021,2 hPa 0,0 mm 0,3 km/h (0 Bft) NO 34 ° 0 min 0,000 mm 0,0 UV-I 58 W/m² 7,2 °C 14,9 °C 1,6 km/h (1 Bft)
08.04.2017 18:51 14,9 °C 14,9 °C 60 % 1021,2 hPa 0,0 mm 0,0 km/h (0 Bft) NO 34 ° 0 min 0,000 mm 0,0 UV-I 69 W/m² 7,2 °C 14,9 °C 0,0 km/h (0 Bft)
08.04.2017 18:52 14,9 °C 14,9 °C 60 % 1021,2 hPa 0,0 mm 0,4 km/h (0 Bft) NO 34 ° 0 min 0,000 mm 0,0 UV-I 70 W/m² 7,2 °C 14,9 °C 3,2 km/h (1 Bft)
08.04.2017 18:53 14,9 °C 14,9 °C 59 % 1021,2 hPa 0,0 mm 3,3 km/h (1 Bft) NO 34 ° 0 min 0,000 mm 0,0 UV-I 69 W/m² 7,0 °C 14,9 °C 6,4 km/h (2 Bft)
08.04.2017 18:54 14,8 °C 14,9 °C 60 % 1021,2 hPa 0,0 mm 0,3 km/h (0 Bft) NO 34 ° 0 min 0,000 mm 0,0 UV-I 63 W/m² 7,1 °C 14,8 °C 1,6 km/h (1 Bft)
08.04.2017 18:55 14,9 °C 14,9 °C 60 % 1021,2 hPa 0,0 mm 0,1 km/h (0 Bft) NO 34 ° 0 min 0,000 mm 0,0 UV-I 69 W/m² 7,2 °C 14,9 °C 1,6 km/h (1 Bft)
08.04.2017 18:56 14,9 °C 14,9 °C 60 % 1021,2 hPa 0,0 mm 0,9 km/h (0 Bft) NO 34 ° 0 min 0,000 mm 0,0 UV-I 77 W/m² 7,2 °C 14,9 °C 3,2 km/h (1 Bft)
08.04.2017 18:57 14,8 °C 14,9 °C 60 % 1021,2 hPa 0,0 mm 0,0 km/h (0 Bft) NO 34 ° 0 min 0,000 mm 0,0 UV-I 72 W/m² 7,1 °C 14,8 °C 0,0 km/h (0 Bft)
08.04.2017 18:58 14,7 °C 14,8 °C 61 % 1021,2 hPa 0,0 mm 0,0 km/h (0 Bft) NO 34 ° 0 min 0,000 mm 0,0 UV-I 69 W/m² 7,3 °C 14,7 °C 0,0 km/h (0 Bft)
08.04.2017 18:59 14,7 °C 14,7 °C 60 % 1021,2 hPa 0,0 mm 2,5 km/h (1 Bft) N-NO 28 ° 0 min 0,000 mm 0,0 UV-I 69 W/m² 7,0 °C 14,7 °C 4,8 km/h (1 Bft)
08.04.2017 19:00 14,7 °C 14,7 °C 61 % 1021,2 hPa 0,0 mm 0,1 km/h (0 Bft) N-NO 28 ° 0 min 0,000 mm 0,0 UV-I 51 W/m² 7,3 °C 14,7 °C 1,6 km/h (1 Bft)
08.04.2017 19:01 14,6 °C 14,7 °C 62 % 1021,2 hPa 0,0 mm 0,0 km/h (0 Bft) N-NO 28 ° 0 min 0,000 mm 0,0 UV-I 46 W/m² 7,4 °C 14,6 °C 0,0 km/h (0 Bft)
08.04.2017 19:02 14,6 °C 14,6 °C 60 % 1021,2 hPa 0,0 mm 0,0 km/h (0 Bft) N-NO 28 ° 0 min 0,000 mm 0,0 UV-I 42 W/m² 6,9 °C 14,6 °C 0,0 km/h (0 Bft)
08.04.2017 19:03 14,6 °C 14,6 °C 60 % 1021,2 hPa 0,0 mm 0,0 km/h (0 Bft) N-NO 28 ° 0 min 0,000 mm 0,0 UV-I 46 W/m² 6,9 °C 14,6 °C 0,0 km/h (0 Bft)
08.04.2017 19:04 14,6 °C 14,6 °C 60 % 1021,2 hPa 0,0 mm 0,0 km/h (0 Bft) N-NO 28 ° 0 min 0,000 mm 0,0 UV-I 47 W/m² 6,9 °C 14,6 °C 0,0 km/h (0 Bft)
08.04.2017 19:05 14,6 °C 14,6 °C 61 % 1021,2 hPa 0,0 mm 0,0 km/h (0 Bft) N-NO 28 ° 0 min 0,000 mm 0,0 UV-I 49 W/m² 7,2 °C 14,6 °C 0,0 km/h (0 Bft)
08.04.2017 19:06 14,5 °C 14,6 °C 61 % 1021,2 hPa 0,0 mm 0,0 km/h (0 Bft) N-NO 28 ° 0 min 0,000 mm 0,0 UV-I 49 W/m² 7,1 °C 14,5 °C 0,0 km/h (0 Bft)
08.04.2017 19:07 14,4 °C 14,5 °C 61 % 1021,2 hPa 0,0 mm 0,0 km/h (0 Bft) N-NO 28 ° 0 min 0,000 mm 0,0 UV-I 49 W/m² 7,0 °C 14,4 °C 0,0 km/h (0 Bft)
08.04.2017 19:08 14,3 °C 14,4 °C 62 % 1021,2 hPa 0,0 mm 0,2 km/h (0 Bft) N-NO 29 ° 0 min 0,000 mm 0,0 UV-I 46 W/m² 7,1 °C 14,3 °C 1,6 km/h (1 Bft)
08.04.2017 19:09 14,2 °C 14,3 °C 63 % 1021,2 hPa 0,0 mm 0,0 km/h (0 Bft) N-NO 28 ° 0 min 0,000 mm 0,0 UV-I 44 W/m² 7,3 °C 14,2 °C 0,0 km/h (0 Bft)
08.04.2017 19:10 14,1 °C 14,2 °C 64 % 1021,2 hPa 0,0 mm 0,0 km/h (0 Bft) N-NO 28 ° 0 min 0,000 mm 0,0 UV-I 44 W/m² 7,4 °C 14,1 °C 0,0 km/h (0 Bft)
08.04.2017 19:11 14,1 °C 14,1 °C 63 % 1021,2 hPa 0,0 mm 0,0 km/h (0 Bft) N-NO 28 ° 0 min 0,000 mm 0,0 UV-I 51 W/m² 7,2 °C 14,1 °C 0,0 km/h (0 Bft)
08.04.2017 19:12 14,1 °C 14,1 °C 64 % 1021,2 hPa 0,0 mm 0,0 km/h (0 Bft) N-NO 28 ° 0 min 0,000 mm 0,0 UV-I 47 W/m² 7,4 °C 14,1 °C 0,0 km/h (0 Bft)
08.04.2017 19:13 13,9 °C 14,1 °C 66 % 1021,2 hPa 0,0 mm 0,0 km/h (0 Bft) N-NO 28 ° 0 min 0,000 mm 0,0 UV-I 46 W/m² 7,7 °C 13,9 °C 0,0 km/h (0 Bft)
08.04.2017 19:14 13,9 °C 13,9 °C 65 % 1021,2 hPa 0,0 mm 0,5 km/h (0 Bft) N-NO 29 ° 0 min 0,000 mm 0,0 UV-I 44 W/m² 7,4 °C 13,9 °C 1,6 km/h (1 Bft)
08.04.2017 19:15 13,8 °C 13,9 °C 65 % 1021,2 hPa 0,0 mm 0,8 km/h (0 Bft) N-NO 29 ° 0 min 0,000 mm 0,0 UV-I 42 W/m² 7,3 °C 13,8 °C 1,6 km/h (1 Bft)
08.04.2017 19:16 13,8 °C 13,8 °C 64 % 1021,2 hPa 0,0 mm 0,0 km/h (0 Bft) N-NO 29 ° 0 min 0,000 mm 0,0 UV-I 42 W/m² 7,1 °C 13,8 °C 0,0 km/h (0 Bft)
08.04.2017 19:17 13,9 °C 13,9 °C 64 % 1021,2 hPa 0,0 mm 0,1 km/h (0 Bft) N-NO 29 ° 0 min 0,000 mm 0,0 UV-I 40 W/m² 7,2 °C 13,9 °C 1,6 km/h (1 Bft)
08.04.2017 19:18 13,9 °C 13,9 °C 64 % 1021,2 hPa 0,0 mm 0,5 km/h (0 Bft) N-NO 29 ° 0 min 0,000 mm 0,0 UV-I 37 W/m² 7,2 °C 13,9 °C 1,6 km/h (1 Bft)
08.04.2017 19:19 13,9 °C 14,0 °C 64 % 1021,2 hPa 0,0 mm 0,0 km/h (0 Bft) N-NO 29 ° 0 min 0,000 mm 0,0 UV-I 35 W/m² 7,2 °C 13,9 °C 0,0 km/h (0 Bft)
08.04.2017 19:20 14,0 °C 14,0 °C 64 % 1021,2 hPa 0,0 mm 0,5 km/h (0 Bft) N-NO 29 ° 0 min 0,000 mm 0,0 UV-I 35 W/m² 7,3 °C 14,0 °C 1,6 km/h (1 Bft)
08.04.2017 19:21 14,1 °C 14,1 °C 63 % 1021,2 hPa 0,0 mm 0,2 km/h (0 Bft) N-NO 29 ° 0 min 0,000 mm 0,0 UV-I 33 W/m² 7,2 °C 14,1 °C 1,6 km/h (1 Bft)
08.04.2017 19:22 14,1 °C 14,1 °C 64 % 1021,2 hPa 0,0 mm 0,7 km/h (0 Bft) N-NO 29 ° 0 min 0,000 mm 0,0 UV-I 32 W/m² 7,4 °C 14,1 °C 1,6 km/h (1 Bft)
08.04.2017 19:23 14,1 °C 14,1 °C 63 % 1021,2 hPa 0,0 mm 0,9 km/h (0 Bft) N-NO 29 ° 0 min 0,000 mm 0,0 UV-I 30 W/m² 7,2 °C 14,1 °C 1,6 km/h (1 Bft)
08.04.2017 19:24 14,1 °C 14,1 °C 64 % 1021,2 hPa 0,0 mm 0,7 km/h (0 Bft) N-NO 29 ° 0 min 0,000 mm 0,0 UV-I 28 W/m² 7,4 °C 14,1 °C 1,6 km/h (1 Bft)
08.04.2017 19:25 13,9 °C 14,1 °C 64 % 1021,3 hPa 0,0 mm 1,2 km/h (1 Bft) N-NO 29 ° 0 min 0,000 mm 0,0 UV-I 26 W/m² 7,2 °C 13,9 °C 3,2 km/h (1 Bft)
08.04.2017 19:26 13,9 °C 13,9 °C 64 % 1021,2 hPa 0,0 mm 0,7 km/h (0 Bft) N-NO 29 ° 0 min 0,000 mm 0,0 UV-I 26 W/m² 7,2 °C 13,9 °C 1,6 km/h (1 Bft)
08.04.2017 19:27 13,9 °C 13,9 °C 64 % 1021,2 hPa 0,0 mm 0,4 km/h (0 Bft) N-NO 29 ° 0 min 0,000 mm 0,0 UV-I 25 W/m² 7,2 °C 13,9 °C 1,6 km/h (1 Bft)
08.04.2017 19:28 13,8 °C 13,9 °C 64 % 1021,3 hPa 0,0 mm 2,1 km/h (1 Bft) N-NO 29 ° 0 min 0,000 mm 0,0 UV-I 25 W/m² 7,1 °C 13,8 °C 3,2 km/h (1 Bft)
08.04.2017 19:29 13,8 °C 13,9 °C 64 % 1021,3 hPa 0,0 mm 1,7 km/h (1 Bft) N-NO 29 ° 0 min 0,000 mm 0,0 UV-I 21 W/m² 7,1 °C 13,8 °C 3,2 km/h (1 Bft)
08.04.2017 19:30 13,8 °C 13,8 °C 64 % 1021,3 hPa 0,0 mm 1,9 km/h (1 Bft) N-NO 29 ° 0 min 0,000 mm 0,0 UV-I 19 W/m² 7,1 °C 13,8 °C 3,2 km/h (1 Bft)
08.04.2017 19:31 13,8 °C 13,8 °C 63 % 1021,3 hPa 0,0 mm 1,7 km/h (1 Bft) O-NO 60 ° 0 min 0,000 mm 0,0 UV-I 19 W/m² 6,9 °C 13,8 °C 3,2 km/h (1 Bft)
08.04.2017 19:32 13,8 °C 13,8 °C 64 % 1021,3 hPa 0,0 mm 3,0 km/h (1 Bft) O-NO 77 ° 0 min 0,000 mm 0,0 UV-I 18 W/m² 7,1 °C 13,8 °C 4,8 km/h (1 Bft)
08.04.2017 19:33 13,7 °C 13,8 °C 64 % 1021,3 hPa 0,0 mm 2,4 km/h (1 Bft) O-NO 77 ° 0 min 0,000 mm 0,0 UV-I 18 W/m² 7,0 °C 13,7 °C 3,2 km/h (1 Bft)
08.04.2017 19:34 13,7 °C 13,7 °C 64 % 1021,3 hPa 0,0 mm 2,8 km/h (1 Bft) O-NO 77 ° 0 min 0,000 mm 0,0 UV-I 16 W/m² 7,0 °C 13,7 °C 3,2 km/h (1 Bft)
08.04.2017 19:35 13,6 °C 13,7 °C 64 % 1021,3 hPa 0,0 mm 3,3 km/h (1 Bft) O-NO 77 ° 0 min 0,000 mm 0,0 UV-I 16 W/m² 6,9 °C 13,6 °C 4,8 km/h (1 Bft)
08.04.2017 19:36 13,6 °C 13,6 °C 64 % 1021,3 hPa 0,0 mm 3,0 km/h (1 Bft) O-NO 77 ° 0 min 0,000 mm 0,0 UV-I 14 W/m² 6,9 °C 13,6 °C 3,2 km/h (1 Bft)
08.04.2017 19:37 13,6 °C 13,6 °C 65 % 1021,3 hPa 0,0 mm 3,4 km/h (1 Bft) O-NO 77 ° 0 min 0,000 mm 0,0 UV-I 14 W/m² 7,1 °C 13,6 °C 4,8 km/h (1 Bft)
08.04.2017 19:38 13,4 °C 13,6 °C 66 % 1021,3 hPa 0,0 mm 3,6 km/h (1 Bft) O-NO 77 ° 0 min 0,000 mm 0,0 UV-I 14 W/m² 7,2 °C 13,4 °C 4,8 km/h (1 Bft)
08.04.2017 19:39 13,4 °C 13,4 °C 66 % 1021,4 hPa 0,0 mm 3,4 km/h (1 Bft) O-NO 77 ° 0 min 0,000 mm 0,0 UV-I 12 W/m² 7,2 °C 13,4 °C 4,8 km/h (1 Bft)
08.04.2017 19:40 13,3 °C 13,4 °C 66 % 1021,4 hPa 0,0 mm 3,2 km/h (1 Bft) O-NO 77 ° 0 min 0,000 mm 0,0 UV-I 12 W/m² 7,1 °C 13,3 °C 4,8 km/h (1 Bft)
08.04.2017 19:41 13,2 °C 13,3 °C 66 % 1021,4 hPa 0,0 mm 4,0 km/h (1 Bft) O-NO 77 ° 0 min 0,000 mm 0,0 UV-I 12 W/m² 7,0 °C 13,2 °C 4,8 km/h (1 Bft)
08.04.2017 19:42 13,2 °C 13,2 °C 66 % 1021,4 hPa 0,0 mm 3,6 km/h (1 Bft) O-NO 77 ° 0 min 0,000 mm 0,0 UV-I 11 W/m² 7,0 °C 13,2 °C 4,8 km/h (1 Bft)
08.04.2017 19:43 13,1 °C 13,2 °C 67 % 1021,4 hPa 0,0 mm 4,4 km/h (1 Bft) O-NO 78 ° 0 min 0,000 mm 0,0 UV-I 11 W/m² 7,1 °C 13,1 °C 4,8 km/h (1 Bft)
08.04.2017 19:44 13,1 °C 13,1 °C 67 % 1021,4 hPa 0,0 mm 4,4 km/h (1 Bft) O-NO 78 ° 0 min 0,000 mm 0,0 UV-I 11 W/m² 7,1 °C 13,1 °C 4,8 km/h (1 Bft)
08.04.2017 19:45 13,1 °C 13,1 °C 67 % 1021,5 hPa 0,0 mm 4,0 km/h (1 Bft) O-NO 78 ° 0 min 0,000 mm 0,0 UV-I 9 W/m² 7,1 °C 13,1 °C 4,8 km/h (1 Bft)
08.04.2017 19:46 13,0 °C 13,1 °C 68 % 1021,5 hPa 0,0 mm 3,3 km/h (1 Bft) O-NO 78 ° 0 min 0,000 mm 0,0 UV-I 9 W/m² 7,2 °C 13,0 °C 4,8 km/h (1 Bft)
08.04.2017 19:47 12,9 °C 13,0 °C 68 % 1021,4 hPa 0,0 mm 3,3 km/h (1 Bft) O-NO 78 ° 0 min 0,000 mm 0,0 UV-I 9 W/m² 7,1 °C 12,9 °C 4,8 km/h (1 Bft)
08.04.2017 19:48 12,8 °C 12,9 °C 68 % 1021,5 hPa 0,0 mm 3,0 km/h (1 Bft) O-NO 78 ° 0 min 0,000 mm 0,0 UV-I 7 W/m² 7,0 °C 12,8 °C 4,8 km/h (1 Bft)
08.04.2017 19:49 12,8 °C 12,8 °C 68 % 1021,5 hPa 0,0 mm 2,6 km/h (1 Bft) O-NO 78 ° 0 min 0,000 mm 0,0 UV-I 7 W/m² 7,0 °C 12,8 °C 3,2 km/h (1 Bft)
08.04.2017 19:50 12,7 °C 12,8 °C 68 % 1021,5 hPa 0,0 mm 2,8 km/h (1 Bft) O-NO 78 ° 0 min 0,000 mm 0,0 UV-I 7 W/m² 6,9 °C 12,7 °C 3,2 km/h (1 Bft)
08.04.2017 19:51 12,7 °C 12,7 °C 68 % 1021,5 hPa 0,0 mm 3,6 km/h (1 Bft) O-NO 78 ° 0 min 0,000 mm 0,0 UV-I 7 W/m² 6,9 °C 12,7 °C 4,8 km/h (1 Bft)
08.04.2017 19:52 12,6 °C 12,7 °C 68 % 1021,6 hPa 0,0 mm 3,2 km/h (1 Bft) O-NO 78 ° 0 min 0,000 mm 0,0 UV-I 5 W/m² 6,9 °C 12,6 °C 3,2 km/h (1 Bft)
08.04.2017 19:53 12,6 °C 12,6 °C 68 % 1021,6 hPa 0,0 mm 3,5 km/h (1 Bft) O-NO 78 ° 0 min 0,000 mm 0,0 UV-I 5 W/m² 6,9 °C 12,6 °C 4,8 km/h (1 Bft)
08.04.2017 19:54 12,5 °C 12,6 °C 69 % 1021,5 hPa 0,0 mm 3,6 km/h (1 Bft) O-NO 78 ° 0 min 0,000 mm 0,0 UV-I 5 W/m² 7,0 °C 12,5 °C 4,8 km/h (1 Bft)
08.04.2017 19:55 12,4 °C 12,5 °C 69 % 1021,6 hPa 0,0 mm 3,4 km/h (1 Bft) O-NO 78 ° 0 min 0,000 mm 0,0 UV-I 5 W/m² 6,9 °C 12,4 °C 4,8 km/h (1 Bft)
08.04.2017 19:56 12,2 °C 12,4 °C 71 % 1021,6 hPa 0,0 mm 3,4 km/h (1 Bft) O-NO 78 ° 0 min 0,000 mm 0,0 UV-I 5 W/m² 7,1 °C 12,2 °C 4,8 km/h (1 Bft)
08.04.2017 19:57 12,1 °C 12,2 °C 71 % 1021,6 hPa 0,0 mm 3,2 km/h (1 Bft) O-NO 78 ° 0 min 0,000 mm 0,0 UV-I 0 W/m² 7,0 °C 12,1 °C 3,2 km/h (1 Bft)
08.04.2017 19:58 11,9 °C 12,1 °C 71 % 1021,6 hPa 0,0 mm 3,3 km/h (1 Bft) O-NO 78 ° 0 min 0,000 mm 0,0 UV-I 0 W/m² 6,8 °C 11,9 °C 4,8 km/h (1 Bft)
08.04.2017 19:59 11,8 °C 11,9 °C 72 % 1021,6 hPa 0,0 mm 3,2 km/h (1 Bft) O-NO 78 ° 0 min 0,000 mm 0,0 UV-I 0 W/m² 6,9 °C 11,8 °C 3,2 km/h (1 Bft)
08.04.2017 20:00 11,8 °C 11,8 °C 72 % 1021,6 hPa 0,0 mm 3,0 km/h (1 Bft) O-NO 78 ° 0 min 0,000 mm 0,0 UV-I 0 W/m² 6,9 °C 11,8 °C 4,8 km/h (1 Bft)
08.04.2017 20:01 11,7 °C 11,8 °C 72 % 1021,6 hPa 0,0 mm 2,6 km/h (1 Bft) O-NO 78 ° 0 min 0,000 mm 0,0 UV-I 0 W/m² 6,8 °C 11,7 °C 4,8 km/h (1 Bft)
08.04.2017 20:02 11,6 °C 11,7 °C 73 % 1021,6 hPa 0,0 mm 3,1 km/h (1 Bft) O-NO 78 ° 0 min 0,000 mm 0,0 UV-I 0 W/m² 6,9 °C 11,6 °C 4,8 km/h (1 Bft)
08.04.2017 20:03 11,6 °C 11,6 °C 73 % 1021,6 hPa 0,0 mm 3,2 km/h (1 Bft) O-NO 78 ° 0 min 0,000 mm 0,0 UV-I 0 W/m² 6,9 °C 11,6 °C 4,8 km/h (1 Bft)
08.04.2017 20:04 11,6 °C 11,6 °C 73 % 1021,7 hPa 0,0 mm 3,7 km/h (1 Bft) O-NO 78 ° 0 min 0,000 mm 0,0 UV-I 0 W/m² 6,9 °C 11,6 °C 4,8 km/h (1 Bft)
08.04.2017 20:05 11,5 °C 11,6 °C 73 % 1021,7 hPa 0,0 mm 3,4 km/h (1 Bft) O-NO 78 ° 0 min 0,000 mm 0,0 UV-I 0 W/m² 6,8 °C 11,5 °C 4,8 km/h (1 Bft)
08.04.2017 20:06 11,4 °C 11,5 °C 73 % 1021,7 hPa 0,0 mm 2,9 km/h (1 Bft) O-NO 78 ° 0 min 0,000 mm 0,0 UV-I 0 W/m² 6,7 °C 11,4 °C 3,2 km/h (1 Bft)
08.04.2017 20:07 11,4 °C 11,4 °C 73 % 1021,7 hPa 0,0 mm 3,2 km/h (1 Bft) O-NO 78 ° 0 min 0,000 mm 0,0 UV-I 0 W/m² 6,7 °C 11,4 °C 4,8 km/h (1 Bft)
08.04.2017 20:08 11,3 °C 11,4 °C 73 % 1021,7 hPa 0,0 mm 3,3 km/h (1 Bft) O-NO 78 ° 0 min 0,000 mm 0,0 UV-I 0 W/m² 6,6 °C 11,3 °C 4,8 km/h (1 Bft)
08.04.2017 20:09 11,3 °C 11,3 °C 73 % 1021,8 hPa 0,0 mm 3,5 km/h (1 Bft) O-NO 78 ° 0 min 0,000 mm 0,0 UV-I 0 W/m² 6,6 °C 11,3 °C 4,8 km/h (1 Bft)
08.04.2017 20:10 11,3 °C 11,3 °C 74 % 1021,8 hPa 0,0 mm 3,6 km/h (1 Bft) O-NO 78 ° 0 min 0,000 mm 0,0 UV-I 0 W/m² 6,8 °C 11,3 °C 4,8 km/h (1 Bft)
08.04.2017 20:11 11,3 °C 11,3 °C 74 % 1021,8 hPa 0,0 mm 3,3 km/h (1 Bft) O-NO 78 ° 0 min 0,000 mm 0,0 UV-I 0 W/m² 6,8 °C 11,3 °C 4,8 km/h (1 Bft)
08.04.2017 20:12 11,3 °C 11,3 °C 74 % 1021,8 hPa 0,0 mm 3,7 km/h (1 Bft) O-NO 78 ° 0 min 0,000 mm 0,0 UV-I 0 W/m² 6,8 °C 11,3 °C 4,8 km/h (1 Bft)
08.04.2017 20:13 11,3 °C 11,3 °C 74 % 1021,8 hPa 0,0 mm 3,8 km/h (1 Bft) O-NO 78 ° 0 min 0,000 mm 0,0 UV-I 0 W/m² 6,8 °C 11,3 °C 4,8 km/h (1 Bft)
08.04.2017 20:14 11,2 °C 11,3 °C 74 % 1021,8 hPa 0,0 mm 4,5 km/h (1 Bft) O 85 ° 0 min 0,000 mm 0,0 UV-I 0 W/m² 6,7 °C 11,2 °C 4,8 km/h (1 Bft)
08.04.2017 20:15 11,2 °C 11,3 °C 75 % 1021,8 hPa 0,0 mm 4,7 km/h (1 Bft) SO 138 ° 0 min 0,000 mm 0,0 UV-I 0 W/m² 6,9 °C 11,2 °C 6,4 km/h (2 Bft)
08.04.2017 20:16 11,2 °C 11,2 °C 75 % 1021,8 hPa 0,0 mm 4,8 km/h (1 Bft) SO 137 ° 0 min 0,000 mm 0,0 UV-I 0 W/m² 6,9 °C 11,2 °C 6,4 km/h (2 Bft)
08.04.2017 20:17 11,1 °C 11,2 °C 75 % 1021,8 hPa 0,0 mm 4,6 km/h (1 Bft) SO 137 ° 0 min 0,000 mm 0,0 UV-I 0 W/m² 6,8 °C 11,1 °C 4,8 km/h (1 Bft)
08.04.2017 20:18 11,1 °C 11,1 °C 75 % 1021,8 hPa 0,0 mm 4,3 km/h (1 Bft) SO 137 ° 0 min 0,000 mm 0,0 UV-I 0 W/m² 6,8 °C 11,1 °C 4,8 km/h (1 Bft)
08.04.2017 20:19 10,8 °C 11,1 °C 76 % 1021,9 hPa 0,0 mm 3,5 km/h (1 Bft) SO 137 ° 0 min 0,000 mm 0,0 UV-I 0 W/m² 6,7 °C 10,8 °C 4,8 km/h (1 Bft)
08.04.2017 20:20 10,3 °C 10,8 °C 77 % 1021,9 hPa 0,0 mm 2,6 km/h (1 Bft) SO 137 ° 0 min 0,000 mm 0,0 UV-I 0 W/m² 6,4 °C 10,3 °C 4,8 km/h (1 Bft)
08.04.2017 20:21 10,0 °C 10,3 °C 78 % 1021,9 hPa 0,0 mm 1,3 km/h (1 Bft) SO 137 ° 0 min 0,000 mm 0,0 UV-I 0 W/m² 6,3 °C 10,0 °C 3,2 km/h (1 Bft)
08.04.2017 20:22 9,7 °C 10,0 °C 79 % 1021,9 hPa 0,0 mm 1,7 km/h (1 Bft) SO 138 ° 0 min 0,000 mm 0,0 UV-I 0 W/m² 6,2 °C 9,7 °C 3,2 km/h (1 Bft)
08.04.2017 20:23 9,5 °C 9,7 °C 79 % 1021,9 hPa 0,0 mm 1,5 km/h (1 Bft) SO 137 ° 0 min 0,000 mm 0,0 UV-I 0 W/m² 6,0 °C 9,5 °C 3,2 km/h (1 Bft)
08.04.2017 20:24 9,5 °C 9,5 °C 80 % 1021,9 hPa 0,0 mm 1,4 km/h (1 Bft) SO 137 ° 0 min 0,000 mm 0,0 UV-I 0 W/m² 6,2 °C 9,5 °C 3,2 km/h (1 Bft)
08.04.2017 20:25 9,5 °C 9,6 °C 80 % 1022,0 hPa 0,0 mm 2,1 km/h (1 Bft) SO 137 ° 0 min 0,000 mm 0,0 UV-I 0 W/m² 6,2 °C 9,5 °C 3,2 km/h (1 Bft)
08.04.2017 20:26 9,4 °C 9,5 °C 81 % 1022,0 hPa 0,0 mm 1,1 km/h (1 Bft) SO 137 ° 0 min 0,000 mm 0,0 UV-I 0 W/m² 6,3 °C 9,4 °C 3,2 km/h (1 Bft)
08.04.2017 20:27 9,4 °C 9,4 °C 81 % 1022,0 hPa 0,0 mm 0,1 km/h (0 Bft) SO 137 ° 0 min 0,000 mm 0,0 UV-I 0 W/m² 6,3 °C 9,4 °C 1,6 km/h (1 Bft)
08.04.2017 20:28 9,6 °C 9,6 °C 81 % 1022,0 hPa 0,0 mm 0,3 km/h (0 Bft) SO 137 ° 0 min 0,000 mm 0,0 UV-I 0 W/m² 6,5 °C 9,6 °C 1,6 km/h (1 Bft)
08.04.2017 20:29 9,7 °C 9,7 °C 81 % 1022,0 hPa 0,0 mm 1,1 km/h (1 Bft) SO 137 ° 0 min 0,000 mm 0,0 UV-I 0 W/m² 6,6 °C 9,7 °C 3,2 km/h (1 Bft)
08.04.2017 20:30 9,8 °C 9,8 °C 81 % 1022,0 hPa 0,0 mm 1,5 km/h (1 Bft) SO 137 ° 0 min 0,000 mm 0,0 UV-I 0 W/m² 6,7 °C 9,8 °C 3,2 km/h (1 Bft)
08.04.2017 20:31 10,0 °C 10,0 °C 80 % 1022,0 hPa 0,0 mm 2,9 km/h (1 Bft) SO 137 ° 0 min 0,000 mm 0,0 UV-I 0 W/m² 6,7 °C 10,0 °C 3,2 km/h (1 Bft)
08.04.2017 20:32 10,1 °C 10,1 °C 80 % 1022,0 hPa 0,0 mm 3,8 km/h (1 Bft) SO 137 ° 0 min 0,000 mm 0,0 UV-I 0 W/m² 6,8 °C 10,1 °C 4,8 km/h (1 Bft)
08.04.2017 20:33 10,0 °C 10,1 °C 80 % 1022,1 hPa 0,0 mm 3,2 km/h (1 Bft) SO 137 ° 0 min 0,000 mm 0,0 UV-I 0 W/m² 6,7 °C 10,0 °C 3,2 km/h (1 Bft)
08.04.2017 20:34 10,0 °C 10,0 °C 80 % 1022,0 hPa 0,0 mm 3,8 km/h (1 Bft) SO 137 ° 0 min 0,000 mm 0,0 UV-I 0 W/m² 6,7 °C 10,0 °C 4,8 km/h (1 Bft)
08.04.2017 20:35 10,0 °C 10,0 °C 80 % 1022,1 hPa 0,0 mm 3,6 km/h (1 Bft) SO 137 ° 0 min 0,000 mm 0,0 UV-I 0 W/m² 6,7 °C 10,0 °C 4,8 km/h (1 Bft)
08.04.2017 20:36 10,1 °C 10,1 °C 79 % 1022,1 hPa 0,0 mm 3,7 km/h (1 Bft) SO 137 ° 0 min 0,000 mm 0,0 UV-I 0 W/m² 6,6 °C 10,1 °C 4,8 km/h (1 Bft)
08.04.2017 20:37 10,1 °C 10,1 °C 79 % 1022,1 hPa 0,0 mm 3,7 km/h (1 Bft) SO 138 ° 0 min 0,000 mm 0,0 UV-I 0 W/m² 6,6 °C 10,1 °C 4,8 km/h (1 Bft)
08.04.2017 20:38 10,1 °C 10,1 °C 79 % 1022,1 hPa 0,0 mm 3,9 km/h (1 Bft) SO 138 ° 0 min 0,000 mm 0,0 UV-I 0 W/m² 6,6 °C 10,1 °C 4,8 km/h (1 Bft)
08.04.2017 20:39 10,2 °C 10,2 °C 79 % 1022,1 hPa 0,0 mm 4,3 km/h (1 Bft) SO 137 ° 0 min 0,000 mm 0,0 UV-I 0 W/m² 6,7 °C 10,2 °C 4,8 km/h (1 Bft)
08.04.2017 20:40 10,2 °C 10,2 °C 79 % 1022,1 hPa 0,0 mm 3,8 km/h (1 Bft) SO 138 ° 0 min 0,000 mm 0,0 UV-I 0 W/m² 6,7 °C 10,2 °C 4,8 km/h (1 Bft)
08.04.2017 20:41 10,1 °C 10,2 °C 79 % 1022,1 hPa 0,0 mm 3,7 km/h (1 Bft) SO 138 ° 0 min 0,000 mm 0,0 UV-I 0 W/m² 6,6 °C 10,1 °C 4,8 km/h (1 Bft)
08.04.2017 20:42 10,1 °C 10,1 °C 79 % 1022,1 hPa 0,0 mm 4,2 km/h (1 Bft) SO 137 ° 0 min 0,000 mm 0,0 UV-I 0 W/m² 6,6 °C 10,1 °C 6,4 km/h (2 Bft)
08.04.2017 20:43 10,0 °C 10,1 °C 79 % 1022,1 hPa 0,0 mm 4,0 km/h (1 Bft) SO 137 ° 0 min 0,000 mm 0,0 UV-I 0 W/m² 6,5 °C 10,0 °C 4,8 km/h (1 Bft)
08.04.2017 20:44 10,0 °C 10,0 °C 79 % 1022,1 hPa 0,0 mm 3,2 km/h (1 Bft) SO 138 ° 0 min 0,000 mm 0,0 UV-I 0 W/m² 6,5 °C 10,0 °C 4,8 km/h (1 Bft)
08.04.2017 20:45 9,9 °C 10,0 °C 79 % 1022,2 hPa 0,0 mm 3,2 km/h (1 Bft) SO 138 ° 0 min 0,000 mm 0,0 UV-I 0 W/m² 6,4 °C 9,9 °C 4,8 km/h (1 Bft)
08.04.2017 20:46 9,9 °C 9,9 °C 79 % 1022,2 hPa 0,0 mm 3,4 km/h (1 Bft) SO 138 ° 0 min 0,000 mm 0,0 UV-I 0 W/m² 6,4 °C 9,9 °C 4,8 km/h (1 Bft)
08.04.2017 20:47 9,9 °C 9,9 °C 80 % 1022,1 hPa 0,0 mm 3,4 km/h (1 Bft) SO 137 ° 0 min 0,000 mm 0,0 UV-I 0 W/m² 6,6 °C 9,9 °C 4,8 km/h (1 Bft)
08.04.2017 20:48 9,9 °C 9,9 °C 80 % 1022,2 hPa 0,0 mm 3,7 km/h (1 Bft) SO 138 ° 0 min 0,000 mm 0,0 UV-I 0 W/m² 6,6 °C 9,9 °C 4,8 km/h (1 Bft)
08.04.2017 20:49 9,9 °C 9,9 °C 80 % 1022,2 hPa 0,0 mm 3,2 km/h (1 Bft) SO 138 ° 0 min 0,000 mm 0,0 UV-I 0 W/m² 6,6 °C 9,9 °C 3,2 km/h (1 Bft)
08.04.2017 20:50 10,0 °C 10,0 °C 80 % 1022,2 hPa 0,0 mm 3,2 km/h (1 Bft) SO 138 ° 0 min 0,000 mm 0,0 UV-I 0 W/m² 6,7 °C 10,0 °C 4,8 km/h (1 Bft)
08.04.2017 20:51 10,0 °C 10,0 °C 80 % 1022,2 hPa 0,0 mm 2,5 km/h (1 Bft) SO 138 ° 0 min 0,000 mm 0,0 UV-I 0 W/m² 6,7 °C 10,0 °C 3,2 km/h (1 Bft)
08.04.2017 20:52 10,0 °C 10,0 °C 80 % 1022,2 hPa 0,0 mm 2,6 km/h (1 Bft) SO 138 ° 0 min 0,000 mm 0,0 UV-I 0 W/m² 6,7 °C 10,0 °C 3,2 km/h (1 Bft)
08.04.2017 20:53 9,9 °C 10,0 °C 79 % 1022,2 hPa 0,0 mm 3,5 km/h (1 Bft) SO 138 ° 0 min 0,000 mm 0,0 UV-I 0 W/m² 6,4 °C 9,9 °C 4,8 km/h (1 Bft)
08.04.2017 20:54 9,9 °C 9,9 °C 80 % 1022,2 hPa 0,0 mm 3,8 km/h (1 Bft) SO 138 ° 0 min 0,000 mm 0,0 UV-I 0 W/m² 6,6 °C 9,9 °C 4,8 km/h (1 Bft)
08.04.2017 20:55 9,9 °C 9,9 °C 80 % 1022,2 hPa 0,0 mm 2,8 km/h (1 Bft) SO 138 ° 0 min 0,000 mm 0,0 UV-I 0 W/m² 6,6 °C 9,9 °C 4,8 km/h (1 Bft)
08.04.2017 20:56 9,9 °C 9,9 °C 80 % 1022,2 hPa 0,0 mm 2,5 km/h (1 Bft) SO 138 ° 0 min 0,000 mm 0,0 UV-I 0 W/m² 6,6 °C 9,9 °C 3,2 km/h (1 Bft)
08.04.2017 20:57 9,8 °C 9,9 °C 80 % 1022,3 hPa 0,0 mm 3,8 km/h (1 Bft) SO 138 ° 0 min 0,000 mm 0,0 UV-I 0 W/m² 6,5 °C 9,8 °C 4,8 km/h (1 Bft)
08.04.2017 20:58 9,7 °C 9,8 °C 80 % 1022,3 hPa 0,0 mm 3,7 km/h (1 Bft) SO 138 ° 0 min 0,000 mm 0,0 UV-I 0 W/m² 6,4 °C 9,7 °C 4,8 km/h (1 Bft)
08.04.2017 20:59 9,6 °C 9,7 °C 80 % 1022,3 hPa 0,0 mm 3,2 km/h (1 Bft) SO 138 ° 0 min 0,000 mm 0,0 UV-I 0 W/m² 6,3 °C 9,6 °C 4,8 km/h (1 Bft)
08.04.2017 21:00 9,4 °C 9,6 °C 80 % 1022,3 hPa 0,0 mm 2,5 km/h (1 Bft) SO 138 ° 0 min 0,000 mm 0,0 UV-I 0 W/m² 6,1 °C 9,4 °C 3,2 km/h (1 Bft)
08.04.2017 21:01 9,3 °C 9,4 °C 82 % 1022,3 hPa 0,0 mm 3,8 km/h (1 Bft) SO 138 ° 0 min 0,000 mm 0,0 UV-I 0 W/m² 6,4 °C 9,3 °C 4,8 km/h (1 Bft)
08.04.2017 21:02 9,3 °C 9,3 °C 82 % 1022,3 hPa 0,0 mm 4,3 km/h (1 Bft) SO 138 ° 0 min 0,000 mm 0,0 UV-I 0 W/m² 6,4 °C 9,3 °C 4,8 km/h (1 Bft)
08.04.2017 21:03 9,2 °C 9,3 °C 82 % 1022,3 hPa 0,0 mm 3,4 km/h (1 Bft) SO 138 ° 0 min 0,000 mm 0,0 UV-I 0 W/m² 6,3 °C 9,2 °C 4,8 km/h (1 Bft)
08.04.2017 21:04 9,3 °C 9,3 °C 83 % 1022,4 hPa 0,0 mm 3,1 km/h (1 Bft) SO 138 ° 0 min 0,000 mm 0,0 UV-I 0 W/m² 6,6 °C 9,3 °C 4,8 km/h (1 Bft)
08.04.2017 21:05 9,4 °C 9,4 °C 83 % 1022,4 hPa 0,0 mm 3,1 km/h (1 Bft) SO 138 ° 0 min 0,000 mm 0,0 UV-I 0 W/m² 6,7 °C 9,4 °C 4,8 km/h (1 Bft)
08.04.2017 21:06 9,4 °C 9,4 °C 83 % 1022,4 hPa 0,0 mm 3,5 km/h (1 Bft) SO 138 ° 0 min 0,000 mm 0,0 UV-I 0 W/m² 6,7 °C 9,4 °C 4,8 km/h (1 Bft)
08.04.2017 21:07 9,4 °C 9,5 °C 82 % 1022,4 hPa 0,0 mm 3,8 km/h (1 Bft) SO 138 ° 0 min 0,000 mm 0,0 UV-I 0 W/m² 6,5 °C 9,4 °C 4,8 km/h (1 Bft)
08.04.2017 21:08 9,4 °C 9,4 °C 82 % 1022,4 hPa 0,0 mm 3,4 km/h (1 Bft) SO 138 ° 0 min 0,000 mm 0,0 UV-I 0 W/m² 6,5 °C 9,4 °C 4,8 km/h (1 Bft)
08.04.2017 21:09 9,4 °C 9,4 °C 82 % 1022,4 hPa 0,0 mm 3,2 km/h (1 Bft) SO 138 ° 0 min 0,000 mm 0,0 UV-I 0 W/m² 6,5 °C 9,4 °C 4,8 km/h (1 Bft)
08.04.2017 21:10 9,4 °C 9,4 °C 82 % 1022,4 hPa 0,0 mm 3,2 km/h (1 Bft) SO 138 ° 0 min 0,000 mm 0,0 UV-I 0 W/m² 6,5 °C 9,4 °C 4,8 km/h (1 Bft)
08.04.2017 21:11 9,4 °C 9,4 °C 82 % 1022,5 hPa 0,0 mm 3,0 km/h (1 Bft) SO 138 ° 0 min 0,000 mm 0,0 UV-I 0 W/m² 6,5 °C 9,4 °C 4,8 km/h (1 Bft)
08.04.2017 21:12 9,3 °C 9,4 °C 82 % 1022,4 hPa 0,0 mm 3,6 km/h (1 Bft) SO 138 ° 0 min 0,000 mm 0,0 UV-I 0 W/m² 6,4 °C 9,3 °C 4,8 km/h (1 Bft)
08.04.2017 21:13 9,3 °C 9,3 °C 82 % 1022,4 hPa 0,0 mm 3,2 km/h (1 Bft) SO 138 ° 0 min 0,000 mm 0,0 UV-I 0 W/m² 6,4 °C 9,3 °C 4,8 km/h (1 Bft)
08.04.2017 21:14 9,3 °C 9,3 °C 83 % 1022,4 hPa 0,0 mm 3,5 km/h (1 Bft) SO 138 ° 0 min 0,000 mm 0,0 UV-I 0 W/m² 6,6 °C 9,3 °C 4,8 km/h (1 Bft)
08.04.2017 21:15 9,3 °C 9,3 °C 83 % 1022,5 hPa 0,0 mm 3,1 km/h (1 Bft) SO 138 ° 0 min 0,000 mm 0,0 UV-I 0 W/m² 6,6 °C 9,3 °C 4,8 km/h (1 Bft)
08.04.2017 21:16 9,3 °C 9,4 °C 83 % 1022,5 hPa 0,0 mm 3,7 km/h (1 Bft) SO 138 ° 0 min 0,000 mm 0,0 UV-I 0 W/m² 6,6 °C 9,3 °C 4,8 km/h (1 Bft)
08.04.2017 21:17 9,3 °C 9,3 °C 83 % 1022,5 hPa 0,0 mm 4,0 km/h (1 Bft) SO 138 ° 0 min 0,000 mm 0,0 UV-I 0 W/m² 6,6 °C 9,3 °C 4,8 km/h (1 Bft)
08.04.2017 21:18 9,3 °C 9,3 °C 83 % 1022,5 hPa 0,0 mm 3,2 km/h (1 Bft) SO 137 ° 0 min 0,000 mm 0,0 UV-I 0 W/m² 6,6 °C 9,3 °C 4,8 km/h (1 Bft)
08.04.2017 21:19 9,3 °C 9,3 °C 83 % 1022,5 hPa 0,0 mm 3,4 km/h (1 Bft) SO 138 ° 0 min 0,000 mm 0,0 UV-I 0 W/m² 6,6 °C 9,3 °C 4,8 km/h (1 Bft)
08.04.2017 21:20 9,3 °C 9,3 °C 83 % 1022,5 hPa 0,0 mm 3,8 km/h (1 Bft) SO 138 ° 0 min 0,000 mm 0,0 UV-I 0 W/m² 6,6 °C 9,3 °C 4,8 km/h (1 Bft)
08.04.2017 21:21 9,3 °C 9,3 °C 83 % 1022,5 hPa 0,0 mm 3,8 km/h (1 Bft) SO 138 ° 0 min 0,000 mm 0,0 UV-I 0 W/m² 6,6 °C 9,3 °C 4,8 km/h (1 Bft)
08.04.2017 21:22 9,3 °C 9,3 °C 82 % 1022,5 hPa 0,0 mm 3,6 km/h (1 Bft) SO 138 ° 0 min 0,000 mm 0,0 UV-I 0 W/m² 6,4 °C 9,3 °C 4,8 km/h (1 Bft)
08.04.2017 21:23 9,3 °C 9,3 °C 83 % 1022,5 hPa 0,0 mm 3,6 km/h (1 Bft) SO 138 ° 0 min 0,000 mm 0,0 UV-I 0 W/m² 6,6 °C 9,3 °C 4,8 km/h (1 Bft)
08.04.2017 21:24 9,3 °C 9,3 °C 83 % 1022,5 hPa 0,0 mm 2,8 km/h (1 Bft) SO 138 ° 0 min 0,000 mm 0,0 UV-I 0 W/m² 6,6 °C 9,3 °C 4,8 km/h (1 Bft)
08.04.2017 21:25 9,3 °C 9,3 °C 83 % 1022,5 hPa 0,0 mm 3,8 km/h (1 Bft) SO 138 ° 0 min 0,000 mm 0,0 UV-I 0 W/m² 6,6 °C 9,3 °C 4,8 km/h (1 Bft)
08.04.2017 21:26 9,2 °C 9,3 °C 83 % 1022,5 hPa 0,0 mm 3,4 km/h (1 Bft) SO 138 ° 0 min 0,000 mm 0,0 UV-I 0 W/m² 6,5 °C 9,2 °C 4,8 km/h (1 Bft)
08.04.2017 21:27 9,2 °C 9,3 °C 83 % 1022,5 hPa 0,0 mm 3,6 km/h (1 Bft) SO 138 ° 0 min 0,000 mm 0,0 UV-I 0 W/m² 6,5 °C 9,2 °C 4,8 km/h (1 Bft)
08.04.2017 21:28 9,2 °C 9,2 °C 83 % 1022,6 hPa 0,0 mm 3,8 km/h (1 Bft) SO 138 ° 0 min 0,000 mm 0,0 UV-I 0 W/m² 6,5 °C 9,2 °C 4,8 km/h (1 Bft)
08.04.2017 21:29 9,2 °C 9,2 °C 83 % 1022,5 hPa 0,0 mm 3,3 km/h (1 Bft) S-SO 153 ° 0 min 0,000 mm 0,0 UV-I 0 W/m² 6,5 °C 9,2 °C 6,4 km/h (2 Bft)
08.04.2017 21:30 9,2 °C 9,2 °C 83 % 1022,6 hPa 0,0 mm 3,7 km/h (1 Bft) S-SO 153 ° 0 min 0,000 mm 0,0 UV-I 0 W/m² 6,5 °C 9,2 °C 4,8 km/h (1 Bft)
08.04.2017 21:31 9,2 °C 9,2 °C 83 % 1022,5 hPa 0,0 mm 1,9 km/h (1 Bft) S-SO 153 ° 0 min 0,000 mm 0,0 UV-I 0 W/m² 6,5 °C 9,2 °C 3,2 km/h (1 Bft)
08.04.2017 21:32 9,2 °C 9,2 °C 83 % 1022,6 hPa 0,0 mm 2,9 km/h (1 Bft) S-SO 153 ° 0 min 0,000 mm 0,0 UV-I 0 W/m² 6,5 °C 9,2 °C 4,8 km/h (1 Bft)
08.04.2017 21:33 9,2 °C 9,2 °C 83 % 1022,6 hPa 0,0 mm 2,5 km/h (1 Bft) S-SO 153 ° 0 min 0,000 mm 0,0 UV-I 0 W/m² 6,5 °C 9,2 °C 3,2 km/h (1 Bft)
08.04.2017 21:34 9,2 °C 9,2 °C 83 % 1022,6 hPa 0,0 mm 3,7 km/h (1 Bft) S-SO 153 ° 0 min 0,000 mm 0,0 UV-I 0 W/m² 6,5 °C 9,2 °C 4,8 km/h (1 Bft)
08.04.2017 21:35 9,1 °C 9,2 °C 83 % 1022,6 hPa 0,0 mm 3,7 km/h (1 Bft) S-SO 153 ° 0 min 0,000 mm 0,0 UV-I 0 W/m² 6,4 °C 9,1 °C 4,8 km/h (1 Bft)
08.04.2017 21:36 9,1 °C 9,1 °C 83 % 1022,6 hPa 0,0 mm 3,4 km/h (1 Bft) S-SO 153 ° 0 min 0,000 mm 0,0 UV-I 0 W/m² 6,4 °C 9,1 °C 4,8 km/h (1 Bft)
08.04.2017 21:37 8,9 °C 9,1 °C 83 % 1022,6 hPa 0,0 mm 3,7 km/h (1 Bft) S-SO 153 ° 0 min 0,000 mm 0,0 UV-I 0 W/m² 6,2 °C 8,9 °C 4,8 km/h (1 Bft)
08.04.2017 21:38 8,9 °C 9,0 °C 83 % 1022,6 hPa 0,0 mm 3,9 km/h (1 Bft) S-SO 153 ° 0 min 0,000 mm 0,0 UV-I 0 W/m² 6,2 °C 8,9 °C 4,8 km/h (1 Bft)
08.04.2017 21:39 8,8 °C 8,9 °C 83 % 1022,6 hPa 0,0 mm 3,5 km/h (1 Bft) S-SO 153 ° 0 min 0,000 mm 0,0 UV-I 0 W/m² 6,1 °C 8,8 °C 4,8 km/h (1 Bft)
08.04.2017 21:40 8,7 °C 8,8 °C 83 % 1022,6 hPa 0,0 mm 3,6 km/h (1 Bft) S-SO 153 ° 0 min 0,000 mm 0,0 UV-I 0 W/m² 6,0 °C 8,7 °C 4,8 km/h (1 Bft)
08.04.2017 21:41 8,7 °C 8,7 °C 84 % 1022,6 hPa 0,0 mm 3,6 km/h (1 Bft) S-SO 153 ° 0 min 0,000 mm 0,0 UV-I 0 W/m² 6,2 °C 8,7 °C 4,8 km/h (1 Bft)
08.04.2017 21:42 8,6 °C 8,7 °C 84 % 1022,7 hPa 0,0 mm 3,1 km/h (1 Bft) S-SO 153 ° 0 min 0,000 mm 0,0 UV-I 0 W/m² 6,1 °C 8,6 °C 4,8 km/h (1 Bft)
08.04.2017 21:43 8,6 °C 8,6 °C 85 % 1022,7 hPa 0,0 mm 2,2 km/h (1 Bft) S-SO 153 ° 0 min 0,000 mm 0,0 UV-I 0 W/m² 6,2 °C 8,6 °C 3,2 km/h (1 Bft)
08.04.2017 21:44 8,7 °C 8,7 °C 85 % 1022,7 hPa 0,0 mm 2,1 km/h (1 Bft) S-SO 153 ° 0 min 0,000 mm 0,0 UV-I 0 W/m² 6,3 °C 8,7 °C 3,2 km/h (1 Bft)
08.04.2017 21:45 8,8 °C 8,8 °C 85 % 1022,7 hPa 0,0 mm 2,0 km/h (1 Bft) S-SO 153 ° 0 min 0,000 mm 0,0 UV-I 0 W/m² 6,4 °C 8,8 °C 3,2 km/h (1 Bft)
08.04.2017 21:46 8,8 °C 8,8 °C 84 % 1022,7 hPa 0,0 mm 2,5 km/h (1 Bft) S-SO 153 ° 0 min 0,000 mm 0,0 UV-I 0 W/m² 6,2 °C 8,8 °C 3,2 km/h (1 Bft)
08.04.2017 21:47 8,9 °C 8,9 °C 84 % 1022,7 hPa 0,0 mm 3,2 km/h (1 Bft) S-SO 153 ° 0 min 0,000 mm 0,0 UV-I 0 W/m² 6,3 °C 8,9 °C 4,8 km/h (1 Bft)
08.04.2017 21:48 8,9 °C 8,9 °C 84 % 1022,8 hPa 0,0 mm 2,3 km/h (1 Bft) S-SO 153 ° 0 min 0,000 mm 0,0 UV-I 0 W/m² 6,3 °C 8,9 °C 4,8 km/h (1 Bft)
08.04.2017 21:49 8,9 °C 8,9 °C 84 % 1022,8 hPa 0,0 mm 1,7 km/h (1 Bft) S-SO 153 ° 0 min 0,000 mm 0,0 UV-I 0 W/m² 6,3 °C 8,9 °C 3,2 km/h (1 Bft)
08.04.2017 21:50 9,0 °C 9,0 °C 84 % 1022,8 hPa 0,0 mm 2,1 km/h (1 Bft) S-SO 153 ° 0 min 0,000 mm 0,0 UV-I 0 W/m² 6,4 °C 9,0 °C 3,2 km/h (1 Bft)
08.04.2017 21:51 9,0 °C 9,0 °C 83 % 1022,7 hPa 0,0 mm 1,8 km/h (1 Bft) S-SO 153 ° 0 min 0,000 mm 0,0 UV-I 0 W/m² 6,3 °C 9,0 °C 3,2 km/h (1 Bft)
08.04.2017 21:52 9,1 °C 9,1 °C 83 % 1022,7 hPa 0,0 mm 2,4 km/h (1 Bft) S-SO 153 ° 0 min 0,000 mm 0,0 UV-I 0 W/m² 6,4 °C 9,1 °C 3,2 km/h (1 Bft)
08.04.2017 21:53 9,1 °C 9,1 °C 83 % 1022,7 hPa 0,0 mm 2,2 km/h (1 Bft) S-SO 153 ° 0 min 0,000 mm 0,0 UV-I 0 W/m² 6,4 °C 9,1 °C 3,2 km/h (1 Bft)
08.04.2017 21:54 9,0 °C 9,1 °C 83 % 1022,7 hPa 0,0 mm 1,9 km/h (1 Bft) S-SO 153 ° 0 min 0,000 mm 0,0 UV-I 0 W/m² 6,3 °C 9,0 °C 3,2 km/h (1 Bft)
08.04.2017 21:55 9,0 °C 9,0 °C 83 % 1022,8 hPa 0,0 mm 2,3 km/h (1 Bft) S-SO 153 ° 0 min 0,000 mm 0,0 UV-I 0 W/m² 6,3 °C 9,0 °C 3,2 km/h (1 Bft)
08.04.2017 21:56 8,9 °C 9,0 °C 83 % 1022,7 hPa 0,0 mm 2,1 km/h (1 Bft) S-SO 153 ° 0 min 0,000 mm 0,0 UV-I 0 W/m² 6,2 °C 8,9 °C 3,2 km/h (1 Bft)
08.04.2017 21:57 8,9 °C 9,0 °C 83 % 1022,8 hPa 0,0 mm 2,5 km/h (1 Bft) S-SO 153 ° 0 min 0,000 mm 0,0 UV-I 0 W/m² 6,2 °C 8,9 °C 3,2 km/h (1 Bft)
08.04.2017 21:58 8,9 °C 9,0 °C 83 % 1022,7 hPa 0,0 mm 3,0 km/h (1 Bft) S-SO 153 ° 0 min 0,000 mm 0,0 UV-I 0 W/m² 6,2 °C 8,9 °C 4,8 km/h (1 Bft)
08.04.2017 21:59 8,9 °C 8,9 °C 83 % 1022,7 hPa 0,0 mm 2,4 km/h (1 Bft) S-SO 153 ° 0 min 0,000 mm 0,0 UV-I 0 W/m² 6,2 °C 8,9 °C 3,2 km/h (1 Bft)
08.04.2017 22:00 8,9 °C 8,9 °C 83 % 1022,7 hPa 0,0 mm 2,2 km/h (1 Bft) S-SO 153 ° 0 min 0,000 mm 0,0 UV-I 0 W/m² 6,2 °C 8,9 °C 3,2 km/h (1 Bft)
08.04.2017 22:01 8,8 °C 8,9 °C 83 % 1022,8 hPa 0,0 mm 2,6 km/h (1 Bft) S-SO 153 ° 0 min 0,000 mm 0,0 UV-I 0 W/m² 6,1 °C 8,8 °C 3,2 km/h (1 Bft)
08.04.2017 22:02 8,8 °C 8,8 °C 83 % 1022,8 hPa 0,0 mm 2,2 km/h (1 Bft) S-SO 153 ° 0 min 0,000 mm 0,0 UV-I 0 W/m² 6,1 °C 8,8 °C 3,2 km/h (1 Bft)
08.04.2017 22:03 8,8 °C 8,8 °C 83 % 1022,7 hPa 0,0 mm 1,5 km/h (1 Bft) S-SO 153 ° 0 min 0,000 mm 0,0 UV-I 0 W/m² 6,1 °C 8,8 °C 3,2 km/h (1 Bft)
08.04.2017 22:04 8,8 °C 8,8 °C 83 % 1022,7 hPa 0,0 mm 1,6 km/h (1 Bft) S-SO 153 ° 0 min 0,000 mm 0,0 UV-I 0 W/m² 6,1 °C 8,8 °C 3,2 km/h (1 Bft)
08.04.2017 22:05 8,8 °C 8,8 °C 83 % 1022,7 hPa 0,0 mm 2,0 km/h (1 Bft) S-SO 153 ° 0 min 0,000 mm 0,0 UV-I 0 W/m² 6,1 °C 8,8 °C 3,2 km/h (1 Bft)
08.04.2017 22:06 8,8 °C 8,8 °C 83 % 1022,7 hPa 0,0 mm 2,3 km/h (1 Bft) S-SO 153 ° 0 min 0,000 mm 0,0 UV-I 0 W/m² 6,1 °C 8,8 °C 3,2 km/h (1 Bft)
08.04.2017 22:07 8,7 °C 8,8 °C 83 % 1022,7 hPa 0,0 mm 2,7 km/h (1 Bft) S-SO 153 ° 0 min 0,000 mm 0,0 UV-I 0 W/m² 6,0 °C 8,7 °C 4,8 km/h (1 Bft)
08.04.2017 22:08 8,7 °C 8,7 °C 83 % 1022,7 hPa 0,0 mm 2,7 km/h (1 Bft) S-SO 153 ° 0 min 0,000 mm 0,0 UV-I 0 W/m² 6,0 °C 8,7 °C 3,2 km/h (1 Bft)
08.04.2017 22:09 8,7 °C 8,7 °C 83 % 1022,7 hPa 0,0 mm 2,8 km/h (1 Bft) S-SO 153 ° 0 min 0,000 mm 0,0 UV-I 0 W/m² 6,0 °C 8,7 °C 4,8 km/h (1 Bft)
08.04.2017 22:10 8,7 °C 8,7 °C 83 % 1022,7 hPa 0,0 mm 2,4 km/h (1 Bft) S-SO 153 ° 0 min 0,000 mm 0,0 UV-I 0 W/m² 6,0 °C 8,7 °C 4,8 km/h (1 Bft)
08.04.2017 22:11 8,7 °C 8,7 °C 83 % 1022,7 hPa 0,0 mm 1,9 km/h (1 Bft) S-SO 153 ° 0 min 0,000 mm 0,0 UV-I 0 W/m² 6,0 °C 8,7 °C 3,2 km/h (1 Bft)
08.04.2017 22:12 8,7 °C 8,7 °C 83 % 1022,7 hPa 0,0 mm 2,1 km/h (1 Bft) S-SO 153 ° 0 min 0,000 mm 0,0 UV-I 0 W/m² 6,0 °C 8,7 °C 3,2 km/h (1 Bft)
08.04.2017 22:13 8,6 °C 8,7 °C 83 % 1022,7 hPa 0,0 mm 2,1 km/h (1 Bft) S-SO 153 ° 0 min 0,000 mm 0,0 UV-I 0 W/m² 5,9 °C 8,6 °C 3,2 km/h (1 Bft)
08.04.2017 22:14 8,6 °C 8,6 °C 83 % 1022,7 hPa 0,0 mm 2,4 km/h (1 Bft) S-SO 153 ° 0 min 0,000 mm 0,0 UV-I 0 W/m² 5,9 °C 8,6 °C 3,2 km/h (1 Bft)
08.04.2017 22:15 8,6 °C 8,6 °C 83 % 1022,7 hPa 0,0 mm 1,9 km/h (1 Bft) S-SO 153 ° 0 min 0,000 mm 0,0 UV-I 0 W/m² 5,9 °C 8,6 °C 3,2 km/h (1 Bft)
08.04.2017 22:16 8,6 °C 8,6 °C 83 % 1022,7 hPa 0,0 mm 2,4 km/h (1 Bft) S-SO 153 ° 0 min 0,000 mm 0,0 UV-I 0 W/m² 5,9 °C 8,6 °C 3,2 km/h (1 Bft)
08.04.2017 22:17 8,6 °C 8,6 °C 84 % 1022,7 hPa 0,0 mm 2,0 km/h (1 Bft) S-SO 153 ° 0 min 0,000 mm 0,0 UV-I 0 W/m² 6,1 °C 8,6 °C 3,2 km/h (1 Bft)
08.04.2017 22:18 8,6 °C 8,6 °C 84 % 1022,7 hPa 0,0 mm 1,3 km/h (1 Bft) S-SO 153 ° 0 min 0,000 mm 0,0 UV-I 0 W/m² 6,1 °C 8,6 °C 3,2 km/h (1 Bft)
08.04.2017 22:19 8,5 °C 8,6 °C 84 % 1022,7 hPa 0,0 mm 1,4 km/h (1 Bft) S-SO 153 ° 0 min 0,000 mm 0,0 UV-I 0 W/m² 6,0 °C 8,5 °C 3,2 km/h (1 Bft)
08.04.2017 22:20 8,5 °C 8,5 °C 84 % 1022,7 hPa 0,0 mm 1,4 km/h (1 Bft) S-SO 153 ° 0 min 0,000 mm 0,0 UV-I 0 W/m² 6,0 °C 8,5 °C 3,2 km/h (1 Bft)
08.04.2017 22:21 8,4 °C 8,5 °C 84 % 1022,7 hPa 0,0 mm 1,6 km/h (1 Bft) S-SO 153 ° 0 min 0,000 mm 0,0 UV-I 0 W/m² 5,9 °C 8,4 °C 3,2 km/h (1 Bft)
08.04.2017 22:22 8,3 °C 8,4 °C 84 % 1022,7 hPa 0,0 mm 1,2 km/h (1 Bft) S-SO 153 ° 0 min 0,000 mm 0,0 UV-I 0 W/m² 5,8 °C 8,3 °C 3,2 km/h (1 Bft)
08.04.2017 22:23 8,2 °C 8,3 °C 83 % 1022,7 hPa 0,0 mm 0,3 km/h (0 Bft) S-SO 153 ° 0 min 0,000 mm 0,0 UV-I 0 W/m² 5,5 °C 8,2 °C 1,6 km/h (1 Bft)
08.04.2017 22:24 8,0 °C 8,2 °C 84 % 1022,7 hPa 0,0 mm 0,9 km/h (0 Bft) S-SO 153 ° 0 min 0,000 mm 0,0 UV-I 0 W/m² 5,5 °C 8,0 °C 3,2 km/h (1 Bft)
08.04.2017 22:25 7,9 °C 8,0 °C 85 % 1022,7 hPa 0,0 mm 1,6 km/h (1 Bft) S-SO 153 ° 0 min 0,000 mm 0,0 UV-I 0 W/m² 5,5 °C 7,9 °C 3,2 km/h (1 Bft)
08.04.2017 22:26 7,9 °C 7,9 °C 85 % 1022,7 hPa 0,0 mm 0,9 km/h (0 Bft) S-SO 153 ° 0 min 0,000 mm 0,0 UV-I 0 W/m² 5,5 °C 7,9 °C 3,2 km/h (1 Bft)
08.04.2017 22:27 8,0 °C 8,0 °C 85 % 1022,7 hPa 0,0 mm 0,1 km/h (0 Bft) S-SO 153 ° 0 min 0,000 mm 0,0 UV-I 0 W/m² 5,6 °C 8,0 °C 1,6 km/h (1 Bft)
08.04.2017 22:28 8,1 °C 8,1 °C 85 % 1022,7 hPa 0,0 mm 0,6 km/h (0 Bft) S-SO 153 ° 0 min 0,000 mm 0,0 UV-I 0 W/m² 5,7 °C 8,1 °C 3,2 km/h (1 Bft)
08.04.2017 22:29 8,1 °C 8,1 °C 85 % 1022,7 hPa 0,0 mm 0,9 km/h (0 Bft) S-SO 153 ° 0 min 0,000 mm 0,0 UV-I 0 W/m² 5,7 °C 8,1 °C 1,6 km/h (1 Bft)
08.04.2017 22:30 8,1 °C 8,1 °C 85 % 1022,7 hPa 0,0 mm 0,9 km/h (0 Bft) S-SO 153 ° 0 min 0,000 mm 0,0 UV-I 0 W/m² 5,7 °C 8,1 °C 1,6 km/h (1 Bft)
08.04.2017 22:31 8,2 °C 8,2 °C 85 % 1022,7 hPa 0,0 mm 0,9 km/h (0 Bft) S-SO 153 ° 0 min 0,000 mm 0,0 UV-I 0 W/m² 5,8 °C 8,2 °C 3,2 km/h (1 Bft)
08.04.2017 22:32 8,2 °C 8,2 °C 84 % 1022,8 hPa 0,0 mm 0,0 km/h (0 Bft) S-SO 153 ° 0 min 0,000 mm 0,0 UV-I 0 W/m² 5,7 °C 8,2 °C 0,0 km/h (0 Bft)
08.04.2017 22:33 8,2 °C 8,2 °C 84 % 1022,8 hPa 0,0 mm 0,0 km/h (0 Bft) S-SO 153 ° 0 min 0,000 mm 0,0 UV-I 0 W/m² 5,7 °C 8,2 °C 0,0 km/h (0 Bft)
08.04.2017 22:34 8,2 °C 8,2 °C 84 % 1022,8 hPa 0,0 mm 0,0 km/h (0 Bft) S-SO 153 ° 0 min 0,000 mm 0,0 UV-I 0 W/m² 5,7 °C 8,2 °C 0,0 km/h (0 Bft)
08.04.2017 22:35 8,0 °C 8,2 °C 84 % 1022,8 hPa 0,0 mm 0,0 km/h (0 Bft) S-SO 153 ° 0 min 0,000 mm 0,0 UV-I 0 W/m² 5,5 °C 8,0 °C 0,0 km/h (0 Bft)
08.04.2017 22:36 7,8 °C 8,0 °C 85 % 1022,8 hPa 0,0 mm 0,0 km/h (0 Bft) S-SO 153 ° 0 min 0,000 mm 0,0 UV-I 0 W/m² 5,4 °C 7,8 °C 0,0 km/h (0 Bft)
08.04.2017 22:37 7,7 °C 7,8 °C 85 % 1022,8 hPa 0,0 mm 0,0 km/h (0 Bft) S-SO 153 ° 0 min 0,000 mm 0,0 UV-I 0 W/m² 5,3 °C 7,7 °C 0,0 km/h (0 Bft)
08.04.2017 22:38 7,6 °C 7,7 °C 86 % 1022,8 hPa 0,0 mm 0,0 km/h (0 Bft) S-SO 153 ° 0 min 0,000 mm 0,0 UV-I 0 W/m² 5,4 °C 7,6 °C 0,0 km/h (0 Bft)
08.04.2017 22:39 7,6 °C 7,6 °C 86 % 1022,8 hPa 0,0 mm 0,1 km/h (0 Bft) S-SO 153 ° 0 min 0,000 mm 0,0 UV-I 0 W/m² 5,4 °C 7,6 °C 1,6 km/h (1 Bft)
08.04.2017 22:40 7,6 °C 7,6 °C 86 % 1022,7 hPa 0,0 mm 0,1 km/h (0 Bft) S-SO 153 ° 0 min 0,000 mm 0,0 UV-I 0 W/m² 5,4 °C 7,6 °C 1,6 km/h (1 Bft)
08.04.2017 22:41 7,7 °C 7,7 °C 86 % 1022,8 hPa 0,0 mm 0,7 km/h (0 Bft) S-SO 153 ° 0 min 0,000 mm 0,0 UV-I 0 W/m² 5,5 °C 7,7 °C 1,6 km/h (1 Bft)
08.04.2017 22:42 7,8 °C 7,8 °C 86 % 1022,8 hPa 0,0 mm 0,6 km/h (0 Bft) S-SO 153 ° 0 min 0,000 mm 0,0 UV-I 0 W/m² 5,6 °C 7,8 °C 1,6 km/h (1 Bft)
08.04.2017 22:43 7,9 °C 7,9 °C 85 % 1022,8 hPa 0,0 mm 1,0 km/h (0 Bft) S-SO 153 ° 0 min 0,000 mm 0,0 UV-I 0 W/m² 5,5 °C 7,9 °C 1,6 km/h (1 Bft)
08.04.2017 22:44 8,0 °C 8,0 °C 85 % 1022,8 hPa 0,0 mm 0,0 km/h (0 Bft) S-SO 153 ° 0 min 0,000 mm 0,0 UV-I 0 W/m² 5,6 °C 8,0 °C 0,0 km/h (0 Bft)
08.04.2017 22:45 8,1 °C 8,1 °C 85 % 1022,8 hPa 0,0 mm 0,5 km/h (0 Bft) S-SO 153 ° 0 min 0,000 mm 0,0 UV-I 0 W/m² 5,7 °C 8,1 °C 1,6 km/h (1 Bft)
08.04.2017 22:46 8,2 °C 8,2 °C 84 % 1022,8 hPa 0,0 mm 1,8 km/h (1 Bft) S-SO 153 ° 0 min 0,000 mm 0,0 UV-I 0 W/m² 5,7 °C 8,2 °C 3,2 km/h (1 Bft)
08.04.2017 22:47 8,3 °C 8,3 °C 84 % 1022,8 hPa 0,0 mm 0,8 km/h (0 Bft) S-SO 153 ° 0 min 0,000 mm 0,0 UV-I 0 W/m² 5,8 °C 8,3 °C 1,6 km/h (1 Bft)
08.04.2017 22:48 8,3 °C 8,3 °C 84 % 1022,7 hPa 0,0 mm 1,9 km/h (1 Bft) S-SO 153 ° 0 min 0,000 mm 0,0 UV-I 0 W/m² 5,8 °C 8,3 °C 3,2 km/h (1 Bft)
08.04.2017 22:49 8,3 °C 8,3 °C 84 % 1022,8 hPa 0,0 mm 1,0 km/h (0 Bft) S-SO 153 ° 0 min 0,000 mm 0,0 UV-I 0 W/m² 5,8 °C 8,3 °C 1,6 km/h (1 Bft)
08.04.2017 22:50 8,3 °C 8,3 °C 84 % 1022,8 hPa 0,0 mm 1,2 km/h (1 Bft) S-SO 153 ° 0 min 0,000 mm 0,0 UV-I 0 W/m² 5,8 °C 8,3 °C 3,2 km/h (1 Bft)
08.04.2017 22:51 8,4 °C 8,4 °C 84 % 1022,7 hPa 0,0 mm 0,5 km/h (0 Bft) S-SO 153 ° 0 min 0,000 mm 0,0 UV-I 0 W/m² 5,9 °C 8,4 °C 1,6 km/h (1 Bft)
08.04.2017 22:52 8,4 °C 8,4 °C 83 % 1022,8 hPa 0,0 mm 0,7 km/h (0 Bft) S-SO 153 ° 0 min 0,000 mm 0,0 UV-I 0 W/m² 5,7 °C 8,4 °C 1,6 km/h (1 Bft)
08.04.2017 22:53 8,4 °C 8,4 °C 83 % 1022,8 hPa 0,0 mm 0,1 km/h (0 Bft) S-SO 153 ° 0 min 0,000 mm 0,0 UV-I 0 W/m² 5,7 °C 8,4 °C 1,6 km/h (1 Bft)
08.04.2017 22:54 8,4 °C 8,4 °C 83 % 1022,7 hPa 0,0 mm 0,9 km/h (0 Bft) S-SO 153 ° 0 min 0,000 mm 0,0 UV-I 0 W/m² 5,7 °C 8,4 °C 1,6 km/h (1 Bft)
08.04.2017 22:55 8,4 °C 8,4 °C 83 % 1022,8 hPa 0,0 mm 0,7 km/h (0 Bft) S-SO 153 ° 0 min 0,000 mm 0,0 UV-I 0 W/m² 5,7 °C 8,4 °C 1,6 km/h (1 Bft)
08.04.2017 22:56 8,3 °C 8,4 °C 83 % 1022,8 hPa 0,0 mm 0,0 km/h (0 Bft) S-SO 153 ° 0 min 0,000 mm 0,0 UV-I 0 W/m² 5,6 °C 8,3 °C 0,0 km/h (0 Bft)
08.04.2017 22:57 8,3 °C 8,3 °C 83 % 1022,7 hPa 0,0 mm 0,3 km/h (0 Bft) S-SO 153 ° 0 min 0,000 mm 0,0 UV-I 0 W/m² 5,6 °C 8,3 °C 1,6 km/h (1 Bft)
08.04.2017 22:58 8,2 °C 8,3 °C 83 % 1022,7 hPa 0,0 mm 0,0 km/h (0 Bft) S-SO 153 ° 0 min 0,000 mm 0,0 UV-I 0 W/m² 5,5 °C 8,2 °C 0,0 km/h (0 Bft)
08.04.2017 22:59 8,1 °C 8,2 °C 83 % 1022,7 hPa 0,0 mm 0,0 km/h (0 Bft) S-SO 153 ° 0 min 0,000 mm 0,0 UV-I 0 W/m² 5,4 °C 8,1 °C 0,0 km/h (0 Bft)
08.04.2017 23:00 8,0 °C 8,1 °C 84 % 1022,7 hPa 0,0 mm 0,0 km/h (0 Bft) S-SO 153 ° 0 min 0,000 mm 0,0 UV-I 0 W/m² 5,5 °C 8,0 °C 0,0 km/h (0 Bft)
08.04.2017 23:01 7,8 °C 8,0 °C 84 % 1022,7 hPa 0,0 mm 0,0 km/h (0 Bft) S-SO 153 ° 0 min 0,000 mm 0,0 UV-I 0 W/m² 5,3 °C 7,8 °C 0,0 km/h (0 Bft)
08.04.2017 23:02 7,8 °C 7,8 °C 84 % 1022,7 hPa 0,0 mm 0,0 km/h (0 Bft) S-SO 153 ° 0 min 0,000 mm 0,0 UV-I 0 W/m² 5,3 °C 7,8 °C 0,0 km/h (0 Bft)
08.04.2017 23:03 7,6 °C 7,8 °C 85 % 1022,7 hPa 0,0 mm 0,0 km/h (0 Bft) S-SO 153 ° 0 min 0,000 mm 0,0 UV-I 0 W/m² 5,2 °C 7,6 °C 0,0 km/h (0 Bft)
08.04.2017 23:04 7,5 °C 7,6 °C 85 % 1022,7 hPa 0,0 mm 0,0 km/h (0 Bft) S-SO 153 ° 0 min 0,000 mm 0,0 UV-I 0 W/m² 5,1 °C 7,5 °C 0,0 km/h (0 Bft)
08.04.2017 23:05 7,4 °C 7,5 °C 86 % 1022,7 hPa 0,0 mm 0,0 km/h (0 Bft) S-SO 153 ° 0 min 0,000 mm 0,0 UV-I 0 W/m² 5,2 °C 7,4 °C 0,0 km/h (0 Bft)
08.04.2017 23:06 7,3 °C 7,4 °C 86 % 1022,6 hPa 0,0 mm 0,0 km/h (0 Bft) S-SO 153 ° 0 min 0,000 mm 0,0 UV-I 0 W/m² 5,1 °C 7,3 °C 0,0 km/h (0 Bft)
08.04.2017 23:07 7,3 °C 7,3 °C 86 % 1022,7 hPa 0,0 mm 0,0 km/h (0 Bft) S-SO 153 ° 0 min 0,000 mm 0,0 UV-I 0 W/m² 5,1 °C 7,3 °C 0,0 km/h (0 Bft)
08.04.2017 23:08 7,2 °C 7,3 °C 86 % 1022,7 hPa 0,0 mm 0,0 km/h (0 Bft) S-SO 153 ° 0 min 0,000 mm 0,0 UV-I 0 W/m² 5,0 °C 7,2 °C 0,0 km/h (0 Bft)
08.04.2017 23:09 7,2 °C 7,2 °C 87 % 1022,7 hPa 0,0 mm 0,0 km/h (0 Bft) S-SO 153 ° 0 min 0,000 mm 0,0 UV-I 0 W/m² 5,2 °C 7,2 °C 0,0 km/h (0 Bft)
08.04.2017 23:10 7,1 °C 7,2 °C 87 % 1022,7 hPa 0,0 mm 0,0 km/h (0 Bft) S-SO 153 ° 0 min 0,000 mm 0,0 UV-I 0 W/m² 5,1 °C 7,1 °C 0,0 km/h (0 Bft)
08.04.2017 23:11 7,0 °C 7,1 °C 87 % 1022,7 hPa 0,0 mm 0,0 km/h (0 Bft) S-SO 153 ° 0 min 0,000 mm 0,0 UV-I 0 W/m² 5,0 °C 7,0 °C 0,0 km/h (0 Bft)
08.04.2017 23:12 6,9 °C 7,0 °C 87 % 1022,6 hPa 0,0 mm 0,0 km/h (0 Bft) S-SO 153 ° 0 min 0,000 mm 0,0 UV-I 0 W/m² 4,9 °C 6,9 °C 0,0 km/h (0 Bft)
08.04.2017 23:13 6,9 °C 6,9 °C 88 % 1022,6 hPa 0,0 mm 0,0 km/h (0 Bft) S-SO 153 ° 0 min 0,000 mm 0,0 UV-I 0 W/m² 5,1 °C 6,9 °C 0,0 km/h (0 Bft)
08.04.2017 23:14 6,9 °C 6,9 °C 88 % 1022,6 hPa 0,0 mm 0,0 km/h (0 Bft) S-SO 153 ° 0 min 0,000 mm 0,0 UV-I 0 W/m² 5,1 °C 6,9 °C 0,0 km/h (0 Bft)
08.04.2017 23:15 6,9 °C 6,9 °C 88 % 1022,6 hPa 0,0 mm 0,0 km/h (0 Bft) S-SO 153 ° 0 min 0,000 mm 0,0 UV-I 0 W/m² 5,1 °C 6,9 °C 0,0 km/h (0 Bft)
08.04.2017 23:16 6,9 °C 6,9 °C 88 % 1022,6 hPa 0,0 mm 0,0 km/h (0 Bft) S-SO 153 ° 0 min 0,000 mm 0,0 UV-I 0 W/m² 5,1 °C 6,9 °C 0,0 km/h (0 Bft)
08.04.2017 23:17 6,9 °C 6,9 °C 88 % 1022,6 hPa 0,0 mm 0,0 km/h (0 Bft) S-SO 153 ° 0 min 0,000 mm 0,0 UV-I 0 W/m² 5,1 °C 6,9 °C 0,0 km/h (0 Bft)
08.04.2017 23:18 6,9 °C 6,9 °C 88 % 1022,6 hPa 0,0 mm 0,0 km/h (0 Bft) S-SO 153 ° 0 min 0,000 mm 0,0 UV-I 0 W/m² 5,1 °C 6,9 °C 0,0 km/h (0 Bft)
08.04.2017 23:19 6,9 °C 6,9 °C 88 % 1022,6 hPa 0,0 mm 0,0 km/h (0 Bft) S-SO 153 ° 0 min 0,000 mm 0,0 UV-I 0 W/m² 5,1 °C 6,9 °C 0,0 km/h (0 Bft)
08.04.2017 23:20 7,1 °C 7,1 °C 88 % 1022,6 hPa 0,0 mm 0,0 km/h (0 Bft) S-SO 153 ° 0 min 0,000 mm 0,0 UV-I 0 W/m² 5,2 °C 7,1 °C 0,0 km/h (0 Bft)
08.04.2017 23:21 7,1 °C 7,1 °C 88 % 1022,6 hPa 0,0 mm 0,0 km/h (0 Bft) S-SO 153 ° 0 min 0,000 mm 0,0 UV-I 0 W/m² 5,2 °C 7,1 °C 0,0 km/h (0 Bft)
08.04.2017 23:22 7,0 °C 7,1 °C 88 % 1022,6 hPa 0,0 mm 0,0 km/h (0 Bft) S-SO 153 ° 0 min 0,000 mm 0,0 UV-I 0 W/m² 5,2 °C 7,0 °C 0,0 km/h (0 Bft)
08.04.2017 23:23 6,9 °C 7,0 °C 88 % 1022,6 hPa 0,0 mm 0,0 km/h (0 Bft) S-SO 153 ° 0 min 0,000 mm 0,0 UV-I 0 W/m² 5,1 °C 6,9 °C 0,0 km/h (0 Bft)
08.04.2017 23:24 6,9 °C 7,0 °C 88 % 1022,6 hPa 0,0 mm 0,0 km/h (0 Bft) S-SO 153 ° 0 min 0,000 mm 0,0 UV-I 0 W/m² 5,1 °C 6,9 °C 0,0 km/h (0 Bft)
08.04.2017 23:25 6,9 °C 6,9 °C 87 % 1022,6 hPa 0,0 mm 0,0 km/h (0 Bft) S-SO 153 ° 0 min 0,000 mm 0,0 UV-I 0 W/m² 4,9 °C 6,9 °C 0,0 km/h (0 Bft)
08.04.2017 23:26 6,8 °C 6,9 °C 88 % 1022,6 hPa 0,0 mm 0,0 km/h (0 Bft) S-SO 153 ° 0 min 0,000 mm 0,0 UV-I 0 W/m² 5,0 °C 6,8 °C 0,0 km/h (0 Bft)
08.04.2017 23:27 6,7 °C 6,8 °C 88 % 1022,6 hPa 0,0 mm 0,0 km/h (0 Bft) S-SO 153 ° 0 min 0,000 mm 0,0 UV-I 0 W/m² 4,9 °C 6,7 °C 0,0 km/h (0 Bft)
08.04.2017 23:28 6,7 °C 6,8 °C 88 % 1022,6 hPa 0,0 mm 0,0 km/h (0 Bft) S-SO 153 ° 0 min 0,000 mm 0,0 UV-I 0 W/m² 4,9 °C 6,7 °C 0,0 km/h (0 Bft)
08.04.2017 23:29 6,7 °C 6,7 °C 89 % 1022,6 hPa 0,0 mm 0,0 km/h (0 Bft) S-SO 153 ° 0 min 0,000 mm 0,0 UV-I 0 W/m² 5,0 °C 6,7 °C 0,0 km/h (0 Bft)
08.04.2017 23:30 6,6 °C 6,7 °C 89 % 1022,6 hPa 0,0 mm 0,0 km/h (0 Bft) S-SO 153 ° 0 min 0,000 mm 0,0 UV-I 0 W/m² 4,9 °C 6,6 °C 0,0 km/h (0 Bft)
08.04.2017 23:31 6,6 °C 6,6 °C 89 % 1022,6 hPa 0,0 mm 0,0 km/h (0 Bft) S-SO 153 ° 0 min 0,000 mm 0,0 UV-I 0 W/m² 4,9 °C 6,6 °C 0,0 km/h (0 Bft)
08.04.2017 23:32 6,6 °C 6,6 °C 89 % 1022,6 hPa 0,0 mm 0,0 km/h (0 Bft) S-SO 153 ° 0 min 0,000 mm 0,0 UV-I 0 W/m² 4,9 °C 6,6 °C 0,0 km/h (0 Bft)
08.04.2017 23:33 6,5 °C 6,6 °C 89 % 1022,7 hPa 0,0 mm 0,0 km/h (0 Bft) S-SO 153 ° 0 min 0,000 mm 0,0 UV-I 0 W/m² 4,8 °C 6,5 °C 0,0 km/h (0 Bft)
08.04.2017 23:34 6,5 °C 6,5 °C 89 % 1022,7 hPa 0,0 mm 0,0 km/h (0 Bft) S-SO 153 ° 0 min 0,000 mm 0,0 UV-I 0 W/m² 4,8 °C 6,5 °C 0,0 km/h (0 Bft)
08.04.2017 23:35 6,5 °C 6,5 °C 89 % 1022,7 hPa 0,0 mm 0,0 km/h (0 Bft) S-SO 153 ° 0 min 0,000 mm 0,0 UV-I 0 W/m² 4,8 °C 6,5 °C 0,0 km/h (0 Bft)
08.04.2017 23:36 6,5 °C 6,6 °C 89 % 1022,7 hPa 0,0 mm 0,0 km/h (0 Bft) S-SO 153 ° 0 min 0,000 mm 0,0 UV-I 0 W/m² 4,8 °C 6,5 °C 0,0 km/h (0 Bft)
08.04.2017 23:37 6,5 °C 6,6 °C 89 % 1022,7 hPa 0,0 mm 0,0 km/h (0 Bft) S-SO 153 ° 0 min 0,000 mm 0,0 UV-I 0 W/m² 4,8 °C 6,5 °C 0,0 km/h (0 Bft)
08.04.2017 23:38 6,5 °C 6,5 °C 89 % 1022,8 hPa 0,0 mm 0,0 km/h (0 Bft) S-SO 153 ° 0 min 0,000 mm 0,0 UV-I 0 W/m² 4,8 °C 6,5 °C 0,0 km/h (0 Bft)
08.04.2017 23:39 6,5 °C 6,5 °C 89 % 1022,7 hPa 0,0 mm 0,0 km/h (0 Bft) S-SO 153 ° 0 min 0,000 mm 0,0 UV-I 0 W/m² 4,8 °C 6,5 °C 0,0 km/h (0 Bft)
08.04.2017 23:40 6,5 °C 6,5 °C 89 % 1022,8 hPa 0,0 mm 0,0 km/h (0 Bft) S-SO 153 ° 0 min 0,000 mm 0,0 UV-I 0 W/m² 4,8 °C 6,5 °C 0,0 km/h (0 Bft)
08.04.2017 23:41 6,4 °C 6,5 °C 89 % 1022,7 hPa 0,0 mm 0,0 km/h (0 Bft) S-SO 153 ° 0 min 0,000 mm 0,0 UV-I 0 W/m² 4,7 °C 6,4 °C 0,0 km/h (0 Bft)
08.04.2017 23:42 6,4 °C 6,4 °C 89 % 1022,8 hPa 0,0 mm 0,0 km/h (0 Bft) S-SO 153 ° 0 min 0,000 mm 0,0 UV-I 0 W/m² 4,7 °C 6,4 °C 0,0 km/h (0 Bft)
08.04.2017 23:43 6,4 °C 6,4 °C 89 % 1022,7 hPa 0,0 mm 0,0 km/h (0 Bft) S-SO 153 ° 0 min 0,000 mm 0,0 UV-I 0 W/m² 4,7 °C 6,4 °C 0,0 km/h (0 Bft)
08.04.2017 23:44 6,4 °C 6,4 °C 89 % 1022,7 hPa 0,0 mm 0,0 km/h (0 Bft) S-SO 153 ° 0 min 0,000 mm 0,0 UV-I 0 W/m² 4,7 °C 6,4 °C 0,0 km/h (0 Bft)
08.04.2017 23:45 6,4 °C 6,4 °C 89 % 1022,7 hPa 0,0 mm 0,0 km/h (0 Bft) S-SO 153 ° 0 min 0,000 mm 0,0 UV-I 0 W/m² 4,7 °C 6,4 °C 0,0 km/h (0 Bft)
08.04.2017 23:46 6,3 °C 6,4 °C 89 % 1022,7 hPa 0,0 mm 0,0 km/h (0 Bft) S-SO 153 ° 0 min 0,000 mm 0,0 UV-I 0 W/m² 4,6 °C 6,3 °C 0,0 km/h (0 Bft)
08.04.2017 23:47 6,3 °C 6,3 °C 90 % 1022,7 hPa 0,0 mm 0,0 km/h (0 Bft) S-SO 153 ° 0 min 0,000 mm 0,0 UV-I 0 W/m² 4,8 °C 6,3 °C 0,0 km/h (0 Bft)
08.04.2017 23:48 6,3 °C 6,3 °C 90 % 1022,7 hPa 0,0 mm 0,0 km/h (0 Bft) S-SO 153 ° 0 min 0,000 mm 0,0 UV-I 0 W/m² 4,8 °C 6,3 °C 0,0 km/h (0 Bft)
_ Min-Zeit 07:10 07:10 16:55 18:08 - 23:48 - - - - - - 07:07 07:10 23:48
Minimum _ -0,1 °C -0,1 °C 53 % 1021,1 hPa - 0,0 km/h (0 Bft) - - - - - - -1,0 °C -0,1 °C 0,0 km/h (0 Bft)
_ Max-Zeit 17:00 17:02 07:38 00:00 23:48 13:00 - - 15:50 13:38 13:48 13:04 17:48 17:00 14:12
Maximum _ 16,3 °C 16,3 °C 95 % 1024,6 hPa 0,0 mm 10,3 km/h
O-NO (2 Bft)
- - 5 min 0,407 mm 5,3 UV-I 766 W/m² 8,1 °C 16,3 °C 16,1 km/h
N-NO (3 Bft)
Durchschnitt _ 9,8 °C 9,8 °C 73 % 1022,7 hPa #0,0 mm 2,1 km/h (1 Bft) NO - #8:44 h #2,972 mm 3,2 UV-I 257 W/m² 4,7 °C 9,8 °C 3,6 km/h (1 Bft)